<?xml version="1.0" encoding="UTF-8" standalone="no" ?>
<gpx xmlns="http://www.topografix.com/GPX/1/1" xmlns:xsi="http://www.w3.org/2001/XMLSchema-instance" xsi:schemaLocation="http://www.topografix.com/GPX/1/1 http://www.topografix.com/GPX/1/1/gpx.xsd" version="1.1" creator="VisuGPX - https://www.visugpx.com">
  <metadata>
    <name>2020-07-12 19:24:15</name>
  </metadata>
  <trk>
    <name><![CDATA[2020-07-12 19:24:15]]></name>
    <trkseg>
      <trkpt lat="46.00578" lon="4.36594">
        <ele>407.26</ele>
        <time>2020-07-12T07:00:57Z</time>
      </trkpt>
      <trkpt lat="46.00579" lon="4.36593">
        <ele>405.81</ele>
        <time>2020-07-12T07:01:07Z</time>
      </trkpt>
      <trkpt lat="46.00579" lon="4.36593">
        <ele>407.26</ele>
        <time>2020-07-12T07:01:09Z</time>
      </trkpt>
      <trkpt lat="46.00576" lon="4.36594">
        <ele>407.74</ele>
        <time>2020-07-12T07:01:32Z</time>
      </trkpt>
      <trkpt lat="46.00575" lon="4.36595">
        <ele>406.77</ele>
        <time>2020-07-12T07:01:55Z</time>
      </trkpt>
      <trkpt lat="46.00576" lon="4.36596">
        <ele>407.26</ele>
        <time>2020-07-12T07:02:17Z</time>
      </trkpt>
      <trkpt lat="46.0058" lon="4.36595">
        <ele>447.63</ele>
        <time>2020-07-12T07:02:35Z</time>
      </trkpt>
      <trkpt lat="46.00581" lon="4.36597">
        <ele>444.75</ele>
        <time>2020-07-12T07:02:40Z</time>
      </trkpt>
      <trkpt lat="46.00584" lon="4.36596">
        <ele>444.75</ele>
        <time>2020-07-12T07:02:53Z</time>
      </trkpt>
      <trkpt lat="46.00581" lon="4.36594">
        <ele>444.75</ele>
        <time>2020-07-12T07:03:16Z</time>
      </trkpt>
      <trkpt lat="46.00582" lon="4.36596">
        <ele>444.75</ele>
        <time>2020-07-12T07:03:32Z</time>
      </trkpt>
      <trkpt lat="46.00582" lon="4.36595">
        <ele>444.75</ele>
        <time>2020-07-12T07:03:47Z</time>
      </trkpt>
      <trkpt lat="46.00583" lon="4.36594">
        <ele>445.23</ele>
        <time>2020-07-12T07:04:07Z</time>
      </trkpt>
      <trkpt lat="46.00584" lon="4.36596">
        <ele>445.23</ele>
        <time>2020-07-12T07:04:23Z</time>
      </trkpt>
      <trkpt lat="46.00587" lon="4.36598">
        <ele>445.23</ele>
        <time>2020-07-12T07:04:38Z</time>
      </trkpt>
      <trkpt lat="46.0058" lon="4.36596">
        <ele>445.23</ele>
        <time>2020-07-12T07:04:54Z</time>
      </trkpt>
      <trkpt lat="46.00578" lon="4.36596">
        <ele>443.79</ele>
        <time>2020-07-12T07:05:02Z</time>
      </trkpt>
      <trkpt lat="46.0058" lon="4.36598">
        <ele>443.79</ele>
        <time>2020-07-12T07:05:16Z</time>
      </trkpt>
      <trkpt lat="46.0058" lon="4.366">
        <ele>443.79</ele>
        <time>2020-07-12T07:05:32Z</time>
      </trkpt>
      <trkpt lat="46.0058" lon="4.36599">
        <ele>443.79</ele>
        <time>2020-07-12T07:05:56Z</time>
      </trkpt>
      <trkpt lat="46.0058" lon="4.36599">
        <ele>443.79</ele>
        <time>2020-07-12T07:06:24Z</time>
      </trkpt>
      <trkpt lat="46.00582" lon="4.36599">
        <ele>443.79</ele>
        <time>2020-07-12T07:06:48Z</time>
      </trkpt>
      <trkpt lat="46.00583" lon="4.36594">
        <ele>443.79</ele>
        <time>2020-07-12T07:07:06Z</time>
      </trkpt>
      <trkpt lat="46.00585" lon="4.36593">
        <ele>443.79</ele>
        <time>2020-07-12T07:07:33Z</time>
      </trkpt>
      <trkpt lat="46.00581" lon="4.3659">
        <ele>443.79</ele>
        <time>2020-07-12T07:07:59Z</time>
      </trkpt>
      <trkpt lat="46.00583" lon="4.36594">
        <ele>443.79</ele>
        <time>2020-07-12T07:08:17Z</time>
      </trkpt>
      <trkpt lat="46.0058" lon="4.36591">
        <ele>443.79</ele>
        <time>2020-07-12T07:08:41Z</time>
      </trkpt>
      <trkpt lat="46.00581" lon="4.36592">
        <ele>443.79</ele>
        <time>2020-07-12T07:09:05Z</time>
      </trkpt>
      <trkpt lat="46.00581" lon="4.36594">
        <ele>443.79</ele>
        <time>2020-07-12T07:09:30Z</time>
      </trkpt>
      <trkpt lat="46.00582" lon="4.36594">
        <ele>443.79</ele>
        <time>2020-07-12T07:09:51Z</time>
      </trkpt>
      <trkpt lat="46.00583" lon="4.36597">
        <ele>443.79</ele>
        <time>2020-07-12T07:10:13Z</time>
      </trkpt>
      <trkpt lat="46.00581" lon="4.36601">
        <ele>443.79</ele>
        <time>2020-07-12T07:10:33Z</time>
      </trkpt>
      <trkpt lat="46.0058" lon="4.36595">
        <ele>444.27</ele>
        <time>2020-07-12T07:11:08Z</time>
      </trkpt>
      <trkpt lat="46.00579" lon="4.36589">
        <ele>444.27</ele>
        <time>2020-07-12T07:11:30Z</time>
      </trkpt>
      <trkpt lat="46.00582" lon="4.36598">
        <ele>444.27</ele>
        <time>2020-07-12T07:11:51Z</time>
      </trkpt>
      <trkpt lat="46.00579" lon="4.36596">
        <ele>444.27</ele>
        <time>2020-07-12T07:12:13Z</time>
      </trkpt>
      <trkpt lat="46.00579" lon="4.36596">
        <ele>444.27</ele>
        <time>2020-07-12T07:12:35Z</time>
      </trkpt>
      <trkpt lat="46.00578" lon="4.366">
        <ele>444.27</ele>
        <time>2020-07-12T07:12:57Z</time>
      </trkpt>
      <trkpt lat="46.00578" lon="4.36603">
        <ele>444.27</ele>
        <time>2020-07-12T07:13:19Z</time>
      </trkpt>
      <trkpt lat="46.00578" lon="4.36606">
        <ele>443.79</ele>
        <time>2020-07-12T07:13:44Z</time>
      </trkpt>
      <trkpt lat="46.00575" lon="4.36606">
        <ele>443.79</ele>
        <time>2020-07-12T07:14:09Z</time>
      </trkpt>
      <trkpt lat="46.00577" lon="4.36609">
        <ele>443.79</ele>
        <time>2020-07-12T07:14:29Z</time>
      </trkpt>
      <trkpt lat="46.00576" lon="4.36606">
        <ele>443.79</ele>
        <time>2020-07-12T07:14:50Z</time>
      </trkpt>
      <trkpt lat="46.00577" lon="4.36608">
        <ele>443.79</ele>
        <time>2020-07-12T07:15:18Z</time>
      </trkpt>
      <trkpt lat="46.00572" lon="4.36608">
        <ele>443.79</ele>
        <time>2020-07-12T07:15:36Z</time>
      </trkpt>
      <trkpt lat="46.00569" lon="4.36611">
        <ele>443.79</ele>
        <time>2020-07-12T07:15:47Z</time>
      </trkpt>
      <trkpt lat="46.00563" lon="4.36614">
        <ele>443.79</ele>
        <time>2020-07-12T07:15:58Z</time>
      </trkpt>
      <trkpt lat="46.00558" lon="4.36615">
        <ele>443.79</ele>
        <time>2020-07-12T07:16:12Z</time>
      </trkpt>
      <trkpt lat="46.00552" lon="4.36611">
        <ele>443.79</ele>
        <time>2020-07-12T07:16:22Z</time>
      </trkpt>
      <trkpt lat="46.00546" lon="4.36608">
        <ele>443.79</ele>
        <time>2020-07-12T07:16:30Z</time>
      </trkpt>
      <trkpt lat="46.00544" lon="4.36606">
        <ele>443.79</ele>
        <time>2020-07-12T07:16:32Z</time>
      </trkpt>
      <trkpt lat="46.00542" lon="4.36602">
        <ele>443.79</ele>
        <time>2020-07-12T07:16:37Z</time>
      </trkpt>
      <trkpt lat="46.00536" lon="4.36599">
        <ele>443.79</ele>
        <time>2020-07-12T07:16:45Z</time>
      </trkpt>
      <trkpt lat="46.00534" lon="4.36599">
        <ele>443.79</ele>
        <time>2020-07-12T07:16:47Z</time>
      </trkpt>
      <trkpt lat="46.00531" lon="4.36598">
        <ele>443.79</ele>
        <time>2020-07-12T07:16:52Z</time>
      </trkpt>
      <trkpt lat="46.00521" lon="4.36599">
        <ele>443.31</ele>
        <time>2020-07-12T07:17:04Z</time>
      </trkpt>
      <trkpt lat="46.00514" lon="4.36597">
        <ele>443.31</ele>
        <time>2020-07-12T07:17:14Z</time>
      </trkpt>
      <trkpt lat="46.00507" lon="4.36594">
        <ele>443.31</ele>
        <time>2020-07-12T07:17:25Z</time>
      </trkpt>
      <trkpt lat="46.005" lon="4.36593">
        <ele>443.31</ele>
        <time>2020-07-12T07:17:37Z</time>
      </trkpt>
      <trkpt lat="46.00495" lon="4.36587">
        <ele>443.31</ele>
        <time>2020-07-12T07:17:50Z</time>
      </trkpt>
      <trkpt lat="46.00494" lon="4.36583">
        <ele>443.31</ele>
        <time>2020-07-12T07:18:13Z</time>
      </trkpt>
      <trkpt lat="46.00493" lon="4.36581">
        <ele>443.31</ele>
        <time>2020-07-12T07:18:15Z</time>
      </trkpt>
      <trkpt lat="46.0049" lon="4.36579">
        <ele>443.31</ele>
        <time>2020-07-12T07:18:19Z</time>
      </trkpt>
      <trkpt lat="46.00488" lon="4.36578">
        <ele>443.31</ele>
        <time>2020-07-12T07:18:21Z</time>
      </trkpt>
      <trkpt lat="46.00475" lon="4.36568">
        <ele>443.31</ele>
        <time>2020-07-12T07:18:35Z</time>
      </trkpt>
      <trkpt lat="46.00463" lon="4.36558">
        <ele>443.31</ele>
        <time>2020-07-12T07:18:48Z</time>
      </trkpt>
      <trkpt lat="46.00451" lon="4.36541">
        <ele>443.31</ele>
        <time>2020-07-12T07:19:02Z</time>
      </trkpt>
      <trkpt lat="46.00441" lon="4.36528">
        <ele>443.31</ele>
        <time>2020-07-12T07:19:16Z</time>
      </trkpt>
      <trkpt lat="46.00432" lon="4.3652">
        <ele>443.31</ele>
        <time>2020-07-12T07:19:28Z</time>
      </trkpt>
      <trkpt lat="46.00418" lon="4.36513">
        <ele>443.31</ele>
        <time>2020-07-12T07:19:43Z</time>
      </trkpt>
      <trkpt lat="46.00409" lon="4.36507">
        <ele>443.31</ele>
        <time>2020-07-12T07:19:52Z</time>
      </trkpt>
      <trkpt lat="46.00404" lon="4.36503">
        <ele>443.31</ele>
        <time>2020-07-12T07:19:57Z</time>
      </trkpt>
      <trkpt lat="46.00391" lon="4.36498">
        <ele>443.31</ele>
        <time>2020-07-12T07:20:11Z</time>
      </trkpt>
      <trkpt lat="46.00374" lon="4.36492">
        <ele>443.31</ele>
        <time>2020-07-12T07:20:26Z</time>
      </trkpt>
      <trkpt lat="46.00371" lon="4.36492">
        <ele>443.31</ele>
        <time>2020-07-12T07:20:29Z</time>
      </trkpt>
      <trkpt lat="46.0036" lon="4.36484">
        <ele>443.31</ele>
        <time>2020-07-12T07:20:41Z</time>
      </trkpt>
      <trkpt lat="46.00349" lon="4.3645">
        <ele>443.31</ele>
        <time>2020-07-12T07:20:59Z</time>
      </trkpt>
      <trkpt lat="46.00346" lon="4.36441">
        <ele>443.31</ele>
        <time>2020-07-12T07:21:06Z</time>
      </trkpt>
      <trkpt lat="46.00336" lon="4.36421">
        <ele>442.82</ele>
        <time>2020-07-12T07:21:22Z</time>
      </trkpt>
      <trkpt lat="46.00333" lon="4.36403">
        <ele>442.34</ele>
        <time>2020-07-12T07:21:36Z</time>
      </trkpt>
      <trkpt lat="46.00334" lon="4.36397">
        <ele>442.34</ele>
        <time>2020-07-12T07:21:40Z</time>
      </trkpt>
      <trkpt lat="46.0034" lon="4.36367">
        <ele>442.34</ele>
        <time>2020-07-12T07:21:55Z</time>
      </trkpt>
      <trkpt lat="46.00342" lon="4.3636">
        <ele>442.34</ele>
        <time>2020-07-12T07:22:00Z</time>
      </trkpt>
      <trkpt lat="46.00347" lon="4.3634">
        <ele>442.34</ele>
        <time>2020-07-12T07:22:14Z</time>
      </trkpt>
      <trkpt lat="46.0035" lon="4.3633">
        <ele>442.34</ele>
        <time>2020-07-12T07:22:21Z</time>
      </trkpt>
      <trkpt lat="46.00355" lon="4.36306">
        <ele>442.34</ele>
        <time>2020-07-12T07:22:37Z</time>
      </trkpt>
      <trkpt lat="46.0036" lon="4.36283">
        <ele>442.34</ele>
        <time>2020-07-12T07:22:52Z</time>
      </trkpt>
      <trkpt lat="46.00364" lon="4.36266">
        <ele>442.34</ele>
        <time>2020-07-12T07:23:03Z</time>
      </trkpt>
      <trkpt lat="46.00366" lon="4.36257">
        <ele>442.34</ele>
        <time>2020-07-12T07:23:20Z</time>
      </trkpt>
      <trkpt lat="46.00368" lon="4.36243">
        <ele>442.34</ele>
        <time>2020-07-12T07:23:33Z</time>
      </trkpt>
      <trkpt lat="46.00372" lon="4.36229">
        <ele>442.34</ele>
        <time>2020-07-12T07:23:44Z</time>
      </trkpt>
      <trkpt lat="46.00377" lon="4.36207">
        <ele>442.34</ele>
        <time>2020-07-12T07:23:59Z</time>
      </trkpt>
      <trkpt lat="46.00382" lon="4.36186">
        <ele>442.34</ele>
        <time>2020-07-12T07:24:13Z</time>
      </trkpt>
      <trkpt lat="46.00385" lon="4.36166">
        <ele>442.34</ele>
        <time>2020-07-12T07:24:27Z</time>
      </trkpt>
      <trkpt lat="46.0039" lon="4.36147">
        <ele>442.34</ele>
        <time>2020-07-12T07:24:41Z</time>
      </trkpt>
      <trkpt lat="46.00391" lon="4.36138">
        <ele>442.34</ele>
        <time>2020-07-12T07:24:56Z</time>
      </trkpt>
      <trkpt lat="46.00393" lon="4.36129">
        <ele>442.34</ele>
        <time>2020-07-12T07:25:09Z</time>
      </trkpt>
      <trkpt lat="46.00396" lon="4.36124">
        <ele>442.34</ele>
        <time>2020-07-12T07:25:20Z</time>
      </trkpt>
      <trkpt lat="46.00398" lon="4.36122">
        <ele>442.34</ele>
        <time>2020-07-12T07:25:34Z</time>
      </trkpt>
      <trkpt lat="46.004" lon="4.36123">
        <ele>442.34</ele>
        <time>2020-07-12T07:25:37Z</time>
      </trkpt>
      <trkpt lat="46.00411" lon="4.36126">
        <ele>442.34</ele>
        <time>2020-07-12T07:25:52Z</time>
      </trkpt>
      <trkpt lat="46.0042" lon="4.3613">
        <ele>442.34</ele>
        <time>2020-07-12T07:26:03Z</time>
      </trkpt>
      <trkpt lat="46.00429" lon="4.36139">
        <ele>442.34</ele>
        <time>2020-07-12T07:26:14Z</time>
      </trkpt>
      <trkpt lat="46.00439" lon="4.36146">
        <ele>442.34</ele>
        <time>2020-07-12T07:26:30Z</time>
      </trkpt>
      <trkpt lat="46.00441" lon="4.36145">
        <ele>442.34</ele>
        <time>2020-07-12T07:26:49Z</time>
      </trkpt>
      <trkpt lat="46.00443" lon="4.36145">
        <ele>442.34</ele>
        <time>2020-07-12T07:26:53Z</time>
      </trkpt>
      <trkpt lat="46.00447" lon="4.36146">
        <ele>442.34</ele>
        <time>2020-07-12T07:26:57Z</time>
      </trkpt>
      <trkpt lat="46.00462" lon="4.36145">
        <ele>443.79</ele>
        <time>2020-07-12T07:27:13Z</time>
      </trkpt>
      <trkpt lat="46.00469" lon="4.36143">
        <ele>444.75</ele>
        <time>2020-07-12T07:27:24Z</time>
      </trkpt>
      <trkpt lat="46.00473" lon="4.36145">
        <ele>445.23</ele>
        <time>2020-07-12T07:27:28Z</time>
      </trkpt>
      <trkpt lat="46.00488" lon="4.36152">
        <ele>446.19</ele>
        <time>2020-07-12T07:27:43Z</time>
      </trkpt>
      <trkpt lat="46.00499" lon="4.36155">
        <ele>448.11</ele>
        <time>2020-07-12T07:27:55Z</time>
      </trkpt>
      <trkpt lat="46.00507" lon="4.36155">
        <ele>449.07</ele>
        <time>2020-07-12T07:28:04Z</time>
      </trkpt>
      <trkpt lat="46.00523" lon="4.36165">
        <ele>450.03</ele>
        <time>2020-07-12T07:28:19Z</time>
      </trkpt>
      <trkpt lat="46.00538" lon="4.36176">
        <ele>450.52</ele>
        <time>2020-07-12T07:28:34Z</time>
      </trkpt>
      <trkpt lat="46.00543" lon="4.36178">
        <ele>450.52</ele>
        <time>2020-07-12T07:28:39Z</time>
      </trkpt>
      <trkpt lat="46.00547" lon="4.3618">
        <ele>450.52</ele>
        <time>2020-07-12T07:28:43Z</time>
      </trkpt>
      <trkpt lat="46.00564" lon="4.3619">
        <ele>450.52</ele>
        <time>2020-07-12T07:28:58Z</time>
      </trkpt>
      <trkpt lat="46.00583" lon="4.36198">
        <ele>450.52</ele>
        <time>2020-07-12T07:29:14Z</time>
      </trkpt>
      <trkpt lat="46.00597" lon="4.36203">
        <ele>450.52</ele>
        <time>2020-07-12T07:29:28Z</time>
      </trkpt>
      <trkpt lat="46.00598" lon="4.36203">
        <ele>450.52</ele>
        <time>2020-07-12T07:29:29Z</time>
      </trkpt>
      <trkpt lat="46.00606" lon="4.36207">
        <ele>450.52</ele>
        <time>2020-07-12T07:29:36Z</time>
      </trkpt>
      <trkpt lat="46.00627" lon="4.36217">
        <ele>450.52</ele>
        <time>2020-07-12T07:29:55Z</time>
      </trkpt>
      <trkpt lat="46.00644" lon="4.36224">
        <ele>450.52</ele>
        <time>2020-07-12T07:30:11Z</time>
      </trkpt>
      <trkpt lat="46.00648" lon="4.36226">
        <ele>450.52</ele>
        <time>2020-07-12T07:30:14Z</time>
      </trkpt>
      <trkpt lat="46.00669" lon="4.36235">
        <ele>449.07</ele>
        <time>2020-07-12T07:30:32Z</time>
      </trkpt>
      <trkpt lat="46.00685" lon="4.36243">
        <ele>449.07</ele>
        <time>2020-07-12T07:30:48Z</time>
      </trkpt>
      <trkpt lat="46.00698" lon="4.36252">
        <ele>449.07</ele>
        <time>2020-07-12T07:31:00Z</time>
      </trkpt>
      <trkpt lat="46.00713" lon="4.3626">
        <ele>449.07</ele>
        <time>2020-07-12T07:31:14Z</time>
      </trkpt>
      <trkpt lat="46.00725" lon="4.3627">
        <ele>449.07</ele>
        <time>2020-07-12T07:31:28Z</time>
      </trkpt>
      <trkpt lat="46.00734" lon="4.3627">
        <ele>450.52</ele>
        <time>2020-07-12T07:31:38Z</time>
      </trkpt>
      <trkpt lat="46.00738" lon="4.36267">
        <ele>450.52</ele>
        <time>2020-07-12T07:31:51Z</time>
      </trkpt>
      <trkpt lat="46.00742" lon="4.36265">
        <ele>450.52</ele>
        <time>2020-07-12T07:32:07Z</time>
      </trkpt>
      <trkpt lat="46.00746" lon="4.36256">
        <ele>450.52</ele>
        <time>2020-07-12T07:32:19Z</time>
      </trkpt>
      <trkpt lat="46.00743" lon="4.36244">
        <ele>450.52</ele>
        <time>2020-07-12T07:32:32Z</time>
      </trkpt>
      <trkpt lat="46.00742" lon="4.36234">
        <ele>450.52</ele>
        <time>2020-07-12T07:32:39Z</time>
      </trkpt>
      <trkpt lat="46.00741" lon="4.36228">
        <ele>449.07</ele>
        <time>2020-07-12T07:32:43Z</time>
      </trkpt>
      <trkpt lat="46.00737" lon="4.36213">
        <ele>449.07</ele>
        <time>2020-07-12T07:32:54Z</time>
      </trkpt>
      <trkpt lat="46.00733" lon="4.362">
        <ele>448.11</ele>
        <time>2020-07-12T07:33:03Z</time>
      </trkpt>
      <trkpt lat="46.00737" lon="4.36186">
        <ele>448.11</ele>
        <time>2020-07-12T07:33:15Z</time>
      </trkpt>
      <trkpt lat="46.00742" lon="4.36184">
        <ele>447.63</ele>
        <time>2020-07-12T07:33:20Z</time>
      </trkpt>
      <trkpt lat="46.00754" lon="4.36193">
        <ele>447.63</ele>
        <time>2020-07-12T07:33:33Z</time>
      </trkpt>
      <trkpt lat="46.00766" lon="4.36198">
        <ele>447.63</ele>
        <time>2020-07-12T07:33:45Z</time>
      </trkpt>
      <trkpt lat="46.00774" lon="4.362">
        <ele>447.63</ele>
        <time>2020-07-12T07:33:52Z</time>
      </trkpt>
      <trkpt lat="46.00777" lon="4.36199">
        <ele>447.63</ele>
        <time>2020-07-12T07:33:56Z</time>
      </trkpt>
      <trkpt lat="46.00788" lon="4.36185">
        <ele>444.75</ele>
        <time>2020-07-12T07:34:10Z</time>
      </trkpt>
      <trkpt lat="46.00802" lon="4.3617">
        <ele>442.34</ele>
        <time>2020-07-12T07:34:26Z</time>
      </trkpt>
      <trkpt lat="46.00812" lon="4.36156">
        <ele>440.42</ele>
        <time>2020-07-12T07:34:39Z</time>
      </trkpt>
      <trkpt lat="46.00821" lon="4.36142">
        <ele>438.98</ele>
        <time>2020-07-12T07:34:54Z</time>
      </trkpt>
      <trkpt lat="46.00825" lon="4.36129">
        <ele>437.06</ele>
        <time>2020-07-12T07:35:04Z</time>
      </trkpt>
      <trkpt lat="46.00813" lon="4.36109">
        <ele>435.13</ele>
        <time>2020-07-12T07:35:23Z</time>
      </trkpt>
      <trkpt lat="46.00812" lon="4.3611">
        <ele>435.13</ele>
        <time>2020-07-12T07:35:25Z</time>
      </trkpt>
      <trkpt lat="46.00806" lon="4.36102">
        <ele>434.65</ele>
        <time>2020-07-12T07:35:32Z</time>
      </trkpt>
      <trkpt lat="46.00793" lon="4.36078">
        <ele>434.65</ele>
        <time>2020-07-12T07:35:48Z</time>
      </trkpt>
      <trkpt lat="46.00791" lon="4.36074">
        <ele>434.65</ele>
        <time>2020-07-12T07:35:52Z</time>
      </trkpt>
      <trkpt lat="46.00787" lon="4.36055">
        <ele>436.1</ele>
        <time>2020-07-12T07:36:07Z</time>
      </trkpt>
      <trkpt lat="46.00786" lon="4.36033">
        <ele>437.06</ele>
        <time>2020-07-12T07:36:22Z</time>
      </trkpt>
      <trkpt lat="46.00789" lon="4.36014">
        <ele>438.02</ele>
        <time>2020-07-12T07:36:35Z</time>
      </trkpt>
      <trkpt lat="46.00789" lon="4.36013">
        <ele>438.5</ele>
        <time>2020-07-12T07:36:36Z</time>
      </trkpt>
      <trkpt lat="46.00794" lon="4.35994">
        <ele>439.94</ele>
        <time>2020-07-12T07:36:50Z</time>
      </trkpt>
      <trkpt lat="46.00794" lon="4.35993">
        <ele>439.94</ele>
        <time>2020-07-12T07:36:51Z</time>
      </trkpt>
      <trkpt lat="46.00797" lon="4.35984">
        <ele>440.9</ele>
        <time>2020-07-12T07:36:58Z</time>
      </trkpt>
      <trkpt lat="46.00799" lon="4.35969">
        <ele>441.86</ele>
        <time>2020-07-12T07:37:11Z</time>
      </trkpt>
      <trkpt lat="46.00802" lon="4.35955">
        <ele>443.31</ele>
        <time>2020-07-12T07:37:23Z</time>
      </trkpt>
      <trkpt lat="46.00806" lon="4.35935">
        <ele>444.27</ele>
        <time>2020-07-12T07:37:37Z</time>
      </trkpt>
      <trkpt lat="46.0081" lon="4.35918">
        <ele>445.71</ele>
        <time>2020-07-12T07:37:49Z</time>
      </trkpt>
      <trkpt lat="46.00813" lon="4.35909">
        <ele>446.19</ele>
        <time>2020-07-12T07:38:02Z</time>
      </trkpt>
      <trkpt lat="46.00815" lon="4.35898">
        <ele>448.11</ele>
        <time>2020-07-12T07:38:15Z</time>
      </trkpt>
      <trkpt lat="46.00816" lon="4.35892">
        <ele>449.07</ele>
        <time>2020-07-12T07:38:20Z</time>
      </trkpt>
      <trkpt lat="46.00816" lon="4.35876">
        <ele>450.52</ele>
        <time>2020-07-12T07:38:33Z</time>
      </trkpt>
      <trkpt lat="46.00817" lon="4.35864">
        <ele>451.96</ele>
        <time>2020-07-12T07:38:45Z</time>
      </trkpt>
      <trkpt lat="46.00817" lon="4.35851">
        <ele>453.88</ele>
        <time>2020-07-12T07:38:57Z</time>
      </trkpt>
      <trkpt lat="46.00819" lon="4.3584">
        <ele>455.32</ele>
        <time>2020-07-12T07:39:09Z</time>
      </trkpt>
      <trkpt lat="46.00822" lon="4.35831">
        <ele>456.28</ele>
        <time>2020-07-12T07:39:19Z</time>
      </trkpt>
      <trkpt lat="46.00824" lon="4.35821">
        <ele>458.21</ele>
        <time>2020-07-12T07:39:31Z</time>
      </trkpt>
      <trkpt lat="46.00826" lon="4.35808">
        <ele>460.13</ele>
        <time>2020-07-12T07:39:44Z</time>
      </trkpt>
      <trkpt lat="46.00827" lon="4.35793">
        <ele>462.05</ele>
        <time>2020-07-12T07:39:57Z</time>
      </trkpt>
      <trkpt lat="46.0083" lon="4.35782">
        <ele>463.49</ele>
        <time>2020-07-12T07:40:09Z</time>
      </trkpt>
      <trkpt lat="46.00832" lon="4.35772">
        <ele>465.42</ele>
        <time>2020-07-12T07:40:21Z</time>
      </trkpt>
      <trkpt lat="46.00835" lon="4.35761">
        <ele>467.82</ele>
        <time>2020-07-12T07:40:34Z</time>
      </trkpt>
      <trkpt lat="46.00838" lon="4.35749">
        <ele>469.26</ele>
        <time>2020-07-12T07:40:47Z</time>
      </trkpt>
      <trkpt lat="46.00844" lon="4.35738">
        <ele>469.74</ele>
        <time>2020-07-12T07:41:00Z</time>
      </trkpt>
      <trkpt lat="46.00848" lon="4.3573">
        <ele>470.22</ele>
        <time>2020-07-12T07:41:11Z</time>
      </trkpt>
      <trkpt lat="46.00852" lon="4.35727">
        <ele>470.22</ele>
        <time>2020-07-12T07:41:23Z</time>
      </trkpt>
      <trkpt lat="46.00852" lon="4.35728">
        <ele>470.22</ele>
        <time>2020-07-12T07:41:37Z</time>
      </trkpt>
      <trkpt lat="46.00851" lon="4.35727">
        <ele>470.22</ele>
        <time>2020-07-12T07:41:52Z</time>
      </trkpt>
      <trkpt lat="46.00852" lon="4.35724">
        <ele>470.22</ele>
        <time>2020-07-12T07:42:15Z</time>
      </trkpt>
      <trkpt lat="46.00856" lon="4.35726">
        <ele>470.22</ele>
        <time>2020-07-12T07:42:41Z</time>
      </trkpt>
      <trkpt lat="46.00865" lon="4.35721">
        <ele>470.7</ele>
        <time>2020-07-12T07:42:57Z</time>
      </trkpt>
      <trkpt lat="46.00872" lon="4.35717">
        <ele>471.66</ele>
        <time>2020-07-12T07:43:06Z</time>
      </trkpt>
      <trkpt lat="46.00882" lon="4.35708">
        <ele>472.63</ele>
        <time>2020-07-12T07:43:19Z</time>
      </trkpt>
      <trkpt lat="46.00893" lon="4.35702">
        <ele>473.59</ele>
        <time>2020-07-12T07:43:32Z</time>
      </trkpt>
      <trkpt lat="46.00903" lon="4.35696">
        <ele>474.07</ele>
        <time>2020-07-12T07:43:45Z</time>
      </trkpt>
      <trkpt lat="46.00914" lon="4.35687">
        <ele>474.55</ele>
        <time>2020-07-12T07:43:58Z</time>
      </trkpt>
      <trkpt lat="46.00924" lon="4.3568">
        <ele>475.51</ele>
        <time>2020-07-12T07:44:11Z</time>
      </trkpt>
      <trkpt lat="46.0093" lon="4.35677">
        <ele>475.99</ele>
        <time>2020-07-12T07:44:25Z</time>
      </trkpt>
      <trkpt lat="46.00937" lon="4.35673">
        <ele>476.47</ele>
        <time>2020-07-12T07:44:38Z</time>
      </trkpt>
      <trkpt lat="46.0094" lon="4.35674">
        <ele>476.95</ele>
        <time>2020-07-12T07:44:57Z</time>
      </trkpt>
      <trkpt lat="46.00939" lon="4.35678">
        <ele>476.95</ele>
        <time>2020-07-12T07:45:15Z</time>
      </trkpt>
      <trkpt lat="46.00937" lon="4.35683">
        <ele>476.95</ele>
        <time>2020-07-12T07:45:37Z</time>
      </trkpt>
      <trkpt lat="46.00936" lon="4.3568">
        <ele>476.95</ele>
        <time>2020-07-12T07:45:45Z</time>
      </trkpt>
      <trkpt lat="46.00936" lon="4.35676">
        <ele>476.95</ele>
        <time>2020-07-12T07:45:48Z</time>
      </trkpt>
      <trkpt lat="46.0094" lon="4.3567">
        <ele>476.95</ele>
        <time>2020-07-12T07:45:55Z</time>
      </trkpt>
      <trkpt lat="46.00944" lon="4.35664">
        <ele>477.91</ele>
        <time>2020-07-12T07:46:02Z</time>
      </trkpt>
      <trkpt lat="46.00951" lon="4.35658">
        <ele>479.35</ele>
        <time>2020-07-12T07:46:12Z</time>
      </trkpt>
      <trkpt lat="46.00959" lon="4.35651">
        <ele>480.8</ele>
        <time>2020-07-12T07:46:24Z</time>
      </trkpt>
      <trkpt lat="46.00962" lon="4.35649">
        <ele>481.28</ele>
        <time>2020-07-12T07:46:29Z</time>
      </trkpt>
      <trkpt lat="46.00973" lon="4.35646">
        <ele>482.72</ele>
        <time>2020-07-12T07:46:43Z</time>
      </trkpt>
      <trkpt lat="46.00977" lon="4.35643">
        <ele>483.2</ele>
        <time>2020-07-12T07:46:49Z</time>
      </trkpt>
      <trkpt lat="46.0098" lon="4.35641">
        <ele>483.2</ele>
        <time>2020-07-12T07:46:53Z</time>
      </trkpt>
      <trkpt lat="46.00987" lon="4.35634">
        <ele>485.12</ele>
        <time>2020-07-12T07:47:05Z</time>
      </trkpt>
      <trkpt lat="46.00991" lon="4.35627">
        <ele>487.53</ele>
        <time>2020-07-12T07:47:17Z</time>
      </trkpt>
      <trkpt lat="46.00997" lon="4.35619">
        <ele>488.97</ele>
        <time>2020-07-12T07:47:31Z</time>
      </trkpt>
      <trkpt lat="46.01002" lon="4.35612">
        <ele>490.89</ele>
        <time>2020-07-12T07:47:43Z</time>
      </trkpt>
      <trkpt lat="46.01006" lon="4.35608">
        <ele>491.85</ele>
        <time>2020-07-12T07:47:53Z</time>
      </trkpt>
      <trkpt lat="46.01013" lon="4.35601">
        <ele>493.29</ele>
        <time>2020-07-12T07:48:05Z</time>
      </trkpt>
      <trkpt lat="46.01018" lon="4.35595">
        <ele>494.74</ele>
        <time>2020-07-12T07:48:15Z</time>
      </trkpt>
      <trkpt lat="46.01024" lon="4.35588">
        <ele>496.18</ele>
        <time>2020-07-12T07:48:28Z</time>
      </trkpt>
      <trkpt lat="46.01029" lon="4.35581">
        <ele>498.1</ele>
        <time>2020-07-12T07:48:39Z</time>
      </trkpt>
      <trkpt lat="46.01035" lon="4.35575">
        <ele>500.02</ele>
        <time>2020-07-12T07:48:52Z</time>
      </trkpt>
      <trkpt lat="46.01042" lon="4.35576">
        <ele>501.46</ele>
        <time>2020-07-12T07:49:04Z</time>
      </trkpt>
      <trkpt lat="46.01053" lon="4.35584">
        <ele>503.39</ele>
        <time>2020-07-12T07:49:19Z</time>
      </trkpt>
      <trkpt lat="46.01058" lon="4.35588">
        <ele>503.87</ele>
        <time>2020-07-12T07:49:27Z</time>
      </trkpt>
      <trkpt lat="46.01065" lon="4.35598">
        <ele>503.39</ele>
        <time>2020-07-12T07:49:40Z</time>
      </trkpt>
      <trkpt lat="46.01068" lon="4.35606">
        <ele>502.43</ele>
        <time>2020-07-12T07:49:53Z</time>
      </trkpt>
      <trkpt lat="46.01073" lon="4.35609">
        <ele>502.43</ele>
        <time>2020-07-12T07:49:59Z</time>
      </trkpt>
      <trkpt lat="46.01087" lon="4.35619">
        <ele>502.43</ele>
        <time>2020-07-12T07:50:14Z</time>
      </trkpt>
      <trkpt lat="46.01091" lon="4.35622">
        <ele>503.87</ele>
        <time>2020-07-12T07:50:18Z</time>
      </trkpt>
      <trkpt lat="46.01101" lon="4.35634">
        <ele>504.35</ele>
        <time>2020-07-12T07:50:31Z</time>
      </trkpt>
      <trkpt lat="46.01108" lon="4.35644">
        <ele>504.35</ele>
        <time>2020-07-12T07:50:41Z</time>
      </trkpt>
      <trkpt lat="46.01111" lon="4.35646">
        <ele>504.35</ele>
        <time>2020-07-12T07:50:44Z</time>
      </trkpt>
      <trkpt lat="46.01127" lon="4.35656">
        <ele>504.35</ele>
        <time>2020-07-12T07:51:00Z</time>
      </trkpt>
      <trkpt lat="46.01142" lon="4.3566">
        <ele>505.79</ele>
        <time>2020-07-12T07:51:17Z</time>
      </trkpt>
      <trkpt lat="46.01144" lon="4.3566">
        <ele>505.79</ele>
        <time>2020-07-12T07:51:19Z</time>
      </trkpt>
      <trkpt lat="46.01148" lon="4.3566">
        <ele>506.27</ele>
        <time>2020-07-12T07:51:23Z</time>
      </trkpt>
      <trkpt lat="46.01159" lon="4.3566">
        <ele>506.75</ele>
        <time>2020-07-12T07:51:37Z</time>
      </trkpt>
      <trkpt lat="46.01168" lon="4.35653">
        <ele>507.23</ele>
        <time>2020-07-12T07:51:50Z</time>
      </trkpt>
      <trkpt lat="46.01176" lon="4.35639">
        <ele>508.19</ele>
        <time>2020-07-12T07:52:04Z</time>
      </trkpt>
      <trkpt lat="46.01185" lon="4.35624">
        <ele>509.16</ele>
        <time>2020-07-12T07:52:20Z</time>
      </trkpt>
      <trkpt lat="46.01197" lon="4.35611">
        <ele>509.64</ele>
        <time>2020-07-12T07:52:34Z</time>
      </trkpt>
      <trkpt lat="46.01208" lon="4.35601">
        <ele>510.12</ele>
        <time>2020-07-12T07:52:46Z</time>
      </trkpt>
      <trkpt lat="46.01217" lon="4.35593">
        <ele>511.08</ele>
        <time>2020-07-12T07:52:57Z</time>
      </trkpt>
      <trkpt lat="46.01229" lon="4.35579">
        <ele>511.08</ele>
        <time>2020-07-12T07:53:11Z</time>
      </trkpt>
      <trkpt lat="46.01236" lon="4.3557">
        <ele>511.08</ele>
        <time>2020-07-12T07:53:22Z</time>
      </trkpt>
      <trkpt lat="46.01238" lon="4.35568">
        <ele>510.12</ele>
        <time>2020-07-12T07:53:24Z</time>
      </trkpt>
      <trkpt lat="46.01248" lon="4.35557">
        <ele>509.64</ele>
        <time>2020-07-12T07:53:38Z</time>
      </trkpt>
      <trkpt lat="46.01261" lon="4.35541">
        <ele>509.64</ele>
        <time>2020-07-12T07:53:54Z</time>
      </trkpt>
      <trkpt lat="46.01276" lon="4.35532">
        <ele>509.64</ele>
        <time>2020-07-12T07:54:08Z</time>
      </trkpt>
      <trkpt lat="46.01289" lon="4.35531">
        <ele>509.64</ele>
        <time>2020-07-12T07:54:21Z</time>
      </trkpt>
      <trkpt lat="46.01302" lon="4.35538">
        <ele>510.6</ele>
        <time>2020-07-12T07:54:34Z</time>
      </trkpt>
      <trkpt lat="46.01314" lon="4.35558">
        <ele>511.08</ele>
        <time>2020-07-12T07:54:47Z</time>
      </trkpt>
      <trkpt lat="46.0132" lon="4.35571">
        <ele>511.56</ele>
        <time>2020-07-12T07:54:55Z</time>
      </trkpt>
      <trkpt lat="46.01327" lon="4.35589">
        <ele>512.52</ele>
        <time>2020-07-12T07:55:08Z</time>
      </trkpt>
      <trkpt lat="46.01331" lon="4.35599">
        <ele>513</ele>
        <time>2020-07-12T07:55:16Z</time>
      </trkpt>
      <trkpt lat="46.01333" lon="4.35604">
        <ele>513</ele>
        <time>2020-07-12T07:55:19Z</time>
      </trkpt>
      <trkpt lat="46.01339" lon="4.35622">
        <ele>514.44</ele>
        <time>2020-07-12T07:55:33Z</time>
      </trkpt>
      <trkpt lat="46.0134" lon="4.35625">
        <ele>514.44</ele>
        <time>2020-07-12T07:55:36Z</time>
      </trkpt>
      <trkpt lat="46.01346" lon="4.35643">
        <ele>515.88</ele>
        <time>2020-07-12T07:55:49Z</time>
      </trkpt>
      <trkpt lat="46.01352" lon="4.35665">
        <ele>516.37</ele>
        <time>2020-07-12T07:56:03Z</time>
      </trkpt>
      <trkpt lat="46.01359" lon="4.35683">
        <ele>517.33</ele>
        <time>2020-07-12T07:56:16Z</time>
      </trkpt>
      <trkpt lat="46.01365" lon="4.35698">
        <ele>518.77</ele>
        <time>2020-07-12T07:56:28Z</time>
      </trkpt>
      <trkpt lat="46.0137" lon="4.35708">
        <ele>519.73</ele>
        <time>2020-07-12T07:56:36Z</time>
      </trkpt>
      <trkpt lat="46.01379" lon="4.3572">
        <ele>520.21</ele>
        <time>2020-07-12T07:56:51Z</time>
      </trkpt>
      <trkpt lat="46.01389" lon="4.35726">
        <ele>522.13</ele>
        <time>2020-07-12T07:57:04Z</time>
      </trkpt>
      <trkpt lat="46.01403" lon="4.3573">
        <ele>523.58</ele>
        <time>2020-07-12T07:57:18Z</time>
      </trkpt>
      <trkpt lat="46.01417" lon="4.35731">
        <ele>525.02</ele>
        <time>2020-07-12T07:57:32Z</time>
      </trkpt>
      <trkpt lat="46.0142" lon="4.35729">
        <ele>525.5</ele>
        <time>2020-07-12T07:57:38Z</time>
      </trkpt>
      <trkpt lat="46.01424" lon="4.35727">
        <ele>525.98</ele>
        <time>2020-07-12T07:57:44Z</time>
      </trkpt>
      <trkpt lat="46.01429" lon="4.35719">
        <ele>527.42</ele>
        <time>2020-07-12T07:57:55Z</time>
      </trkpt>
      <trkpt lat="46.01431" lon="4.35716">
        <ele>528.38</ele>
        <time>2020-07-12T07:57:59Z</time>
      </trkpt>
      <trkpt lat="46.01433" lon="4.35713">
        <ele>528.86</ele>
        <time>2020-07-12T07:58:03Z</time>
      </trkpt>
      <trkpt lat="46.01438" lon="4.35705">
        <ele>530.3</ele>
        <time>2020-07-12T07:58:12Z</time>
      </trkpt>
      <trkpt lat="46.01439" lon="4.35703">
        <ele>530.79</ele>
        <time>2020-07-12T07:58:15Z</time>
      </trkpt>
      <trkpt lat="46.01439" lon="4.35699">
        <ele>531.27</ele>
        <time>2020-07-12T07:58:19Z</time>
      </trkpt>
      <trkpt lat="46.01439" lon="4.35693">
        <ele>532.23</ele>
        <time>2020-07-12T07:58:26Z</time>
      </trkpt>
      <trkpt lat="46.01438" lon="4.35686">
        <ele>533.19</ele>
        <time>2020-07-12T07:58:33Z</time>
      </trkpt>
      <trkpt lat="46.01435" lon="4.3567">
        <ele>534.15</ele>
        <time>2020-07-12T07:58:46Z</time>
      </trkpt>
      <trkpt lat="46.01433" lon="4.35655">
        <ele>535.59</ele>
        <time>2020-07-12T07:58:59Z</time>
      </trkpt>
      <trkpt lat="46.01431" lon="4.35642">
        <ele>536.55</ele>
        <time>2020-07-12T07:59:10Z</time>
      </trkpt>
      <trkpt lat="46.01428" lon="4.35631">
        <ele>537.51</ele>
        <time>2020-07-12T07:59:20Z</time>
      </trkpt>
      <trkpt lat="46.01426" lon="4.35619">
        <ele>539.44</ele>
        <time>2020-07-12T07:59:31Z</time>
      </trkpt>
      <trkpt lat="46.01425" lon="4.35614">
        <ele>539.92</ele>
        <time>2020-07-12T07:59:35Z</time>
      </trkpt>
      <trkpt lat="46.01425" lon="4.35597">
        <ele>540.88</ele>
        <time>2020-07-12T07:59:48Z</time>
      </trkpt>
      <trkpt lat="46.01428" lon="4.35581">
        <ele>541.84</ele>
        <time>2020-07-12T08:00:00Z</time>
      </trkpt>
      <trkpt lat="46.0143" lon="4.35567">
        <ele>542.8</ele>
        <time>2020-07-12T08:00:11Z</time>
      </trkpt>
      <trkpt lat="46.01431" lon="4.35549">
        <ele>544.24</ele>
        <time>2020-07-12T08:00:24Z</time>
      </trkpt>
      <trkpt lat="46.01431" lon="4.35534">
        <ele>545.2</ele>
        <time>2020-07-12T08:00:35Z</time>
      </trkpt>
      <trkpt lat="46.01432" lon="4.35519">
        <ele>546.17</ele>
        <time>2020-07-12T08:00:46Z</time>
      </trkpt>
      <trkpt lat="46.01432" lon="4.35515">
        <ele>546.17</ele>
        <time>2020-07-12T08:00:49Z</time>
      </trkpt>
      <trkpt lat="46.01432" lon="4.35496">
        <ele>547.13</ele>
        <time>2020-07-12T08:01:02Z</time>
      </trkpt>
      <trkpt lat="46.01432" lon="4.35478">
        <ele>548.57</ele>
        <time>2020-07-12T08:01:15Z</time>
      </trkpt>
      <trkpt lat="46.01433" lon="4.35462">
        <ele>549.53</ele>
        <time>2020-07-12T08:01:26Z</time>
      </trkpt>
      <trkpt lat="46.01433" lon="4.35445">
        <ele>550.49</ele>
        <time>2020-07-12T08:01:38Z</time>
      </trkpt>
      <trkpt lat="46.01432" lon="4.35428">
        <ele>551.93</ele>
        <time>2020-07-12T08:01:51Z</time>
      </trkpt>
      <trkpt lat="46.01432" lon="4.35413">
        <ele>553.38</ele>
        <time>2020-07-12T08:02:02Z</time>
      </trkpt>
      <trkpt lat="46.01432" lon="4.35395">
        <ele>554.82</ele>
        <time>2020-07-12T08:02:14Z</time>
      </trkpt>
      <trkpt lat="46.01433" lon="4.3538">
        <ele>555.3</ele>
        <time>2020-07-12T08:02:25Z</time>
      </trkpt>
      <trkpt lat="46.01433" lon="4.35374">
        <ele>555.3</ele>
        <time>2020-07-12T08:02:29Z</time>
      </trkpt>
      <trkpt lat="46.01432" lon="4.35356">
        <ele>556.74</ele>
        <time>2020-07-12T08:02:42Z</time>
      </trkpt>
      <trkpt lat="46.01433" lon="4.3534">
        <ele>557.7</ele>
        <time>2020-07-12T08:02:53Z</time>
      </trkpt>
      <trkpt lat="46.01432" lon="4.3533">
        <ele>558.18</ele>
        <time>2020-07-12T08:03:00Z</time>
      </trkpt>
      <trkpt lat="46.01433" lon="4.35322">
        <ele>558.66</ele>
        <time>2020-07-12T08:03:06Z</time>
      </trkpt>
      <trkpt lat="46.01431" lon="4.35306">
        <ele>559.62</ele>
        <time>2020-07-12T08:03:17Z</time>
      </trkpt>
      <trkpt lat="46.01427" lon="4.35288">
        <ele>561.07</ele>
        <time>2020-07-12T08:03:30Z</time>
      </trkpt>
      <trkpt lat="46.01423" lon="4.35274">
        <ele>562.03</ele>
        <time>2020-07-12T08:03:41Z</time>
      </trkpt>
      <trkpt lat="46.01417" lon="4.3526">
        <ele>563.95</ele>
        <time>2020-07-12T08:03:53Z</time>
      </trkpt>
      <trkpt lat="46.0141" lon="4.35248">
        <ele>565.39</ele>
        <time>2020-07-12T08:04:05Z</time>
      </trkpt>
      <trkpt lat="46.01404" lon="4.35237">
        <ele>567.32</ele>
        <time>2020-07-12T08:04:16Z</time>
      </trkpt>
      <trkpt lat="46.01399" lon="4.35227">
        <ele>568.28</ele>
        <time>2020-07-12T08:04:26Z</time>
      </trkpt>
      <trkpt lat="46.01394" lon="4.3522">
        <ele>569.24</ele>
        <time>2020-07-12T08:04:34Z</time>
      </trkpt>
      <trkpt lat="46.01391" lon="4.35215">
        <ele>570.2</ele>
        <time>2020-07-12T08:04:39Z</time>
      </trkpt>
      <trkpt lat="46.01384" lon="4.35206">
        <ele>571.64</ele>
        <time>2020-07-12T08:04:53Z</time>
      </trkpt>
      <trkpt lat="46.01377" lon="4.35201">
        <ele>573.08</ele>
        <time>2020-07-12T08:05:04Z</time>
      </trkpt>
      <trkpt lat="46.01364" lon="4.35195">
        <ele>575.01</ele>
        <time>2020-07-12T08:05:21Z</time>
      </trkpt>
      <trkpt lat="46.01361" lon="4.35194">
        <ele>575.49</ele>
        <time>2020-07-12T08:05:27Z</time>
      </trkpt>
      <trkpt lat="46.01356" lon="4.35193">
        <ele>575.97</ele>
        <time>2020-07-12T08:05:31Z</time>
      </trkpt>
      <trkpt lat="46.01348" lon="4.35183">
        <ele>577.41</ele>
        <time>2020-07-12T08:05:41Z</time>
      </trkpt>
      <trkpt lat="46.01342" lon="4.35178">
        <ele>577.41</ele>
        <time>2020-07-12T08:05:48Z</time>
      </trkpt>
      <trkpt lat="46.01333" lon="4.35169">
        <ele>578.37</ele>
        <time>2020-07-12T08:06:00Z</time>
      </trkpt>
      <trkpt lat="46.01331" lon="4.35167">
        <ele>578.37</ele>
        <time>2020-07-12T08:06:02Z</time>
      </trkpt>
      <trkpt lat="46.01327" lon="4.35164">
        <ele>578.37</ele>
        <time>2020-07-12T08:06:06Z</time>
      </trkpt>
      <trkpt lat="46.01315" lon="4.35153">
        <ele>578.37</ele>
        <time>2020-07-12T08:06:20Z</time>
      </trkpt>
      <trkpt lat="46.01306" lon="4.35144">
        <ele>577.41</ele>
        <time>2020-07-12T08:06:30Z</time>
      </trkpt>
      <trkpt lat="46.01301" lon="4.35138">
        <ele>576.93</ele>
        <time>2020-07-12T08:06:36Z</time>
      </trkpt>
      <trkpt lat="46.01289" lon="4.3513">
        <ele>575.97</ele>
        <time>2020-07-12T08:06:49Z</time>
      </trkpt>
      <trkpt lat="46.01276" lon="4.35122">
        <ele>574.53</ele>
        <time>2020-07-12T08:07:02Z</time>
      </trkpt>
      <trkpt lat="46.01262" lon="4.35109">
        <ele>574.04</ele>
        <time>2020-07-12T08:07:16Z</time>
      </trkpt>
      <trkpt lat="46.01258" lon="4.35106">
        <ele>574.04</ele>
        <time>2020-07-12T08:07:20Z</time>
      </trkpt>
      <trkpt lat="46.01254" lon="4.35103">
        <ele>574.04</ele>
        <time>2020-07-12T08:07:24Z</time>
      </trkpt>
      <trkpt lat="46.01245" lon="4.35091">
        <ele>574.04</ele>
        <time>2020-07-12T08:07:37Z</time>
      </trkpt>
      <trkpt lat="46.01238" lon="4.35077">
        <ele>575.49</ele>
        <time>2020-07-12T08:07:48Z</time>
      </trkpt>
      <trkpt lat="46.01235" lon="4.35067">
        <ele>575.97</ele>
        <time>2020-07-12T08:07:58Z</time>
      </trkpt>
      <trkpt lat="46.01234" lon="4.35059">
        <ele>575.97</ele>
        <time>2020-07-12T08:08:12Z</time>
      </trkpt>
      <trkpt lat="46.01231" lon="4.3505">
        <ele>576.45</ele>
        <time>2020-07-12T08:08:24Z</time>
      </trkpt>
      <trkpt lat="46.01227" lon="4.35043">
        <ele>576.93</ele>
        <time>2020-07-12T08:08:37Z</time>
      </trkpt>
      <trkpt lat="46.01227" lon="4.35042">
        <ele>577.41</ele>
        <time>2020-07-12T08:09:00Z</time>
      </trkpt>
      <trkpt lat="46.01232" lon="4.35042">
        <ele>577.41</ele>
        <time>2020-07-12T08:09:11Z</time>
      </trkpt>
      <trkpt lat="46.01236" lon="4.3505">
        <ele>577.41</ele>
        <time>2020-07-12T08:09:24Z</time>
      </trkpt>
      <trkpt lat="46.01237" lon="4.35054">
        <ele>577.41</ele>
        <time>2020-07-12T08:09:38Z</time>
      </trkpt>
      <trkpt lat="46.01235" lon="4.35056">
        <ele>577.41</ele>
        <time>2020-07-12T08:09:53Z</time>
      </trkpt>
      <trkpt lat="46.01234" lon="4.35055">
        <ele>577.41</ele>
        <time>2020-07-12T08:10:16Z</time>
      </trkpt>
      <trkpt lat="46.01236" lon="4.35055">
        <ele>577.41</ele>
        <time>2020-07-12T08:10:35Z</time>
      </trkpt>
      <trkpt lat="46.01237" lon="4.35055">
        <ele>577.41</ele>
        <time>2020-07-12T08:10:50Z</time>
      </trkpt>
      <trkpt lat="46.01236" lon="4.35055">
        <ele>577.41</ele>
        <time>2020-07-12T08:11:07Z</time>
      </trkpt>
      <trkpt lat="46.01235" lon="4.35056">
        <ele>577.41</ele>
        <time>2020-07-12T08:11:33Z</time>
      </trkpt>
      <trkpt lat="46.01233" lon="4.35052">
        <ele>577.89</ele>
        <time>2020-07-12T08:11:57Z</time>
      </trkpt>
      <trkpt lat="46.01233" lon="4.35053">
        <ele>577.89</ele>
        <time>2020-07-12T08:12:11Z</time>
      </trkpt>
      <trkpt lat="46.01233" lon="4.35055">
        <ele>577.89</ele>
        <time>2020-07-12T08:12:38Z</time>
      </trkpt>
      <trkpt lat="46.01239" lon="4.35052">
        <ele>577.89</ele>
        <time>2020-07-12T08:12:59Z</time>
      </trkpt>
      <trkpt lat="46.01246" lon="4.35052">
        <ele>577.89</ele>
        <time>2020-07-12T08:13:07Z</time>
      </trkpt>
      <trkpt lat="46.01258" lon="4.35044">
        <ele>578.85</ele>
        <time>2020-07-12T08:13:21Z</time>
      </trkpt>
      <trkpt lat="46.01268" lon="4.35041">
        <ele>579.81</ele>
        <time>2020-07-12T08:13:33Z</time>
      </trkpt>
      <trkpt lat="46.01281" lon="4.35039">
        <ele>581.73</ele>
        <time>2020-07-12T08:13:47Z</time>
      </trkpt>
      <trkpt lat="46.01293" lon="4.35038">
        <ele>583.18</ele>
        <time>2020-07-12T08:13:59Z</time>
      </trkpt>
      <trkpt lat="46.01295" lon="4.35037">
        <ele>583.66</ele>
        <time>2020-07-12T08:14:01Z</time>
      </trkpt>
      <trkpt lat="46.01302" lon="4.35038">
        <ele>584.14</ele>
        <time>2020-07-12T08:14:09Z</time>
      </trkpt>
      <trkpt lat="46.01306" lon="4.35038">
        <ele>584.62</ele>
        <time>2020-07-12T08:14:14Z</time>
      </trkpt>
      <trkpt lat="46.01317" lon="4.3504">
        <ele>586.54</ele>
        <time>2020-07-12T08:14:27Z</time>
      </trkpt>
      <trkpt lat="46.0132" lon="4.35039">
        <ele>587.5</ele>
        <time>2020-07-12T08:14:32Z</time>
      </trkpt>
      <trkpt lat="46.01329" lon="4.3504">
        <ele>588.95</ele>
        <time>2020-07-12T08:14:45Z</time>
      </trkpt>
      <trkpt lat="46.0134" lon="4.35042">
        <ele>590.87</ele>
        <time>2020-07-12T08:14:58Z</time>
      </trkpt>
      <trkpt lat="46.01345" lon="4.35044">
        <ele>591.35</ele>
        <time>2020-07-12T08:15:02Z</time>
      </trkpt>
      <trkpt lat="46.01356" lon="4.35043">
        <ele>592.79</ele>
        <time>2020-07-12T08:15:15Z</time>
      </trkpt>
      <trkpt lat="46.01369" lon="4.35042">
        <ele>594.71</ele>
        <time>2020-07-12T08:15:28Z</time>
      </trkpt>
      <trkpt lat="46.0138" lon="4.35038">
        <ele>596.15</ele>
        <time>2020-07-12T08:15:41Z</time>
      </trkpt>
      <trkpt lat="46.01387" lon="4.35033">
        <ele>597.12</ele>
        <time>2020-07-12T08:15:51Z</time>
      </trkpt>
      <trkpt lat="46.01395" lon="4.35025">
        <ele>598.56</ele>
        <time>2020-07-12T08:16:02Z</time>
      </trkpt>
      <trkpt lat="46.01404" lon="4.35016">
        <ele>599.52</ele>
        <time>2020-07-12T08:16:15Z</time>
      </trkpt>
      <trkpt lat="46.01413" lon="4.35003">
        <ele>600.96</ele>
        <time>2020-07-12T08:16:27Z</time>
      </trkpt>
      <trkpt lat="46.01418" lon="4.34989">
        <ele>602.88</ele>
        <time>2020-07-12T08:16:40Z</time>
      </trkpt>
      <trkpt lat="46.0142" lon="4.34983">
        <ele>603.36</ele>
        <time>2020-07-12T08:16:44Z</time>
      </trkpt>
      <trkpt lat="46.0142" lon="4.34969">
        <ele>604.33</ele>
        <time>2020-07-12T08:16:55Z</time>
      </trkpt>
      <trkpt lat="46.0142" lon="4.34965">
        <ele>604.81</ele>
        <time>2020-07-12T08:16:59Z</time>
      </trkpt>
      <trkpt lat="46.01421" lon="4.3496">
        <ele>604.81</ele>
        <time>2020-07-12T08:17:03Z</time>
      </trkpt>
      <trkpt lat="46.01421" lon="4.34946">
        <ele>605.77</ele>
        <time>2020-07-12T08:17:13Z</time>
      </trkpt>
      <trkpt lat="46.01421" lon="4.34927">
        <ele>606.73</ele>
        <time>2020-07-12T08:17:26Z</time>
      </trkpt>
      <trkpt lat="46.01422" lon="4.34907">
        <ele>607.21</ele>
        <time>2020-07-12T08:17:39Z</time>
      </trkpt>
      <trkpt lat="46.0142" lon="4.34887">
        <ele>607.69</ele>
        <time>2020-07-12T08:17:52Z</time>
      </trkpt>
      <trkpt lat="46.0142" lon="4.34869">
        <ele>608.17</ele>
        <time>2020-07-12T08:18:06Z</time>
      </trkpt>
      <trkpt lat="46.0142" lon="4.3487">
        <ele>608.17</ele>
        <time>2020-07-12T08:18:26Z</time>
      </trkpt>
      <trkpt lat="46.0142" lon="4.34869">
        <ele>608.17</ele>
        <time>2020-07-12T08:18:40Z</time>
      </trkpt>
      <trkpt lat="46.01419" lon="4.3487">
        <ele>608.17</ele>
        <time>2020-07-12T08:19:08Z</time>
      </trkpt>
      <trkpt lat="46.0142" lon="4.3487">
        <ele>608.17</ele>
        <time>2020-07-12T08:19:25Z</time>
      </trkpt>
      <trkpt lat="46.0142" lon="4.3487">
        <ele>608.17</ele>
        <time>2020-07-12T08:19:42Z</time>
      </trkpt>
      <trkpt lat="46.01418" lon="4.34864">
        <ele>608.17</ele>
        <time>2020-07-12T08:19:57Z</time>
      </trkpt>
      <trkpt lat="46.01417" lon="4.34848">
        <ele>608.17</ele>
        <time>2020-07-12T08:20:09Z</time>
      </trkpt>
      <trkpt lat="46.01417" lon="4.34845">
        <ele>608.17</ele>
        <time>2020-07-12T08:20:11Z</time>
      </trkpt>
      <trkpt lat="46.01415" lon="4.34817">
        <ele>608.17</ele>
        <time>2020-07-12T08:20:29Z</time>
      </trkpt>
      <trkpt lat="46.01416" lon="4.34797">
        <ele>607.21</ele>
        <time>2020-07-12T08:20:42Z</time>
      </trkpt>
      <trkpt lat="46.01419" lon="4.34778">
        <ele>606.25</ele>
        <time>2020-07-12T08:20:55Z</time>
      </trkpt>
      <trkpt lat="46.01422" lon="4.34758">
        <ele>605.29</ele>
        <time>2020-07-12T08:21:10Z</time>
      </trkpt>
      <trkpt lat="46.01424" lon="4.3474">
        <ele>604.33</ele>
        <time>2020-07-12T08:21:22Z</time>
      </trkpt>
      <trkpt lat="46.01425" lon="4.34737">
        <ele>604.33</ele>
        <time>2020-07-12T08:21:24Z</time>
      </trkpt>
      <trkpt lat="46.01428" lon="4.34725">
        <ele>603.36</ele>
        <time>2020-07-12T08:21:35Z</time>
      </trkpt>
      <trkpt lat="46.01431" lon="4.34713">
        <ele>602.4</ele>
        <time>2020-07-12T08:21:44Z</time>
      </trkpt>
      <trkpt lat="46.01432" lon="4.34708">
        <ele>602.4</ele>
        <time>2020-07-12T08:21:47Z</time>
      </trkpt>
      <trkpt lat="46.01434" lon="4.34702">
        <ele>602.4</ele>
        <time>2020-07-12T08:21:51Z</time>
      </trkpt>
      <trkpt lat="46.01448" lon="4.34689">
        <ele>600</ele>
        <time>2020-07-12T08:22:05Z</time>
      </trkpt>
      <trkpt lat="46.01449" lon="4.34687">
        <ele>600</ele>
        <time>2020-07-12T08:22:07Z</time>
      </trkpt>
      <trkpt lat="46.01463" lon="4.34675">
        <ele>599.04</ele>
        <time>2020-07-12T08:22:19Z</time>
      </trkpt>
      <trkpt lat="46.01466" lon="4.34674">
        <ele>598.56</ele>
        <time>2020-07-12T08:22:22Z</time>
      </trkpt>
      <trkpt lat="46.0148" lon="4.34661">
        <ele>598.08</ele>
        <time>2020-07-12T08:22:38Z</time>
      </trkpt>
      <trkpt lat="46.01481" lon="4.3466">
        <ele>598.08</ele>
        <time>2020-07-12T08:22:40Z</time>
      </trkpt>
      <trkpt lat="46.01496" lon="4.34649">
        <ele>596.15</ele>
        <time>2020-07-12T08:22:58Z</time>
      </trkpt>
      <trkpt lat="46.01508" lon="4.34636">
        <ele>593.75</ele>
        <time>2020-07-12T08:23:14Z</time>
      </trkpt>
      <trkpt lat="46.01515" lon="4.34628">
        <ele>592.79</ele>
        <time>2020-07-12T08:23:22Z</time>
      </trkpt>
      <trkpt lat="46.01524" lon="4.34617">
        <ele>591.83</ele>
        <time>2020-07-12T08:23:34Z</time>
      </trkpt>
      <trkpt lat="46.01531" lon="4.34605">
        <ele>591.35</ele>
        <time>2020-07-12T08:23:44Z</time>
      </trkpt>
      <trkpt lat="46.01542" lon="4.34589">
        <ele>589.43</ele>
        <time>2020-07-12T08:23:57Z</time>
      </trkpt>
      <trkpt lat="46.01544" lon="4.34585">
        <ele>589.43</ele>
        <time>2020-07-12T08:24:00Z</time>
      </trkpt>
      <trkpt lat="46.01558" lon="4.34573">
        <ele>587.98</ele>
        <time>2020-07-12T08:24:14Z</time>
      </trkpt>
      <trkpt lat="46.01567" lon="4.34566">
        <ele>587.02</ele>
        <time>2020-07-12T08:24:22Z</time>
      </trkpt>
      <trkpt lat="46.0158" lon="4.34557">
        <ele>586.54</ele>
        <time>2020-07-12T08:24:35Z</time>
      </trkpt>
      <trkpt lat="46.01593" lon="4.3455">
        <ele>586.54</ele>
        <time>2020-07-12T08:24:47Z</time>
      </trkpt>
      <trkpt lat="46.01607" lon="4.34545">
        <ele>586.54</ele>
        <time>2020-07-12T08:24:59Z</time>
      </trkpt>
      <trkpt lat="46.01618" lon="4.34537">
        <ele>587.98</ele>
        <time>2020-07-12T08:25:10Z</time>
      </trkpt>
      <trkpt lat="46.01629" lon="4.34523">
        <ele>587.98</ele>
        <time>2020-07-12T08:25:23Z</time>
      </trkpt>
      <trkpt lat="46.0163" lon="4.34521">
        <ele>586.54</ele>
        <time>2020-07-12T08:25:25Z</time>
      </trkpt>
      <trkpt lat="46.01639" lon="4.34502">
        <ele>584.62</ele>
        <time>2020-07-12T08:25:40Z</time>
      </trkpt>
      <trkpt lat="46.01646" lon="4.34488">
        <ele>584.14</ele>
        <time>2020-07-12T08:25:52Z</time>
      </trkpt>
      <trkpt lat="46.0165" lon="4.34461">
        <ele>583.18</ele>
        <time>2020-07-12T08:26:08Z</time>
      </trkpt>
      <trkpt lat="46.01651" lon="4.34436">
        <ele>582.22</ele>
        <time>2020-07-12T08:26:22Z</time>
      </trkpt>
      <trkpt lat="46.01652" lon="4.34415">
        <ele>581.25</ele>
        <time>2020-07-12T08:26:35Z</time>
      </trkpt>
      <trkpt lat="46.01652" lon="4.34407">
        <ele>580.77</ele>
        <time>2020-07-12T08:26:40Z</time>
      </trkpt>
      <trkpt lat="46.01653" lon="4.34393">
        <ele>580.29</ele>
        <time>2020-07-12T08:26:48Z</time>
      </trkpt>
      <trkpt lat="46.01651" lon="4.34383">
        <ele>579.33</ele>
        <time>2020-07-12T08:26:55Z</time>
      </trkpt>
      <trkpt lat="46.01651" lon="4.34358">
        <ele>577.41</ele>
        <time>2020-07-12T08:27:11Z</time>
      </trkpt>
      <trkpt lat="46.0165" lon="4.3434">
        <ele>575.97</ele>
        <time>2020-07-12T08:27:25Z</time>
      </trkpt>
      <trkpt lat="46.0165" lon="4.34322">
        <ele>574.04</ele>
        <time>2020-07-12T08:27:38Z</time>
      </trkpt>
      <trkpt lat="46.0165" lon="4.34303">
        <ele>573.08</ele>
        <time>2020-07-12T08:27:49Z</time>
      </trkpt>
      <trkpt lat="46.01658" lon="4.34284">
        <ele>572.12</ele>
        <time>2020-07-12T08:28:03Z</time>
      </trkpt>
      <trkpt lat="46.0167" lon="4.34265">
        <ele>571.64</ele>
        <time>2020-07-12T08:28:19Z</time>
      </trkpt>
      <trkpt lat="46.01684" lon="4.3425">
        <ele>571.64</ele>
        <time>2020-07-12T08:28:34Z</time>
      </trkpt>
      <trkpt lat="46.01699" lon="4.34241">
        <ele>573.56</ele>
        <time>2020-07-12T08:28:48Z</time>
      </trkpt>
      <trkpt lat="46.01709" lon="4.34236">
        <ele>574.53</ele>
        <time>2020-07-12T08:28:59Z</time>
      </trkpt>
      <trkpt lat="46.01721" lon="4.34235">
        <ele>576.45</ele>
        <time>2020-07-12T08:29:13Z</time>
      </trkpt>
      <trkpt lat="46.01726" lon="4.34236">
        <ele>576.93</ele>
        <time>2020-07-12T08:29:18Z</time>
      </trkpt>
      <trkpt lat="46.01734" lon="4.34234">
        <ele>578.37</ele>
        <time>2020-07-12T08:29:30Z</time>
      </trkpt>
      <trkpt lat="46.01731" lon="4.34231">
        <ele>578.85</ele>
        <time>2020-07-12T08:29:34Z</time>
      </trkpt>
      <trkpt lat="46.01721" lon="4.34224">
        <ele>580.77</ele>
        <time>2020-07-12T08:29:48Z</time>
      </trkpt>
      <trkpt lat="46.01718" lon="4.34221">
        <ele>580.77</ele>
        <time>2020-07-12T08:29:53Z</time>
      </trkpt>
      <trkpt lat="46.0171" lon="4.34209">
        <ele>583.18</ele>
        <time>2020-07-12T08:30:07Z</time>
      </trkpt>
      <trkpt lat="46.01704" lon="4.34197">
        <ele>585.1</ele>
        <time>2020-07-12T08:30:19Z</time>
      </trkpt>
      <trkpt lat="46.01703" lon="4.34196">
        <ele>585.1</ele>
        <time>2020-07-12T08:30:20Z</time>
      </trkpt>
      <trkpt lat="46.017" lon="4.34195">
        <ele>585.58</ele>
        <time>2020-07-12T08:30:24Z</time>
      </trkpt>
      <trkpt lat="46.01696" lon="4.34191">
        <ele>586.06</ele>
        <time>2020-07-12T08:30:30Z</time>
      </trkpt>
      <trkpt lat="46.01694" lon="4.34188">
        <ele>586.54</ele>
        <time>2020-07-12T08:30:34Z</time>
      </trkpt>
      <trkpt lat="46.01692" lon="4.34186">
        <ele>587.5</ele>
        <time>2020-07-12T08:30:37Z</time>
      </trkpt>
      <trkpt lat="46.01685" lon="4.34176">
        <ele>588.95</ele>
        <time>2020-07-12T08:30:48Z</time>
      </trkpt>
      <trkpt lat="46.01681" lon="4.34169">
        <ele>589.91</ele>
        <time>2020-07-12T08:30:55Z</time>
      </trkpt>
      <trkpt lat="46.01678" lon="4.34166">
        <ele>590.39</ele>
        <time>2020-07-12T08:30:59Z</time>
      </trkpt>
      <trkpt lat="46.0167" lon="4.3416">
        <ele>591.83</ele>
        <time>2020-07-12T08:31:11Z</time>
      </trkpt>
      <trkpt lat="46.01666" lon="4.34153">
        <ele>591.83</ele>
        <time>2020-07-12T08:31:18Z</time>
      </trkpt>
      <trkpt lat="46.01661" lon="4.34148">
        <ele>593.27</ele>
        <time>2020-07-12T08:31:25Z</time>
      </trkpt>
      <trkpt lat="46.01658" lon="4.34146">
        <ele>593.75</ele>
        <time>2020-07-12T08:31:29Z</time>
      </trkpt>
      <trkpt lat="46.01653" lon="4.34143">
        <ele>594.71</ele>
        <time>2020-07-12T08:31:36Z</time>
      </trkpt>
      <trkpt lat="46.01646" lon="4.3414">
        <ele>596.15</ele>
        <time>2020-07-12T08:31:46Z</time>
      </trkpt>
      <trkpt lat="46.0164" lon="4.3414">
        <ele>596.64</ele>
        <time>2020-07-12T08:31:53Z</time>
      </trkpt>
      <trkpt lat="46.01633" lon="4.3414">
        <ele>598.08</ele>
        <time>2020-07-12T08:32:00Z</time>
      </trkpt>
      <trkpt lat="46.01626" lon="4.34137">
        <ele>599.52</ele>
        <time>2020-07-12T08:32:08Z</time>
      </trkpt>
      <trkpt lat="46.01619" lon="4.34134">
        <ele>600.96</ele>
        <time>2020-07-12T08:32:16Z</time>
      </trkpt>
      <trkpt lat="46.01616" lon="4.34131">
        <ele>601.44</ele>
        <time>2020-07-12T08:32:20Z</time>
      </trkpt>
      <trkpt lat="46.01608" lon="4.34124">
        <ele>602.4</ele>
        <time>2020-07-12T08:32:31Z</time>
      </trkpt>
      <trkpt lat="46.01603" lon="4.34118">
        <ele>603.36</ele>
        <time>2020-07-12T08:32:38Z</time>
      </trkpt>
      <trkpt lat="46.01601" lon="4.34115">
        <ele>603.85</ele>
        <time>2020-07-12T08:32:41Z</time>
      </trkpt>
      <trkpt lat="46.01599" lon="4.34113">
        <ele>604.33</ele>
        <time>2020-07-12T08:32:45Z</time>
      </trkpt>
      <trkpt lat="46.01597" lon="4.3411">
        <ele>604.81</ele>
        <time>2020-07-12T08:32:48Z</time>
      </trkpt>
      <trkpt lat="46.01591" lon="4.34103">
        <ele>605.77</ele>
        <time>2020-07-12T08:32:56Z</time>
      </trkpt>
      <trkpt lat="46.01588" lon="4.34101">
        <ele>606.73</ele>
        <time>2020-07-12T08:33:00Z</time>
      </trkpt>
      <trkpt lat="46.01583" lon="4.34096">
        <ele>607.21</ele>
        <time>2020-07-12T08:33:07Z</time>
      </trkpt>
      <trkpt lat="46.0157" lon="4.34088">
        <ele>608.65</ele>
        <time>2020-07-12T08:33:20Z</time>
      </trkpt>
      <trkpt lat="46.0156" lon="4.34085">
        <ele>610.09</ele>
        <time>2020-07-12T08:33:31Z</time>
      </trkpt>
      <trkpt lat="46.0155" lon="4.34084">
        <ele>611.06</ele>
        <time>2020-07-12T08:33:41Z</time>
      </trkpt>
      <trkpt lat="46.01538" lon="4.34082">
        <ele>612.5</ele>
        <time>2020-07-12T08:33:52Z</time>
      </trkpt>
      <trkpt lat="46.01529" lon="4.34082">
        <ele>613.94</ele>
        <time>2020-07-12T08:34:02Z</time>
      </trkpt>
      <trkpt lat="46.01526" lon="4.34082">
        <ele>614.42</ele>
        <time>2020-07-12T08:34:06Z</time>
      </trkpt>
      <trkpt lat="46.01522" lon="4.34082">
        <ele>614.42</ele>
        <time>2020-07-12T08:34:10Z</time>
      </trkpt>
      <trkpt lat="46.01519" lon="4.34082">
        <ele>615.38</ele>
        <time>2020-07-12T08:34:14Z</time>
      </trkpt>
      <trkpt lat="46.01507" lon="4.34081">
        <ele>616.82</ele>
        <time>2020-07-12T08:34:26Z</time>
      </trkpt>
      <trkpt lat="46.01496" lon="4.34079">
        <ele>617.78</ele>
        <time>2020-07-12T08:34:38Z</time>
      </trkpt>
      <trkpt lat="46.01484" lon="4.34075">
        <ele>618.75</ele>
        <time>2020-07-12T08:34:50Z</time>
      </trkpt>
      <trkpt lat="46.01474" lon="4.34072">
        <ele>619.71</ele>
        <time>2020-07-12T08:35:01Z</time>
      </trkpt>
      <trkpt lat="46.01463" lon="4.34066">
        <ele>620.67</ele>
        <time>2020-07-12T08:35:14Z</time>
      </trkpt>
      <trkpt lat="46.0146" lon="4.34062">
        <ele>620.67</ele>
        <time>2020-07-12T08:35:17Z</time>
      </trkpt>
      <trkpt lat="46.01461" lon="4.34055">
        <ele>621.15</ele>
        <time>2020-07-12T08:35:30Z</time>
      </trkpt>
      <trkpt lat="46.01462" lon="4.34049">
        <ele>621.63</ele>
        <time>2020-07-12T08:35:50Z</time>
      </trkpt>
      <trkpt lat="46.01465" lon="4.34038">
        <ele>622.59</ele>
        <time>2020-07-12T08:36:02Z</time>
      </trkpt>
      <trkpt lat="46.01471" lon="4.34027">
        <ele>623.55</ele>
        <time>2020-07-12T08:36:12Z</time>
      </trkpt>
      <trkpt lat="46.01477" lon="4.34017">
        <ele>624.51</ele>
        <time>2020-07-12T08:36:23Z</time>
      </trkpt>
      <trkpt lat="46.01478" lon="4.34015">
        <ele>625.47</ele>
        <time>2020-07-12T08:36:26Z</time>
      </trkpt>
      <trkpt lat="46.01481" lon="4.34012">
        <ele>625.47</ele>
        <time>2020-07-12T08:36:30Z</time>
      </trkpt>
      <trkpt lat="46.01488" lon="4.34001">
        <ele>626.92</ele>
        <time>2020-07-12T08:36:42Z</time>
      </trkpt>
      <trkpt lat="46.01492" lon="4.33994">
        <ele>627.88</ele>
        <time>2020-07-12T08:36:54Z</time>
      </trkpt>
      <trkpt lat="46.01495" lon="4.33993">
        <ele>628.36</ele>
        <time>2020-07-12T08:36:57Z</time>
      </trkpt>
      <trkpt lat="46.01509" lon="4.33986">
        <ele>629.8</ele>
        <time>2020-07-12T08:37:12Z</time>
      </trkpt>
      <trkpt lat="46.01519" lon="4.33984">
        <ele>631.24</ele>
        <time>2020-07-12T08:37:23Z</time>
      </trkpt>
      <trkpt lat="46.01529" lon="4.33982">
        <ele>632.2</ele>
        <time>2020-07-12T08:37:35Z</time>
      </trkpt>
      <trkpt lat="46.01532" lon="4.33982">
        <ele>632.68</ele>
        <time>2020-07-12T08:37:38Z</time>
      </trkpt>
      <trkpt lat="46.01535" lon="4.33982">
        <ele>633.17</ele>
        <time>2020-07-12T08:37:42Z</time>
      </trkpt>
      <trkpt lat="46.01537" lon="4.33982">
        <ele>633.65</ele>
        <time>2020-07-12T08:37:45Z</time>
      </trkpt>
      <trkpt lat="46.01544" lon="4.33983">
        <ele>634.61</ele>
        <time>2020-07-12T08:37:53Z</time>
      </trkpt>
      <trkpt lat="46.01547" lon="4.33983">
        <ele>635.57</ele>
        <time>2020-07-12T08:37:57Z</time>
      </trkpt>
      <trkpt lat="46.01555" lon="4.33982">
        <ele>637.49</ele>
        <time>2020-07-12T08:38:09Z</time>
      </trkpt>
      <trkpt lat="46.01563" lon="4.33981">
        <ele>638.45</ele>
        <time>2020-07-12T08:38:20Z</time>
      </trkpt>
      <trkpt lat="46.01572" lon="4.33974">
        <ele>640.38</ele>
        <time>2020-07-12T08:38:32Z</time>
      </trkpt>
      <trkpt lat="46.01575" lon="4.33972">
        <ele>640.86</ele>
        <time>2020-07-12T08:38:36Z</time>
      </trkpt>
      <trkpt lat="46.0158" lon="4.33968">
        <ele>641.82</ele>
        <time>2020-07-12T08:38:43Z</time>
      </trkpt>
      <trkpt lat="46.01583" lon="4.33967">
        <ele>641.82</ele>
        <time>2020-07-12T08:38:47Z</time>
      </trkpt>
      <trkpt lat="46.01585" lon="4.33966">
        <ele>643.26</ele>
        <time>2020-07-12T08:38:50Z</time>
      </trkpt>
      <trkpt lat="46.01587" lon="4.33965">
        <ele>643.26</ele>
        <time>2020-07-12T08:38:54Z</time>
      </trkpt>
      <trkpt lat="46.0159" lon="4.33964">
        <ele>644.22</ele>
        <time>2020-07-12T08:38:57Z</time>
      </trkpt>
      <trkpt lat="46.01593" lon="4.33962">
        <ele>644.22</ele>
        <time>2020-07-12T08:39:01Z</time>
      </trkpt>
      <trkpt lat="46.01595" lon="4.33961">
        <ele>645.18</ele>
        <time>2020-07-12T08:39:04Z</time>
      </trkpt>
      <trkpt lat="46.016" lon="4.33958">
        <ele>646.14</ele>
        <time>2020-07-12T08:39:11Z</time>
      </trkpt>
      <trkpt lat="46.01603" lon="4.33958">
        <ele>646.62</ele>
        <time>2020-07-12T08:39:14Z</time>
      </trkpt>
      <trkpt lat="46.01605" lon="4.33954">
        <ele>647.59</ele>
        <time>2020-07-12T08:39:18Z</time>
      </trkpt>
      <trkpt lat="46.01608" lon="4.33952">
        <ele>648.07</ele>
        <time>2020-07-12T08:39:21Z</time>
      </trkpt>
      <trkpt lat="46.01609" lon="4.33951">
        <ele>648.55</ele>
        <time>2020-07-12T08:39:24Z</time>
      </trkpt>
      <trkpt lat="46.01612" lon="4.3395">
        <ele>649.03</ele>
        <time>2020-07-12T08:39:28Z</time>
      </trkpt>
      <trkpt lat="46.01616" lon="4.33949">
        <ele>649.51</ele>
        <time>2020-07-12T08:39:32Z</time>
      </trkpt>
      <trkpt lat="46.01618" lon="4.33948">
        <ele>649.99</ele>
        <time>2020-07-12T08:39:35Z</time>
      </trkpt>
      <trkpt lat="46.01621" lon="4.33947">
        <ele>650.95</ele>
        <time>2020-07-12T08:39:39Z</time>
      </trkpt>
      <trkpt lat="46.01625" lon="4.33944">
        <ele>651.43</ele>
        <time>2020-07-12T08:39:45Z</time>
      </trkpt>
      <trkpt lat="46.01633" lon="4.33939">
        <ele>651.91</ele>
        <time>2020-07-12T08:39:54Z</time>
      </trkpt>
      <trkpt lat="46.01636" lon="4.33938">
        <ele>652.87</ele>
        <time>2020-07-12T08:39:57Z</time>
      </trkpt>
      <trkpt lat="46.01644" lon="4.33937">
        <ele>653.35</ele>
        <time>2020-07-12T08:40:05Z</time>
      </trkpt>
      <trkpt lat="46.01651" lon="4.33932">
        <ele>653.83</ele>
        <time>2020-07-12T08:40:13Z</time>
      </trkpt>
      <trkpt lat="46.01661" lon="4.33928">
        <ele>654.31</ele>
        <time>2020-07-12T08:40:24Z</time>
      </trkpt>
      <trkpt lat="46.01672" lon="4.33922">
        <ele>655.76</ele>
        <time>2020-07-12T08:40:36Z</time>
      </trkpt>
      <trkpt lat="46.0168" lon="4.33917">
        <ele>656.24</ele>
        <time>2020-07-12T08:40:45Z</time>
      </trkpt>
      <trkpt lat="46.01694" lon="4.33909">
        <ele>657.2</ele>
        <time>2020-07-12T08:40:58Z</time>
      </trkpt>
      <trkpt lat="46.01704" lon="4.33904">
        <ele>658.16</ele>
        <time>2020-07-12T08:41:08Z</time>
      </trkpt>
      <trkpt lat="46.01718" lon="4.33899">
        <ele>658.64</ele>
        <time>2020-07-12T08:41:20Z</time>
      </trkpt>
      <trkpt lat="46.01729" lon="4.33894">
        <ele>659.12</ele>
        <time>2020-07-12T08:41:32Z</time>
      </trkpt>
      <trkpt lat="46.01741" lon="4.33886">
        <ele>660.56</ele>
        <time>2020-07-12T08:41:45Z</time>
      </trkpt>
      <trkpt lat="46.01752" lon="4.33881">
        <ele>661.04</ele>
        <time>2020-07-12T08:41:57Z</time>
      </trkpt>
      <trkpt lat="46.01757" lon="4.33878">
        <ele>661.04</ele>
        <time>2020-07-12T08:42:03Z</time>
      </trkpt>
      <trkpt lat="46.01764" lon="4.33879">
        <ele>661.52</ele>
        <time>2020-07-12T08:42:15Z</time>
      </trkpt>
      <trkpt lat="46.01763" lon="4.33882">
        <ele>662.01</ele>
        <time>2020-07-12T08:42:36Z</time>
      </trkpt>
      <trkpt lat="46.01765" lon="4.33875">
        <ele>662.01</ele>
        <time>2020-07-12T08:42:49Z</time>
      </trkpt>
      <trkpt lat="46.01765" lon="4.33877">
        <ele>662.49</ele>
        <time>2020-07-12T08:43:07Z</time>
      </trkpt>
      <trkpt lat="46.01777" lon="4.33875">
        <ele>661.04</ele>
        <time>2020-07-12T08:43:19Z</time>
      </trkpt>
      <trkpt lat="46.01792" lon="4.3387">
        <ele>660.56</ele>
        <time>2020-07-12T08:43:34Z</time>
      </trkpt>
      <trkpt lat="46.01796" lon="4.3387">
        <ele>660.56</ele>
        <time>2020-07-12T08:43:37Z</time>
      </trkpt>
      <trkpt lat="46.01812" lon="4.3387">
        <ele>660.08</ele>
        <time>2020-07-12T08:43:51Z</time>
      </trkpt>
      <trkpt lat="46.01829" lon="4.33873">
        <ele>660.08</ele>
        <time>2020-07-12T08:44:05Z</time>
      </trkpt>
      <trkpt lat="46.01837" lon="4.33873">
        <ele>660.08</ele>
        <time>2020-07-12T08:44:11Z</time>
      </trkpt>
      <trkpt lat="46.01857" lon="4.33877">
        <ele>660.08</ele>
        <time>2020-07-12T08:44:28Z</time>
      </trkpt>
      <trkpt lat="46.01874" lon="4.33881">
        <ele>660.08</ele>
        <time>2020-07-12T08:44:44Z</time>
      </trkpt>
      <trkpt lat="46.01891" lon="4.33885">
        <ele>660.08</ele>
        <time>2020-07-12T08:44:58Z</time>
      </trkpt>
      <trkpt lat="46.01914" lon="4.33892">
        <ele>661.52</ele>
        <time>2020-07-12T08:45:14Z</time>
      </trkpt>
      <trkpt lat="46.01934" lon="4.33896">
        <ele>662.97</ele>
        <time>2020-07-12T08:45:30Z</time>
      </trkpt>
      <trkpt lat="46.01953" lon="4.33899">
        <ele>663.45</ele>
        <time>2020-07-12T08:45:45Z</time>
      </trkpt>
      <trkpt lat="46.01976" lon="4.33901">
        <ele>664.41</ele>
        <time>2020-07-12T08:46:02Z</time>
      </trkpt>
      <trkpt lat="46.01984" lon="4.33899">
        <ele>664.89</ele>
        <time>2020-07-12T08:46:09Z</time>
      </trkpt>
      <trkpt lat="46.02002" lon="4.33894">
        <ele>666.33</ele>
        <time>2020-07-12T08:46:26Z</time>
      </trkpt>
      <trkpt lat="46.02014" lon="4.33888">
        <ele>666.81</ele>
        <time>2020-07-12T08:46:39Z</time>
      </trkpt>
      <trkpt lat="46.02028" lon="4.3388">
        <ele>667.77</ele>
        <time>2020-07-12T08:46:52Z</time>
      </trkpt>
      <trkpt lat="46.02042" lon="4.33874">
        <ele>668.25</ele>
        <time>2020-07-12T08:47:06Z</time>
      </trkpt>
      <trkpt lat="46.0205" lon="4.33871">
        <ele>668.25</ele>
        <time>2020-07-12T08:47:13Z</time>
      </trkpt>
      <trkpt lat="46.02065" lon="4.33864">
        <ele>668.25</ele>
        <time>2020-07-12T08:47:28Z</time>
      </trkpt>
      <trkpt lat="46.02079" lon="4.33858">
        <ele>667.29</ele>
        <time>2020-07-12T08:47:40Z</time>
      </trkpt>
      <trkpt lat="46.02097" lon="4.33848">
        <ele>666.33</ele>
        <time>2020-07-12T08:47:57Z</time>
      </trkpt>
      <trkpt lat="46.02114" lon="4.33837">
        <ele>665.85</ele>
        <time>2020-07-12T08:48:13Z</time>
      </trkpt>
      <trkpt lat="46.02124" lon="4.33831">
        <ele>665.85</ele>
        <time>2020-07-12T08:48:27Z</time>
      </trkpt>
      <trkpt lat="46.02143" lon="4.33819">
        <ele>664.89</ele>
        <time>2020-07-12T08:48:45Z</time>
      </trkpt>
      <trkpt lat="46.02144" lon="4.33819">
        <ele>664.89</ele>
        <time>2020-07-12T08:48:46Z</time>
      </trkpt>
      <trkpt lat="46.02148" lon="4.33824">
        <ele>664.89</ele>
        <time>2020-07-12T08:49:00Z</time>
      </trkpt>
      <trkpt lat="46.02156" lon="4.33816">
        <ele>664.41</ele>
        <time>2020-07-12T08:49:13Z</time>
      </trkpt>
      <trkpt lat="46.02173" lon="4.33806">
        <ele>663.93</ele>
        <time>2020-07-12T08:49:28Z</time>
      </trkpt>
      <trkpt lat="46.02187" lon="4.33802">
        <ele>663.45</ele>
        <time>2020-07-12T08:49:43Z</time>
      </trkpt>
      <trkpt lat="46.02203" lon="4.33803">
        <ele>663.45</ele>
        <time>2020-07-12T08:49:57Z</time>
      </trkpt>
      <trkpt lat="46.0222" lon="4.33806">
        <ele>662.97</ele>
        <time>2020-07-12T08:50:12Z</time>
      </trkpt>
      <trkpt lat="46.02237" lon="4.33806">
        <ele>662.97</ele>
        <time>2020-07-12T08:50:26Z</time>
      </trkpt>
      <trkpt lat="46.02244" lon="4.33804">
        <ele>662.97</ele>
        <time>2020-07-12T08:50:33Z</time>
      </trkpt>
      <trkpt lat="46.02259" lon="4.33806">
        <ele>662.01</ele>
        <time>2020-07-12T08:50:47Z</time>
      </trkpt>
      <trkpt lat="46.02275" lon="4.33806">
        <ele>660.56</ele>
        <time>2020-07-12T08:51:01Z</time>
      </trkpt>
      <trkpt lat="46.0229" lon="4.33806">
        <ele>659.12</ele>
        <time>2020-07-12T08:51:15Z</time>
      </trkpt>
      <trkpt lat="46.02306" lon="4.33808">
        <ele>657.68</ele>
        <time>2020-07-12T08:51:31Z</time>
      </trkpt>
      <trkpt lat="46.02314" lon="4.33809">
        <ele>656.72</ele>
        <time>2020-07-12T08:51:38Z</time>
      </trkpt>
      <trkpt lat="46.02326" lon="4.33811">
        <ele>655.76</ele>
        <time>2020-07-12T08:51:50Z</time>
      </trkpt>
      <trkpt lat="46.02342" lon="4.33814">
        <ele>653.83</ele>
        <time>2020-07-12T08:52:05Z</time>
      </trkpt>
      <trkpt lat="46.02357" lon="4.33817">
        <ele>652.39</ele>
        <time>2020-07-12T08:52:19Z</time>
      </trkpt>
      <trkpt lat="46.02358" lon="4.33818">
        <ele>652.39</ele>
        <time>2020-07-12T08:52:20Z</time>
      </trkpt>
      <trkpt lat="46.02375" lon="4.33816">
        <ele>651.91</ele>
        <time>2020-07-12T08:52:35Z</time>
      </trkpt>
      <trkpt lat="46.02385" lon="4.33816">
        <ele>651.43</ele>
        <time>2020-07-12T08:52:49Z</time>
      </trkpt>
      <trkpt lat="46.024" lon="4.33814">
        <ele>651.43</ele>
        <time>2020-07-12T08:53:02Z</time>
      </trkpt>
      <trkpt lat="46.02421" lon="4.33812">
        <ele>651.43</ele>
        <time>2020-07-12T08:53:20Z</time>
      </trkpt>
      <trkpt lat="46.02434" lon="4.33814">
        <ele>651.43</ele>
        <time>2020-07-12T08:53:31Z</time>
      </trkpt>
      <trkpt lat="46.02439" lon="4.33817">
        <ele>651.43</ele>
        <time>2020-07-12T08:53:35Z</time>
      </trkpt>
      <trkpt lat="46.02444" lon="4.33818">
        <ele>651.43</ele>
        <time>2020-07-12T08:53:52Z</time>
      </trkpt>
      <trkpt lat="46.0245" lon="4.3382">
        <ele>651.91</ele>
        <time>2020-07-12T08:54:06Z</time>
      </trkpt>
      <trkpt lat="46.02456" lon="4.33822">
        <ele>651.91</ele>
        <time>2020-07-12T08:54:19Z</time>
      </trkpt>
      <trkpt lat="46.02455" lon="4.33822">
        <ele>651.43</ele>
        <time>2020-07-12T08:54:31Z</time>
      </trkpt>
      <trkpt lat="46.02458" lon="4.33826">
        <ele>651.43</ele>
        <time>2020-07-12T08:54:43Z</time>
      </trkpt>
      <trkpt lat="46.02461" lon="4.33826">
        <ele>651.43</ele>
        <time>2020-07-12T08:55:01Z</time>
      </trkpt>
      <trkpt lat="46.0246" lon="4.33827">
        <ele>651.43</ele>
        <time>2020-07-12T08:55:23Z</time>
      </trkpt>
      <trkpt lat="46.0246" lon="4.33826">
        <ele>651.43</ele>
        <time>2020-07-12T08:55:48Z</time>
      </trkpt>
      <trkpt lat="46.0246" lon="4.33832">
        <ele>651.43</ele>
        <time>2020-07-12T08:56:12Z</time>
      </trkpt>
      <trkpt lat="46.02462" lon="4.3383">
        <ele>651.43</ele>
        <time>2020-07-12T08:56:27Z</time>
      </trkpt>
      <trkpt lat="46.02457" lon="4.33836">
        <ele>651.43</ele>
        <time>2020-07-12T08:56:40Z</time>
      </trkpt>
      <trkpt lat="46.02456" lon="4.33834">
        <ele>651.43</ele>
        <time>2020-07-12T08:56:59Z</time>
      </trkpt>
      <trkpt lat="46.02455" lon="4.33833">
        <ele>651.43</ele>
        <time>2020-07-12T08:57:19Z</time>
      </trkpt>
      <trkpt lat="46.02454" lon="4.33832">
        <ele>651.43</ele>
        <time>2020-07-12T08:57:43Z</time>
      </trkpt>
      <trkpt lat="46.02455" lon="4.33831">
        <ele>651.43</ele>
        <time>2020-07-12T08:58:04Z</time>
      </trkpt>
      <trkpt lat="46.02456" lon="4.33833">
        <ele>651.43</ele>
        <time>2020-07-12T08:58:35Z</time>
      </trkpt>
      <trkpt lat="46.02454" lon="4.33834">
        <ele>651.43</ele>
        <time>2020-07-12T08:59:04Z</time>
      </trkpt>
      <trkpt lat="46.02456" lon="4.33836">
        <ele>651.43</ele>
        <time>2020-07-12T08:59:31Z</time>
      </trkpt>
      <trkpt lat="46.02456" lon="4.33833">
        <ele>651.43</ele>
        <time>2020-07-12T08:59:51Z</time>
      </trkpt>
      <trkpt lat="46.02456" lon="4.33828">
        <ele>651.43</ele>
        <time>2020-07-12T09:00:11Z</time>
      </trkpt>
      <trkpt lat="46.02456" lon="4.33828">
        <ele>651.43</ele>
        <time>2020-07-12T09:00:27Z</time>
      </trkpt>
      <trkpt lat="46.02455" lon="4.33826">
        <ele>651.43</ele>
        <time>2020-07-12T09:00:44Z</time>
      </trkpt>
      <trkpt lat="46.02455" lon="4.33825">
        <ele>651.43</ele>
        <time>2020-07-12T09:01:06Z</time>
      </trkpt>
      <trkpt lat="46.02457" lon="4.33823">
        <ele>651.91</ele>
        <time>2020-07-12T09:01:24Z</time>
      </trkpt>
      <trkpt lat="46.0246" lon="4.33827">
        <ele>651.43</ele>
        <time>2020-07-12T09:01:45Z</time>
      </trkpt>
      <trkpt lat="46.02459" lon="4.33825">
        <ele>651.43</ele>
        <time>2020-07-12T09:02:17Z</time>
      </trkpt>
      <trkpt lat="46.0246" lon="4.33823">
        <ele>651.43</ele>
        <time>2020-07-12T09:02:46Z</time>
      </trkpt>
      <trkpt lat="46.02463" lon="4.33822">
        <ele>650.95</ele>
        <time>2020-07-12T09:03:10Z</time>
      </trkpt>
      <trkpt lat="46.02465" lon="4.33823">
        <ele>650.95</ele>
        <time>2020-07-12T09:03:34Z</time>
      </trkpt>
      <trkpt lat="46.02457" lon="4.33825">
        <ele>650.95</ele>
        <time>2020-07-12T09:04:00Z</time>
      </trkpt>
      <trkpt lat="46.02454" lon="4.33826">
        <ele>650.95</ele>
        <time>2020-07-12T09:04:39Z</time>
      </trkpt>
      <trkpt lat="46.02459" lon="4.33824">
        <ele>651.43</ele>
        <time>2020-07-12T09:05:12Z</time>
      </trkpt>
      <trkpt lat="46.02463" lon="4.33822">
        <ele>651.43</ele>
        <time>2020-07-12T09:05:47Z</time>
      </trkpt>
      <trkpt lat="46.02464" lon="4.33821">
        <ele>651.91</ele>
        <time>2020-07-12T09:06:06Z</time>
      </trkpt>
      <trkpt lat="46.02463" lon="4.33823">
        <ele>651.91</ele>
        <time>2020-07-12T09:06:27Z</time>
      </trkpt>
      <trkpt lat="46.02463" lon="4.33825">
        <ele>651.91</ele>
        <time>2020-07-12T09:06:52Z</time>
      </trkpt>
      <trkpt lat="46.02465" lon="4.33826">
        <ele>651.43</ele>
        <time>2020-07-12T09:07:12Z</time>
      </trkpt>
      <trkpt lat="46.02465" lon="4.33826">
        <ele>652.87</ele>
        <time>2020-07-12T09:07:14Z</time>
      </trkpt>
      <trkpt lat="46.02465" lon="4.33829">
        <ele>653.35</ele>
        <time>2020-07-12T09:07:34Z</time>
      </trkpt>
      <trkpt lat="46.02459" lon="4.33828">
        <ele>653.35</ele>
        <time>2020-07-12T09:07:50Z</time>
      </trkpt>
      <trkpt lat="46.02458" lon="4.33828">
        <ele>652.39</ele>
        <time>2020-07-12T09:07:53Z</time>
      </trkpt>
      <trkpt lat="46.02458" lon="4.33824">
        <ele>652.39</ele>
        <time>2020-07-12T09:08:19Z</time>
      </trkpt>
      <trkpt lat="46.0246" lon="4.33826">
        <ele>652.39</ele>
        <time>2020-07-12T09:08:56Z</time>
      </trkpt>
      <trkpt lat="46.02458" lon="4.33827">
        <ele>652.39</ele>
        <time>2020-07-12T09:09:24Z</time>
      </trkpt>
      <trkpt lat="46.02456" lon="4.33826">
        <ele>652.39</ele>
        <time>2020-07-12T09:09:46Z</time>
      </trkpt>
      <trkpt lat="46.02457" lon="4.33826">
        <ele>652.39</ele>
        <time>2020-07-12T09:10:13Z</time>
      </trkpt>
      <trkpt lat="46.02458" lon="4.33824">
        <ele>652.39</ele>
        <time>2020-07-12T09:10:48Z</time>
      </trkpt>
      <trkpt lat="46.0246" lon="4.33824">
        <ele>652.87</ele>
        <time>2020-07-12T09:11:24Z</time>
      </trkpt>
      <trkpt lat="46.02457" lon="4.33828">
        <ele>652.87</ele>
        <time>2020-07-12T09:11:58Z</time>
      </trkpt>
      <trkpt lat="46.02453" lon="4.33829">
        <ele>652.87</ele>
        <time>2020-07-12T09:12:23Z</time>
      </trkpt>
      <trkpt lat="46.02454" lon="4.33827">
        <ele>652.87</ele>
        <time>2020-07-12T09:12:57Z</time>
      </trkpt>
      <trkpt lat="46.02455" lon="4.33826">
        <ele>652.87</ele>
        <time>2020-07-12T09:13:28Z</time>
      </trkpt>
      <trkpt lat="46.02455" lon="4.33826">
        <ele>652.39</ele>
        <time>2020-07-12T09:13:53Z</time>
      </trkpt>
      <trkpt lat="46.02454" lon="4.33825">
        <ele>652.39</ele>
        <time>2020-07-12T09:14:21Z</time>
      </trkpt>
      <trkpt lat="46.02456" lon="4.33825">
        <ele>652.39</ele>
        <time>2020-07-12T09:14:54Z</time>
      </trkpt>
      <trkpt lat="46.02457" lon="4.33826">
        <ele>652.39</ele>
        <time>2020-07-12T09:15:17Z</time>
      </trkpt>
      <trkpt lat="46.02456" lon="4.33828">
        <ele>652.39</ele>
        <time>2020-07-12T09:15:38Z</time>
      </trkpt>
      <trkpt lat="46.02455" lon="4.33826">
        <ele>651.91</ele>
        <time>2020-07-12T09:16:10Z</time>
      </trkpt>
      <trkpt lat="46.02456" lon="4.33823">
        <ele>651.91</ele>
        <time>2020-07-12T09:16:36Z</time>
      </trkpt>
      <trkpt lat="46.02458" lon="4.33821">
        <ele>651.91</ele>
        <time>2020-07-12T09:16:58Z</time>
      </trkpt>
      <trkpt lat="46.02463" lon="4.33826">
        <ele>651.91</ele>
        <time>2020-07-12T09:17:30Z</time>
      </trkpt>
      <trkpt lat="46.02461" lon="4.33821">
        <ele>651.91</ele>
        <time>2020-07-12T09:18:00Z</time>
      </trkpt>
      <trkpt lat="46.02456" lon="4.33827">
        <ele>651.91</ele>
        <time>2020-07-12T09:18:36Z</time>
      </trkpt>
      <trkpt lat="46.02456" lon="4.3383">
        <ele>651.91</ele>
        <time>2020-07-12T09:19:07Z</time>
      </trkpt>
      <trkpt lat="46.02455" lon="4.33828">
        <ele>651.91</ele>
        <time>2020-07-12T09:19:29Z</time>
      </trkpt>
      <trkpt lat="46.02456" lon="4.33829">
        <ele>651.91</ele>
        <time>2020-07-12T09:19:53Z</time>
      </trkpt>
      <trkpt lat="46.02462" lon="4.33825">
        <ele>651.91</ele>
        <time>2020-07-12T09:20:09Z</time>
      </trkpt>
      <trkpt lat="46.02462" lon="4.33827">
        <ele>652.87</ele>
        <time>2020-07-12T09:20:24Z</time>
      </trkpt>
      <trkpt lat="46.02461" lon="4.33823">
        <ele>653.35</ele>
        <time>2020-07-12T09:20:46Z</time>
      </trkpt>
      <trkpt lat="46.02461" lon="4.33823">
        <ele>653.35</ele>
        <time>2020-07-12T09:21:07Z</time>
      </trkpt>
      <trkpt lat="46.02461" lon="4.33827">
        <ele>651.91</ele>
        <time>2020-07-12T09:21:36Z</time>
      </trkpt>
      <trkpt lat="46.0247" lon="4.33836">
        <ele>651.91</ele>
        <time>2020-07-12T09:21:49Z</time>
      </trkpt>
      <trkpt lat="46.02482" lon="4.33841">
        <ele>653.35</ele>
        <time>2020-07-12T09:22:01Z</time>
      </trkpt>
      <trkpt lat="46.02486" lon="4.33843">
        <ele>653.83</ele>
        <time>2020-07-12T09:22:07Z</time>
      </trkpt>
      <trkpt lat="46.02489" lon="4.33846">
        <ele>653.83</ele>
        <time>2020-07-12T09:22:10Z</time>
      </trkpt>
      <trkpt lat="46.02504" lon="4.33862">
        <ele>654.8</ele>
        <time>2020-07-12T09:22:27Z</time>
      </trkpt>
      <trkpt lat="46.0251" lon="4.33865">
        <ele>655.28</ele>
        <time>2020-07-12T09:22:35Z</time>
      </trkpt>
      <trkpt lat="46.02515" lon="4.3387">
        <ele>655.76</ele>
        <time>2020-07-12T09:22:41Z</time>
      </trkpt>
      <trkpt lat="46.02518" lon="4.33872">
        <ele>655.76</ele>
        <time>2020-07-12T09:22:43Z</time>
      </trkpt>
      <trkpt lat="46.02531" lon="4.33887">
        <ele>656.72</ele>
        <time>2020-07-12T09:22:58Z</time>
      </trkpt>
      <trkpt lat="46.02536" lon="4.33891">
        <ele>656.72</ele>
        <time>2020-07-12T09:23:04Z</time>
      </trkpt>
      <trkpt lat="46.0254" lon="4.33897">
        <ele>657.2</ele>
        <time>2020-07-12T09:23:09Z</time>
      </trkpt>
      <trkpt lat="46.02544" lon="4.33903">
        <ele>657.68</ele>
        <time>2020-07-12T09:23:15Z</time>
      </trkpt>
      <trkpt lat="46.02558" lon="4.33913">
        <ele>658.16</ele>
        <time>2020-07-12T09:23:30Z</time>
      </trkpt>
      <trkpt lat="46.02571" lon="4.33927">
        <ele>658.64</ele>
        <time>2020-07-12T09:23:45Z</time>
      </trkpt>
      <trkpt lat="46.02585" lon="4.3394">
        <ele>658.64</ele>
        <time>2020-07-12T09:24:01Z</time>
      </trkpt>
      <trkpt lat="46.02601" lon="4.33954">
        <ele>658.64</ele>
        <time>2020-07-12T09:24:18Z</time>
      </trkpt>
      <trkpt lat="46.02612" lon="4.33967">
        <ele>656.72</ele>
        <time>2020-07-12T09:24:34Z</time>
      </trkpt>
      <trkpt lat="46.02621" lon="4.33976">
        <ele>655.28</ele>
        <time>2020-07-12T09:24:46Z</time>
      </trkpt>
      <trkpt lat="46.02634" lon="4.33986">
        <ele>653.35</ele>
        <time>2020-07-12T09:25:01Z</time>
      </trkpt>
      <trkpt lat="46.02641" lon="4.33991">
        <ele>652.39</ele>
        <time>2020-07-12T09:25:09Z</time>
      </trkpt>
      <trkpt lat="46.02644" lon="4.33993">
        <ele>651.91</ele>
        <time>2020-07-12T09:25:13Z</time>
      </trkpt>
      <trkpt lat="46.02658" lon="4.33998">
        <ele>649.99</ele>
        <time>2020-07-12T09:25:28Z</time>
      </trkpt>
      <trkpt lat="46.02664" lon="4.33999">
        <ele>648.07</ele>
        <time>2020-07-12T09:25:41Z</time>
      </trkpt>
      <trkpt lat="46.02678" lon="4.33998">
        <ele>646.14</ele>
        <time>2020-07-12T09:25:58Z</time>
      </trkpt>
      <trkpt lat="46.02686" lon="4.33998">
        <ele>645.18</ele>
        <time>2020-07-12T09:26:07Z</time>
      </trkpt>
      <trkpt lat="46.02692" lon="4.34001">
        <ele>643.74</ele>
        <time>2020-07-12T09:26:25Z</time>
      </trkpt>
      <trkpt lat="46.02695" lon="4.34">
        <ele>643.26</ele>
        <time>2020-07-12T09:26:37Z</time>
      </trkpt>
      <trkpt lat="46.02708" lon="4.34005">
        <ele>642.3</ele>
        <time>2020-07-12T09:26:52Z</time>
      </trkpt>
      <trkpt lat="46.02718" lon="4.34009">
        <ele>641.82</ele>
        <time>2020-07-12T09:27:07Z</time>
      </trkpt>
      <trkpt lat="46.0272" lon="4.34012">
        <ele>641.82</ele>
        <time>2020-07-12T09:27:21Z</time>
      </trkpt>
      <trkpt lat="46.0272" lon="4.34012">
        <ele>641.82</ele>
        <time>2020-07-12T09:27:43Z</time>
      </trkpt>
      <trkpt lat="46.02719" lon="4.34014">
        <ele>641.82</ele>
        <time>2020-07-12T09:28:05Z</time>
      </trkpt>
      <trkpt lat="46.02715" lon="4.34019">
        <ele>641.82</ele>
        <time>2020-07-12T09:28:13Z</time>
      </trkpt>
      <trkpt lat="46.02703" lon="4.3403">
        <ele>641.34</ele>
        <time>2020-07-12T09:28:27Z</time>
      </trkpt>
      <trkpt lat="46.02692" lon="4.34042">
        <ele>641.34</ele>
        <time>2020-07-12T09:28:41Z</time>
      </trkpt>
      <trkpt lat="46.02678" lon="4.34057">
        <ele>642.78</ele>
        <time>2020-07-12T09:28:57Z</time>
      </trkpt>
      <trkpt lat="46.02664" lon="4.34067">
        <ele>643.74</ele>
        <time>2020-07-12T09:29:12Z</time>
      </trkpt>
      <trkpt lat="46.0265" lon="4.34079">
        <ele>642.3</ele>
        <time>2020-07-12T09:29:29Z</time>
      </trkpt>
      <trkpt lat="46.02636" lon="4.34093">
        <ele>642.3</ele>
        <time>2020-07-12T09:29:45Z</time>
      </trkpt>
      <trkpt lat="46.02626" lon="4.34111">
        <ele>641.82</ele>
        <time>2020-07-12T09:29:59Z</time>
      </trkpt>
      <trkpt lat="46.02613" lon="4.34134">
        <ele>641.34</ele>
        <time>2020-07-12T09:30:15Z</time>
      </trkpt>
      <trkpt lat="46.02605" lon="4.34148">
        <ele>640.86</ele>
        <time>2020-07-12T09:30:28Z</time>
      </trkpt>
      <trkpt lat="46.02604" lon="4.34154">
        <ele>640.86</ele>
        <time>2020-07-12T09:30:33Z</time>
      </trkpt>
      <trkpt lat="46.02597" lon="4.34172">
        <ele>639.89</ele>
        <time>2020-07-12T09:30:46Z</time>
      </trkpt>
      <trkpt lat="46.02593" lon="4.34184">
        <ele>638.93</ele>
        <time>2020-07-12T09:30:55Z</time>
      </trkpt>
      <trkpt lat="46.02584" lon="4.34201">
        <ele>637.49</ele>
        <time>2020-07-12T09:31:09Z</time>
      </trkpt>
      <trkpt lat="46.02576" lon="4.34216">
        <ele>636.53</ele>
        <time>2020-07-12T09:31:21Z</time>
      </trkpt>
      <trkpt lat="46.02567" lon="4.3423">
        <ele>635.09</ele>
        <time>2020-07-12T09:31:34Z</time>
      </trkpt>
      <trkpt lat="46.02559" lon="4.34251">
        <ele>633.17</ele>
        <time>2020-07-12T09:31:50Z</time>
      </trkpt>
      <trkpt lat="46.02554" lon="4.34266">
        <ele>632.2</ele>
        <time>2020-07-12T09:32:03Z</time>
      </trkpt>
      <trkpt lat="46.02554" lon="4.34267">
        <ele>632.2</ele>
        <time>2020-07-12T09:32:04Z</time>
      </trkpt>
      <trkpt lat="46.02549" lon="4.34287">
        <ele>630.76</ele>
        <time>2020-07-12T09:32:18Z</time>
      </trkpt>
      <trkpt lat="46.02549" lon="4.34303">
        <ele>629.32</ele>
        <time>2020-07-12T09:32:30Z</time>
      </trkpt>
      <trkpt lat="46.0255" lon="4.34321">
        <ele>627.88</ele>
        <time>2020-07-12T09:32:43Z</time>
      </trkpt>
      <trkpt lat="46.02552" lon="4.34341">
        <ele>625.96</ele>
        <time>2020-07-12T09:32:58Z</time>
      </trkpt>
      <trkpt lat="46.02553" lon="4.34352">
        <ele>624.99</ele>
        <time>2020-07-12T09:33:07Z</time>
      </trkpt>
      <trkpt lat="46.02557" lon="4.34367">
        <ele>623.07</ele>
        <time>2020-07-12T09:33:22Z</time>
      </trkpt>
      <trkpt lat="46.0256" lon="4.34371">
        <ele>623.07</ele>
        <time>2020-07-12T09:33:26Z</time>
      </trkpt>
      <trkpt lat="46.02561" lon="4.34376">
        <ele>622.11</ele>
        <time>2020-07-12T09:33:31Z</time>
      </trkpt>
      <trkpt lat="46.02566" lon="4.34387">
        <ele>621.15</ele>
        <time>2020-07-12T09:33:41Z</time>
      </trkpt>
      <trkpt lat="46.02574" lon="4.34402">
        <ele>619.71</ele>
        <time>2020-07-12T09:33:56Z</time>
      </trkpt>
      <trkpt lat="46.02575" lon="4.34403">
        <ele>619.23</ele>
        <time>2020-07-12T09:33:58Z</time>
      </trkpt>
      <trkpt lat="46.02581" lon="4.34412">
        <ele>618.26</ele>
        <time>2020-07-12T09:34:07Z</time>
      </trkpt>
      <trkpt lat="46.02593" lon="4.34425">
        <ele>616.34</ele>
        <time>2020-07-12T09:34:23Z</time>
      </trkpt>
      <trkpt lat="46.02603" lon="4.34434">
        <ele>614.9</ele>
        <time>2020-07-12T09:34:37Z</time>
      </trkpt>
      <trkpt lat="46.02609" lon="4.34439">
        <ele>613.46</ele>
        <time>2020-07-12T09:34:45Z</time>
      </trkpt>
      <trkpt lat="46.02615" lon="4.34444">
        <ele>612.5</ele>
        <time>2020-07-12T09:34:54Z</time>
      </trkpt>
      <trkpt lat="46.02628" lon="4.34456">
        <ele>610.09</ele>
        <time>2020-07-12T09:35:11Z</time>
      </trkpt>
      <trkpt lat="46.02639" lon="4.34466">
        <ele>608.65</ele>
        <time>2020-07-12T09:35:27Z</time>
      </trkpt>
      <trkpt lat="46.02651" lon="4.34476">
        <ele>606.25</ele>
        <time>2020-07-12T09:35:41Z</time>
      </trkpt>
      <trkpt lat="46.02662" lon="4.34487">
        <ele>604.33</ele>
        <time>2020-07-12T09:35:55Z</time>
      </trkpt>
      <trkpt lat="46.02675" lon="4.34497">
        <ele>602.88</ele>
        <time>2020-07-12T09:36:10Z</time>
      </trkpt>
      <trkpt lat="46.02684" lon="4.34502">
        <ele>601.44</ele>
        <time>2020-07-12T09:36:21Z</time>
      </trkpt>
      <trkpt lat="46.02699" lon="4.34508">
        <ele>599.52</ele>
        <time>2020-07-12T09:36:36Z</time>
      </trkpt>
      <trkpt lat="46.02712" lon="4.34508">
        <ele>597.6</ele>
        <time>2020-07-12T09:36:51Z</time>
      </trkpt>
      <trkpt lat="46.02714" lon="4.34508">
        <ele>597.12</ele>
        <time>2020-07-12T09:36:53Z</time>
      </trkpt>
      <trkpt lat="46.02723" lon="4.34503">
        <ele>595.19</ele>
        <time>2020-07-12T09:37:03Z</time>
      </trkpt>
      <trkpt lat="46.02733" lon="4.34493">
        <ele>593.27</ele>
        <time>2020-07-12T09:37:17Z</time>
      </trkpt>
      <trkpt lat="46.0274" lon="4.34482">
        <ele>591.35</ele>
        <time>2020-07-12T09:37:32Z</time>
      </trkpt>
      <trkpt lat="46.0275" lon="4.34462">
        <ele>589.43</ele>
        <time>2020-07-12T09:37:49Z</time>
      </trkpt>
      <trkpt lat="46.02761" lon="4.34445">
        <ele>587.5</ele>
        <time>2020-07-12T09:38:04Z</time>
      </trkpt>
      <trkpt lat="46.02766" lon="4.3444">
        <ele>586.54</ele>
        <time>2020-07-12T09:38:11Z</time>
      </trkpt>
      <trkpt lat="46.02776" lon="4.34428">
        <ele>584.14</ele>
        <time>2020-07-12T09:38:27Z</time>
      </trkpt>
      <trkpt lat="46.02783" lon="4.34417">
        <ele>583.18</ele>
        <time>2020-07-12T09:38:39Z</time>
      </trkpt>
      <trkpt lat="46.02793" lon="4.34405">
        <ele>580.77</ele>
        <time>2020-07-12T09:38:53Z</time>
      </trkpt>
      <trkpt lat="46.02798" lon="4.34399">
        <ele>579.81</ele>
        <time>2020-07-12T09:39:00Z</time>
      </trkpt>
      <trkpt lat="46.02813" lon="4.34389">
        <ele>578.37</ele>
        <time>2020-07-12T09:39:16Z</time>
      </trkpt>
      <trkpt lat="46.0282" lon="4.34384">
        <ele>577.89</ele>
        <time>2020-07-12T09:39:23Z</time>
      </trkpt>
      <trkpt lat="46.02837" lon="4.3438">
        <ele>575.97</ele>
        <time>2020-07-12T09:39:40Z</time>
      </trkpt>
      <trkpt lat="46.02841" lon="4.34378">
        <ele>575.97</ele>
        <time>2020-07-12T09:39:54Z</time>
      </trkpt>
      <trkpt lat="46.02842" lon="4.34381">
        <ele>575.49</ele>
        <time>2020-07-12T09:40:20Z</time>
      </trkpt>
      <trkpt lat="46.02845" lon="4.34379">
        <ele>575.49</ele>
        <time>2020-07-12T09:40:33Z</time>
      </trkpt>
      <trkpt lat="46.02859" lon="4.34385">
        <ele>574.04</ele>
        <time>2020-07-12T09:40:49Z</time>
      </trkpt>
      <trkpt lat="46.02863" lon="4.34388">
        <ele>574.04</ele>
        <time>2020-07-12T09:40:54Z</time>
      </trkpt>
      <trkpt lat="46.02871" lon="4.34399">
        <ele>573.08</ele>
        <time>2020-07-12T09:41:08Z</time>
      </trkpt>
      <trkpt lat="46.02879" lon="4.34408">
        <ele>571.64</ele>
        <time>2020-07-12T09:41:24Z</time>
      </trkpt>
      <trkpt lat="46.02891" lon="4.34422">
        <ele>570.68</ele>
        <time>2020-07-12T09:41:38Z</time>
      </trkpt>
      <trkpt lat="46.02904" lon="4.34435">
        <ele>569.72</ele>
        <time>2020-07-12T09:41:52Z</time>
      </trkpt>
      <trkpt lat="46.02916" lon="4.34451">
        <ele>568.28</ele>
        <time>2020-07-12T09:42:09Z</time>
      </trkpt>
      <trkpt lat="46.02917" lon="4.34452">
        <ele>568.28</ele>
        <time>2020-07-12T09:42:10Z</time>
      </trkpt>
      <trkpt lat="46.02923" lon="4.34472">
        <ele>567.32</ele>
        <time>2020-07-12T09:42:25Z</time>
      </trkpt>
      <trkpt lat="46.02928" lon="4.34498">
        <ele>566.83</ele>
        <time>2020-07-12T09:42:41Z</time>
      </trkpt>
      <trkpt lat="46.0293" lon="4.34511">
        <ele>565.87</ele>
        <time>2020-07-12T09:42:50Z</time>
      </trkpt>
      <trkpt lat="46.0293" lon="4.34515">
        <ele>565.87</ele>
        <time>2020-07-12T09:42:53Z</time>
      </trkpt>
      <trkpt lat="46.02932" lon="4.34538">
        <ele>565.87</ele>
        <time>2020-07-12T09:43:07Z</time>
      </trkpt>
      <trkpt lat="46.02935" lon="4.34566">
        <ele>565.39</ele>
        <time>2020-07-12T09:43:23Z</time>
      </trkpt>
      <trkpt lat="46.02937" lon="4.34591">
        <ele>564.91</ele>
        <time>2020-07-12T09:43:38Z</time>
      </trkpt>
      <trkpt lat="46.02937" lon="4.34611">
        <ele>562.99</ele>
        <time>2020-07-12T09:43:52Z</time>
      </trkpt>
      <trkpt lat="46.02938" lon="4.34629">
        <ele>562.51</ele>
        <time>2020-07-12T09:44:04Z</time>
      </trkpt>
      <trkpt lat="46.02938" lon="4.34631">
        <ele>562.51</ele>
        <time>2020-07-12T09:44:05Z</time>
      </trkpt>
      <trkpt lat="46.02936" lon="4.3465">
        <ele>561.55</ele>
        <time>2020-07-12T09:44:19Z</time>
      </trkpt>
      <trkpt lat="46.02936" lon="4.34668">
        <ele>560.59</ele>
        <time>2020-07-12T09:44:32Z</time>
      </trkpt>
      <trkpt lat="46.02933" lon="4.3469">
        <ele>559.14</ele>
        <time>2020-07-12T09:44:47Z</time>
      </trkpt>
      <trkpt lat="46.02933" lon="4.34713">
        <ele>557.22</ele>
        <time>2020-07-12T09:45:03Z</time>
      </trkpt>
      <trkpt lat="46.02938" lon="4.34727">
        <ele>557.22</ele>
        <time>2020-07-12T09:45:16Z</time>
      </trkpt>
      <trkpt lat="46.02949" lon="4.34746">
        <ele>556.26</ele>
        <time>2020-07-12T09:45:33Z</time>
      </trkpt>
      <trkpt lat="46.02957" lon="4.34761">
        <ele>554.82</ele>
        <time>2020-07-12T09:45:48Z</time>
      </trkpt>
      <trkpt lat="46.02965" lon="4.34769">
        <ele>552.41</ele>
        <time>2020-07-12T09:46:00Z</time>
      </trkpt>
      <trkpt lat="46.02983" lon="4.34763">
        <ele>551.45</ele>
        <time>2020-07-12T09:46:18Z</time>
      </trkpt>
      <trkpt lat="46.02988" lon="4.3476">
        <ele>550.49</ele>
        <time>2020-07-12T09:46:22Z</time>
      </trkpt>
      <trkpt lat="46.03007" lon="4.34747">
        <ele>549.53</ele>
        <time>2020-07-12T09:46:38Z</time>
      </trkpt>
      <trkpt lat="46.03019" lon="4.34729">
        <ele>548.09</ele>
        <time>2020-07-12T09:46:54Z</time>
      </trkpt>
      <trkpt lat="46.03034" lon="4.34713">
        <ele>546.17</ele>
        <time>2020-07-12T09:47:11Z</time>
      </trkpt>
      <trkpt lat="46.03049" lon="4.34698">
        <ele>542.8</ele>
        <time>2020-07-12T09:47:27Z</time>
      </trkpt>
      <trkpt lat="46.03062" lon="4.34683">
        <ele>541.84</ele>
        <time>2020-07-12T09:47:41Z</time>
      </trkpt>
      <trkpt lat="46.03076" lon="4.34682">
        <ele>540.4</ele>
        <time>2020-07-12T09:47:55Z</time>
      </trkpt>
      <trkpt lat="46.03089" lon="4.34695">
        <ele>540.4</ele>
        <time>2020-07-12T09:48:11Z</time>
      </trkpt>
      <trkpt lat="46.031" lon="4.34708">
        <ele>540.4</ele>
        <time>2020-07-12T09:48:24Z</time>
      </trkpt>
      <trkpt lat="46.03116" lon="4.34722">
        <ele>539.44</ele>
        <time>2020-07-12T09:48:39Z</time>
      </trkpt>
      <trkpt lat="46.03133" lon="4.34733">
        <ele>538.96</ele>
        <time>2020-07-12T09:48:54Z</time>
      </trkpt>
      <trkpt lat="46.03152" lon="4.34742">
        <ele>537.03</ele>
        <time>2020-07-12T09:49:11Z</time>
      </trkpt>
      <trkpt lat="46.03164" lon="4.34752">
        <ele>535.59</ele>
        <time>2020-07-12T09:49:23Z</time>
      </trkpt>
      <trkpt lat="46.03179" lon="4.34764">
        <ele>533.67</ele>
        <time>2020-07-12T09:49:38Z</time>
      </trkpt>
      <trkpt lat="46.03183" lon="4.34777">
        <ele>533.67</ele>
        <time>2020-07-12T09:49:45Z</time>
      </trkpt>
      <trkpt lat="46.03183" lon="4.34808">
        <ele>535.11</ele>
        <time>2020-07-12T09:50:02Z</time>
      </trkpt>
      <trkpt lat="46.03181" lon="4.34833">
        <ele>536.55</ele>
        <time>2020-07-12T09:50:17Z</time>
      </trkpt>
      <trkpt lat="46.03181" lon="4.34856">
        <ele>537.03</ele>
        <time>2020-07-12T09:50:33Z</time>
      </trkpt>
      <trkpt lat="46.03181" lon="4.34856">
        <ele>537.03</ele>
        <time>2020-07-12T09:50:39Z</time>
      </trkpt>
      <trkpt lat="46.03182" lon="4.34862">
        <ele>537.99</ele>
        <time>2020-07-12T09:50:44Z</time>
      </trkpt>
      <trkpt lat="46.03184" lon="4.34888">
        <ele>537.99</ele>
        <time>2020-07-12T09:50:59Z</time>
      </trkpt>
      <trkpt lat="46.03188" lon="4.34912">
        <ele>538.48</ele>
        <time>2020-07-12T09:51:13Z</time>
      </trkpt>
      <trkpt lat="46.03194" lon="4.34937">
        <ele>538.48</ele>
        <time>2020-07-12T09:51:29Z</time>
      </trkpt>
      <trkpt lat="46.03195" lon="4.3494">
        <ele>538.48</ele>
        <time>2020-07-12T09:51:31Z</time>
      </trkpt>
      <trkpt lat="46.03203" lon="4.34961">
        <ele>538.48</ele>
        <time>2020-07-12T09:51:48Z</time>
      </trkpt>
      <trkpt lat="46.03203" lon="4.34962">
        <ele>538.48</ele>
        <time>2020-07-12T09:51:49Z</time>
      </trkpt>
      <trkpt lat="46.03211" lon="4.34986">
        <ele>538.48</ele>
        <time>2020-07-12T09:52:06Z</time>
      </trkpt>
      <trkpt lat="46.0322" lon="4.35005">
        <ele>536.55</ele>
        <time>2020-07-12T09:52:23Z</time>
      </trkpt>
      <trkpt lat="46.03232" lon="4.35026">
        <ele>536.07</ele>
        <time>2020-07-12T09:52:42Z</time>
      </trkpt>
      <trkpt lat="46.03243" lon="4.35044">
        <ele>535.59</ele>
        <time>2020-07-12T09:52:57Z</time>
      </trkpt>
      <trkpt lat="46.03253" lon="4.3507">
        <ele>535.59</ele>
        <time>2020-07-12T09:53:13Z</time>
      </trkpt>
      <trkpt lat="46.03259" lon="4.35087">
        <ele>534.15</ele>
        <time>2020-07-12T09:53:28Z</time>
      </trkpt>
      <trkpt lat="46.03262" lon="4.35097">
        <ele>535.59</ele>
        <time>2020-07-12T09:53:39Z</time>
      </trkpt>
      <trkpt lat="46.03266" lon="4.35118">
        <ele>535.59</ele>
        <time>2020-07-12T09:53:53Z</time>
      </trkpt>
      <trkpt lat="46.03269" lon="4.35142">
        <ele>534.15</ele>
        <time>2020-07-12T09:54:08Z</time>
      </trkpt>
      <trkpt lat="46.03266" lon="4.35164">
        <ele>533.67</ele>
        <time>2020-07-12T09:54:22Z</time>
      </trkpt>
      <trkpt lat="46.03266" lon="4.35186">
        <ele>532.23</ele>
        <time>2020-07-12T09:54:37Z</time>
      </trkpt>
      <trkpt lat="46.03266" lon="4.35205">
        <ele>530.79</ele>
        <time>2020-07-12T09:54:52Z</time>
      </trkpt>
      <trkpt lat="46.03266" lon="4.35207">
        <ele>530.79</ele>
        <time>2020-07-12T09:54:53Z</time>
      </trkpt>
      <trkpt lat="46.03269" lon="4.35218">
        <ele>530.3</ele>
        <time>2020-07-12T09:54:59Z</time>
      </trkpt>
      <trkpt lat="46.03273" lon="4.35238">
        <ele>529.34</ele>
        <time>2020-07-12T09:55:11Z</time>
      </trkpt>
      <trkpt lat="46.03281" lon="4.35265">
        <ele>526.46</ele>
        <time>2020-07-12T09:55:29Z</time>
      </trkpt>
      <trkpt lat="46.03289" lon="4.35286">
        <ele>524.54</ele>
        <time>2020-07-12T09:55:44Z</time>
      </trkpt>
      <trkpt lat="46.03294" lon="4.35306">
        <ele>522.61</ele>
        <time>2020-07-12T09:55:58Z</time>
      </trkpt>
      <trkpt lat="46.03295" lon="4.35309">
        <ele>522.61</ele>
        <time>2020-07-12T09:56:01Z</time>
      </trkpt>
      <trkpt lat="46.03298" lon="4.35319">
        <ele>521.65</ele>
        <time>2020-07-12T09:56:07Z</time>
      </trkpt>
      <trkpt lat="46.03303" lon="4.35341">
        <ele>519.25</ele>
        <time>2020-07-12T09:56:22Z</time>
      </trkpt>
      <trkpt lat="46.03309" lon="4.3536">
        <ele>517.81</ele>
        <time>2020-07-12T09:56:36Z</time>
      </trkpt>
      <trkpt lat="46.03314" lon="4.35376">
        <ele>515.88</ele>
        <time>2020-07-12T09:56:51Z</time>
      </trkpt>
      <trkpt lat="46.03315" lon="4.35377">
        <ele>515.4</ele>
        <time>2020-07-12T09:56:53Z</time>
      </trkpt>
      <trkpt lat="46.03318" lon="4.35384">
        <ele>515.4</ele>
        <time>2020-07-12T09:56:58Z</time>
      </trkpt>
      <trkpt lat="46.0332" lon="4.35393">
        <ele>514.92</ele>
        <time>2020-07-12T09:57:05Z</time>
      </trkpt>
      <trkpt lat="46.03327" lon="4.35419">
        <ele>511.56</ele>
        <time>2020-07-12T09:57:23Z</time>
      </trkpt>
      <trkpt lat="46.03333" lon="4.35441">
        <ele>509.16</ele>
        <time>2020-07-12T09:57:39Z</time>
      </trkpt>
      <trkpt lat="46.03335" lon="4.35445">
        <ele>508.67</ele>
        <time>2020-07-12T09:57:42Z</time>
      </trkpt>
      <trkpt lat="46.03342" lon="4.35467">
        <ele>506.75</ele>
        <time>2020-07-12T09:57:58Z</time>
      </trkpt>
      <trkpt lat="46.03345" lon="4.35474">
        <ele>505.79</ele>
        <time>2020-07-12T09:58:05Z</time>
      </trkpt>
      <trkpt lat="46.03353" lon="4.3548">
        <ele>505.31</ele>
        <time>2020-07-12T09:58:12Z</time>
      </trkpt>
      <trkpt lat="46.03365" lon="4.35485">
        <ele>504.83</ele>
        <time>2020-07-12T09:58:23Z</time>
      </trkpt>
      <trkpt lat="46.03375" lon="4.35505">
        <ele>505.79</ele>
        <time>2020-07-12T09:58:36Z</time>
      </trkpt>
      <trkpt lat="46.03386" lon="4.35526">
        <ele>506.75</ele>
        <time>2020-07-12T09:58:50Z</time>
      </trkpt>
      <trkpt lat="46.03391" lon="4.35545">
        <ele>507.23</ele>
        <time>2020-07-12T09:59:04Z</time>
      </trkpt>
      <trkpt lat="46.03391" lon="4.35551">
        <ele>507.23</ele>
        <time>2020-07-12T09:59:08Z</time>
      </trkpt>
      <trkpt lat="46.03394" lon="4.35577">
        <ele>505.79</ele>
        <time>2020-07-12T09:59:26Z</time>
      </trkpt>
      <trkpt lat="46.03395" lon="4.35584">
        <ele>505.79</ele>
        <time>2020-07-12T09:59:31Z</time>
      </trkpt>
      <trkpt lat="46.03396" lon="4.35593">
        <ele>504.35</ele>
        <time>2020-07-12T09:59:48Z</time>
      </trkpt>
      <trkpt lat="46.03396" lon="4.35594">
        <ele>504.35</ele>
        <time>2020-07-12T09:59:49Z</time>
      </trkpt>
      <trkpt lat="46.03396" lon="4.35602">
        <ele>504.35</ele>
        <time>2020-07-12T09:59:54Z</time>
      </trkpt>
      <trkpt lat="46.03397" lon="4.35609">
        <ele>504.35</ele>
        <time>2020-07-12T09:59:58Z</time>
      </trkpt>
      <trkpt lat="46.03397" lon="4.35628">
        <ele>503.39</ele>
        <time>2020-07-12T10:00:11Z</time>
      </trkpt>
      <trkpt lat="46.03398" lon="4.3564">
        <ele>503.39</ele>
        <time>2020-07-12T10:00:25Z</time>
      </trkpt>
      <trkpt lat="46.034" lon="4.35654">
        <ele>503.39</ele>
        <time>2020-07-12T10:00:35Z</time>
      </trkpt>
      <trkpt lat="46.03404" lon="4.35674">
        <ele>503.39</ele>
        <time>2020-07-12T10:00:49Z</time>
      </trkpt>
      <trkpt lat="46.03407" lon="4.35691">
        <ele>504.35</ele>
        <time>2020-07-12T10:01:02Z</time>
      </trkpt>
      <trkpt lat="46.03408" lon="4.35701">
        <ele>505.79</ele>
        <time>2020-07-12T10:01:15Z</time>
      </trkpt>
      <trkpt lat="46.0341" lon="4.3571">
        <ele>505.79</ele>
        <time>2020-07-12T10:01:26Z</time>
      </trkpt>
      <trkpt lat="46.0341" lon="4.35715">
        <ele>506.75</ele>
        <time>2020-07-12T10:01:31Z</time>
      </trkpt>
      <trkpt lat="46.03406" lon="4.3573">
        <ele>508.19</ele>
        <time>2020-07-12T10:01:45Z</time>
      </trkpt>
      <trkpt lat="46.03405" lon="4.3573">
        <ele>508.67</ele>
        <time>2020-07-12T10:01:46Z</time>
      </trkpt>
      <trkpt lat="46.03403" lon="4.35734">
        <ele>509.16</ele>
        <time>2020-07-12T10:01:50Z</time>
      </trkpt>
      <trkpt lat="46.03398" lon="4.35747">
        <ele>511.08</ele>
        <time>2020-07-12T10:02:03Z</time>
      </trkpt>
      <trkpt lat="46.03397" lon="4.35748">
        <ele>511.08</ele>
        <time>2020-07-12T10:02:05Z</time>
      </trkpt>
      <trkpt lat="46.03396" lon="4.35752">
        <ele>511.56</ele>
        <time>2020-07-12T10:02:09Z</time>
      </trkpt>
      <trkpt lat="46.03391" lon="4.35768">
        <ele>513</ele>
        <time>2020-07-12T10:02:22Z</time>
      </trkpt>
      <trkpt lat="46.03389" lon="4.35776">
        <ele>513</ele>
        <time>2020-07-12T10:02:28Z</time>
      </trkpt>
      <trkpt lat="46.03387" lon="4.35781">
        <ele>513.48</ele>
        <time>2020-07-12T10:02:32Z</time>
      </trkpt>
      <trkpt lat="46.03383" lon="4.35795">
        <ele>514.44</ele>
        <time>2020-07-12T10:02:44Z</time>
      </trkpt>
      <trkpt lat="46.03378" lon="4.35812">
        <ele>515.88</ele>
        <time>2020-07-12T10:02:58Z</time>
      </trkpt>
      <trkpt lat="46.03376" lon="4.35816">
        <ele>516.85</ele>
        <time>2020-07-12T10:03:03Z</time>
      </trkpt>
      <trkpt lat="46.03372" lon="4.35831">
        <ele>517.81</ele>
        <time>2020-07-12T10:03:17Z</time>
      </trkpt>
      <trkpt lat="46.03372" lon="4.35832">
        <ele>517.81</ele>
        <time>2020-07-12T10:03:18Z</time>
      </trkpt>
      <trkpt lat="46.03368" lon="4.35847">
        <ele>519.73</ele>
        <time>2020-07-12T10:03:33Z</time>
      </trkpt>
      <trkpt lat="46.03364" lon="4.35864">
        <ele>521.17</ele>
        <time>2020-07-12T10:03:48Z</time>
      </trkpt>
      <trkpt lat="46.03363" lon="4.35879">
        <ele>523.09</ele>
        <time>2020-07-12T10:04:03Z</time>
      </trkpt>
      <trkpt lat="46.03365" lon="4.35887">
        <ele>525.5</ele>
        <time>2020-07-12T10:04:16Z</time>
      </trkpt>
      <trkpt lat="46.0337" lon="4.35888">
        <ele>526.94</ele>
        <time>2020-07-12T10:04:28Z</time>
      </trkpt>
      <trkpt lat="46.03377" lon="4.35885">
        <ele>528.38</ele>
        <time>2020-07-12T10:04:41Z</time>
      </trkpt>
      <trkpt lat="46.03378" lon="4.35887">
        <ele>528.38</ele>
        <time>2020-07-12T10:04:48Z</time>
      </trkpt>
      <trkpt lat="46.03381" lon="4.35888">
        <ele>528.38</ele>
        <time>2020-07-12T10:04:51Z</time>
      </trkpt>
      <trkpt lat="46.03384" lon="4.35889">
        <ele>529.82</ele>
        <time>2020-07-12T10:04:55Z</time>
      </trkpt>
      <trkpt lat="46.03386" lon="4.35889">
        <ele>529.82</ele>
        <time>2020-07-12T10:04:58Z</time>
      </trkpt>
      <trkpt lat="46.03389" lon="4.3589">
        <ele>530.3</ele>
        <time>2020-07-12T10:05:02Z</time>
      </trkpt>
      <trkpt lat="46.03395" lon="4.35892">
        <ele>531.75</ele>
        <time>2020-07-12T10:05:09Z</time>
      </trkpt>
      <trkpt lat="46.03402" lon="4.35894">
        <ele>532.71</ele>
        <time>2020-07-12T10:05:19Z</time>
      </trkpt>
      <trkpt lat="46.03405" lon="4.35895">
        <ele>533.19</ele>
        <time>2020-07-12T10:05:23Z</time>
      </trkpt>
      <trkpt lat="46.03407" lon="4.35895">
        <ele>533.19</ele>
        <time>2020-07-12T10:05:26Z</time>
      </trkpt>
      <trkpt lat="46.0341" lon="4.35896">
        <ele>533.67</ele>
        <time>2020-07-12T10:05:29Z</time>
      </trkpt>
      <trkpt lat="46.03417" lon="4.35897">
        <ele>535.11</ele>
        <time>2020-07-12T10:05:37Z</time>
      </trkpt>
      <trkpt lat="46.03426" lon="4.35897">
        <ele>536.07</ele>
        <time>2020-07-12T10:05:48Z</time>
      </trkpt>
      <trkpt lat="46.03439" lon="4.35898">
        <ele>537.51</ele>
        <time>2020-07-12T10:06:02Z</time>
      </trkpt>
      <trkpt lat="46.03444" lon="4.35898">
        <ele>538.48</ele>
        <time>2020-07-12T10:06:08Z</time>
      </trkpt>
      <trkpt lat="46.03454" lon="4.35899">
        <ele>539.44</ele>
        <time>2020-07-12T10:06:20Z</time>
      </trkpt>
      <trkpt lat="46.03466" lon="4.359">
        <ele>540.4</ele>
        <time>2020-07-12T10:06:34Z</time>
      </trkpt>
      <trkpt lat="46.03477" lon="4.35903">
        <ele>541.36</ele>
        <time>2020-07-12T10:06:47Z</time>
      </trkpt>
      <trkpt lat="46.03487" lon="4.35906">
        <ele>543.28</ele>
        <time>2020-07-12T10:06:59Z</time>
      </trkpt>
      <trkpt lat="46.03489" lon="4.35907">
        <ele>543.28</ele>
        <time>2020-07-12T10:07:01Z</time>
      </trkpt>
      <trkpt lat="46.03499" lon="4.35916">
        <ele>544.24</ele>
        <time>2020-07-12T10:07:15Z</time>
      </trkpt>
      <trkpt lat="46.035" lon="4.35917">
        <ele>544.24</ele>
        <time>2020-07-12T10:07:16Z</time>
      </trkpt>
      <trkpt lat="46.03504" lon="4.35924">
        <ele>544.72</ele>
        <time>2020-07-12T10:07:23Z</time>
      </trkpt>
      <trkpt lat="46.03509" lon="4.3594">
        <ele>546.17</ele>
        <time>2020-07-12T10:07:37Z</time>
      </trkpt>
      <trkpt lat="46.0351" lon="4.35949">
        <ele>547.13</ele>
        <time>2020-07-12T10:07:44Z</time>
      </trkpt>
      <trkpt lat="46.03514" lon="4.35967">
        <ele>548.09</ele>
        <time>2020-07-12T10:07:58Z</time>
      </trkpt>
      <trkpt lat="46.03515" lon="4.35976">
        <ele>548.57</ele>
        <time>2020-07-12T10:08:11Z</time>
      </trkpt>
      <trkpt lat="46.03515" lon="4.35979">
        <ele>548.57</ele>
        <time>2020-07-12T10:08:28Z</time>
      </trkpt>
      <trkpt lat="46.03516" lon="4.35988">
        <ele>549.05</ele>
        <time>2020-07-12T10:08:36Z</time>
      </trkpt>
      <trkpt lat="46.03517" lon="4.35993">
        <ele>549.53</ele>
        <time>2020-07-12T10:08:40Z</time>
      </trkpt>
      <trkpt lat="46.03517" lon="4.35998">
        <ele>549.53</ele>
        <time>2020-07-12T10:08:44Z</time>
      </trkpt>
      <trkpt lat="46.03519" lon="4.36016">
        <ele>551.45</ele>
        <time>2020-07-12T10:08:58Z</time>
      </trkpt>
      <trkpt lat="46.0352" lon="4.36029">
        <ele>552.41</ele>
        <time>2020-07-12T10:09:09Z</time>
      </trkpt>
      <trkpt lat="46.0352" lon="4.36034">
        <ele>552.9</ele>
        <time>2020-07-12T10:09:13Z</time>
      </trkpt>
      <trkpt lat="46.03523" lon="4.3605">
        <ele>554.34</ele>
        <time>2020-07-12T10:09:26Z</time>
      </trkpt>
      <trkpt lat="46.03524" lon="4.36065">
        <ele>554.82</ele>
        <time>2020-07-12T10:09:39Z</time>
      </trkpt>
      <trkpt lat="46.03525" lon="4.3607">
        <ele>556.26</ele>
        <time>2020-07-12T10:09:44Z</time>
      </trkpt>
      <trkpt lat="46.03527" lon="4.36082">
        <ele>557.7</ele>
        <time>2020-07-12T10:09:56Z</time>
      </trkpt>
      <trkpt lat="46.03528" lon="4.36091">
        <ele>558.66</ele>
        <time>2020-07-12T10:10:07Z</time>
      </trkpt>
      <trkpt lat="46.03529" lon="4.36101">
        <ele>560.11</ele>
        <time>2020-07-12T10:10:18Z</time>
      </trkpt>
      <trkpt lat="46.0353" lon="4.3611">
        <ele>561.55</ele>
        <time>2020-07-12T10:10:30Z</time>
      </trkpt>
      <trkpt lat="46.03534" lon="4.36121">
        <ele>562.99</ele>
        <time>2020-07-12T10:10:43Z</time>
      </trkpt>
      <trkpt lat="46.03536" lon="4.3613">
        <ele>563.47</ele>
        <time>2020-07-12T10:10:52Z</time>
      </trkpt>
      <trkpt lat="46.03536" lon="4.36132">
        <ele>563.47</ele>
        <time>2020-07-12T10:10:54Z</time>
      </trkpt>
      <trkpt lat="46.03539" lon="4.36142">
        <ele>564.91</ele>
        <time>2020-07-12T10:11:03Z</time>
      </trkpt>
      <trkpt lat="46.03539" lon="4.36145">
        <ele>565.39</ele>
        <time>2020-07-12T10:11:06Z</time>
      </trkpt>
      <trkpt lat="46.03541" lon="4.36157">
        <ele>567.8</ele>
        <time>2020-07-12T10:11:19Z</time>
      </trkpt>
      <trkpt lat="46.03543" lon="4.36168">
        <ele>568.28</ele>
        <time>2020-07-12T10:11:31Z</time>
      </trkpt>
      <trkpt lat="46.03545" lon="4.3618">
        <ele>569.24</ele>
        <time>2020-07-12T10:11:44Z</time>
      </trkpt>
      <trkpt lat="46.03547" lon="4.36187">
        <ele>569.72</ele>
        <time>2020-07-12T10:11:52Z</time>
      </trkpt>
      <trkpt lat="46.0355" lon="4.362">
        <ele>571.16</ele>
        <time>2020-07-12T10:12:06Z</time>
      </trkpt>
      <trkpt lat="46.03552" lon="4.36207">
        <ele>572.6</ele>
        <time>2020-07-12T10:12:21Z</time>
      </trkpt>
      <trkpt lat="46.03553" lon="4.36211">
        <ele>572.6</ele>
        <time>2020-07-12T10:12:25Z</time>
      </trkpt>
      <trkpt lat="46.03554" lon="4.36216">
        <ele>572.6</ele>
        <time>2020-07-12T10:12:29Z</time>
      </trkpt>
      <trkpt lat="46.03556" lon="4.36224">
        <ele>573.56</ele>
        <time>2020-07-12T10:12:36Z</time>
      </trkpt>
      <trkpt lat="46.03559" lon="4.36232">
        <ele>574.53</ele>
        <time>2020-07-12T10:12:43Z</time>
      </trkpt>
      <trkpt lat="46.03562" lon="4.36243">
        <ele>575.01</ele>
        <time>2020-07-12T10:12:53Z</time>
      </trkpt>
      <trkpt lat="46.03564" lon="4.3625">
        <ele>575.49</ele>
        <time>2020-07-12T10:13:00Z</time>
      </trkpt>
      <trkpt lat="46.03567" lon="4.36265">
        <ele>577.89</ele>
        <time>2020-07-12T10:13:13Z</time>
      </trkpt>
      <trkpt lat="46.03568" lon="4.36268">
        <ele>578.37</ele>
        <time>2020-07-12T10:13:16Z</time>
      </trkpt>
      <trkpt lat="46.03571" lon="4.36282">
        <ele>579.33</ele>
        <time>2020-07-12T10:13:29Z</time>
      </trkpt>
      <trkpt lat="46.03574" lon="4.36297">
        <ele>581.73</ele>
        <time>2020-07-12T10:13:43Z</time>
      </trkpt>
      <trkpt lat="46.03575" lon="4.363">
        <ele>581.73</ele>
        <time>2020-07-12T10:13:47Z</time>
      </trkpt>
      <trkpt lat="46.03576" lon="4.36302">
        <ele>581.73</ele>
        <time>2020-07-12T10:13:50Z</time>
      </trkpt>
      <trkpt lat="46.03578" lon="4.36314">
        <ele>583.18</ele>
        <time>2020-07-12T10:14:03Z</time>
      </trkpt>
      <trkpt lat="46.03579" lon="4.36316">
        <ele>583.18</ele>
        <time>2020-07-12T10:14:05Z</time>
      </trkpt>
      <trkpt lat="46.03583" lon="4.36329">
        <ele>585.1</ele>
        <time>2020-07-12T10:14:18Z</time>
      </trkpt>
      <trkpt lat="46.03585" lon="4.36336">
        <ele>585.58</ele>
        <time>2020-07-12T10:14:26Z</time>
      </trkpt>
      <trkpt lat="46.03586" lon="4.3634">
        <ele>585.58</ele>
        <time>2020-07-12T10:14:29Z</time>
      </trkpt>
      <trkpt lat="46.03586" lon="4.36344">
        <ele>587.02</ele>
        <time>2020-07-12T10:14:32Z</time>
      </trkpt>
      <trkpt lat="46.03589" lon="4.36356">
        <ele>588.46</ele>
        <time>2020-07-12T10:14:46Z</time>
      </trkpt>
      <trkpt lat="46.03593" lon="4.36365">
        <ele>588.95</ele>
        <time>2020-07-12T10:14:57Z</time>
      </trkpt>
      <trkpt lat="46.03595" lon="4.3637">
        <ele>589.91</ele>
        <time>2020-07-12T10:15:04Z</time>
      </trkpt>
      <trkpt lat="46.03599" lon="4.36381">
        <ele>591.35</ele>
        <time>2020-07-12T10:15:16Z</time>
      </trkpt>
      <trkpt lat="46.03601" lon="4.36388">
        <ele>591.83</ele>
        <time>2020-07-12T10:15:28Z</time>
      </trkpt>
      <trkpt lat="46.03605" lon="4.364">
        <ele>593.27</ele>
        <time>2020-07-12T10:15:42Z</time>
      </trkpt>
      <trkpt lat="46.03607" lon="4.36409">
        <ele>594.23</ele>
        <time>2020-07-12T10:15:54Z</time>
      </trkpt>
      <trkpt lat="46.03608" lon="4.36411">
        <ele>594.71</ele>
        <time>2020-07-12T10:16:10Z</time>
      </trkpt>
      <trkpt lat="46.0361" lon="4.36416">
        <ele>595.19</ele>
        <time>2020-07-12T10:16:23Z</time>
      </trkpt>
      <trkpt lat="46.03614" lon="4.36423">
        <ele>596.64</ele>
        <time>2020-07-12T10:16:46Z</time>
      </trkpt>
      <trkpt lat="46.03614" lon="4.36424">
        <ele>596.64</ele>
        <time>2020-07-12T10:16:47Z</time>
      </trkpt>
      <trkpt lat="46.03618" lon="4.36436">
        <ele>598.08</ele>
        <time>2020-07-12T10:17:01Z</time>
      </trkpt>
      <trkpt lat="46.03626" lon="4.3645">
        <ele>600.48</ele>
        <time>2020-07-12T10:17:21Z</time>
      </trkpt>
      <trkpt lat="46.03632" lon="4.36461">
        <ele>602.4</ele>
        <time>2020-07-12T10:17:37Z</time>
      </trkpt>
      <trkpt lat="46.03635" lon="4.36474">
        <ele>604.81</ele>
        <time>2020-07-12T10:17:53Z</time>
      </trkpt>
      <trkpt lat="46.03637" lon="4.36484">
        <ele>606.25</ele>
        <time>2020-07-12T10:18:06Z</time>
      </trkpt>
      <trkpt lat="46.03638" lon="4.36495">
        <ele>608.17</ele>
        <time>2020-07-12T10:18:20Z</time>
      </trkpt>
      <trkpt lat="46.0364" lon="4.36507">
        <ele>610.09</ele>
        <time>2020-07-12T10:18:33Z</time>
      </trkpt>
      <trkpt lat="46.0364" lon="4.36517">
        <ele>611.54</ele>
        <time>2020-07-12T10:18:46Z</time>
      </trkpt>
      <trkpt lat="46.03639" lon="4.36526">
        <ele>612.98</ele>
        <time>2020-07-12T10:18:58Z</time>
      </trkpt>
      <trkpt lat="46.03639" lon="4.36535">
        <ele>614.42</ele>
        <time>2020-07-12T10:19:09Z</time>
      </trkpt>
      <trkpt lat="46.03637" lon="4.36543">
        <ele>615.86</ele>
        <time>2020-07-12T10:19:20Z</time>
      </trkpt>
      <trkpt lat="46.03635" lon="4.36551">
        <ele>617.78</ele>
        <time>2020-07-12T10:19:33Z</time>
      </trkpt>
      <trkpt lat="46.03634" lon="4.3656">
        <ele>618.75</ele>
        <time>2020-07-12T10:19:44Z</time>
      </trkpt>
      <trkpt lat="46.03632" lon="4.36568">
        <ele>620.19</ele>
        <time>2020-07-12T10:19:55Z</time>
      </trkpt>
      <trkpt lat="46.0363" lon="4.36576">
        <ele>621.15</ele>
        <time>2020-07-12T10:20:07Z</time>
      </trkpt>
      <trkpt lat="46.03629" lon="4.36585">
        <ele>622.59</ele>
        <time>2020-07-12T10:20:20Z</time>
      </trkpt>
      <trkpt lat="46.03626" lon="4.36593">
        <ele>624.51</ele>
        <time>2020-07-12T10:20:32Z</time>
      </trkpt>
      <trkpt lat="46.03624" lon="4.366">
        <ele>625.96</ele>
        <time>2020-07-12T10:20:43Z</time>
      </trkpt>
      <trkpt lat="46.03622" lon="4.36605">
        <ele>626.44</ele>
        <time>2020-07-12T10:21:02Z</time>
      </trkpt>
      <trkpt lat="46.0362" lon="4.36611">
        <ele>627.88</ele>
        <time>2020-07-12T10:21:20Z</time>
      </trkpt>
      <trkpt lat="46.03616" lon="4.3662">
        <ele>628.84</ele>
        <time>2020-07-12T10:21:31Z</time>
      </trkpt>
      <trkpt lat="46.03616" lon="4.36631">
        <ele>631.24</ele>
        <time>2020-07-12T10:21:44Z</time>
      </trkpt>
      <trkpt lat="46.03614" lon="4.36641">
        <ele>632.2</ele>
        <time>2020-07-12T10:21:57Z</time>
      </trkpt>
      <trkpt lat="46.03615" lon="4.36646">
        <ele>632.68</ele>
        <time>2020-07-12T10:22:03Z</time>
      </trkpt>
      <trkpt lat="46.03613" lon="4.36657">
        <ele>633.65</ele>
        <time>2020-07-12T10:22:14Z</time>
      </trkpt>
      <trkpt lat="46.03609" lon="4.36667">
        <ele>634.61</ele>
        <time>2020-07-12T10:22:26Z</time>
      </trkpt>
      <trkpt lat="46.03607" lon="4.36667">
        <ele>636.05</ele>
        <time>2020-07-12T10:22:38Z</time>
      </trkpt>
      <trkpt lat="46.03614" lon="4.36658">
        <ele>636.05</ele>
        <time>2020-07-12T10:22:53Z</time>
      </trkpt>
      <trkpt lat="46.03618" lon="4.36663">
        <ele>636.05</ele>
        <time>2020-07-12T10:23:03Z</time>
      </trkpt>
      <trkpt lat="46.03615" lon="4.36669">
        <ele>636.53</ele>
        <time>2020-07-12T10:23:10Z</time>
      </trkpt>
      <trkpt lat="46.03606" lon="4.36682">
        <ele>637.97</ele>
        <time>2020-07-12T10:23:24Z</time>
      </trkpt>
      <trkpt lat="46.03599" lon="4.36692">
        <ele>638.45</ele>
        <time>2020-07-12T10:23:36Z</time>
      </trkpt>
      <trkpt lat="46.03595" lon="4.36703">
        <ele>639.41</ele>
        <time>2020-07-12T10:23:46Z</time>
      </trkpt>
      <trkpt lat="46.03593" lon="4.36715">
        <ele>640.86</ele>
        <time>2020-07-12T10:23:59Z</time>
      </trkpt>
      <trkpt lat="46.03593" lon="4.36728">
        <ele>641.82</ele>
        <time>2020-07-12T10:24:12Z</time>
      </trkpt>
      <trkpt lat="46.03593" lon="4.3673">
        <ele>641.82</ele>
        <time>2020-07-12T10:24:14Z</time>
      </trkpt>
      <trkpt lat="46.03594" lon="4.36738">
        <ele>642.78</ele>
        <time>2020-07-12T10:24:19Z</time>
      </trkpt>
      <trkpt lat="46.03596" lon="4.36741">
        <ele>642.78</ele>
        <time>2020-07-12T10:24:22Z</time>
      </trkpt>
      <trkpt lat="46.03596" lon="4.36755">
        <ele>644.22</ele>
        <time>2020-07-12T10:24:34Z</time>
      </trkpt>
      <trkpt lat="46.03591" lon="4.36763">
        <ele>645.18</ele>
        <time>2020-07-12T10:24:46Z</time>
      </trkpt>
      <trkpt lat="46.03591" lon="4.36766">
        <ele>646.14</ele>
        <time>2020-07-12T10:24:49Z</time>
      </trkpt>
      <trkpt lat="46.0359" lon="4.3677">
        <ele>646.62</ele>
        <time>2020-07-12T10:24:52Z</time>
      </trkpt>
      <trkpt lat="46.03588" lon="4.36772">
        <ele>647.1</ele>
        <time>2020-07-12T10:24:55Z</time>
      </trkpt>
      <trkpt lat="46.03583" lon="4.36783">
        <ele>648.07</ele>
        <time>2020-07-12T10:25:07Z</time>
      </trkpt>
      <trkpt lat="46.03582" lon="4.36787">
        <ele>648.55</ele>
        <time>2020-07-12T10:25:10Z</time>
      </trkpt>
      <trkpt lat="46.0358" lon="4.36799">
        <ele>650.47</ele>
        <time>2020-07-12T10:25:22Z</time>
      </trkpt>
      <trkpt lat="46.03577" lon="4.36808">
        <ele>651.43</ele>
        <time>2020-07-12T10:25:33Z</time>
      </trkpt>
      <trkpt lat="46.03574" lon="4.36821">
        <ele>652.87</ele>
        <time>2020-07-12T10:25:45Z</time>
      </trkpt>
      <trkpt lat="46.03573" lon="4.36826">
        <ele>653.35</ele>
        <time>2020-07-12T10:25:51Z</time>
      </trkpt>
      <trkpt lat="46.03569" lon="4.36838">
        <ele>654.8</ele>
        <time>2020-07-12T10:26:03Z</time>
      </trkpt>
      <trkpt lat="46.03566" lon="4.3685">
        <ele>656.24</ele>
        <time>2020-07-12T10:26:15Z</time>
      </trkpt>
      <trkpt lat="46.03565" lon="4.36854">
        <ele>656.72</ele>
        <time>2020-07-12T10:26:20Z</time>
      </trkpt>
      <trkpt lat="46.03564" lon="4.36857">
        <ele>656.72</ele>
        <time>2020-07-12T10:26:23Z</time>
      </trkpt>
      <trkpt lat="46.03564" lon="4.3686">
        <ele>657.68</ele>
        <time>2020-07-12T10:26:26Z</time>
      </trkpt>
      <trkpt lat="46.03563" lon="4.36865">
        <ele>658.16</ele>
        <time>2020-07-12T10:26:32Z</time>
      </trkpt>
      <trkpt lat="46.03562" lon="4.36868">
        <ele>658.16</ele>
        <time>2020-07-12T10:26:35Z</time>
      </trkpt>
      <trkpt lat="46.03558" lon="4.36875">
        <ele>659.12</ele>
        <time>2020-07-12T10:26:42Z</time>
      </trkpt>
      <trkpt lat="46.0355" lon="4.36888">
        <ele>660.08</ele>
        <time>2020-07-12T10:26:55Z</time>
      </trkpt>
      <trkpt lat="46.03543" lon="4.36897">
        <ele>660.56</ele>
        <time>2020-07-12T10:27:06Z</time>
      </trkpt>
      <trkpt lat="46.03534" lon="4.3691">
        <ele>662.01</ele>
        <time>2020-07-12T10:27:20Z</time>
      </trkpt>
      <trkpt lat="46.03532" lon="4.36912">
        <ele>662.49</ele>
        <time>2020-07-12T10:27:23Z</time>
      </trkpt>
      <trkpt lat="46.03525" lon="4.36926">
        <ele>662.01</ele>
        <time>2020-07-12T10:27:36Z</time>
      </trkpt>
      <trkpt lat="46.03522" lon="4.36941">
        <ele>662.97</ele>
        <time>2020-07-12T10:27:49Z</time>
      </trkpt>
      <trkpt lat="46.03522" lon="4.36948">
        <ele>662.97</ele>
        <time>2020-07-12T10:28:02Z</time>
      </trkpt>
      <trkpt lat="46.03525" lon="4.3696">
        <ele>661.04</ele>
        <time>2020-07-12T10:28:16Z</time>
      </trkpt>
      <trkpt lat="46.03525" lon="4.36968">
        <ele>661.04</ele>
        <time>2020-07-12T10:28:29Z</time>
      </trkpt>
      <trkpt lat="46.03525" lon="4.36969">
        <ele>661.52</ele>
        <time>2020-07-12T10:28:45Z</time>
      </trkpt>
      <trkpt lat="46.03525" lon="4.36971">
        <ele>661.04</ele>
        <time>2020-07-12T10:29:01Z</time>
      </trkpt>
      <trkpt lat="46.03525" lon="4.3697">
        <ele>661.04</ele>
        <time>2020-07-12T10:29:20Z</time>
      </trkpt>
      <trkpt lat="46.03524" lon="4.36967">
        <ele>661.04</ele>
        <time>2020-07-12T10:29:44Z</time>
      </trkpt>
      <trkpt lat="46.03524" lon="4.36967">
        <ele>661.04</ele>
        <time>2020-07-12T10:30:13Z</time>
      </trkpt>
      <trkpt lat="46.03524" lon="4.36969">
        <ele>661.04</ele>
        <time>2020-07-12T10:30:35Z</time>
      </trkpt>
      <trkpt lat="46.03524" lon="4.36968">
        <ele>661.04</ele>
        <time>2020-07-12T10:30:54Z</time>
      </trkpt>
      <trkpt lat="46.03526" lon="4.36966">
        <ele>661.04</ele>
        <time>2020-07-12T10:31:00Z</time>
      </trkpt>
      <trkpt lat="46.03532" lon="4.36961">
        <ele>661.04</ele>
        <time>2020-07-12T10:31:08Z</time>
      </trkpt>
      <trkpt lat="46.03548" lon="4.36953">
        <ele>660.56</ele>
        <time>2020-07-12T10:31:24Z</time>
      </trkpt>
      <trkpt lat="46.03563" lon="4.36945">
        <ele>660.56</ele>
        <time>2020-07-12T10:31:41Z</time>
      </trkpt>
      <trkpt lat="46.03581" lon="4.36938">
        <ele>660.56</ele>
        <time>2020-07-12T10:31:58Z</time>
      </trkpt>
      <trkpt lat="46.03597" lon="4.36931">
        <ele>660.56</ele>
        <time>2020-07-12T10:32:12Z</time>
      </trkpt>
      <trkpt lat="46.03613" lon="4.36924">
        <ele>660.56</ele>
        <time>2020-07-12T10:32:27Z</time>
      </trkpt>
      <trkpt lat="46.03628" lon="4.36919">
        <ele>661.04</ele>
        <time>2020-07-12T10:32:42Z</time>
      </trkpt>
      <trkpt lat="46.03642" lon="4.36917">
        <ele>662.49</ele>
        <time>2020-07-12T10:32:57Z</time>
      </trkpt>
      <trkpt lat="46.03643" lon="4.36916">
        <ele>662.49</ele>
        <time>2020-07-12T10:32:59Z</time>
      </trkpt>
      <trkpt lat="46.03655" lon="4.3691">
        <ele>663.45</ele>
        <time>2020-07-12T10:33:13Z</time>
      </trkpt>
      <trkpt lat="46.03667" lon="4.36904">
        <ele>664.41</ele>
        <time>2020-07-12T10:33:26Z</time>
      </trkpt>
      <trkpt lat="46.03675" lon="4.36901">
        <ele>665.37</ele>
        <time>2020-07-12T10:33:36Z</time>
      </trkpt>
      <trkpt lat="46.03684" lon="4.36897">
        <ele>666.33</ele>
        <time>2020-07-12T10:33:45Z</time>
      </trkpt>
      <trkpt lat="46.03688" lon="4.36896">
        <ele>667.29</ele>
        <time>2020-07-12T10:33:49Z</time>
      </trkpt>
      <trkpt lat="46.037" lon="4.36886">
        <ele>668.25</ele>
        <time>2020-07-12T10:34:03Z</time>
      </trkpt>
      <trkpt lat="46.03714" lon="4.36884">
        <ele>668.73</ele>
        <time>2020-07-12T10:34:16Z</time>
      </trkpt>
      <trkpt lat="46.03727" lon="4.36893">
        <ele>668.73</ele>
        <time>2020-07-12T10:34:28Z</time>
      </trkpt>
      <trkpt lat="46.03734" lon="4.36895">
        <ele>668.25</ele>
        <time>2020-07-12T10:34:35Z</time>
      </trkpt>
      <trkpt lat="46.03751" lon="4.36896">
        <ele>668.73</ele>
        <time>2020-07-12T10:34:51Z</time>
      </trkpt>
      <trkpt lat="46.03764" lon="4.36893">
        <ele>668.73</ele>
        <time>2020-07-12T10:35:08Z</time>
      </trkpt>
      <trkpt lat="46.03782" lon="4.3689">
        <ele>668.73</ele>
        <time>2020-07-12T10:35:28Z</time>
      </trkpt>
      <trkpt lat="46.0379" lon="4.3689">
        <ele>668.73</ele>
        <time>2020-07-12T10:35:35Z</time>
      </trkpt>
      <trkpt lat="46.03795" lon="4.3689">
        <ele>668.25</ele>
        <time>2020-07-12T10:35:38Z</time>
      </trkpt>
      <trkpt lat="46.03816" lon="4.36891">
        <ele>668.73</ele>
        <time>2020-07-12T10:35:54Z</time>
      </trkpt>
      <trkpt lat="46.03833" lon="4.36889">
        <ele>668.73</ele>
        <time>2020-07-12T10:36:09Z</time>
      </trkpt>
      <trkpt lat="46.03839" lon="4.36888">
        <ele>669.22</ele>
        <time>2020-07-12T10:36:15Z</time>
      </trkpt>
      <trkpt lat="46.03857" lon="4.36885">
        <ele>670.18</ele>
        <time>2020-07-12T10:36:31Z</time>
      </trkpt>
      <trkpt lat="46.03871" lon="4.36883">
        <ele>671.14</ele>
        <time>2020-07-12T10:36:44Z</time>
      </trkpt>
      <trkpt lat="46.03887" lon="4.36882">
        <ele>672.58</ele>
        <time>2020-07-12T10:37:01Z</time>
      </trkpt>
      <trkpt lat="46.03901" lon="4.36881">
        <ele>673.06</ele>
        <time>2020-07-12T10:37:15Z</time>
      </trkpt>
      <trkpt lat="46.03916" lon="4.36882">
        <ele>674.98</ele>
        <time>2020-07-12T10:37:29Z</time>
      </trkpt>
      <trkpt lat="46.03925" lon="4.36881">
        <ele>675.94</ele>
        <time>2020-07-12T10:37:39Z</time>
      </trkpt>
      <trkpt lat="46.03932" lon="4.36881">
        <ele>676.91</ele>
        <time>2020-07-12T10:37:45Z</time>
      </trkpt>
      <trkpt lat="46.03941" lon="4.36882">
        <ele>678.35</ele>
        <time>2020-07-12T10:37:55Z</time>
      </trkpt>
      <trkpt lat="46.03947" lon="4.36883">
        <ele>678.83</ele>
        <time>2020-07-12T10:38:00Z</time>
      </trkpt>
      <trkpt lat="46.03963" lon="4.36885">
        <ele>680.75</ele>
        <time>2020-07-12T10:38:15Z</time>
      </trkpt>
      <trkpt lat="46.0397" lon="4.36888">
        <ele>680.75</ele>
        <time>2020-07-12T10:38:22Z</time>
      </trkpt>
      <trkpt lat="46.03976" lon="4.36888">
        <ele>680.75</ele>
        <time>2020-07-12T10:38:27Z</time>
      </trkpt>
      <trkpt lat="46.03992" lon="4.36887">
        <ele>681.23</ele>
        <time>2020-07-12T10:38:42Z</time>
      </trkpt>
      <trkpt lat="46.04008" lon="4.36888">
        <ele>681.71</ele>
        <time>2020-07-12T10:38:56Z</time>
      </trkpt>
      <trkpt lat="46.04026" lon="4.36887">
        <ele>679.79</ele>
        <time>2020-07-12T10:39:12Z</time>
      </trkpt>
      <trkpt lat="46.04032" lon="4.36885">
        <ele>679.31</ele>
        <time>2020-07-12T10:39:19Z</time>
      </trkpt>
      <trkpt lat="46.04038" lon="4.36884">
        <ele>678.35</ele>
        <time>2020-07-12T10:39:24Z</time>
      </trkpt>
      <trkpt lat="46.04057" lon="4.36875">
        <ele>677.87</ele>
        <time>2020-07-12T10:39:41Z</time>
      </trkpt>
      <trkpt lat="46.04073" lon="4.36862">
        <ele>677.87</ele>
        <time>2020-07-12T10:39:57Z</time>
      </trkpt>
      <trkpt lat="46.04075" lon="4.36859">
        <ele>677.87</ele>
        <time>2020-07-12T10:40:00Z</time>
      </trkpt>
      <trkpt lat="46.04089" lon="4.36842">
        <ele>677.87</ele>
        <time>2020-07-12T10:40:15Z</time>
      </trkpt>
      <trkpt lat="46.04094" lon="4.3684">
        <ele>677.87</ele>
        <time>2020-07-12T10:40:20Z</time>
      </trkpt>
      <trkpt lat="46.04109" lon="4.36839">
        <ele>677.87</ele>
        <time>2020-07-12T10:40:34Z</time>
      </trkpt>
      <trkpt lat="46.0412" lon="4.36836">
        <ele>677.87</ele>
        <time>2020-07-12T10:40:46Z</time>
      </trkpt>
      <trkpt lat="46.04122" lon="4.36835">
        <ele>677.87</ele>
        <time>2020-07-12T10:40:48Z</time>
      </trkpt>
      <trkpt lat="46.04125" lon="4.36835">
        <ele>679.31</ele>
        <time>2020-07-12T10:40:51Z</time>
      </trkpt>
      <trkpt lat="46.04137" lon="4.36835">
        <ele>679.79</ele>
        <time>2020-07-12T10:41:04Z</time>
      </trkpt>
      <trkpt lat="46.04152" lon="4.3684">
        <ele>679.79</ele>
        <time>2020-07-12T10:41:17Z</time>
      </trkpt>
      <trkpt lat="46.04167" lon="4.36843">
        <ele>681.23</ele>
        <time>2020-07-12T10:41:31Z</time>
      </trkpt>
      <trkpt lat="46.04171" lon="4.36844">
        <ele>681.23</ele>
        <time>2020-07-12T10:41:35Z</time>
      </trkpt>
      <trkpt lat="46.04177" lon="4.36845">
        <ele>682.19</ele>
        <time>2020-07-12T10:41:41Z</time>
      </trkpt>
      <trkpt lat="46.04179" lon="4.36846">
        <ele>682.19</ele>
        <time>2020-07-12T10:41:43Z</time>
      </trkpt>
      <trkpt lat="46.04194" lon="4.3685">
        <ele>682.67</ele>
        <time>2020-07-12T10:41:58Z</time>
      </trkpt>
      <trkpt lat="46.04201" lon="4.3685">
        <ele>683.15</ele>
        <time>2020-07-12T10:42:03Z</time>
      </trkpt>
      <trkpt lat="46.04217" lon="4.36854">
        <ele>683.15</ele>
        <time>2020-07-12T10:42:17Z</time>
      </trkpt>
      <trkpt lat="46.04235" lon="4.36858">
        <ele>684.12</ele>
        <time>2020-07-12T10:42:32Z</time>
      </trkpt>
      <trkpt lat="46.04249" lon="4.36863">
        <ele>684.6</ele>
        <time>2020-07-12T10:42:45Z</time>
      </trkpt>
      <trkpt lat="46.04258" lon="4.36867">
        <ele>685.08</ele>
        <time>2020-07-12T10:42:52Z</time>
      </trkpt>
      <trkpt lat="46.04272" lon="4.36873">
        <ele>686.04</ele>
        <time>2020-07-12T10:43:06Z</time>
      </trkpt>
      <trkpt lat="46.04285" lon="4.36881">
        <ele>687</ele>
        <time>2020-07-12T10:43:20Z</time>
      </trkpt>
      <trkpt lat="46.04298" lon="4.3689">
        <ele>688.92</ele>
        <time>2020-07-12T10:43:37Z</time>
      </trkpt>
      <trkpt lat="46.04312" lon="4.36896">
        <ele>690.36</ele>
        <time>2020-07-12T10:43:52Z</time>
      </trkpt>
      <trkpt lat="46.04321" lon="4.36902">
        <ele>691.81</ele>
        <time>2020-07-12T10:44:04Z</time>
      </trkpt>
      <trkpt lat="46.04329" lon="4.36907">
        <ele>692.77</ele>
        <time>2020-07-12T10:44:15Z</time>
      </trkpt>
      <trkpt lat="46.04333" lon="4.3691">
        <ele>693.73</ele>
        <time>2020-07-12T10:44:21Z</time>
      </trkpt>
      <trkpt lat="46.04336" lon="4.36911">
        <ele>694.21</ele>
        <time>2020-07-12T10:44:25Z</time>
      </trkpt>
      <trkpt lat="46.04349" lon="4.36917">
        <ele>696.13</ele>
        <time>2020-07-12T10:44:39Z</time>
      </trkpt>
      <trkpt lat="46.04359" lon="4.36922">
        <ele>697.09</ele>
        <time>2020-07-12T10:44:51Z</time>
      </trkpt>
      <trkpt lat="46.04371" lon="4.36928">
        <ele>698.05</ele>
        <time>2020-07-12T10:45:03Z</time>
      </trkpt>
      <trkpt lat="46.04377" lon="4.36933">
        <ele>698.53</ele>
        <time>2020-07-12T10:45:10Z</time>
      </trkpt>
      <trkpt lat="46.04389" lon="4.36943">
        <ele>699.98</ele>
        <time>2020-07-12T10:45:24Z</time>
      </trkpt>
      <trkpt lat="46.044" lon="4.3695">
        <ele>700.94</ele>
        <time>2020-07-12T10:45:37Z</time>
      </trkpt>
      <trkpt lat="46.04411" lon="4.36958">
        <ele>702.38</ele>
        <time>2020-07-12T10:45:50Z</time>
      </trkpt>
      <trkpt lat="46.04415" lon="4.36961">
        <ele>702.86</ele>
        <time>2020-07-12T10:45:55Z</time>
      </trkpt>
      <trkpt lat="46.04418" lon="4.36963">
        <ele>703.34</ele>
        <time>2020-07-12T10:45:59Z</time>
      </trkpt>
      <trkpt lat="46.04423" lon="4.36965">
        <ele>703.34</ele>
        <time>2020-07-12T10:46:04Z</time>
      </trkpt>
      <trkpt lat="46.04426" lon="4.36968">
        <ele>703.82</ele>
        <time>2020-07-12T10:46:08Z</time>
      </trkpt>
      <trkpt lat="46.04439" lon="4.36976">
        <ele>704.78</ele>
        <time>2020-07-12T10:46:22Z</time>
      </trkpt>
      <trkpt lat="46.04441" lon="4.36977">
        <ele>704.78</ele>
        <time>2020-07-12T10:46:24Z</time>
      </trkpt>
      <trkpt lat="46.04451" lon="4.36985">
        <ele>705.75</ele>
        <time>2020-07-12T10:46:37Z</time>
      </trkpt>
      <trkpt lat="46.04465" lon="4.36995">
        <ele>706.71</ele>
        <time>2020-07-12T10:46:51Z</time>
      </trkpt>
      <trkpt lat="46.04466" lon="4.36996">
        <ele>706.71</ele>
        <time>2020-07-12T10:46:53Z</time>
      </trkpt>
      <trkpt lat="46.04477" lon="4.37002">
        <ele>707.67</ele>
        <time>2020-07-12T10:47:06Z</time>
      </trkpt>
      <trkpt lat="46.0449" lon="4.37011">
        <ele>708.15</ele>
        <time>2020-07-12T10:47:20Z</time>
      </trkpt>
      <trkpt lat="46.04503" lon="4.37017">
        <ele>709.59</ele>
        <time>2020-07-12T10:47:34Z</time>
      </trkpt>
      <trkpt lat="46.04514" lon="4.37022">
        <ele>710.07</ele>
        <time>2020-07-12T10:47:47Z</time>
      </trkpt>
      <trkpt lat="46.04526" lon="4.37033">
        <ele>711.03</ele>
        <time>2020-07-12T10:48:01Z</time>
      </trkpt>
      <trkpt lat="46.04539" lon="4.37044">
        <ele>711.99</ele>
        <time>2020-07-12T10:48:15Z</time>
      </trkpt>
      <trkpt lat="46.04546" lon="4.3705">
        <ele>712.47</ele>
        <time>2020-07-12T10:48:24Z</time>
      </trkpt>
      <trkpt lat="46.04557" lon="4.37064">
        <ele>713.44</ele>
        <time>2020-07-12T10:48:38Z</time>
      </trkpt>
      <trkpt lat="46.04557" lon="4.37064">
        <ele>713.44</ele>
        <time>2020-07-12T10:48:39Z</time>
      </trkpt>
      <trkpt lat="46.04573" lon="4.37075">
        <ele>714.4</ele>
        <time>2020-07-12T10:48:58Z</time>
      </trkpt>
      <trkpt lat="46.0459" lon="4.37088">
        <ele>716.32</ele>
        <time>2020-07-12T10:49:16Z</time>
      </trkpt>
      <trkpt lat="46.04607" lon="4.37097">
        <ele>716.8</ele>
        <time>2020-07-12T10:49:35Z</time>
      </trkpt>
      <trkpt lat="46.04622" lon="4.37093">
        <ele>718.72</ele>
        <time>2020-07-12T10:49:52Z</time>
      </trkpt>
      <trkpt lat="46.04629" lon="4.37088">
        <ele>719.2</ele>
        <time>2020-07-12T10:50:00Z</time>
      </trkpt>
      <trkpt lat="46.04642" lon="4.37081">
        <ele>720.65</ele>
        <time>2020-07-12T10:50:14Z</time>
      </trkpt>
      <trkpt lat="46.04645" lon="4.37079">
        <ele>721.61</ele>
        <time>2020-07-12T10:50:18Z</time>
      </trkpt>
      <trkpt lat="46.04658" lon="4.37077">
        <ele>722.57</ele>
        <time>2020-07-12T10:50:32Z</time>
      </trkpt>
      <trkpt lat="46.04669" lon="4.37072">
        <ele>724.01</ele>
        <time>2020-07-12T10:50:45Z</time>
      </trkpt>
      <trkpt lat="46.04677" lon="4.37069">
        <ele>725.45</ele>
        <time>2020-07-12T10:50:55Z</time>
      </trkpt>
      <trkpt lat="46.04685" lon="4.37062">
        <ele>725.93</ele>
        <time>2020-07-12T10:51:04Z</time>
      </trkpt>
      <trkpt lat="46.04697" lon="4.37053">
        <ele>726.41</ele>
        <time>2020-07-12T10:51:18Z</time>
      </trkpt>
      <trkpt lat="46.04702" lon="4.37051">
        <ele>726.41</ele>
        <time>2020-07-12T10:51:24Z</time>
      </trkpt>
      <trkpt lat="46.04708" lon="4.37051">
        <ele>726.41</ele>
        <time>2020-07-12T10:51:29Z</time>
      </trkpt>
      <trkpt lat="46.04712" lon="4.37051">
        <ele>726.41</ele>
        <time>2020-07-12T10:51:32Z</time>
      </trkpt>
      <trkpt lat="46.04731" lon="4.37047">
        <ele>725.45</ele>
        <time>2020-07-12T10:51:48Z</time>
      </trkpt>
      <trkpt lat="46.0475" lon="4.37039">
        <ele>724.97</ele>
        <time>2020-07-12T10:52:03Z</time>
      </trkpt>
      <trkpt lat="46.04758" lon="4.37038">
        <ele>725.93</ele>
        <time>2020-07-12T10:52:09Z</time>
      </trkpt>
      <trkpt lat="46.04775" lon="4.37032">
        <ele>725.93</ele>
        <time>2020-07-12T10:52:24Z</time>
      </trkpt>
      <trkpt lat="46.04791" lon="4.37026">
        <ele>725.93</ele>
        <time>2020-07-12T10:52:39Z</time>
      </trkpt>
      <trkpt lat="46.04807" lon="4.37023">
        <ele>725.93</ele>
        <time>2020-07-12T10:52:52Z</time>
      </trkpt>
      <trkpt lat="46.04816" lon="4.37022">
        <ele>725.93</ele>
        <time>2020-07-12T10:53:00Z</time>
      </trkpt>
      <trkpt lat="46.04838" lon="4.37025">
        <ele>725.93</ele>
        <time>2020-07-12T10:53:18Z</time>
      </trkpt>
      <trkpt lat="46.04857" lon="4.37027">
        <ele>726.41</ele>
        <time>2020-07-12T10:53:35Z</time>
      </trkpt>
      <trkpt lat="46.04875" lon="4.37031">
        <ele>726.41</ele>
        <time>2020-07-12T10:53:52Z</time>
      </trkpt>
      <trkpt lat="46.04887" lon="4.37034">
        <ele>727.37</ele>
        <time>2020-07-12T10:54:03Z</time>
      </trkpt>
      <trkpt lat="46.04898" lon="4.37046">
        <ele>727.86</ele>
        <time>2020-07-12T10:54:16Z</time>
      </trkpt>
      <trkpt lat="46.04906" lon="4.3706">
        <ele>726.41</ele>
        <time>2020-07-12T10:54:27Z</time>
      </trkpt>
      <trkpt lat="46.04912" lon="4.37073">
        <ele>725.45</ele>
        <time>2020-07-12T10:54:40Z</time>
      </trkpt>
      <trkpt lat="46.04913" lon="4.37074">
        <ele>725.45</ele>
        <time>2020-07-12T10:54:41Z</time>
      </trkpt>
      <trkpt lat="46.0492" lon="4.37089">
        <ele>723.53</ele>
        <time>2020-07-12T10:54:54Z</time>
      </trkpt>
      <trkpt lat="46.04926" lon="4.37105">
        <ele>722.57</ele>
        <time>2020-07-12T10:55:06Z</time>
      </trkpt>
      <trkpt lat="46.04927" lon="4.37121">
        <ele>721.61</ele>
        <time>2020-07-12T10:55:18Z</time>
      </trkpt>
      <trkpt lat="46.04927" lon="4.37128">
        <ele>720.16</ele>
        <time>2020-07-12T10:55:23Z</time>
      </trkpt>
      <trkpt lat="46.04926" lon="4.37143">
        <ele>719.2</ele>
        <time>2020-07-12T10:55:37Z</time>
      </trkpt>
      <trkpt lat="46.04932" lon="4.37148">
        <ele>718.24</ele>
        <time>2020-07-12T10:55:53Z</time>
      </trkpt>
      <trkpt lat="46.04932" lon="4.37147">
        <ele>717.76</ele>
        <time>2020-07-12T10:56:18Z</time>
      </trkpt>
      <trkpt lat="46.04931" lon="4.37149">
        <ele>717.76</ele>
        <time>2020-07-12T10:56:48Z</time>
      </trkpt>
      <trkpt lat="46.04935" lon="4.37143">
        <ele>717.28</ele>
        <time>2020-07-12T10:57:05Z</time>
      </trkpt>
      <trkpt lat="46.0495" lon="4.37148">
        <ele>715.36</ele>
        <time>2020-07-12T10:57:19Z</time>
      </trkpt>
      <trkpt lat="46.04966" lon="4.37151">
        <ele>713.44</ele>
        <time>2020-07-12T10:57:34Z</time>
      </trkpt>
      <trkpt lat="46.04984" lon="4.37155">
        <ele>711.99</ele>
        <time>2020-07-12T10:57:49Z</time>
      </trkpt>
      <trkpt lat="46.04994" lon="4.37165">
        <ele>711.99</ele>
        <time>2020-07-12T10:57:59Z</time>
      </trkpt>
      <trkpt lat="46.05009" lon="4.37182">
        <ele>710.07</ele>
        <time>2020-07-12T10:58:15Z</time>
      </trkpt>
      <trkpt lat="46.05019" lon="4.37196">
        <ele>708.15</ele>
        <time>2020-07-12T10:58:30Z</time>
      </trkpt>
      <trkpt lat="46.0502" lon="4.37206">
        <ele>707.19</ele>
        <time>2020-07-12T10:58:46Z</time>
      </trkpt>
      <trkpt lat="46.05019" lon="4.37204">
        <ele>707.19</ele>
        <time>2020-07-12T10:59:16Z</time>
      </trkpt>
      <trkpt lat="46.05027" lon="4.37218">
        <ele>706.71</ele>
        <time>2020-07-12T10:59:30Z</time>
      </trkpt>
      <trkpt lat="46.05037" lon="4.3723">
        <ele>705.26</ele>
        <time>2020-07-12T10:59:43Z</time>
      </trkpt>
      <trkpt lat="46.0504" lon="4.37232">
        <ele>705.26</ele>
        <time>2020-07-12T10:59:45Z</time>
      </trkpt>
      <trkpt lat="46.0505" lon="4.37253">
        <ele>704.3</ele>
        <time>2020-07-12T11:00:03Z</time>
      </trkpt>
      <trkpt lat="46.05058" lon="4.37272">
        <ele>703.34</ele>
        <time>2020-07-12T11:00:21Z</time>
      </trkpt>
      <trkpt lat="46.05073" lon="4.37299">
        <ele>702.86</ele>
        <time>2020-07-12T11:00:37Z</time>
      </trkpt>
      <trkpt lat="46.05082" lon="4.37319">
        <ele>701.9</ele>
        <time>2020-07-12T11:00:52Z</time>
      </trkpt>
      <trkpt lat="46.05093" lon="4.3734">
        <ele>700.94</ele>
        <time>2020-07-12T11:01:09Z</time>
      </trkpt>
      <trkpt lat="46.05104" lon="4.37358">
        <ele>699.5</ele>
        <time>2020-07-12T11:01:24Z</time>
      </trkpt>
      <trkpt lat="46.05113" lon="4.37378">
        <ele>698.05</ele>
        <time>2020-07-12T11:01:40Z</time>
      </trkpt>
      <trkpt lat="46.0512" lon="4.37385">
        <ele>697.09</ele>
        <time>2020-07-12T11:01:50Z</time>
      </trkpt>
      <trkpt lat="46.05129" lon="4.37393">
        <ele>695.65</ele>
        <time>2020-07-12T11:02:05Z</time>
      </trkpt>
      <trkpt lat="46.05139" lon="4.374">
        <ele>694.69</ele>
        <time>2020-07-12T11:02:19Z</time>
      </trkpt>
      <trkpt lat="46.05149" lon="4.37417">
        <ele>692.77</ele>
        <time>2020-07-12T11:02:35Z</time>
      </trkpt>
      <trkpt lat="46.05156" lon="4.37427">
        <ele>691.81</ele>
        <time>2020-07-12T11:02:47Z</time>
      </trkpt>
      <trkpt lat="46.05171" lon="4.37447">
        <ele>690.84</ele>
        <time>2020-07-12T11:03:04Z</time>
      </trkpt>
      <trkpt lat="46.05183" lon="4.37469">
        <ele>688.92</ele>
        <time>2020-07-12T11:03:20Z</time>
      </trkpt>
      <trkpt lat="46.05193" lon="4.37482">
        <ele>687.48</ele>
        <time>2020-07-12T11:03:36Z</time>
      </trkpt>
      <trkpt lat="46.05196" lon="4.37492">
        <ele>687.48</ele>
        <time>2020-07-12T11:03:50Z</time>
      </trkpt>
      <trkpt lat="46.05193" lon="4.3749">
        <ele>687.48</ele>
        <time>2020-07-12T11:04:06Z</time>
      </trkpt>
      <trkpt lat="46.05194" lon="4.37492">
        <ele>687.48</ele>
        <time>2020-07-12T11:04:23Z</time>
      </trkpt>
      <trkpt lat="46.05202" lon="4.37501">
        <ele>687.48</ele>
        <time>2020-07-12T11:04:37Z</time>
      </trkpt>
      <trkpt lat="46.05213" lon="4.37508">
        <ele>687.48</ele>
        <time>2020-07-12T11:04:58Z</time>
      </trkpt>
      <trkpt lat="46.05204" lon="4.37505">
        <ele>687</ele>
        <time>2020-07-12T11:05:21Z</time>
      </trkpt>
      <trkpt lat="46.052" lon="4.37502">
        <ele>688.44</ele>
        <time>2020-07-12T11:05:24Z</time>
      </trkpt>
      <trkpt lat="46.05192" lon="4.37498">
        <ele>688.44</ele>
        <time>2020-07-12T11:05:35Z</time>
      </trkpt>
      <trkpt lat="46.05187" lon="4.37499">
        <ele>688.44</ele>
        <time>2020-07-12T11:05:49Z</time>
      </trkpt>
      <trkpt lat="46.05186" lon="4.37493">
        <ele>688.44</ele>
        <time>2020-07-12T11:06:12Z</time>
      </trkpt>
      <trkpt lat="46.05184" lon="4.37489">
        <ele>687.96</ele>
        <time>2020-07-12T11:06:31Z</time>
      </trkpt>
      <trkpt lat="46.05182" lon="4.37487">
        <ele>687</ele>
        <time>2020-07-12T11:06:34Z</time>
      </trkpt>
      <trkpt lat="46.05181" lon="4.37485">
        <ele>687</ele>
        <time>2020-07-12T11:06:37Z</time>
      </trkpt>
      <trkpt lat="46.05177" lon="4.37483">
        <ele>687</ele>
        <time>2020-07-12T11:06:42Z</time>
      </trkpt>
      <trkpt lat="46.05172" lon="4.37482">
        <ele>686.52</ele>
        <time>2020-07-12T11:06:48Z</time>
      </trkpt>
      <trkpt lat="46.05163" lon="4.37472">
        <ele>685.56</ele>
        <time>2020-07-12T11:07:02Z</time>
      </trkpt>
      <trkpt lat="46.05161" lon="4.3746">
        <ele>685.56</ele>
        <time>2020-07-12T11:07:19Z</time>
      </trkpt>
      <trkpt lat="46.05159" lon="4.37462">
        <ele>685.08</ele>
        <time>2020-07-12T11:07:40Z</time>
      </trkpt>
      <trkpt lat="46.05152" lon="4.37458">
        <ele>684.6</ele>
        <time>2020-07-12T11:07:56Z</time>
      </trkpt>
      <trkpt lat="46.05147" lon="4.37457">
        <ele>684.6</ele>
        <time>2020-07-12T11:08:03Z</time>
      </trkpt>
      <trkpt lat="46.05137" lon="4.37452">
        <ele>684.6</ele>
        <time>2020-07-12T11:08:16Z</time>
      </trkpt>
      <trkpt lat="46.05126" lon="4.37447">
        <ele>684.6</ele>
        <time>2020-07-12T11:08:29Z</time>
      </trkpt>
      <trkpt lat="46.05115" lon="4.3745">
        <ele>684.6</ele>
        <time>2020-07-12T11:08:41Z</time>
      </trkpt>
      <trkpt lat="46.05102" lon="4.3745">
        <ele>684.12</ele>
        <time>2020-07-12T11:08:54Z</time>
      </trkpt>
      <trkpt lat="46.05095" lon="4.37448">
        <ele>683.15</ele>
        <time>2020-07-12T11:09:02Z</time>
      </trkpt>
      <trkpt lat="46.05092" lon="4.37447">
        <ele>683.15</ele>
        <time>2020-07-12T11:09:06Z</time>
      </trkpt>
      <trkpt lat="46.05086" lon="4.37446">
        <ele>683.15</ele>
        <time>2020-07-12T11:09:22Z</time>
      </trkpt>
      <trkpt lat="46.05086" lon="4.37442">
        <ele>683.15</ele>
        <time>2020-07-12T11:09:49Z</time>
      </trkpt>
      <trkpt lat="46.05084" lon="4.37444">
        <ele>683.15</ele>
        <time>2020-07-12T11:10:04Z</time>
      </trkpt>
      <trkpt lat="46.05084" lon="4.37438">
        <ele>682.67</ele>
        <time>2020-07-12T11:10:22Z</time>
      </trkpt>
      <trkpt lat="46.05086" lon="4.37435">
        <ele>682.67</ele>
        <time>2020-07-12T11:10:47Z</time>
      </trkpt>
      <trkpt lat="46.05084" lon="4.3743">
        <ele>684.6</ele>
        <time>2020-07-12T11:11:05Z</time>
      </trkpt>
      <trkpt lat="46.05093" lon="4.37438">
        <ele>683.15</ele>
        <time>2020-07-12T11:13:17Z</time>
      </trkpt>
      <trkpt lat="46.05092" lon="4.37438">
        <ele>683.15</ele>
        <time>2020-07-12T11:13:37Z</time>
      </trkpt>
      <trkpt lat="46.05089" lon="4.37435">
        <ele>683.15</ele>
        <time>2020-07-12T11:14:01Z</time>
      </trkpt>
      <trkpt lat="46.05088" lon="4.37438">
        <ele>683.15</ele>
        <time>2020-07-12T11:14:19Z</time>
      </trkpt>
      <trkpt lat="46.05086" lon="4.37435">
        <ele>683.15</ele>
        <time>2020-07-12T11:14:36Z</time>
      </trkpt>
      <trkpt lat="46.0508" lon="4.3743">
        <ele>683.15</ele>
        <time>2020-07-12T11:15:09Z</time>
      </trkpt>
      <trkpt lat="46.0508" lon="4.37432">
        <ele>673.54</ele>
        <time>2020-07-12T11:15:20Z</time>
      </trkpt>
      <trkpt lat="46.0508" lon="4.37432">
        <ele>680.27</ele>
        <time>2020-07-12T11:15:21Z</time>
      </trkpt>
      <trkpt lat="46.05082" lon="4.37447">
        <ele>682.67</ele>
        <time>2020-07-12T11:23:48Z</time>
      </trkpt>
      <trkpt lat="46.05082" lon="4.37443">
        <ele>682.67</ele>
        <time>2020-07-12T11:24:08Z</time>
      </trkpt>
      <trkpt lat="46.05084" lon="4.37439">
        <ele>684.12</ele>
        <time>2020-07-12T11:24:45Z</time>
      </trkpt>
      <trkpt lat="46.05085" lon="4.37438">
        <ele>682.67</ele>
        <time>2020-07-12T11:25:16Z</time>
      </trkpt>
      <trkpt lat="46.05086" lon="4.37439">
        <ele>683.15</ele>
        <time>2020-07-12T11:25:40Z</time>
      </trkpt>
      <trkpt lat="46.05089" lon="4.37438">
        <ele>683.63</ele>
        <time>2020-07-12T11:26:06Z</time>
      </trkpt>
      <trkpt lat="46.0509" lon="4.37437">
        <ele>684.12</ele>
        <time>2020-07-12T11:26:47Z</time>
      </trkpt>
      <trkpt lat="46.05095" lon="4.37438">
        <ele>684.12</ele>
        <time>2020-07-12T11:27:26Z</time>
      </trkpt>
      <trkpt lat="46.05095" lon="4.37439">
        <ele>684.12</ele>
        <time>2020-07-12T11:28:01Z</time>
      </trkpt>
      <trkpt lat="46.05095" lon="4.37437">
        <ele>684.12</ele>
        <time>2020-07-12T11:28:43Z</time>
      </trkpt>
      <trkpt lat="46.05092" lon="4.37435">
        <ele>684.12</ele>
        <time>2020-07-12T11:29:21Z</time>
      </trkpt>
      <trkpt lat="46.05093" lon="4.37436">
        <ele>684.6</ele>
        <time>2020-07-12T11:29:59Z</time>
      </trkpt>
      <trkpt lat="46.0509" lon="4.37439">
        <ele>684.6</ele>
        <time>2020-07-12T11:30:35Z</time>
      </trkpt>
      <trkpt lat="46.05093" lon="4.37439">
        <ele>684.6</ele>
        <time>2020-07-12T11:31:05Z</time>
      </trkpt>
      <trkpt lat="46.05095" lon="4.37438">
        <ele>684.6</ele>
        <time>2020-07-12T11:31:33Z</time>
      </trkpt>
      <trkpt lat="46.05096" lon="4.37435">
        <ele>685.08</ele>
        <time>2020-07-12T11:32:08Z</time>
      </trkpt>
      <trkpt lat="46.05091" lon="4.37437">
        <ele>685.08</ele>
        <time>2020-07-12T11:32:43Z</time>
      </trkpt>
      <trkpt lat="46.05094" lon="4.37437">
        <ele>685.08</ele>
        <time>2020-07-12T11:33:23Z</time>
      </trkpt>
      <trkpt lat="46.05095" lon="4.37437">
        <ele>685.08</ele>
        <time>2020-07-12T11:34:01Z</time>
      </trkpt>
      <trkpt lat="46.05093" lon="4.37434">
        <ele>685.08</ele>
        <time>2020-07-12T11:34:31Z</time>
      </trkpt>
      <trkpt lat="46.0509" lon="4.37432">
        <ele>685.56</ele>
        <time>2020-07-12T11:35:05Z</time>
      </trkpt>
      <trkpt lat="46.05092" lon="4.37433">
        <ele>685.56</ele>
        <time>2020-07-12T11:35:38Z</time>
      </trkpt>
      <trkpt lat="46.05093" lon="4.37436">
        <ele>685.56</ele>
        <time>2020-07-12T11:36:04Z</time>
      </trkpt>
      <trkpt lat="46.05093" lon="4.37436">
        <ele>685.56</ele>
        <time>2020-07-12T11:36:35Z</time>
      </trkpt>
      <trkpt lat="46.05089" lon="4.37436">
        <ele>685.56</ele>
        <time>2020-07-12T11:37:08Z</time>
      </trkpt>
      <trkpt lat="46.05091" lon="4.37435">
        <ele>685.56</ele>
        <time>2020-07-12T11:37:49Z</time>
      </trkpt>
      <trkpt lat="46.0509" lon="4.37437">
        <ele>685.56</ele>
        <time>2020-07-12T11:38:26Z</time>
      </trkpt>
      <trkpt lat="46.05096" lon="4.37433">
        <ele>685.56</ele>
        <time>2020-07-12T11:39:02Z</time>
      </trkpt>
      <trkpt lat="46.05097" lon="4.37437">
        <ele>685.56</ele>
        <time>2020-07-12T11:39:37Z</time>
      </trkpt>
      <trkpt lat="46.05094" lon="4.37438">
        <ele>685.56</ele>
        <time>2020-07-12T11:40:07Z</time>
      </trkpt>
      <trkpt lat="46.05093" lon="4.37437">
        <ele>685.56</ele>
        <time>2020-07-12T11:40:41Z</time>
      </trkpt>
      <trkpt lat="46.05093" lon="4.37437">
        <ele>685.56</ele>
        <time>2020-07-12T11:41:18Z</time>
      </trkpt>
      <trkpt lat="46.05092" lon="4.37435">
        <ele>685.56</ele>
        <time>2020-07-12T11:41:51Z</time>
      </trkpt>
      <trkpt lat="46.05084" lon="4.37439">
        <ele>686.04</ele>
        <time>2020-07-12T11:42:22Z</time>
      </trkpt>
      <trkpt lat="46.05081" lon="4.3744">
        <ele>686.04</ele>
        <time>2020-07-12T11:42:57Z</time>
      </trkpt>
      <trkpt lat="46.05083" lon="4.37438">
        <ele>686.04</ele>
        <time>2020-07-12T11:43:33Z</time>
      </trkpt>
      <trkpt lat="46.05083" lon="4.37438">
        <ele>685.56</ele>
        <time>2020-07-12T11:44:06Z</time>
      </trkpt>
      <trkpt lat="46.05087" lon="4.37431">
        <ele>685.56</ele>
        <time>2020-07-12T11:44:38Z</time>
      </trkpt>
      <trkpt lat="46.05084" lon="4.37432">
        <ele>685.56</ele>
        <time>2020-07-12T11:45:13Z</time>
      </trkpt>
      <trkpt lat="46.05082" lon="4.37435">
        <ele>685.56</ele>
        <time>2020-07-12T11:45:44Z</time>
      </trkpt>
      <trkpt lat="46.05081" lon="4.37436">
        <ele>685.56</ele>
        <time>2020-07-12T11:46:21Z</time>
      </trkpt>
      <trkpt lat="46.05081" lon="4.37438">
        <ele>685.56</ele>
        <time>2020-07-12T11:47:00Z</time>
      </trkpt>
      <trkpt lat="46.0509" lon="4.37434">
        <ele>685.56</ele>
        <time>2020-07-12T11:47:23Z</time>
      </trkpt>
      <trkpt lat="46.05088" lon="4.37432">
        <ele>685.56</ele>
        <time>2020-07-12T11:47:56Z</time>
      </trkpt>
      <trkpt lat="46.05093" lon="4.37431">
        <ele>685.56</ele>
        <time>2020-07-12T11:48:26Z</time>
      </trkpt>
      <trkpt lat="46.05084" lon="4.37436">
        <ele>685.56</ele>
        <time>2020-07-12T11:48:57Z</time>
      </trkpt>
      <trkpt lat="46.05084" lon="4.37433">
        <ele>685.56</ele>
        <time>2020-07-12T11:49:24Z</time>
      </trkpt>
      <trkpt lat="46.05087" lon="4.37434">
        <ele>685.56</ele>
        <time>2020-07-12T11:49:52Z</time>
      </trkpt>
      <trkpt lat="46.05086" lon="4.37437">
        <ele>685.56</ele>
        <time>2020-07-12T11:50:22Z</time>
      </trkpt>
      <trkpt lat="46.05092" lon="4.37436">
        <ele>685.56</ele>
        <time>2020-07-12T11:50:55Z</time>
      </trkpt>
      <trkpt lat="46.0509" lon="4.37437">
        <ele>685.56</ele>
        <time>2020-07-12T11:51:21Z</time>
      </trkpt>
      <trkpt lat="46.05088" lon="4.37433">
        <ele>686.04</ele>
        <time>2020-07-12T11:51:39Z</time>
      </trkpt>
      <trkpt lat="46.0509" lon="4.37432">
        <ele>684.12</ele>
        <time>2020-07-12T11:51:52Z</time>
      </trkpt>
      <trkpt lat="46.0509" lon="4.37432">
        <ele>685.56</ele>
        <time>2020-07-12T11:51:53Z</time>
      </trkpt>
      <trkpt lat="46.05107" lon="4.37436">
        <ele>684.6</ele>
        <time>2020-07-12T11:57:12Z</time>
      </trkpt>
      <trkpt lat="46.05103" lon="4.37434">
        <ele>686.52</ele>
        <time>2020-07-12T11:57:15Z</time>
      </trkpt>
      <trkpt lat="46.05083" lon="4.37433">
        <ele>685.08</ele>
        <time>2020-07-12T11:57:37Z</time>
      </trkpt>
      <trkpt lat="46.05087" lon="4.37432">
        <ele>685.08</ele>
        <time>2020-07-12T11:58:02Z</time>
      </trkpt>
      <trkpt lat="46.05089" lon="4.37432">
        <ele>685.08</ele>
        <time>2020-07-12T11:58:19Z</time>
      </trkpt>
      <trkpt lat="46.05088" lon="4.3743">
        <ele>685.08</ele>
        <time>2020-07-12T11:58:49Z</time>
      </trkpt>
      <trkpt lat="46.0509" lon="4.37433">
        <ele>685.08</ele>
        <time>2020-07-12T11:59:20Z</time>
      </trkpt>
      <trkpt lat="46.05084" lon="4.37434">
        <ele>685.56</ele>
        <time>2020-07-12T11:59:54Z</time>
      </trkpt>
      <trkpt lat="46.05084" lon="4.37429">
        <ele>685.56</ele>
        <time>2020-07-12T12:00:32Z</time>
      </trkpt>
      <trkpt lat="46.05087" lon="4.37434">
        <ele>685.56</ele>
        <time>2020-07-12T12:01:01Z</time>
      </trkpt>
      <trkpt lat="46.05089" lon="4.37434">
        <ele>686.04</ele>
        <time>2020-07-12T12:01:30Z</time>
      </trkpt>
      <trkpt lat="46.0509" lon="4.37432">
        <ele>686.04</ele>
        <time>2020-07-12T12:01:59Z</time>
      </trkpt>
      <trkpt lat="46.05097" lon="4.37431">
        <ele>686.04</ele>
        <time>2020-07-12T12:02:33Z</time>
      </trkpt>
      <trkpt lat="46.05092" lon="4.37434">
        <ele>686.04</ele>
        <time>2020-07-12T12:03:05Z</time>
      </trkpt>
      <trkpt lat="46.05086" lon="4.37436">
        <ele>686.04</ele>
        <time>2020-07-12T12:03:27Z</time>
      </trkpt>
      <trkpt lat="46.05086" lon="4.37435">
        <ele>686.52</ele>
        <time>2020-07-12T12:03:54Z</time>
      </trkpt>
      <trkpt lat="46.05086" lon="4.37433">
        <ele>686.52</ele>
        <time>2020-07-12T12:04:22Z</time>
      </trkpt>
      <trkpt lat="46.05085" lon="4.37432">
        <ele>686.52</ele>
        <time>2020-07-12T12:04:51Z</time>
      </trkpt>
      <trkpt lat="46.05088" lon="4.37434">
        <ele>686.52</ele>
        <time>2020-07-12T12:05:30Z</time>
      </trkpt>
      <trkpt lat="46.0509" lon="4.37433">
        <ele>686.52</ele>
        <time>2020-07-12T12:05:55Z</time>
      </trkpt>
      <trkpt lat="46.05086" lon="4.37432">
        <ele>686.52</ele>
        <time>2020-07-12T12:06:23Z</time>
      </trkpt>
      <trkpt lat="46.05085" lon="4.37433">
        <ele>686.52</ele>
        <time>2020-07-12T12:06:50Z</time>
      </trkpt>
      <trkpt lat="46.05083" lon="4.37435">
        <ele>687</ele>
        <time>2020-07-12T12:07:13Z</time>
      </trkpt>
      <trkpt lat="46.05084" lon="4.37438">
        <ele>687</ele>
        <time>2020-07-12T12:07:38Z</time>
      </trkpt>
      <trkpt lat="46.05084" lon="4.37443">
        <ele>687</ele>
        <time>2020-07-12T12:08:03Z</time>
      </trkpt>
      <trkpt lat="46.05081" lon="4.37441">
        <ele>687</ele>
        <time>2020-07-12T12:08:27Z</time>
      </trkpt>
      <trkpt lat="46.05084" lon="4.37444">
        <ele>687</ele>
        <time>2020-07-12T12:08:53Z</time>
      </trkpt>
      <trkpt lat="46.05082" lon="4.37444">
        <ele>687</ele>
        <time>2020-07-12T12:09:17Z</time>
      </trkpt>
      <trkpt lat="46.05082" lon="4.37442">
        <ele>687</ele>
        <time>2020-07-12T12:09:48Z</time>
      </trkpt>
      <trkpt lat="46.05083" lon="4.37442">
        <ele>687.48</ele>
        <time>2020-07-12T12:10:11Z</time>
      </trkpt>
      <trkpt lat="46.05085" lon="4.37444">
        <ele>687.48</ele>
        <time>2020-07-12T12:10:37Z</time>
      </trkpt>
      <trkpt lat="46.05093" lon="4.37441">
        <ele>688.44</ele>
        <time>2020-07-12T12:11:01Z</time>
      </trkpt>
      <trkpt lat="46.05095" lon="4.3744">
        <ele>688.92</ele>
        <time>2020-07-12T12:11:31Z</time>
      </trkpt>
      <trkpt lat="46.05098" lon="4.37439">
        <ele>688.92</ele>
        <time>2020-07-12T12:11:58Z</time>
      </trkpt>
      <trkpt lat="46.05098" lon="4.37437">
        <ele>689.4</ele>
        <time>2020-07-12T12:12:27Z</time>
      </trkpt>
      <trkpt lat="46.05091" lon="4.3744">
        <ele>689.4</ele>
        <time>2020-07-12T12:13:01Z</time>
      </trkpt>
      <trkpt lat="46.05083" lon="4.37445">
        <ele>689.88</ele>
        <time>2020-07-12T12:13:36Z</time>
      </trkpt>
      <trkpt lat="46.05087" lon="4.37441">
        <ele>689.88</ele>
        <time>2020-07-12T12:14:03Z</time>
      </trkpt>
      <trkpt lat="46.05087" lon="4.3744">
        <ele>690.36</ele>
        <time>2020-07-12T12:14:25Z</time>
      </trkpt>
      <trkpt lat="46.0509" lon="4.37438">
        <ele>690.36</ele>
        <time>2020-07-12T12:14:48Z</time>
      </trkpt>
      <trkpt lat="46.05087" lon="4.37444">
        <ele>690.36</ele>
        <time>2020-07-12T12:15:12Z</time>
      </trkpt>
      <trkpt lat="46.05084" lon="4.37442">
        <ele>690.36</ele>
        <time>2020-07-12T12:15:44Z</time>
      </trkpt>
      <trkpt lat="46.05085" lon="4.3744">
        <ele>690.36</ele>
        <time>2020-07-12T12:16:07Z</time>
      </trkpt>
      <trkpt lat="46.05088" lon="4.37439">
        <ele>690.36</ele>
        <time>2020-07-12T12:16:33Z</time>
      </trkpt>
      <trkpt lat="46.05089" lon="4.37438">
        <ele>690.84</ele>
        <time>2020-07-12T12:16:55Z</time>
      </trkpt>
      <trkpt lat="46.05092" lon="4.37441">
        <ele>690.84</ele>
        <time>2020-07-12T12:17:25Z</time>
      </trkpt>
      <trkpt lat="46.05093" lon="4.3744">
        <ele>690.84</ele>
        <time>2020-07-12T12:17:46Z</time>
      </trkpt>
      <trkpt lat="46.05095" lon="4.3744">
        <ele>690.84</ele>
        <time>2020-07-12T12:18:10Z</time>
      </trkpt>
      <trkpt lat="46.05096" lon="4.37438">
        <ele>690.84</ele>
        <time>2020-07-12T12:18:34Z</time>
      </trkpt>
      <trkpt lat="46.05093" lon="4.37437">
        <ele>690.84</ele>
        <time>2020-07-12T12:19:00Z</time>
      </trkpt>
      <trkpt lat="46.05084" lon="4.37443">
        <ele>690.84</ele>
        <time>2020-07-12T12:19:36Z</time>
      </trkpt>
      <trkpt lat="46.05084" lon="4.37438">
        <ele>690.84</ele>
        <time>2020-07-12T12:20:12Z</time>
      </trkpt>
      <trkpt lat="46.05085" lon="4.37439">
        <ele>690.84</ele>
        <time>2020-07-12T12:20:43Z</time>
      </trkpt>
      <trkpt lat="46.05085" lon="4.37441">
        <ele>691.33</ele>
        <time>2020-07-12T12:21:13Z</time>
      </trkpt>
      <trkpt lat="46.05083" lon="4.37439">
        <ele>691.33</ele>
        <time>2020-07-12T12:21:39Z</time>
      </trkpt>
      <trkpt lat="46.05088" lon="4.37437">
        <ele>689.4</ele>
        <time>2020-07-12T12:22:04Z</time>
      </trkpt>
      <trkpt lat="46.05086" lon="4.37434">
        <ele>690.84</ele>
        <time>2020-07-12T12:22:19Z</time>
      </trkpt>
      <trkpt lat="46.05086" lon="4.37434">
        <ele>690.36</ele>
        <time>2020-07-12T12:22:45Z</time>
      </trkpt>
      <trkpt lat="46.05082" lon="4.37434">
        <ele>691.81</ele>
        <time>2020-07-12T12:23:00Z</time>
      </trkpt>
      <trkpt lat="46.05084" lon="4.37434">
        <ele>691.33</ele>
        <time>2020-07-12T12:23:16Z</time>
      </trkpt>
      <trkpt lat="46.05085" lon="4.37437">
        <ele>691.33</ele>
        <time>2020-07-12T12:23:43Z</time>
      </trkpt>
      <trkpt lat="46.05086" lon="4.37442">
        <ele>689.88</ele>
        <time>2020-07-12T12:24:08Z</time>
      </trkpt>
      <trkpt lat="46.05083" lon="4.37445">
        <ele>689.88</ele>
        <time>2020-07-12T12:24:39Z</time>
      </trkpt>
      <trkpt lat="46.05087" lon="4.37439">
        <ele>689.88</ele>
        <time>2020-07-12T12:25:02Z</time>
      </trkpt>
      <trkpt lat="46.05086" lon="4.3744">
        <ele>689.88</ele>
        <time>2020-07-12T12:25:25Z</time>
      </trkpt>
      <trkpt lat="46.0509" lon="4.37431">
        <ele>689.4</ele>
        <time>2020-07-12T12:25:49Z</time>
      </trkpt>
      <trkpt lat="46.05085" lon="4.37432">
        <ele>689.4</ele>
        <time>2020-07-12T12:26:17Z</time>
      </trkpt>
      <trkpt lat="46.05082" lon="4.37436">
        <ele>689.4</ele>
        <time>2020-07-12T12:26:45Z</time>
      </trkpt>
      <trkpt lat="46.05087" lon="4.37435">
        <ele>689.4</ele>
        <time>2020-07-12T12:27:19Z</time>
      </trkpt>
      <trkpt lat="46.05086" lon="4.37435">
        <ele>688.92</ele>
        <time>2020-07-12T12:27:38Z</time>
      </trkpt>
      <trkpt lat="46.0509" lon="4.37433">
        <ele>688.92</ele>
        <time>2020-07-12T12:28:04Z</time>
      </trkpt>
      <trkpt lat="46.05089" lon="4.37436">
        <ele>688.92</ele>
        <time>2020-07-12T12:28:31Z</time>
      </trkpt>
      <trkpt lat="46.05087" lon="4.37435">
        <ele>688.92</ele>
        <time>2020-07-12T12:29:07Z</time>
      </trkpt>
      <trkpt lat="46.05086" lon="4.37436">
        <ele>688.44</ele>
        <time>2020-07-12T12:29:38Z</time>
      </trkpt>
      <trkpt lat="46.0509" lon="4.37436">
        <ele>688.44</ele>
        <time>2020-07-12T12:29:55Z</time>
      </trkpt>
      <trkpt lat="46.05085" lon="4.37433">
        <ele>688.44</ele>
        <time>2020-07-12T12:30:20Z</time>
      </trkpt>
      <trkpt lat="46.05084" lon="4.37432">
        <ele>688.44</ele>
        <time>2020-07-12T12:30:52Z</time>
      </trkpt>
      <trkpt lat="46.0509" lon="4.37428">
        <ele>688.44</ele>
        <time>2020-07-12T12:31:20Z</time>
      </trkpt>
      <trkpt lat="46.05087" lon="4.3743">
        <ele>688.44</ele>
        <time>2020-07-12T12:31:50Z</time>
      </trkpt>
      <trkpt lat="46.05086" lon="4.3743">
        <ele>687.96</ele>
        <time>2020-07-12T12:32:16Z</time>
      </trkpt>
      <trkpt lat="46.05084" lon="4.37433">
        <ele>687.96</ele>
        <time>2020-07-12T12:32:48Z</time>
      </trkpt>
      <trkpt lat="46.0508" lon="4.37434">
        <ele>687.96</ele>
        <time>2020-07-12T12:33:24Z</time>
      </trkpt>
      <trkpt lat="46.05081" lon="4.37432">
        <ele>687.48</ele>
        <time>2020-07-12T12:33:49Z</time>
      </trkpt>
      <trkpt lat="46.05083" lon="4.37435">
        <ele>687.48</ele>
        <time>2020-07-12T12:34:21Z</time>
      </trkpt>
      <trkpt lat="46.05081" lon="4.37434">
        <ele>687.48</ele>
        <time>2020-07-12T12:34:46Z</time>
      </trkpt>
      <trkpt lat="46.05084" lon="4.37433">
        <ele>687</ele>
        <time>2020-07-12T12:35:01Z</time>
      </trkpt>
      <trkpt lat="46.05085" lon="4.37432">
        <ele>688.44</ele>
        <time>2020-07-12T12:35:10Z</time>
      </trkpt>
      <trkpt lat="46.05085" lon="4.37435">
        <ele>687.48</ele>
        <time>2020-07-12T12:35:25Z</time>
      </trkpt>
      <trkpt lat="46.05086" lon="4.37438">
        <ele>687</ele>
        <time>2020-07-12T12:35:47Z</time>
      </trkpt>
      <trkpt lat="46.05084" lon="4.37437">
        <ele>687</ele>
        <time>2020-07-12T12:36:06Z</time>
      </trkpt>
      <trkpt lat="46.05088" lon="4.37436">
        <ele>687</ele>
        <time>2020-07-12T12:36:21Z</time>
      </trkpt>
      <trkpt lat="46.05094" lon="4.37438">
        <ele>686.52</ele>
        <time>2020-07-12T12:36:43Z</time>
      </trkpt>
      <trkpt lat="46.05084" lon="4.37439">
        <ele>686.52</ele>
        <time>2020-07-12T12:37:09Z</time>
      </trkpt>
      <trkpt lat="46.05085" lon="4.37438">
        <ele>686.04</ele>
        <time>2020-07-12T12:37:32Z</time>
      </trkpt>
      <trkpt lat="46.05087" lon="4.37438">
        <ele>686.04</ele>
        <time>2020-07-12T12:37:52Z</time>
      </trkpt>
      <trkpt lat="46.0509" lon="4.37437">
        <ele>686.04</ele>
        <time>2020-07-12T12:38:14Z</time>
      </trkpt>
      <trkpt lat="46.05096" lon="4.37441">
        <ele>686.04</ele>
        <time>2020-07-12T12:38:39Z</time>
      </trkpt>
      <trkpt lat="46.05094" lon="4.37438">
        <ele>686.04</ele>
        <time>2020-07-12T12:39:01Z</time>
      </trkpt>
      <trkpt lat="46.0509" lon="4.3744">
        <ele>686.04</ele>
        <time>2020-07-12T12:39:19Z</time>
      </trkpt>
      <trkpt lat="46.05088" lon="4.37441">
        <ele>686.04</ele>
        <time>2020-07-12T12:39:43Z</time>
      </trkpt>
      <trkpt lat="46.05088" lon="4.37439">
        <ele>686.04</ele>
        <time>2020-07-12T12:40:05Z</time>
      </trkpt>
      <trkpt lat="46.05089" lon="4.37435">
        <ele>685.56</ele>
        <time>2020-07-12T12:40:38Z</time>
      </trkpt>
      <trkpt lat="46.05096" lon="4.3744">
        <ele>687</ele>
        <time>2020-07-12T12:40:56Z</time>
      </trkpt>
      <trkpt lat="46.05106" lon="4.37445">
        <ele>687.96</ele>
        <time>2020-07-12T12:41:11Z</time>
      </trkpt>
      <trkpt lat="46.05117" lon="4.37448">
        <ele>687.96</ele>
        <time>2020-07-12T12:41:25Z</time>
      </trkpt>
      <trkpt lat="46.05119" lon="4.37449">
        <ele>687.96</ele>
        <time>2020-07-12T12:41:29Z</time>
      </trkpt>
      <trkpt lat="46.05124" lon="4.37449">
        <ele>687.96</ele>
        <time>2020-07-12T12:41:37Z</time>
      </trkpt>
      <trkpt lat="46.05128" lon="4.37449">
        <ele>687.96</ele>
        <time>2020-07-12T12:41:41Z</time>
      </trkpt>
      <trkpt lat="46.0514" lon="4.37448">
        <ele>688.44</ele>
        <time>2020-07-12T12:41:56Z</time>
      </trkpt>
      <trkpt lat="46.05151" lon="4.37452">
        <ele>687.96</ele>
        <time>2020-07-12T12:42:11Z</time>
      </trkpt>
      <trkpt lat="46.05156" lon="4.37457">
        <ele>687.96</ele>
        <time>2020-07-12T12:42:17Z</time>
      </trkpt>
      <trkpt lat="46.05164" lon="4.37466">
        <ele>687.96</ele>
        <time>2020-07-12T12:42:31Z</time>
      </trkpt>
      <trkpt lat="46.05169" lon="4.37469">
        <ele>687.96</ele>
        <time>2020-07-12T12:42:40Z</time>
      </trkpt>
      <trkpt lat="46.05174" lon="4.37474">
        <ele>687.96</ele>
        <time>2020-07-12T12:42:45Z</time>
      </trkpt>
      <trkpt lat="46.05184" lon="4.37484">
        <ele>688.92</ele>
        <time>2020-07-12T12:42:58Z</time>
      </trkpt>
      <trkpt lat="46.05191" lon="4.37493">
        <ele>689.88</ele>
        <time>2020-07-12T12:43:12Z</time>
      </trkpt>
      <trkpt lat="46.05198" lon="4.37501">
        <ele>689.88</ele>
        <time>2020-07-12T12:43:27Z</time>
      </trkpt>
      <trkpt lat="46.05208" lon="4.37508">
        <ele>689.88</ele>
        <time>2020-07-12T12:43:43Z</time>
      </trkpt>
      <trkpt lat="46.05215" lon="4.37516">
        <ele>688.92</ele>
        <time>2020-07-12T12:43:51Z</time>
      </trkpt>
      <trkpt lat="46.05217" lon="4.37518">
        <ele>688.92</ele>
        <time>2020-07-12T12:43:53Z</time>
      </trkpt>
      <trkpt lat="46.05225" lon="4.3753">
        <ele>687.96</ele>
        <time>2020-07-12T12:44:07Z</time>
      </trkpt>
      <trkpt lat="46.05233" lon="4.37539">
        <ele>687</ele>
        <time>2020-07-12T12:44:23Z</time>
      </trkpt>
      <trkpt lat="46.05231" lon="4.37547">
        <ele>687</ele>
        <time>2020-07-12T12:44:42Z</time>
      </trkpt>
      <trkpt lat="46.05232" lon="4.37549">
        <ele>687</ele>
        <time>2020-07-12T12:45:01Z</time>
      </trkpt>
      <trkpt lat="46.05238" lon="4.3755">
        <ele>687</ele>
        <time>2020-07-12T12:45:16Z</time>
      </trkpt>
      <trkpt lat="46.05238" lon="4.37547">
        <ele>686.52</ele>
        <time>2020-07-12T12:45:32Z</time>
      </trkpt>
      <trkpt lat="46.05251" lon="4.37553">
        <ele>687.48</ele>
        <time>2020-07-12T12:45:48Z</time>
      </trkpt>
      <trkpt lat="46.05263" lon="4.37565">
        <ele>688.44</ele>
        <time>2020-07-12T12:46:05Z</time>
      </trkpt>
      <trkpt lat="46.05266" lon="4.37567">
        <ele>688.44</ele>
        <time>2020-07-12T12:46:08Z</time>
      </trkpt>
      <trkpt lat="46.05275" lon="4.37574">
        <ele>688.92</ele>
        <time>2020-07-12T12:46:16Z</time>
      </trkpt>
      <trkpt lat="46.05284" lon="4.37591">
        <ele>689.4</ele>
        <time>2020-07-12T12:46:29Z</time>
      </trkpt>
      <trkpt lat="46.05293" lon="4.37599">
        <ele>689.88</ele>
        <time>2020-07-12T12:46:42Z</time>
      </trkpt>
      <trkpt lat="46.05299" lon="4.37602">
        <ele>689.88</ele>
        <time>2020-07-12T12:46:48Z</time>
      </trkpt>
      <trkpt lat="46.05302" lon="4.37606">
        <ele>689.88</ele>
        <time>2020-07-12T12:46:52Z</time>
      </trkpt>
      <trkpt lat="46.05316" lon="4.3762">
        <ele>690.36</ele>
        <time>2020-07-12T12:47:06Z</time>
      </trkpt>
      <trkpt lat="46.05325" lon="4.37632">
        <ele>690.84</ele>
        <time>2020-07-12T12:47:19Z</time>
      </trkpt>
      <trkpt lat="46.05333" lon="4.37648">
        <ele>690.84</ele>
        <time>2020-07-12T12:47:32Z</time>
      </trkpt>
      <trkpt lat="46.05342" lon="4.37663">
        <ele>691.33</ele>
        <time>2020-07-12T12:47:45Z</time>
      </trkpt>
      <trkpt lat="46.05348" lon="4.37675">
        <ele>692.29</ele>
        <time>2020-07-12T12:47:56Z</time>
      </trkpt>
      <trkpt lat="46.05356" lon="4.37685">
        <ele>693.25</ele>
        <time>2020-07-12T12:48:09Z</time>
      </trkpt>
      <trkpt lat="46.05362" lon="4.37691">
        <ele>693.73</ele>
        <time>2020-07-12T12:48:16Z</time>
      </trkpt>
      <trkpt lat="46.05374" lon="4.37701">
        <ele>694.69</ele>
        <time>2020-07-12T12:48:29Z</time>
      </trkpt>
      <trkpt lat="46.05386" lon="4.37709">
        <ele>694.69</ele>
        <time>2020-07-12T12:48:42Z</time>
      </trkpt>
      <trkpt lat="46.05394" lon="4.37715">
        <ele>695.17</ele>
        <time>2020-07-12T12:48:52Z</time>
      </trkpt>
      <trkpt lat="46.05398" lon="4.37718">
        <ele>695.17</ele>
        <time>2020-07-12T12:48:57Z</time>
      </trkpt>
      <trkpt lat="46.05407" lon="4.37725">
        <ele>693.73</ele>
        <time>2020-07-12T12:49:07Z</time>
      </trkpt>
      <trkpt lat="46.05416" lon="4.37734">
        <ele>692.77</ele>
        <time>2020-07-12T12:49:20Z</time>
      </trkpt>
      <trkpt lat="46.05421" lon="4.37743">
        <ele>692.77</ele>
        <time>2020-07-12T12:49:31Z</time>
      </trkpt>
      <trkpt lat="46.05422" lon="4.37743">
        <ele>692.77</ele>
        <time>2020-07-12T12:49:32Z</time>
      </trkpt>
      <trkpt lat="46.05427" lon="4.37755">
        <ele>690.36</ele>
        <time>2020-07-12T12:49:45Z</time>
      </trkpt>
      <trkpt lat="46.0543" lon="4.37769">
        <ele>688.44</ele>
        <time>2020-07-12T12:49:57Z</time>
      </trkpt>
      <trkpt lat="46.0543" lon="4.3777">
        <ele>688.44</ele>
        <time>2020-07-12T12:49:58Z</time>
      </trkpt>
      <trkpt lat="46.05432" lon="4.37787">
        <ele>686.52</ele>
        <time>2020-07-12T12:50:11Z</time>
      </trkpt>
      <trkpt lat="46.05433" lon="4.37792">
        <ele>686.04</ele>
        <time>2020-07-12T12:50:15Z</time>
      </trkpt>
      <trkpt lat="46.0543" lon="4.37803">
        <ele>685.56</ele>
        <time>2020-07-12T12:50:23Z</time>
      </trkpt>
      <trkpt lat="46.05426" lon="4.37824">
        <ele>684.12</ele>
        <time>2020-07-12T12:50:37Z</time>
      </trkpt>
      <trkpt lat="46.05421" lon="4.37842">
        <ele>683.63</ele>
        <time>2020-07-12T12:50:49Z</time>
      </trkpt>
      <trkpt lat="46.05416" lon="4.3786">
        <ele>683.15</ele>
        <time>2020-07-12T12:51:03Z</time>
      </trkpt>
      <trkpt lat="46.05414" lon="4.37866">
        <ele>682.67</ele>
        <time>2020-07-12T12:51:07Z</time>
      </trkpt>
      <trkpt lat="46.05412" lon="4.37871">
        <ele>681.71</ele>
        <time>2020-07-12T12:51:11Z</time>
      </trkpt>
      <trkpt lat="46.05406" lon="4.37889">
        <ele>680.27</ele>
        <time>2020-07-12T12:51:25Z</time>
      </trkpt>
      <trkpt lat="46.05404" lon="4.37894">
        <ele>678.83</ele>
        <time>2020-07-12T12:51:30Z</time>
      </trkpt>
      <trkpt lat="46.05399" lon="4.37912">
        <ele>676.91</ele>
        <time>2020-07-12T12:51:43Z</time>
      </trkpt>
      <trkpt lat="46.05391" lon="4.37927">
        <ele>674.98</ele>
        <time>2020-07-12T12:51:57Z</time>
      </trkpt>
      <trkpt lat="46.05386" lon="4.37938">
        <ele>673.06</ele>
        <time>2020-07-12T12:52:07Z</time>
      </trkpt>
      <trkpt lat="46.05385" lon="4.3794">
        <ele>673.06</ele>
        <time>2020-07-12T12:52:09Z</time>
      </trkpt>
      <trkpt lat="46.05383" lon="4.37945">
        <ele>672.1</ele>
        <time>2020-07-12T12:52:22Z</time>
      </trkpt>
      <trkpt lat="46.05382" lon="4.37948">
        <ele>672.1</ele>
        <time>2020-07-12T12:52:29Z</time>
      </trkpt>
      <trkpt lat="46.0538" lon="4.37949">
        <ele>671.62</ele>
        <time>2020-07-12T12:52:31Z</time>
      </trkpt>
      <trkpt lat="46.05378" lon="4.37954">
        <ele>671.14</ele>
        <time>2020-07-12T12:52:36Z</time>
      </trkpt>
      <trkpt lat="46.05376" lon="4.37963">
        <ele>669.7</ele>
        <time>2020-07-12T12:52:51Z</time>
      </trkpt>
      <trkpt lat="46.05375" lon="4.37966">
        <ele>669.22</ele>
        <time>2020-07-12T12:53:09Z</time>
      </trkpt>
      <trkpt lat="46.05375" lon="4.37976">
        <ele>668.25</ele>
        <time>2020-07-12T12:53:23Z</time>
      </trkpt>
      <trkpt lat="46.05377" lon="4.37985">
        <ele>667.77</ele>
        <time>2020-07-12T12:53:36Z</time>
      </trkpt>
      <trkpt lat="46.05377" lon="4.37985">
        <ele>667.29</ele>
        <time>2020-07-12T12:53:37Z</time>
      </trkpt>
      <trkpt lat="46.05374" lon="4.38001">
        <ele>666.81</ele>
        <time>2020-07-12T12:53:49Z</time>
      </trkpt>
      <trkpt lat="46.05375" lon="4.38004">
        <ele>666.81</ele>
        <time>2020-07-12T12:53:51Z</time>
      </trkpt>
      <trkpt lat="46.05376" lon="4.38009">
        <ele>666.33</ele>
        <time>2020-07-12T12:53:55Z</time>
      </trkpt>
      <trkpt lat="46.05372" lon="4.38026">
        <ele>665.37</ele>
        <time>2020-07-12T12:54:09Z</time>
      </trkpt>
      <trkpt lat="46.05369" lon="4.3803">
        <ele>665.37</ele>
        <time>2020-07-12T12:54:23Z</time>
      </trkpt>
      <trkpt lat="46.05368" lon="4.38048">
        <ele>663.45</ele>
        <time>2020-07-12T12:54:38Z</time>
      </trkpt>
      <trkpt lat="46.05367" lon="4.38056">
        <ele>662.49</ele>
        <time>2020-07-12T12:54:47Z</time>
      </trkpt>
      <trkpt lat="46.05367" lon="4.38062">
        <ele>661.52</ele>
        <time>2020-07-12T12:54:52Z</time>
      </trkpt>
      <trkpt lat="46.05366" lon="4.38066">
        <ele>661.04</ele>
        <time>2020-07-12T12:54:55Z</time>
      </trkpt>
      <trkpt lat="46.05366" lon="4.38078">
        <ele>660.08</ele>
        <time>2020-07-12T12:55:04Z</time>
      </trkpt>
      <trkpt lat="46.05365" lon="4.38087">
        <ele>659.12</ele>
        <time>2020-07-12T12:55:11Z</time>
      </trkpt>
      <trkpt lat="46.05366" lon="4.38107">
        <ele>657.2</ele>
        <time>2020-07-12T12:55:25Z</time>
      </trkpt>
      <trkpt lat="46.05368" lon="4.38123">
        <ele>655.28</ele>
        <time>2020-07-12T12:55:40Z</time>
      </trkpt>
      <trkpt lat="46.05368" lon="4.38135">
        <ele>654.31</ele>
        <time>2020-07-12T12:55:54Z</time>
      </trkpt>
      <trkpt lat="46.05369" lon="4.38152">
        <ele>653.83</ele>
        <time>2020-07-12T12:56:06Z</time>
      </trkpt>
      <trkpt lat="46.0537" lon="4.38176">
        <ele>652.39</ele>
        <time>2020-07-12T12:56:20Z</time>
      </trkpt>
      <trkpt lat="46.05367" lon="4.38191">
        <ele>651.91</ele>
        <time>2020-07-12T12:56:30Z</time>
      </trkpt>
      <trkpt lat="46.05366" lon="4.3822">
        <ele>650.95</ele>
        <time>2020-07-12T12:56:47Z</time>
      </trkpt>
      <trkpt lat="46.05363" lon="4.38239">
        <ele>650.47</ele>
        <time>2020-07-12T12:56:59Z</time>
      </trkpt>
      <trkpt lat="46.05362" lon="4.38263">
        <ele>649.99</ele>
        <time>2020-07-12T12:57:13Z</time>
      </trkpt>
      <trkpt lat="46.05361" lon="4.3827">
        <ele>649.99</ele>
        <time>2020-07-12T12:57:17Z</time>
      </trkpt>
      <trkpt lat="46.0536" lon="4.38278">
        <ele>649.51</ele>
        <time>2020-07-12T12:57:23Z</time>
      </trkpt>
      <trkpt lat="46.05358" lon="4.38299">
        <ele>648.55</ele>
        <time>2020-07-12T12:57:38Z</time>
      </trkpt>
      <trkpt lat="46.05354" lon="4.38317">
        <ele>645.66</ele>
        <time>2020-07-12T12:57:54Z</time>
      </trkpt>
      <trkpt lat="46.05355" lon="4.38331">
        <ele>643.74</ele>
        <time>2020-07-12T12:58:07Z</time>
      </trkpt>
      <trkpt lat="46.05356" lon="4.3834">
        <ele>641.82</ele>
        <time>2020-07-12T12:58:14Z</time>
      </trkpt>
      <trkpt lat="46.05356" lon="4.38343">
        <ele>641.34</ele>
        <time>2020-07-12T12:58:16Z</time>
      </trkpt>
      <trkpt lat="46.05357" lon="4.3835">
        <ele>639.89</ele>
        <time>2020-07-12T12:58:23Z</time>
      </trkpt>
      <trkpt lat="46.05358" lon="4.38354">
        <ele>639.89</ele>
        <time>2020-07-12T12:58:26Z</time>
      </trkpt>
      <trkpt lat="46.05358" lon="4.38365">
        <ele>639.41</ele>
        <time>2020-07-12T12:58:34Z</time>
      </trkpt>
      <trkpt lat="46.05358" lon="4.38383">
        <ele>636.53</ele>
        <time>2020-07-12T12:58:49Z</time>
      </trkpt>
      <trkpt lat="46.05359" lon="4.384">
        <ele>634.13</ele>
        <time>2020-07-12T12:59:02Z</time>
      </trkpt>
      <trkpt lat="46.05362" lon="4.38416">
        <ele>632.68</ele>
        <time>2020-07-12T12:59:16Z</time>
      </trkpt>
      <trkpt lat="46.05363" lon="4.38426">
        <ele>630.76</ele>
        <time>2020-07-12T12:59:25Z</time>
      </trkpt>
      <trkpt lat="46.05365" lon="4.38431">
        <ele>630.28</ele>
        <time>2020-07-12T12:59:31Z</time>
      </trkpt>
      <trkpt lat="46.05369" lon="4.38445">
        <ele>627.88</ele>
        <time>2020-07-12T12:59:45Z</time>
      </trkpt>
      <trkpt lat="46.05375" lon="4.38456">
        <ele>625.96</ele>
        <time>2020-07-12T12:59:59Z</time>
      </trkpt>
      <trkpt lat="46.05376" lon="4.38457">
        <ele>625.96</ele>
        <time>2020-07-12T13:00:00Z</time>
      </trkpt>
      <trkpt lat="46.05381" lon="4.38467">
        <ele>622.59</ele>
        <time>2020-07-12T13:00:13Z</time>
      </trkpt>
      <trkpt lat="46.05383" lon="4.38471">
        <ele>621.63</ele>
        <time>2020-07-12T13:00:18Z</time>
      </trkpt>
      <trkpt lat="46.05391" lon="4.38485">
        <ele>618.26</ele>
        <time>2020-07-12T13:00:36Z</time>
      </trkpt>
      <trkpt lat="46.054" lon="4.38498">
        <ele>615.38</ele>
        <time>2020-07-12T13:00:50Z</time>
      </trkpt>
      <trkpt lat="46.05401" lon="4.38517">
        <ele>612.02</ele>
        <time>2020-07-12T13:01:07Z</time>
      </trkpt>
      <trkpt lat="46.05405" lon="4.38532">
        <ele>610.57</ele>
        <time>2020-07-12T13:01:21Z</time>
      </trkpt>
      <trkpt lat="46.05407" lon="4.3854">
        <ele>609.61</ele>
        <time>2020-07-12T13:01:27Z</time>
      </trkpt>
      <trkpt lat="46.05406" lon="4.38548">
        <ele>609.13</ele>
        <time>2020-07-12T13:01:31Z</time>
      </trkpt>
      <trkpt lat="46.054" lon="4.38572">
        <ele>606.73</ele>
        <time>2020-07-12T13:01:46Z</time>
      </trkpt>
      <trkpt lat="46.05397" lon="4.38592">
        <ele>605.29</ele>
        <time>2020-07-12T13:02:00Z</time>
      </trkpt>
      <trkpt lat="46.05392" lon="4.38608">
        <ele>602.88</ele>
        <time>2020-07-12T13:02:13Z</time>
      </trkpt>
      <trkpt lat="46.05386" lon="4.38627">
        <ele>600.48</ele>
        <time>2020-07-12T13:02:28Z</time>
      </trkpt>
      <trkpt lat="46.05379" lon="4.38636">
        <ele>598.56</ele>
        <time>2020-07-12T13:02:39Z</time>
      </trkpt>
      <trkpt lat="46.05369" lon="4.38651">
        <ele>596.15</ele>
        <time>2020-07-12T13:02:54Z</time>
      </trkpt>
      <trkpt lat="46.0536" lon="4.38656">
        <ele>594.23</ele>
        <time>2020-07-12T13:03:05Z</time>
      </trkpt>
      <trkpt lat="46.05351" lon="4.38661">
        <ele>591.83</ele>
        <time>2020-07-12T13:03:15Z</time>
      </trkpt>
      <trkpt lat="46.05338" lon="4.3867">
        <ele>589.43</ele>
        <time>2020-07-12T13:03:29Z</time>
      </trkpt>
      <trkpt lat="46.05329" lon="4.3868">
        <ele>588.46</ele>
        <time>2020-07-12T13:03:42Z</time>
      </trkpt>
      <trkpt lat="46.05329" lon="4.38681">
        <ele>588.46</ele>
        <time>2020-07-12T13:03:43Z</time>
      </trkpt>
      <trkpt lat="46.05321" lon="4.38695">
        <ele>586.54</ele>
        <time>2020-07-12T13:03:57Z</time>
      </trkpt>
      <trkpt lat="46.05317" lon="4.38707">
        <ele>586.06</ele>
        <time>2020-07-12T13:04:09Z</time>
      </trkpt>
      <trkpt lat="46.05311" lon="4.38727">
        <ele>584.62</ele>
        <time>2020-07-12T13:04:23Z</time>
      </trkpt>
      <trkpt lat="46.05308" lon="4.38738">
        <ele>584.62</ele>
        <time>2020-07-12T13:04:31Z</time>
      </trkpt>
      <trkpt lat="46.05305" lon="4.38753">
        <ele>584.62</ele>
        <time>2020-07-12T13:04:41Z</time>
      </trkpt>
      <trkpt lat="46.05298" lon="4.38777">
        <ele>583.18</ele>
        <time>2020-07-12T13:04:56Z</time>
      </trkpt>
      <trkpt lat="46.05291" lon="4.38795">
        <ele>581.73</ele>
        <time>2020-07-12T13:05:09Z</time>
      </trkpt>
      <trkpt lat="46.05286" lon="4.38807">
        <ele>581.25</ele>
        <time>2020-07-12T13:05:22Z</time>
      </trkpt>
      <trkpt lat="46.05285" lon="4.38809">
        <ele>581.25</ele>
        <time>2020-07-12T13:05:41Z</time>
      </trkpt>
      <trkpt lat="46.05284" lon="4.38809">
        <ele>580.77</ele>
        <time>2020-07-12T13:06:02Z</time>
      </trkpt>
      <trkpt lat="46.05286" lon="4.38809">
        <ele>580.77</ele>
        <time>2020-07-12T13:06:17Z</time>
      </trkpt>
      <trkpt lat="46.05285" lon="4.3881">
        <ele>580.77</ele>
        <time>2020-07-12T13:06:20Z</time>
      </trkpt>
      <trkpt lat="46.05283" lon="4.38815">
        <ele>580.29</ele>
        <time>2020-07-12T13:06:32Z</time>
      </trkpt>
      <trkpt lat="46.05282" lon="4.38822">
        <ele>579.33</ele>
        <time>2020-07-12T13:06:45Z</time>
      </trkpt>
      <trkpt lat="46.05282" lon="4.38817">
        <ele>580.77</ele>
        <time>2020-07-12T13:06:58Z</time>
      </trkpt>
      <trkpt lat="46.05283" lon="4.3882">
        <ele>580.77</ele>
        <time>2020-07-12T13:07:05Z</time>
      </trkpt>
      <trkpt lat="46.0528" lon="4.38825">
        <ele>579.33</ele>
        <time>2020-07-12T13:07:21Z</time>
      </trkpt>
      <trkpt lat="46.05273" lon="4.38843">
        <ele>577.41</ele>
        <time>2020-07-12T13:07:35Z</time>
      </trkpt>
      <trkpt lat="46.05269" lon="4.38855">
        <ele>576.45</ele>
        <time>2020-07-12T13:07:45Z</time>
      </trkpt>
      <trkpt lat="46.05267" lon="4.38861">
        <ele>575.97</ele>
        <time>2020-07-12T13:07:49Z</time>
      </trkpt>
      <trkpt lat="46.05263" lon="4.38869">
        <ele>575.01</ele>
        <time>2020-07-12T13:07:56Z</time>
      </trkpt>
      <trkpt lat="46.05257" lon="4.38885">
        <ele>573.56</ele>
        <time>2020-07-12T13:08:09Z</time>
      </trkpt>
      <trkpt lat="46.05252" lon="4.38903">
        <ele>571.64</ele>
        <time>2020-07-12T13:08:23Z</time>
      </trkpt>
      <trkpt lat="46.05249" lon="4.38913">
        <ele>570.68</ele>
        <time>2020-07-12T13:08:31Z</time>
      </trkpt>
      <trkpt lat="46.05244" lon="4.38924">
        <ele>569.24</ele>
        <time>2020-07-12T13:08:44Z</time>
      </trkpt>
      <trkpt lat="46.05244" lon="4.38926">
        <ele>569.24</ele>
        <time>2020-07-12T13:08:46Z</time>
      </trkpt>
      <trkpt lat="46.05238" lon="4.38948">
        <ele>566.35</ele>
        <time>2020-07-12T13:09:03Z</time>
      </trkpt>
      <trkpt lat="46.05228" lon="4.38961">
        <ele>564.91</ele>
        <time>2020-07-12T13:09:17Z</time>
      </trkpt>
      <trkpt lat="46.05226" lon="4.38966">
        <ele>563.95</ele>
        <time>2020-07-12T13:09:23Z</time>
      </trkpt>
      <trkpt lat="46.05225" lon="4.38969">
        <ele>563.95</ele>
        <time>2020-07-12T13:09:25Z</time>
      </trkpt>
      <trkpt lat="46.05216" lon="4.38986">
        <ele>562.99</ele>
        <time>2020-07-12T13:09:38Z</time>
      </trkpt>
      <trkpt lat="46.05211" lon="4.38992">
        <ele>562.03</ele>
        <time>2020-07-12T13:09:52Z</time>
      </trkpt>
      <trkpt lat="46.05208" lon="4.3899">
        <ele>562.03</ele>
        <time>2020-07-12T13:10:09Z</time>
      </trkpt>
      <trkpt lat="46.05208" lon="4.38987">
        <ele>562.03</ele>
        <time>2020-07-12T13:10:33Z</time>
      </trkpt>
      <trkpt lat="46.05204" lon="4.38987">
        <ele>562.03</ele>
        <time>2020-07-12T13:10:50Z</time>
      </trkpt>
      <trkpt lat="46.05208" lon="4.38986">
        <ele>562.03</ele>
        <time>2020-07-12T13:11:22Z</time>
      </trkpt>
      <trkpt lat="46.05202" lon="4.38986">
        <ele>562.03</ele>
        <time>2020-07-12T13:11:48Z</time>
      </trkpt>
      <trkpt lat="46.05205" lon="4.38987">
        <ele>561.55</ele>
        <time>2020-07-12T13:12:11Z</time>
      </trkpt>
      <trkpt lat="46.05202" lon="4.38995">
        <ele>561.55</ele>
        <time>2020-07-12T13:12:31Z</time>
      </trkpt>
      <trkpt lat="46.05199" lon="4.38994">
        <ele>561.55</ele>
        <time>2020-07-12T13:12:57Z</time>
      </trkpt>
      <trkpt lat="46.05201" lon="4.38995">
        <ele>561.55</ele>
        <time>2020-07-12T13:13:23Z</time>
      </trkpt>
      <trkpt lat="46.05202" lon="4.38999">
        <ele>561.55</ele>
        <time>2020-07-12T13:13:51Z</time>
      </trkpt>
      <trkpt lat="46.05204" lon="4.39005">
        <ele>561.55</ele>
        <time>2020-07-12T13:14:17Z</time>
      </trkpt>
      <trkpt lat="46.05201" lon="4.39001">
        <ele>561.07</ele>
        <time>2020-07-12T13:14:40Z</time>
      </trkpt>
      <trkpt lat="46.05198" lon="4.38998">
        <ele>560.59</ele>
        <time>2020-07-12T13:15:01Z</time>
      </trkpt>
      <trkpt lat="46.05199" lon="4.38994">
        <ele>560.59</ele>
        <time>2020-07-12T13:15:24Z</time>
      </trkpt>
      <trkpt lat="46.052" lon="4.38994">
        <ele>560.59</ele>
        <time>2020-07-12T13:15:44Z</time>
      </trkpt>
      <trkpt lat="46.05199" lon="4.38988">
        <ele>560.59</ele>
        <time>2020-07-12T13:15:59Z</time>
      </trkpt>
      <trkpt lat="46.05193" lon="4.38974">
        <ele>559.14</ele>
        <time>2020-07-12T13:16:13Z</time>
      </trkpt>
      <trkpt lat="46.0519" lon="4.38956">
        <ele>557.7</ele>
        <time>2020-07-12T13:16:28Z</time>
      </trkpt>
      <trkpt lat="46.05187" lon="4.38945">
        <ele>556.26</ele>
        <time>2020-07-12T13:16:40Z</time>
      </trkpt>
      <trkpt lat="46.05182" lon="4.38931">
        <ele>554.34</ele>
        <time>2020-07-12T13:16:55Z</time>
      </trkpt>
      <trkpt lat="46.05182" lon="4.38917">
        <ele>551.93</ele>
        <time>2020-07-12T13:17:08Z</time>
      </trkpt>
      <trkpt lat="46.05182" lon="4.38915">
        <ele>551.45</ele>
        <time>2020-07-12T13:17:10Z</time>
      </trkpt>
      <trkpt lat="46.05182" lon="4.389">
        <ele>550.01</ele>
        <time>2020-07-12T13:17:22Z</time>
      </trkpt>
      <trkpt lat="46.05177" lon="4.38886">
        <ele>548.09</ele>
        <time>2020-07-12T13:17:35Z</time>
      </trkpt>
      <trkpt lat="46.05171" lon="4.38876">
        <ele>545.69</ele>
        <time>2020-07-12T13:17:46Z</time>
      </trkpt>
      <trkpt lat="46.05162" lon="4.38858">
        <ele>545.2</ele>
        <time>2020-07-12T13:18:01Z</time>
      </trkpt>
      <trkpt lat="46.05151" lon="4.3884">
        <ele>542.8</ele>
        <time>2020-07-12T13:18:18Z</time>
      </trkpt>
      <trkpt lat="46.05148" lon="4.38835">
        <ele>543.28</ele>
        <time>2020-07-12T13:18:24Z</time>
      </trkpt>
      <trkpt lat="46.05143" lon="4.38824">
        <ele>542.32</ele>
        <time>2020-07-12T13:18:33Z</time>
      </trkpt>
      <trkpt lat="46.05138" lon="4.38805">
        <ele>541.84</ele>
        <time>2020-07-12T13:18:46Z</time>
      </trkpt>
      <trkpt lat="46.05134" lon="4.38794">
        <ele>541.36</ele>
        <time>2020-07-12T13:18:54Z</time>
      </trkpt>
      <trkpt lat="46.05125" lon="4.3879">
        <ele>539.92</ele>
        <time>2020-07-12T13:19:03Z</time>
      </trkpt>
      <trkpt lat="46.05115" lon="4.38796">
        <ele>539.44</ele>
        <time>2020-07-12T13:19:13Z</time>
      </trkpt>
      <trkpt lat="46.0511" lon="4.38806">
        <ele>539.44</ele>
        <time>2020-07-12T13:19:18Z</time>
      </trkpt>
      <trkpt lat="46.05107" lon="4.38814">
        <ele>539.44</ele>
        <time>2020-07-12T13:19:22Z</time>
      </trkpt>
      <trkpt lat="46.05103" lon="4.3883">
        <ele>538.48</ele>
        <time>2020-07-12T13:19:34Z</time>
      </trkpt>
      <trkpt lat="46.05099" lon="4.38855">
        <ele>538.48</ele>
        <time>2020-07-12T13:19:51Z</time>
      </trkpt>
      <trkpt lat="46.05092" lon="4.38871">
        <ele>537.99</ele>
        <time>2020-07-12T13:20:04Z</time>
      </trkpt>
      <trkpt lat="46.05082" lon="4.38888">
        <ele>537.03</ele>
        <time>2020-07-12T13:20:18Z</time>
      </trkpt>
      <trkpt lat="46.05079" lon="4.38894">
        <ele>537.03</ele>
        <time>2020-07-12T13:20:22Z</time>
      </trkpt>
      <trkpt lat="46.05073" lon="4.3891">
        <ele>536.07</ele>
        <time>2020-07-12T13:20:36Z</time>
      </trkpt>
      <trkpt lat="46.05072" lon="4.38917">
        <ele>535.11</ele>
        <time>2020-07-12T13:20:43Z</time>
      </trkpt>
      <trkpt lat="46.05071" lon="4.38922">
        <ele>534.15</ele>
        <time>2020-07-12T13:20:47Z</time>
      </trkpt>
      <trkpt lat="46.05061" lon="4.38942">
        <ele>532.23</ele>
        <time>2020-07-12T13:21:02Z</time>
      </trkpt>
      <trkpt lat="46.0506" lon="4.38946">
        <ele>531.75</ele>
        <time>2020-07-12T13:21:06Z</time>
      </trkpt>
      <trkpt lat="46.05058" lon="4.38953">
        <ele>531.27</ele>
        <time>2020-07-12T13:21:11Z</time>
      </trkpt>
      <trkpt lat="46.05054" lon="4.38968">
        <ele>529.82</ele>
        <time>2020-07-12T13:21:25Z</time>
      </trkpt>
      <trkpt lat="46.05051" lon="4.38982">
        <ele>528.86</ele>
        <time>2020-07-12T13:21:35Z</time>
      </trkpt>
      <trkpt lat="46.05051" lon="4.38986">
        <ele>528.38</ele>
        <time>2020-07-12T13:21:38Z</time>
      </trkpt>
      <trkpt lat="46.05051" lon="4.39004">
        <ele>526.46</ele>
        <time>2020-07-12T13:21:51Z</time>
      </trkpt>
      <trkpt lat="46.05051" lon="4.39006">
        <ele>526.46</ele>
        <time>2020-07-12T13:21:53Z</time>
      </trkpt>
      <trkpt lat="46.0505" lon="4.39009">
        <ele>525.98</ele>
        <time>2020-07-12T13:21:55Z</time>
      </trkpt>
      <trkpt lat="46.05049" lon="4.39012">
        <ele>525.98</ele>
        <time>2020-07-12T13:21:57Z</time>
      </trkpt>
      <trkpt lat="46.05048" lon="4.39024">
        <ele>525.02</ele>
        <time>2020-07-12T13:22:05Z</time>
      </trkpt>
      <trkpt lat="46.05048" lon="4.3903">
        <ele>524.54</ele>
        <time>2020-07-12T13:22:10Z</time>
      </trkpt>
      <trkpt lat="46.05044" lon="4.39043">
        <ele>523.09</ele>
        <time>2020-07-12T13:22:24Z</time>
      </trkpt>
      <trkpt lat="46.05039" lon="4.39051">
        <ele>523.09</ele>
        <time>2020-07-12T13:22:43Z</time>
      </trkpt>
      <trkpt lat="46.05034" lon="4.39052">
        <ele>523.09</ele>
        <time>2020-07-12T13:23:03Z</time>
      </trkpt>
      <trkpt lat="46.05039" lon="4.39057">
        <ele>522.61</ele>
        <time>2020-07-12T13:23:14Z</time>
      </trkpt>
      <trkpt lat="46.05041" lon="4.39061">
        <ele>522.61</ele>
        <time>2020-07-12T13:23:17Z</time>
      </trkpt>
      <trkpt lat="46.05043" lon="4.39067">
        <ele>522.61</ele>
        <time>2020-07-12T13:23:24Z</time>
      </trkpt>
      <trkpt lat="46.05042" lon="4.39068">
        <ele>522.61</ele>
        <time>2020-07-12T13:23:28Z</time>
      </trkpt>
      <trkpt lat="46.05041" lon="4.39072">
        <ele>522.61</ele>
        <time>2020-07-12T13:23:32Z</time>
      </trkpt>
      <trkpt lat="46.05035" lon="4.39079">
        <ele>522.13</ele>
        <time>2020-07-12T13:23:40Z</time>
      </trkpt>
      <trkpt lat="46.05019" lon="4.39089">
        <ele>521.17</ele>
        <time>2020-07-12T13:23:51Z</time>
      </trkpt>
      <trkpt lat="46.05015" lon="4.39105">
        <ele>520.21</ele>
        <time>2020-07-12T13:24:04Z</time>
      </trkpt>
      <trkpt lat="46.05013" lon="4.39109">
        <ele>520.21</ele>
        <time>2020-07-12T13:24:09Z</time>
      </trkpt>
      <trkpt lat="46.05012" lon="4.39112">
        <ele>520.21</ele>
        <time>2020-07-12T13:24:11Z</time>
      </trkpt>
      <trkpt lat="46.05002" lon="4.39127">
        <ele>519.25</ele>
        <time>2020-07-12T13:24:24Z</time>
      </trkpt>
      <trkpt lat="46.04997" lon="4.39135">
        <ele>518.77</ele>
        <time>2020-07-12T13:24:32Z</time>
      </trkpt>
      <trkpt lat="46.04992" lon="4.39143">
        <ele>518.29</ele>
        <time>2020-07-12T13:24:39Z</time>
      </trkpt>
      <trkpt lat="46.04989" lon="4.39146">
        <ele>517.81</ele>
        <time>2020-07-12T13:24:42Z</time>
      </trkpt>
      <trkpt lat="46.04979" lon="4.39155">
        <ele>517.33</ele>
        <time>2020-07-12T13:24:55Z</time>
      </trkpt>
      <trkpt lat="46.04969" lon="4.39169">
        <ele>516.85</ele>
        <time>2020-07-12T13:25:10Z</time>
      </trkpt>
      <trkpt lat="46.04966" lon="4.39172">
        <ele>515.88</ele>
        <time>2020-07-12T13:25:14Z</time>
      </trkpt>
      <trkpt lat="46.04947" lon="4.39184">
        <ele>515.4</ele>
        <time>2020-07-12T13:25:30Z</time>
      </trkpt>
      <trkpt lat="46.04934" lon="4.39194">
        <ele>514.44</ele>
        <time>2020-07-12T13:25:48Z</time>
      </trkpt>
      <trkpt lat="46.0493" lon="4.39201">
        <ele>513.96</ele>
        <time>2020-07-12T13:25:54Z</time>
      </trkpt>
      <trkpt lat="46.04921" lon="4.3921">
        <ele>513.48</ele>
        <time>2020-07-12T13:26:04Z</time>
      </trkpt>
      <trkpt lat="46.0491" lon="4.39222">
        <ele>512.04</ele>
        <time>2020-07-12T13:26:17Z</time>
      </trkpt>
      <trkpt lat="46.04904" lon="4.39229">
        <ele>511.56</ele>
        <time>2020-07-12T13:26:23Z</time>
      </trkpt>
      <trkpt lat="46.04897" lon="4.39237">
        <ele>511.08</ele>
        <time>2020-07-12T13:26:31Z</time>
      </trkpt>
      <trkpt lat="46.04878" lon="4.3925">
        <ele>510.12</ele>
        <time>2020-07-12T13:26:48Z</time>
      </trkpt>
      <trkpt lat="46.04866" lon="4.39262">
        <ele>509.16</ele>
        <time>2020-07-12T13:27:02Z</time>
      </trkpt>
      <trkpt lat="46.04856" lon="4.39276">
        <ele>508.19</ele>
        <time>2020-07-12T13:27:18Z</time>
      </trkpt>
      <trkpt lat="46.04844" lon="4.39288">
        <ele>507.71</ele>
        <time>2020-07-12T13:27:31Z</time>
      </trkpt>
      <trkpt lat="46.04829" lon="4.39301">
        <ele>506.75</ele>
        <time>2020-07-12T13:27:45Z</time>
      </trkpt>
      <trkpt lat="46.04818" lon="4.3931">
        <ele>505.79</ele>
        <time>2020-07-12T13:27:58Z</time>
      </trkpt>
      <trkpt lat="46.04813" lon="4.39315">
        <ele>505.31</ele>
        <time>2020-07-12T13:28:04Z</time>
      </trkpt>
      <trkpt lat="46.04807" lon="4.39323">
        <ele>504.83</ele>
        <time>2020-07-12T13:28:11Z</time>
      </trkpt>
      <trkpt lat="46.04799" lon="4.39342">
        <ele>503.39</ele>
        <time>2020-07-12T13:28:26Z</time>
      </trkpt>
      <trkpt lat="46.04796" lon="4.39348">
        <ele>503.39</ele>
        <time>2020-07-12T13:28:30Z</time>
      </trkpt>
      <trkpt lat="46.04793" lon="4.39367">
        <ele>501.46</ele>
        <time>2020-07-12T13:28:44Z</time>
      </trkpt>
      <trkpt lat="46.04792" lon="4.39368">
        <ele>501.46</ele>
        <time>2020-07-12T13:28:45Z</time>
      </trkpt>
      <trkpt lat="46.04788" lon="4.39376">
        <ele>500.02</ele>
        <time>2020-07-12T13:28:52Z</time>
      </trkpt>
      <trkpt lat="46.04772" lon="4.39386">
        <ele>500.02</ele>
        <time>2020-07-12T13:29:06Z</time>
      </trkpt>
      <trkpt lat="46.04755" lon="4.39384">
        <ele>500.02</ele>
        <time>2020-07-12T13:29:21Z</time>
      </trkpt>
      <trkpt lat="46.04739" lon="4.39383">
        <ele>500.02</ele>
        <time>2020-07-12T13:29:35Z</time>
      </trkpt>
      <trkpt lat="46.04724" lon="4.39381">
        <ele>500.02</ele>
        <time>2020-07-12T13:29:49Z</time>
      </trkpt>
      <trkpt lat="46.04708" lon="4.39377">
        <ele>501.46</ele>
        <time>2020-07-12T13:30:03Z</time>
      </trkpt>
      <trkpt lat="46.04703" lon="4.39377">
        <ele>501.46</ele>
        <time>2020-07-12T13:30:07Z</time>
      </trkpt>
      <trkpt lat="46.04697" lon="4.39383">
        <ele>501.46</ele>
        <time>2020-07-12T13:30:15Z</time>
      </trkpt>
      <trkpt lat="46.04695" lon="4.39388">
        <ele>499.06</ele>
        <time>2020-07-12T13:30:19Z</time>
      </trkpt>
      <trkpt lat="46.04689" lon="4.39402">
        <ele>498.1</ele>
        <time>2020-07-12T13:30:31Z</time>
      </trkpt>
      <trkpt lat="46.04682" lon="4.39416">
        <ele>497.14</ele>
        <time>2020-07-12T13:30:43Z</time>
      </trkpt>
      <trkpt lat="46.04674" lon="4.39429">
        <ele>496.18</ele>
        <time>2020-07-12T13:30:57Z</time>
      </trkpt>
      <trkpt lat="46.04669" lon="4.39448">
        <ele>494.74</ele>
        <time>2020-07-12T13:31:10Z</time>
      </trkpt>
      <trkpt lat="46.04664" lon="4.3947">
        <ele>494.26</ele>
        <time>2020-07-12T13:31:25Z</time>
      </trkpt>
      <trkpt lat="46.0466" lon="4.39489">
        <ele>494.26</ele>
        <time>2020-07-12T13:31:39Z</time>
      </trkpt>
      <trkpt lat="46.04662" lon="4.39497">
        <ele>494.26</ele>
        <time>2020-07-12T13:31:52Z</time>
      </trkpt>
      <trkpt lat="46.04663" lon="4.39497">
        <ele>493.77</ele>
        <time>2020-07-12T13:31:56Z</time>
      </trkpt>
      <trkpt lat="46.0467" lon="4.39498">
        <ele>493.29</ele>
        <time>2020-07-12T13:32:08Z</time>
      </trkpt>
      <trkpt lat="46.04675" lon="4.39507">
        <ele>493.29</ele>
        <time>2020-07-12T13:32:22Z</time>
      </trkpt>
      <trkpt lat="46.04672" lon="4.39507">
        <ele>493.29</ele>
        <time>2020-07-12T13:32:28Z</time>
      </trkpt>
      <trkpt lat="46.04669" lon="4.39506">
        <ele>493.29</ele>
        <time>2020-07-12T13:32:30Z</time>
      </trkpt>
      <trkpt lat="46.04664" lon="4.39504">
        <ele>493.29</ele>
        <time>2020-07-12T13:32:35Z</time>
      </trkpt>
      <trkpt lat="46.04661" lon="4.39503">
        <ele>493.29</ele>
        <time>2020-07-12T13:32:38Z</time>
      </trkpt>
      <trkpt lat="46.04654" lon="4.39502">
        <ele>494.26</ele>
        <time>2020-07-12T13:32:51Z</time>
      </trkpt>
      <trkpt lat="46.04658" lon="4.39502">
        <ele>494.26</ele>
        <time>2020-07-12T13:33:06Z</time>
      </trkpt>
      <trkpt lat="46.04655" lon="4.39506">
        <ele>494.74</ele>
        <time>2020-07-12T13:33:41Z</time>
      </trkpt>
      <trkpt lat="46.04655" lon="4.39517">
        <ele>495.7</ele>
        <time>2020-07-12T13:33:54Z</time>
      </trkpt>
      <trkpt lat="46.04655" lon="4.39519">
        <ele>495.22</ele>
        <time>2020-07-12T13:34:09Z</time>
      </trkpt>
      <trkpt lat="46.04653" lon="4.39522">
        <ele>495.22</ele>
        <time>2020-07-12T13:34:36Z</time>
      </trkpt>
      <trkpt lat="46.04654" lon="4.39526">
        <ele>495.7</ele>
        <time>2020-07-12T13:34:49Z</time>
      </trkpt>
      <trkpt lat="46.04654" lon="4.39531">
        <ele>496.18</ele>
        <time>2020-07-12T13:34:55Z</time>
      </trkpt>
      <trkpt lat="46.04653" lon="4.3954">
        <ele>496.18</ele>
        <time>2020-07-12T13:35:07Z</time>
      </trkpt>
      <trkpt lat="46.04656" lon="4.39544">
        <ele>495.7</ele>
        <time>2020-07-12T13:35:35Z</time>
      </trkpt>
      <trkpt lat="46.04644" lon="4.39544">
        <ele>495.7</ele>
        <time>2020-07-12T13:35:47Z</time>
      </trkpt>
      <trkpt lat="46.04637" lon="4.39544">
        <ele>495.7</ele>
        <time>2020-07-12T13:35:54Z</time>
      </trkpt>
      <trkpt lat="46.04622" lon="4.3954">
        <ele>495.7</ele>
        <time>2020-07-12T13:36:09Z</time>
      </trkpt>
      <trkpt lat="46.04606" lon="4.3954">
        <ele>495.7</ele>
        <time>2020-07-12T13:36:25Z</time>
      </trkpt>
      <trkpt lat="46.04589" lon="4.39537">
        <ele>494.26</ele>
        <time>2020-07-12T13:36:39Z</time>
      </trkpt>
      <trkpt lat="46.04588" lon="4.39537">
        <ele>494.26</ele>
        <time>2020-07-12T13:36:40Z</time>
      </trkpt>
      <trkpt lat="46.04573" lon="4.39534">
        <ele>493.77</ele>
        <time>2020-07-12T13:36:52Z</time>
      </trkpt>
      <trkpt lat="46.04562" lon="4.39532">
        <ele>493.77</ele>
        <time>2020-07-12T13:37:01Z</time>
      </trkpt>
      <trkpt lat="46.04552" lon="4.39526">
        <ele>493.29</ele>
        <time>2020-07-12T13:37:11Z</time>
      </trkpt>
      <trkpt lat="46.04544" lon="4.39517">
        <ele>493.29</ele>
        <time>2020-07-12T13:37:24Z</time>
      </trkpt>
      <trkpt lat="46.04538" lon="4.39512">
        <ele>493.29</ele>
        <time>2020-07-12T13:37:35Z</time>
      </trkpt>
      <trkpt lat="46.0453" lon="4.39516">
        <ele>493.29</ele>
        <time>2020-07-12T13:37:51Z</time>
      </trkpt>
      <trkpt lat="46.0453" lon="4.39516">
        <ele>494.74</ele>
        <time>2020-07-12T13:37:54Z</time>
      </trkpt>
      <trkpt lat="46.0453" lon="4.39527">
        <ele>495.22</ele>
        <time>2020-07-12T13:38:02Z</time>
      </trkpt>
      <trkpt lat="46.04529" lon="4.39532">
        <ele>495.7</ele>
        <time>2020-07-12T13:38:06Z</time>
      </trkpt>
      <trkpt lat="46.04531" lon="4.3954">
        <ele>495.7</ele>
        <time>2020-07-12T13:38:16Z</time>
      </trkpt>
      <trkpt lat="46.04532" lon="4.39554">
        <ele>496.18</ele>
        <time>2020-07-12T13:38:27Z</time>
      </trkpt>
      <trkpt lat="46.0453" lon="4.39573">
        <ele>496.18</ele>
        <time>2020-07-12T13:38:38Z</time>
      </trkpt>
      <trkpt lat="46.04526" lon="4.39589">
        <ele>496.18</ele>
        <time>2020-07-12T13:38:48Z</time>
      </trkpt>
      <trkpt lat="46.04521" lon="4.39606">
        <ele>496.18</ele>
        <time>2020-07-12T13:38:59Z</time>
      </trkpt>
      <trkpt lat="46.04519" lon="4.39609">
        <ele>496.18</ele>
        <time>2020-07-12T13:39:01Z</time>
      </trkpt>
      <trkpt lat="46.04508" lon="4.39623">
        <ele>496.66</ele>
        <time>2020-07-12T13:39:14Z</time>
      </trkpt>
      <trkpt lat="46.04503" lon="4.39635">
        <ele>496.66</ele>
        <time>2020-07-12T13:39:21Z</time>
      </trkpt>
      <trkpt lat="46.04496" lon="4.39643">
        <ele>496.66</ele>
        <time>2020-07-12T13:39:29Z</time>
      </trkpt>
      <trkpt lat="46.0449" lon="4.39654">
        <ele>496.66</ele>
        <time>2020-07-12T13:39:38Z</time>
      </trkpt>
      <trkpt lat="46.04479" lon="4.39666">
        <ele>496.66</ele>
        <time>2020-07-12T13:39:51Z</time>
      </trkpt>
      <trkpt lat="46.04471" lon="4.39679">
        <ele>497.14</ele>
        <time>2020-07-12T13:40:04Z</time>
      </trkpt>
      <trkpt lat="46.04466" lon="4.39683">
        <ele>497.62</ele>
        <time>2020-07-12T13:40:09Z</time>
      </trkpt>
      <trkpt lat="46.04457" lon="4.39693">
        <ele>498.58</ele>
        <time>2020-07-12T13:40:21Z</time>
      </trkpt>
      <trkpt lat="46.0445" lon="4.39706">
        <ele>498.58</ele>
        <time>2020-07-12T13:40:32Z</time>
      </trkpt>
      <trkpt lat="46.04442" lon="4.39718">
        <ele>499.06</ele>
        <time>2020-07-12T13:40:43Z</time>
      </trkpt>
      <trkpt lat="46.04435" lon="4.39738">
        <ele>499.54</ele>
        <time>2020-07-12T13:40:57Z</time>
      </trkpt>
      <trkpt lat="46.04427" lon="4.3975">
        <ele>500.5</ele>
        <time>2020-07-12T13:41:09Z</time>
      </trkpt>
      <trkpt lat="46.0442" lon="4.3976">
        <ele>501.46</ele>
        <time>2020-07-12T13:41:21Z</time>
      </trkpt>
      <trkpt lat="46.04413" lon="4.39771">
        <ele>501.95</ele>
        <time>2020-07-12T13:41:33Z</time>
      </trkpt>
      <trkpt lat="46.04406" lon="4.39777">
        <ele>502.43</ele>
        <time>2020-07-12T13:41:41Z</time>
      </trkpt>
      <trkpt lat="46.04402" lon="4.39779">
        <ele>503.39</ele>
        <time>2020-07-12T13:41:46Z</time>
      </trkpt>
      <trkpt lat="46.044" lon="4.39782">
        <ele>503.87</ele>
        <time>2020-07-12T13:41:50Z</time>
      </trkpt>
      <trkpt lat="46.04397" lon="4.39782">
        <ele>503.87</ele>
        <time>2020-07-12T13:41:54Z</time>
      </trkpt>
      <trkpt lat="46.0439" lon="4.39786">
        <ele>504.83</ele>
        <time>2020-07-12T13:42:02Z</time>
      </trkpt>
      <trkpt lat="46.04381" lon="4.39791">
        <ele>506.75</ele>
        <time>2020-07-12T13:42:18Z</time>
      </trkpt>
      <trkpt lat="46.0438" lon="4.39792">
        <ele>506.75</ele>
        <time>2020-07-12T13:42:19Z</time>
      </trkpt>
      <trkpt lat="46.04372" lon="4.39799">
        <ele>508.67</ele>
        <time>2020-07-12T13:42:35Z</time>
      </trkpt>
      <trkpt lat="46.04361" lon="4.39804">
        <ele>509.64</ele>
        <time>2020-07-12T13:42:47Z</time>
      </trkpt>
      <trkpt lat="46.04353" lon="4.3981">
        <ele>510.6</ele>
        <time>2020-07-12T13:43:00Z</time>
      </trkpt>
      <trkpt lat="46.04346" lon="4.39813">
        <ele>511.56</ele>
        <time>2020-07-12T13:43:12Z</time>
      </trkpt>
      <trkpt lat="46.04339" lon="4.39822">
        <ele>513</ele>
        <time>2020-07-12T13:43:26Z</time>
      </trkpt>
      <trkpt lat="46.04337" lon="4.39824">
        <ele>513</ele>
        <time>2020-07-12T13:43:29Z</time>
      </trkpt>
      <trkpt lat="46.04328" lon="4.39834">
        <ele>514.44</ele>
        <time>2020-07-12T13:43:43Z</time>
      </trkpt>
      <trkpt lat="46.0432" lon="4.39837">
        <ele>514.92</ele>
        <time>2020-07-12T13:43:55Z</time>
      </trkpt>
      <trkpt lat="46.04312" lon="4.39842">
        <ele>515.4</ele>
        <time>2020-07-12T13:44:04Z</time>
      </trkpt>
      <trkpt lat="46.04309" lon="4.39844">
        <ele>516.37</ele>
        <time>2020-07-12T13:44:08Z</time>
      </trkpt>
      <trkpt lat="46.04304" lon="4.39847">
        <ele>516.37</ele>
        <time>2020-07-12T13:44:14Z</time>
      </trkpt>
      <trkpt lat="46.04299" lon="4.3985">
        <ele>516.37</ele>
        <time>2020-07-12T13:44:19Z</time>
      </trkpt>
      <trkpt lat="46.04295" lon="4.39854">
        <ele>516.85</ele>
        <time>2020-07-12T13:44:24Z</time>
      </trkpt>
      <trkpt lat="46.04287" lon="4.39855">
        <ele>517.33</ele>
        <time>2020-07-12T13:44:31Z</time>
      </trkpt>
      <trkpt lat="46.04285" lon="4.39857">
        <ele>517.33</ele>
        <time>2020-07-12T13:44:33Z</time>
      </trkpt>
      <trkpt lat="46.04281" lon="4.3986">
        <ele>517.33</ele>
        <time>2020-07-12T13:44:38Z</time>
      </trkpt>
      <trkpt lat="46.04268" lon="4.39865">
        <ele>517.81</ele>
        <time>2020-07-12T13:44:51Z</time>
      </trkpt>
      <trkpt lat="46.04257" lon="4.39868">
        <ele>517.81</ele>
        <time>2020-07-12T13:45:03Z</time>
      </trkpt>
      <trkpt lat="46.04244" lon="4.3987">
        <ele>518.29</ele>
        <time>2020-07-12T13:45:15Z</time>
      </trkpt>
      <trkpt lat="46.04238" lon="4.39872">
        <ele>518.77</ele>
        <time>2020-07-12T13:45:22Z</time>
      </trkpt>
      <trkpt lat="46.04228" lon="4.39879">
        <ele>519.25</ele>
        <time>2020-07-12T13:45:34Z</time>
      </trkpt>
      <trkpt lat="46.04223" lon="4.39882">
        <ele>520.21</ele>
        <time>2020-07-12T13:45:40Z</time>
      </trkpt>
      <trkpt lat="46.04217" lon="4.39886">
        <ele>521.65</ele>
        <time>2020-07-12T13:45:50Z</time>
      </trkpt>
      <trkpt lat="46.04214" lon="4.39887">
        <ele>522.13</ele>
        <time>2020-07-12T13:45:54Z</time>
      </trkpt>
      <trkpt lat="46.0421" lon="4.39896">
        <ele>523.09</ele>
        <time>2020-07-12T13:46:05Z</time>
      </trkpt>
      <trkpt lat="46.04204" lon="4.39902">
        <ele>523.58</ele>
        <time>2020-07-12T13:46:13Z</time>
      </trkpt>
      <trkpt lat="46.04195" lon="4.39906">
        <ele>525.02</ele>
        <time>2020-07-12T13:46:26Z</time>
      </trkpt>
      <trkpt lat="46.04188" lon="4.39905">
        <ele>525.98</ele>
        <time>2020-07-12T13:46:39Z</time>
      </trkpt>
      <trkpt lat="46.0418" lon="4.39903">
        <ele>527.42</ele>
        <time>2020-07-12T13:46:51Z</time>
      </trkpt>
      <trkpt lat="46.04169" lon="4.39898">
        <ele>529.82</ele>
        <time>2020-07-12T13:47:07Z</time>
      </trkpt>
      <trkpt lat="46.04157" lon="4.39894">
        <ele>530.3</ele>
        <time>2020-07-12T13:47:21Z</time>
      </trkpt>
      <trkpt lat="46.04155" lon="4.39895">
        <ele>531.27</ele>
        <time>2020-07-12T13:47:26Z</time>
      </trkpt>
      <trkpt lat="46.04149" lon="4.39897">
        <ele>532.71</ele>
        <time>2020-07-12T13:47:39Z</time>
      </trkpt>
      <trkpt lat="46.04145" lon="4.39898">
        <ele>533.19</ele>
        <time>2020-07-12T13:47:47Z</time>
      </trkpt>
      <trkpt lat="46.0414" lon="4.39899">
        <ele>533.19</ele>
        <time>2020-07-12T13:47:50Z</time>
      </trkpt>
      <trkpt lat="46.04137" lon="4.39901">
        <ele>533.19</ele>
        <time>2020-07-12T13:47:53Z</time>
      </trkpt>
      <trkpt lat="46.04133" lon="4.39904">
        <ele>533.67</ele>
        <time>2020-07-12T13:47:57Z</time>
      </trkpt>
      <trkpt lat="46.04125" lon="4.39915">
        <ele>534.15</ele>
        <time>2020-07-12T13:48:10Z</time>
      </trkpt>
      <trkpt lat="46.04118" lon="4.39919">
        <ele>534.63</ele>
        <time>2020-07-12T13:48:22Z</time>
      </trkpt>
      <trkpt lat="46.04106" lon="4.39922">
        <ele>535.11</ele>
        <time>2020-07-12T13:48:35Z</time>
      </trkpt>
      <trkpt lat="46.04093" lon="4.39926">
        <ele>535.59</ele>
        <time>2020-07-12T13:48:48Z</time>
      </trkpt>
      <trkpt lat="46.04085" lon="4.39926">
        <ele>536.07</ele>
        <time>2020-07-12T13:49:01Z</time>
      </trkpt>
      <trkpt lat="46.04082" lon="4.39924">
        <ele>536.07</ele>
        <time>2020-07-12T13:49:06Z</time>
      </trkpt>
      <trkpt lat="46.04067" lon="4.39927">
        <ele>536.55</ele>
        <time>2020-07-12T13:49:20Z</time>
      </trkpt>
      <trkpt lat="46.04055" lon="4.39926">
        <ele>537.03</ele>
        <time>2020-07-12T13:49:33Z</time>
      </trkpt>
      <trkpt lat="46.04042" lon="4.39926">
        <ele>537.51</ele>
        <time>2020-07-12T13:49:47Z</time>
      </trkpt>
      <trkpt lat="46.04029" lon="4.39924">
        <ele>537.99</ele>
        <time>2020-07-12T13:50:00Z</time>
      </trkpt>
      <trkpt lat="46.04021" lon="4.39922">
        <ele>537.99</ele>
        <time>2020-07-12T13:50:09Z</time>
      </trkpt>
      <trkpt lat="46.04015" lon="4.39923">
        <ele>538.96</ele>
        <time>2020-07-12T13:50:15Z</time>
      </trkpt>
      <trkpt lat="46.04004" lon="4.3992">
        <ele>539.44</ele>
        <time>2020-07-12T13:50:27Z</time>
      </trkpt>
      <trkpt lat="46.03999" lon="4.39919">
        <ele>539.92</ele>
        <time>2020-07-12T13:50:32Z</time>
      </trkpt>
      <trkpt lat="46.03988" lon="4.39918">
        <ele>540.4</ele>
        <time>2020-07-12T13:50:44Z</time>
      </trkpt>
      <trkpt lat="46.03976" lon="4.39915">
        <ele>541.84</ele>
        <time>2020-07-12T13:50:57Z</time>
      </trkpt>
      <trkpt lat="46.03965" lon="4.39912">
        <ele>542.8</ele>
        <time>2020-07-12T13:51:09Z</time>
      </trkpt>
      <trkpt lat="46.03954" lon="4.39907">
        <ele>543.28</ele>
        <time>2020-07-12T13:51:21Z</time>
      </trkpt>
      <trkpt lat="46.03945" lon="4.39905">
        <ele>543.76</ele>
        <time>2020-07-12T13:51:32Z</time>
      </trkpt>
      <trkpt lat="46.03932" lon="4.39901">
        <ele>545.2</ele>
        <time>2020-07-12T13:51:46Z</time>
      </trkpt>
      <trkpt lat="46.03925" lon="4.39901">
        <ele>545.2</ele>
        <time>2020-07-12T13:51:57Z</time>
      </trkpt>
      <trkpt lat="46.03922" lon="4.39902">
        <ele>545.69</ele>
        <time>2020-07-12T13:52:00Z</time>
      </trkpt>
      <trkpt lat="46.03916" lon="4.39904">
        <ele>546.17</ele>
        <time>2020-07-12T13:52:06Z</time>
      </trkpt>
      <trkpt lat="46.03906" lon="4.39914">
        <ele>546.65</ele>
        <time>2020-07-12T13:52:18Z</time>
      </trkpt>
      <trkpt lat="46.03897" lon="4.39924">
        <ele>547.61</ele>
        <time>2020-07-12T13:52:30Z</time>
      </trkpt>
      <trkpt lat="46.03891" lon="4.39933">
        <ele>548.57</ele>
        <time>2020-07-12T13:52:42Z</time>
      </trkpt>
      <trkpt lat="46.0389" lon="4.39934">
        <ele>549.05</ele>
        <time>2020-07-12T13:52:44Z</time>
      </trkpt>
      <trkpt lat="46.03885" lon="4.3994">
        <ele>549.53</ele>
        <time>2020-07-12T13:52:51Z</time>
      </trkpt>
      <trkpt lat="46.03883" lon="4.39943">
        <ele>550.01</ele>
        <time>2020-07-12T13:52:55Z</time>
      </trkpt>
      <trkpt lat="46.03876" lon="4.39953">
        <ele>550.49</ele>
        <time>2020-07-12T13:53:08Z</time>
      </trkpt>
      <trkpt lat="46.03871" lon="4.3996">
        <ele>551.93</ele>
        <time>2020-07-12T13:53:18Z</time>
      </trkpt>
      <trkpt lat="46.03869" lon="4.39964">
        <ele>552.41</ele>
        <time>2020-07-12T13:53:22Z</time>
      </trkpt>
      <trkpt lat="46.03862" lon="4.39974">
        <ele>553.38</ele>
        <time>2020-07-12T13:53:34Z</time>
      </trkpt>
      <trkpt lat="46.03857" lon="4.39982">
        <ele>554.34</ele>
        <time>2020-07-12T13:53:44Z</time>
      </trkpt>
      <trkpt lat="46.03856" lon="4.39984">
        <ele>554.34</ele>
        <time>2020-07-12T13:53:46Z</time>
      </trkpt>
      <trkpt lat="46.03849" lon="4.39995">
        <ele>555.78</ele>
        <time>2020-07-12T13:53:57Z</time>
      </trkpt>
      <trkpt lat="46.03844" lon="4.40001">
        <ele>557.22</ele>
        <time>2020-07-12T13:54:07Z</time>
      </trkpt>
      <trkpt lat="46.03839" lon="4.4001">
        <ele>557.7</ele>
        <time>2020-07-12T13:54:20Z</time>
      </trkpt>
      <trkpt lat="46.03839" lon="4.4001">
        <ele>558.18</ele>
        <time>2020-07-12T13:54:21Z</time>
      </trkpt>
      <trkpt lat="46.03833" lon="4.40018">
        <ele>559.14</ele>
        <time>2020-07-12T13:54:32Z</time>
      </trkpt>
      <trkpt lat="46.03829" lon="4.40022">
        <ele>559.62</ele>
        <time>2020-07-12T13:54:38Z</time>
      </trkpt>
      <trkpt lat="46.03827" lon="4.40025">
        <ele>560.11</ele>
        <time>2020-07-12T13:54:42Z</time>
      </trkpt>
      <trkpt lat="46.0382" lon="4.40034">
        <ele>561.07</ele>
        <time>2020-07-12T13:54:54Z</time>
      </trkpt>
      <trkpt lat="46.03818" lon="4.40037">
        <ele>561.55</ele>
        <time>2020-07-12T13:54:58Z</time>
      </trkpt>
      <trkpt lat="46.03814" lon="4.40042">
        <ele>562.03</ele>
        <time>2020-07-12T13:55:05Z</time>
      </trkpt>
      <trkpt lat="46.03806" lon="4.40049">
        <ele>563.95</ele>
        <time>2020-07-12T13:55:18Z</time>
      </trkpt>
      <trkpt lat="46.03799" lon="4.40055">
        <ele>564.43</ele>
        <time>2020-07-12T13:55:30Z</time>
      </trkpt>
      <trkpt lat="46.03797" lon="4.40056">
        <ele>564.91</ele>
        <time>2020-07-12T13:55:33Z</time>
      </trkpt>
      <trkpt lat="46.03794" lon="4.40057">
        <ele>565.39</ele>
        <time>2020-07-12T13:55:37Z</time>
      </trkpt>
      <trkpt lat="46.03786" lon="4.40059">
        <ele>566.83</ele>
        <time>2020-07-12T13:55:49Z</time>
      </trkpt>
      <trkpt lat="46.03781" lon="4.4006">
        <ele>567.32</ele>
        <time>2020-07-12T13:55:56Z</time>
      </trkpt>
      <trkpt lat="46.03778" lon="4.4006">
        <ele>567.8</ele>
        <time>2020-07-12T13:55:59Z</time>
      </trkpt>
      <trkpt lat="46.03776" lon="4.4006">
        <ele>567.8</ele>
        <time>2020-07-12T13:56:02Z</time>
      </trkpt>
      <trkpt lat="46.03768" lon="4.40059">
        <ele>569.72</ele>
        <time>2020-07-12T13:56:14Z</time>
      </trkpt>
      <trkpt lat="46.03758" lon="4.40058">
        <ele>571.16</ele>
        <time>2020-07-12T13:56:26Z</time>
      </trkpt>
      <trkpt lat="46.0375" lon="4.40055">
        <ele>571.64</ele>
        <time>2020-07-12T13:56:37Z</time>
      </trkpt>
      <trkpt lat="46.03747" lon="4.40055">
        <ele>571.64</ele>
        <time>2020-07-12T13:56:41Z</time>
      </trkpt>
      <trkpt lat="46.03744" lon="4.40055">
        <ele>572.12</ele>
        <time>2020-07-12T13:56:44Z</time>
      </trkpt>
      <trkpt lat="46.03739" lon="4.40056">
        <ele>572.6</ele>
        <time>2020-07-12T13:56:50Z</time>
      </trkpt>
      <trkpt lat="46.0373" lon="4.40055">
        <ele>572.6</ele>
        <time>2020-07-12T13:57:02Z</time>
      </trkpt>
      <trkpt lat="46.03725" lon="4.4006">
        <ele>573.08</ele>
        <time>2020-07-12T13:57:14Z</time>
      </trkpt>
      <trkpt lat="46.03725" lon="4.40067">
        <ele>573.08</ele>
        <time>2020-07-12T13:57:23Z</time>
      </trkpt>
      <trkpt lat="46.03728" lon="4.40083">
        <ele>574.04</ele>
        <time>2020-07-12T13:57:36Z</time>
      </trkpt>
      <trkpt lat="46.03732" lon="4.40099">
        <ele>574.04</ele>
        <time>2020-07-12T13:57:49Z</time>
      </trkpt>
      <trkpt lat="46.03736" lon="4.40118">
        <ele>574.04</ele>
        <time>2020-07-12T13:58:03Z</time>
      </trkpt>
      <trkpt lat="46.0374" lon="4.40136">
        <ele>574.04</ele>
        <time>2020-07-12T13:58:16Z</time>
      </trkpt>
      <trkpt lat="46.03743" lon="4.40155">
        <ele>574.04</ele>
        <time>2020-07-12T13:58:29Z</time>
      </trkpt>
      <trkpt lat="46.03746" lon="4.40172">
        <ele>573.56</ele>
        <time>2020-07-12T13:58:41Z</time>
      </trkpt>
      <trkpt lat="46.0375" lon="4.40191">
        <ele>574.04</ele>
        <time>2020-07-12T13:58:54Z</time>
      </trkpt>
      <trkpt lat="46.03752" lon="4.40208">
        <ele>574.04</ele>
        <time>2020-07-12T13:59:06Z</time>
      </trkpt>
      <trkpt lat="46.03752" lon="4.4021">
        <ele>574.04</ele>
        <time>2020-07-12T13:59:08Z</time>
      </trkpt>
      <trkpt lat="46.03752" lon="4.40222">
        <ele>575.01</ele>
        <time>2020-07-12T13:59:16Z</time>
      </trkpt>
      <trkpt lat="46.03754" lon="4.40227">
        <ele>575.01</ele>
        <time>2020-07-12T13:59:31Z</time>
      </trkpt>
      <trkpt lat="46.03755" lon="4.40242">
        <ele>576.45</ele>
        <time>2020-07-12T13:59:43Z</time>
      </trkpt>
      <trkpt lat="46.03756" lon="4.40246">
        <ele>576.93</ele>
        <time>2020-07-12T13:59:55Z</time>
      </trkpt>
      <trkpt lat="46.03758" lon="4.40255">
        <ele>577.41</ele>
        <time>2020-07-12T14:00:11Z</time>
      </trkpt>
      <trkpt lat="46.03758" lon="4.40255">
        <ele>577.89</ele>
        <time>2020-07-12T14:00:12Z</time>
      </trkpt>
      <trkpt lat="46.03761" lon="4.40265">
        <ele>578.85</ele>
        <time>2020-07-12T14:00:22Z</time>
      </trkpt>
      <trkpt lat="46.03764" lon="4.40281">
        <ele>580.29</ele>
        <time>2020-07-12T14:00:37Z</time>
      </trkpt>
      <trkpt lat="46.03765" lon="4.40287">
        <ele>580.77</ele>
        <time>2020-07-12T14:00:43Z</time>
      </trkpt>
      <trkpt lat="46.03767" lon="4.40298">
        <ele>581.73</ele>
        <time>2020-07-12T14:00:55Z</time>
      </trkpt>
      <trkpt lat="46.03768" lon="4.40307">
        <ele>582.22</ele>
        <time>2020-07-12T14:01:05Z</time>
      </trkpt>
      <trkpt lat="46.0377" lon="4.40314">
        <ele>583.18</ele>
        <time>2020-07-12T14:01:11Z</time>
      </trkpt>
      <trkpt lat="46.03772" lon="4.40327">
        <ele>584.14</ele>
        <time>2020-07-12T14:01:23Z</time>
      </trkpt>
      <trkpt lat="46.03772" lon="4.40329">
        <ele>584.14</ele>
        <time>2020-07-12T14:01:25Z</time>
      </trkpt>
      <trkpt lat="46.03773" lon="4.40333">
        <ele>584.62</ele>
        <time>2020-07-12T14:01:29Z</time>
      </trkpt>
      <trkpt lat="46.03775" lon="4.40345">
        <ele>586.06</ele>
        <time>2020-07-12T14:01:39Z</time>
      </trkpt>
      <trkpt lat="46.03777" lon="4.40355">
        <ele>586.54</ele>
        <time>2020-07-12T14:01:47Z</time>
      </trkpt>
      <trkpt lat="46.03776" lon="4.40361">
        <ele>587.5</ele>
        <time>2020-07-12T14:02:00Z</time>
      </trkpt>
      <trkpt lat="46.03777" lon="4.40371">
        <ele>587.98</ele>
        <time>2020-07-12T14:02:12Z</time>
      </trkpt>
      <trkpt lat="46.03777" lon="4.40372">
        <ele>587.98</ele>
        <time>2020-07-12T14:02:14Z</time>
      </trkpt>
      <trkpt lat="46.03778" lon="4.40382">
        <ele>588.95</ele>
        <time>2020-07-12T14:02:24Z</time>
      </trkpt>
      <trkpt lat="46.03779" lon="4.40389">
        <ele>589.91</ele>
        <time>2020-07-12T14:02:30Z</time>
      </trkpt>
      <trkpt lat="46.0378" lon="4.40397">
        <ele>590.39</ele>
        <time>2020-07-12T14:02:37Z</time>
      </trkpt>
      <trkpt lat="46.03784" lon="4.40413">
        <ele>591.83</ele>
        <time>2020-07-12T14:02:50Z</time>
      </trkpt>
      <trkpt lat="46.03785" lon="4.40417">
        <ele>591.83</ele>
        <time>2020-07-12T14:02:54Z</time>
      </trkpt>
      <trkpt lat="46.03785" lon="4.40421">
        <ele>591.83</ele>
        <time>2020-07-12T14:02:57Z</time>
      </trkpt>
      <trkpt lat="46.03785" lon="4.40428">
        <ele>592.79</ele>
        <time>2020-07-12T14:03:04Z</time>
      </trkpt>
      <trkpt lat="46.03786" lon="4.40438">
        <ele>594.23</ele>
        <time>2020-07-12T14:03:13Z</time>
      </trkpt>
      <trkpt lat="46.03786" lon="4.40447">
        <ele>594.71</ele>
        <time>2020-07-12T14:03:20Z</time>
      </trkpt>
      <trkpt lat="46.03787" lon="4.40457">
        <ele>595.19</ele>
        <time>2020-07-12T14:03:30Z</time>
      </trkpt>
      <trkpt lat="46.03788" lon="4.40472">
        <ele>597.12</ele>
        <time>2020-07-12T14:03:42Z</time>
      </trkpt>
      <trkpt lat="46.03791" lon="4.40486">
        <ele>598.08</ele>
        <time>2020-07-12T14:03:55Z</time>
      </trkpt>
      <trkpt lat="46.03793" lon="4.40498">
        <ele>599.04</ele>
        <time>2020-07-12T14:04:06Z</time>
      </trkpt>
      <trkpt lat="46.03797" lon="4.40512">
        <ele>600.48</ele>
        <time>2020-07-12T14:04:18Z</time>
      </trkpt>
      <trkpt lat="46.038" lon="4.40528">
        <ele>601.92</ele>
        <time>2020-07-12T14:04:31Z</time>
      </trkpt>
      <trkpt lat="46.03802" lon="4.40541">
        <ele>603.36</ele>
        <time>2020-07-12T14:04:42Z</time>
      </trkpt>
      <trkpt lat="46.03801" lon="4.40547">
        <ele>603.36</ele>
        <time>2020-07-12T14:04:47Z</time>
      </trkpt>
      <trkpt lat="46.03801" lon="4.40562">
        <ele>604.33</ele>
        <time>2020-07-12T14:04:59Z</time>
      </trkpt>
      <trkpt lat="46.03801" lon="4.40575">
        <ele>604.81</ele>
        <time>2020-07-12T14:05:10Z</time>
      </trkpt>
      <trkpt lat="46.038" lon="4.40583">
        <ele>605.77</ele>
        <time>2020-07-12T14:05:17Z</time>
      </trkpt>
      <trkpt lat="46.038" lon="4.40586">
        <ele>606.25</ele>
        <time>2020-07-12T14:05:20Z</time>
      </trkpt>
      <trkpt lat="46.03801" lon="4.4059">
        <ele>606.73</ele>
        <time>2020-07-12T14:05:24Z</time>
      </trkpt>
      <trkpt lat="46.038" lon="4.40604">
        <ele>607.69</ele>
        <time>2020-07-12T14:05:36Z</time>
      </trkpt>
      <trkpt lat="46.03798" lon="4.40611">
        <ele>608.17</ele>
        <time>2020-07-12T14:05:48Z</time>
      </trkpt>
      <trkpt lat="46.03797" lon="4.40619">
        <ele>608.65</ele>
        <time>2020-07-12T14:05:59Z</time>
      </trkpt>
      <trkpt lat="46.03796" lon="4.40621">
        <ele>609.13</ele>
        <time>2020-07-12T14:06:02Z</time>
      </trkpt>
      <trkpt lat="46.0379" lon="4.4063">
        <ele>610.09</ele>
        <time>2020-07-12T14:06:13Z</time>
      </trkpt>
      <trkpt lat="46.03789" lon="4.40631">
        <ele>610.09</ele>
        <time>2020-07-12T14:06:16Z</time>
      </trkpt>
      <trkpt lat="46.03787" lon="4.40634">
        <ele>610.09</ele>
        <time>2020-07-12T14:06:19Z</time>
      </trkpt>
      <trkpt lat="46.03782" lon="4.40642">
        <ele>611.06</ele>
        <time>2020-07-12T14:06:30Z</time>
      </trkpt>
      <trkpt lat="46.03776" lon="4.40649">
        <ele>612.5</ele>
        <time>2020-07-12T14:06:41Z</time>
      </trkpt>
      <trkpt lat="46.03776" lon="4.4065">
        <ele>612.5</ele>
        <time>2020-07-12T14:06:42Z</time>
      </trkpt>
      <trkpt lat="46.03773" lon="4.40653">
        <ele>613.46</ele>
        <time>2020-07-12T14:06:48Z</time>
      </trkpt>
      <trkpt lat="46.03771" lon="4.40655">
        <ele>613.46</ele>
        <time>2020-07-12T14:06:51Z</time>
      </trkpt>
      <trkpt lat="46.0377" lon="4.40657">
        <ele>614.42</ele>
        <time>2020-07-12T14:06:54Z</time>
      </trkpt>
      <trkpt lat="46.03763" lon="4.40665">
        <ele>615.86</ele>
        <time>2020-07-12T14:07:06Z</time>
      </trkpt>
      <trkpt lat="46.03757" lon="4.40674">
        <ele>616.82</ele>
        <time>2020-07-12T14:07:17Z</time>
      </trkpt>
      <trkpt lat="46.03756" lon="4.40675">
        <ele>617.3</ele>
        <time>2020-07-12T14:07:21Z</time>
      </trkpt>
      <trkpt lat="46.0375" lon="4.40685">
        <ele>617.78</ele>
        <time>2020-07-12T14:07:32Z</time>
      </trkpt>
      <trkpt lat="46.03746" lon="4.40687">
        <ele>618.75</ele>
        <time>2020-07-12T14:07:46Z</time>
      </trkpt>
      <trkpt lat="46.03747" lon="4.40687">
        <ele>618.75</ele>
        <time>2020-07-12T14:08:12Z</time>
      </trkpt>
      <trkpt lat="46.03745" lon="4.4069">
        <ele>618.75</ele>
        <time>2020-07-12T14:08:25Z</time>
      </trkpt>
      <trkpt lat="46.03746" lon="4.4069">
        <ele>617.78</ele>
        <time>2020-07-12T14:08:38Z</time>
      </trkpt>
      <trkpt lat="46.03746" lon="4.4069">
        <ele>617.78</ele>
        <time>2020-07-12T14:08:39Z</time>
      </trkpt>
      <trkpt lat="46.03746" lon="4.4069">
        <ele>618.75</ele>
        <time>2020-07-12T14:08:45Z</time>
      </trkpt>
      <trkpt lat="46.03746" lon="4.40689">
        <ele>619.23</ele>
        <time>2020-07-12T14:09:20Z</time>
      </trkpt>
      <trkpt lat="46.03747" lon="4.4069">
        <ele>619.23</ele>
        <time>2020-07-12T14:09:32Z</time>
      </trkpt>
      <trkpt lat="46.03745" lon="4.4069">
        <ele>618.75</ele>
        <time>2020-07-12T14:09:52Z</time>
      </trkpt>
      <trkpt lat="46.03744" lon="4.40693">
        <ele>618.75</ele>
        <time>2020-07-12T14:10:11Z</time>
      </trkpt>
      <trkpt lat="46.03745" lon="4.40692">
        <ele>618.75</ele>
        <time>2020-07-12T14:10:34Z</time>
      </trkpt>
      <trkpt lat="46.03746" lon="4.40691">
        <ele>618.75</ele>
        <time>2020-07-12T14:11:02Z</time>
      </trkpt>
      <trkpt lat="46.03747" lon="4.40689">
        <ele>618.75</ele>
        <time>2020-07-12T14:11:22Z</time>
      </trkpt>
      <trkpt lat="46.03747" lon="4.40692">
        <ele>618.75</ele>
        <time>2020-07-12T14:11:40Z</time>
      </trkpt>
      <trkpt lat="46.03745" lon="4.40691">
        <ele>618.75</ele>
        <time>2020-07-12T14:12:05Z</time>
      </trkpt>
      <trkpt lat="46.03745" lon="4.4069">
        <ele>618.75</ele>
        <time>2020-07-12T14:12:33Z</time>
      </trkpt>
      <trkpt lat="46.03744" lon="4.40692">
        <ele>618.75</ele>
        <time>2020-07-12T14:13:06Z</time>
      </trkpt>
      <trkpt lat="46.03745" lon="4.40692">
        <ele>618.75</ele>
        <time>2020-07-12T14:13:35Z</time>
      </trkpt>
      <trkpt lat="46.03742" lon="4.40697">
        <ele>618.75</ele>
        <time>2020-07-12T14:13:54Z</time>
      </trkpt>
      <trkpt lat="46.03738" lon="4.407">
        <ele>620.19</ele>
        <time>2020-07-12T14:14:03Z</time>
      </trkpt>
      <trkpt lat="46.03733" lon="4.40702">
        <ele>620.19</ele>
        <time>2020-07-12T14:14:18Z</time>
      </trkpt>
      <trkpt lat="46.03731" lon="4.40705">
        <ele>620.67</ele>
        <time>2020-07-12T14:14:29Z</time>
      </trkpt>
      <trkpt lat="46.03725" lon="4.40716">
        <ele>621.15</ele>
        <time>2020-07-12T14:14:43Z</time>
      </trkpt>
      <trkpt lat="46.03716" lon="4.40727">
        <ele>622.59</ele>
        <time>2020-07-12T14:14:56Z</time>
      </trkpt>
      <trkpt lat="46.03706" lon="4.40737">
        <ele>622.11</ele>
        <time>2020-07-12T14:15:10Z</time>
      </trkpt>
      <trkpt lat="46.03704" lon="4.40739">
        <ele>622.11</ele>
        <time>2020-07-12T14:15:13Z</time>
      </trkpt>
      <trkpt lat="46.037" lon="4.40742">
        <ele>622.11</ele>
        <time>2020-07-12T14:15:17Z</time>
      </trkpt>
      <trkpt lat="46.03695" lon="4.40755">
        <ele>623.55</ele>
        <time>2020-07-12T14:15:29Z</time>
      </trkpt>
      <trkpt lat="46.03685" lon="4.40769">
        <ele>624.51</ele>
        <time>2020-07-12T14:15:44Z</time>
      </trkpt>
      <trkpt lat="46.0368" lon="4.40776">
        <ele>624.99</ele>
        <time>2020-07-12T14:15:51Z</time>
      </trkpt>
      <trkpt lat="46.03667" lon="4.40787">
        <ele>625.47</ele>
        <time>2020-07-12T14:16:05Z</time>
      </trkpt>
      <trkpt lat="46.03662" lon="4.40793">
        <ele>625.96</ele>
        <time>2020-07-12T14:16:13Z</time>
      </trkpt>
      <trkpt lat="46.03657" lon="4.40808">
        <ele>626.92</ele>
        <time>2020-07-12T14:16:26Z</time>
      </trkpt>
      <trkpt lat="46.03655" lon="4.40812">
        <ele>626.92</ele>
        <time>2020-07-12T14:16:30Z</time>
      </trkpt>
      <trkpt lat="46.0365" lon="4.40825">
        <ele>628.36</ele>
        <time>2020-07-12T14:16:43Z</time>
      </trkpt>
      <trkpt lat="46.03646" lon="4.4083">
        <ele>628.84</ele>
        <time>2020-07-12T14:16:50Z</time>
      </trkpt>
      <trkpt lat="46.03642" lon="4.40835">
        <ele>629.32</ele>
        <time>2020-07-12T14:16:57Z</time>
      </trkpt>
      <trkpt lat="46.03636" lon="4.40844">
        <ele>629.8</ele>
        <time>2020-07-12T14:17:07Z</time>
      </trkpt>
      <trkpt lat="46.0363" lon="4.40854">
        <ele>630.28</ele>
        <time>2020-07-12T14:17:19Z</time>
      </trkpt>
      <trkpt lat="46.03629" lon="4.40856">
        <ele>630.76</ele>
        <time>2020-07-12T14:17:21Z</time>
      </trkpt>
      <trkpt lat="46.03623" lon="4.40862">
        <ele>631.72</ele>
        <time>2020-07-12T14:17:30Z</time>
      </trkpt>
      <trkpt lat="46.03617" lon="4.40873">
        <ele>632.2</ele>
        <time>2020-07-12T14:17:43Z</time>
      </trkpt>
      <trkpt lat="46.0361" lon="4.40879">
        <ele>633.65</ele>
        <time>2020-07-12T14:17:52Z</time>
      </trkpt>
      <trkpt lat="46.03608" lon="4.40883">
        <ele>633.65</ele>
        <time>2020-07-12T14:17:56Z</time>
      </trkpt>
      <trkpt lat="46.03601" lon="4.40892">
        <ele>634.13</ele>
        <time>2020-07-12T14:18:09Z</time>
      </trkpt>
      <trkpt lat="46.03593" lon="4.40902">
        <ele>635.09</ele>
        <time>2020-07-12T14:18:22Z</time>
      </trkpt>
      <trkpt lat="46.03586" lon="4.4091">
        <ele>635.57</ele>
        <time>2020-07-12T14:18:33Z</time>
      </trkpt>
      <trkpt lat="46.03581" lon="4.40918">
        <ele>636.05</ele>
        <time>2020-07-12T14:18:41Z</time>
      </trkpt>
      <trkpt lat="46.03579" lon="4.40921">
        <ele>636.53</ele>
        <time>2020-07-12T14:18:45Z</time>
      </trkpt>
      <trkpt lat="46.03577" lon="4.40924">
        <ele>637.01</ele>
        <time>2020-07-12T14:18:48Z</time>
      </trkpt>
      <trkpt lat="46.0357" lon="4.40932">
        <ele>637.49</ele>
        <time>2020-07-12T14:18:59Z</time>
      </trkpt>
      <trkpt lat="46.03569" lon="4.40936">
        <ele>637.49</ele>
        <time>2020-07-12T14:19:02Z</time>
      </trkpt>
      <trkpt lat="46.03559" lon="4.40946">
        <ele>638.93</ele>
        <time>2020-07-12T14:19:16Z</time>
      </trkpt>
      <trkpt lat="46.03551" lon="4.40952">
        <ele>639.89</ele>
        <time>2020-07-12T14:19:28Z</time>
      </trkpt>
      <trkpt lat="46.03538" lon="4.40954">
        <ele>641.82</ele>
        <time>2020-07-12T14:19:41Z</time>
      </trkpt>
      <trkpt lat="46.03536" lon="4.40954">
        <ele>641.82</ele>
        <time>2020-07-12T14:19:44Z</time>
      </trkpt>
      <trkpt lat="46.03529" lon="4.40958">
        <ele>642.3</ele>
        <time>2020-07-12T14:19:54Z</time>
      </trkpt>
      <trkpt lat="46.03527" lon="4.40961">
        <ele>642.3</ele>
        <time>2020-07-12T14:20:12Z</time>
      </trkpt>
      <trkpt lat="46.03526" lon="4.40963">
        <ele>642.3</ele>
        <time>2020-07-12T14:20:24Z</time>
      </trkpt>
      <trkpt lat="46.03514" lon="4.40971">
        <ele>643.74</ele>
        <time>2020-07-12T14:20:38Z</time>
      </trkpt>
      <trkpt lat="46.03507" lon="4.40976">
        <ele>644.22</ele>
        <time>2020-07-12T14:20:51Z</time>
      </trkpt>
      <trkpt lat="46.035" lon="4.40992">
        <ele>644.7</ele>
        <time>2020-07-12T14:21:04Z</time>
      </trkpt>
      <trkpt lat="46.03498" lon="4.40997">
        <ele>645.66</ele>
        <time>2020-07-12T14:21:14Z</time>
      </trkpt>
      <trkpt lat="46.03497" lon="4.41">
        <ele>645.66</ele>
        <time>2020-07-12T14:21:17Z</time>
      </trkpt>
      <trkpt lat="46.03494" lon="4.41015">
        <ele>645.66</ele>
        <time>2020-07-12T14:21:29Z</time>
      </trkpt>
      <trkpt lat="46.03493" lon="4.41021">
        <ele>646.14</ele>
        <time>2020-07-12T14:21:35Z</time>
      </trkpt>
      <trkpt lat="46.03491" lon="4.41039">
        <ele>646.14</ele>
        <time>2020-07-12T14:21:47Z</time>
      </trkpt>
      <trkpt lat="46.03489" lon="4.41057">
        <ele>646.62</ele>
        <time>2020-07-12T14:22:00Z</time>
      </trkpt>
      <trkpt lat="46.03483" lon="4.41064">
        <ele>647.59</ele>
        <time>2020-07-12T14:22:10Z</time>
      </trkpt>
      <trkpt lat="46.03481" lon="4.41067">
        <ele>647.59</ele>
        <time>2020-07-12T14:22:14Z</time>
      </trkpt>
      <trkpt lat="46.03478" lon="4.41069">
        <ele>648.55</ele>
        <time>2020-07-12T14:22:18Z</time>
      </trkpt>
      <trkpt lat="46.03477" lon="4.41072">
        <ele>648.55</ele>
        <time>2020-07-12T14:22:21Z</time>
      </trkpt>
      <trkpt lat="46.03474" lon="4.41078">
        <ele>649.99</ele>
        <time>2020-07-12T14:22:29Z</time>
      </trkpt>
      <trkpt lat="46.03471" lon="4.41079">
        <ele>649.99</ele>
        <time>2020-07-12T14:22:32Z</time>
      </trkpt>
      <trkpt lat="46.03469" lon="4.41086">
        <ele>651.43</ele>
        <time>2020-07-12T14:22:39Z</time>
      </trkpt>
      <trkpt lat="46.03469" lon="4.41087">
        <ele>651.43</ele>
        <time>2020-07-12T14:22:40Z</time>
      </trkpt>
      <trkpt lat="46.03467" lon="4.41089">
        <ele>651.43</ele>
        <time>2020-07-12T14:22:43Z</time>
      </trkpt>
      <trkpt lat="46.03461" lon="4.41105">
        <ele>652.87</ele>
        <time>2020-07-12T14:22:58Z</time>
      </trkpt>
      <trkpt lat="46.03454" lon="4.41113">
        <ele>654.8</ele>
        <time>2020-07-12T14:23:10Z</time>
      </trkpt>
      <trkpt lat="46.03444" lon="4.41123">
        <ele>655.76</ele>
        <time>2020-07-12T14:23:23Z</time>
      </trkpt>
      <trkpt lat="46.03435" lon="4.41135">
        <ele>657.68</ele>
        <time>2020-07-12T14:23:35Z</time>
      </trkpt>
      <trkpt lat="46.03427" lon="4.41148">
        <ele>659.6</ele>
        <time>2020-07-12T14:23:50Z</time>
      </trkpt>
      <trkpt lat="46.03419" lon="4.4116">
        <ele>660.08</ele>
        <time>2020-07-12T14:24:02Z</time>
      </trkpt>
      <trkpt lat="46.03417" lon="4.41162">
        <ele>660.56</ele>
        <time>2020-07-12T14:24:04Z</time>
      </trkpt>
      <trkpt lat="46.03409" lon="4.41173">
        <ele>661.04</ele>
        <time>2020-07-12T14:24:17Z</time>
      </trkpt>
      <trkpt lat="46.03399" lon="4.41187">
        <ele>661.52</ele>
        <time>2020-07-12T14:24:29Z</time>
      </trkpt>
      <trkpt lat="46.03391" lon="4.412">
        <ele>662.49</ele>
        <time>2020-07-12T14:24:42Z</time>
      </trkpt>
      <trkpt lat="46.03382" lon="4.41215">
        <ele>662.49</ele>
        <time>2020-07-12T14:24:56Z</time>
      </trkpt>
      <trkpt lat="46.03374" lon="4.41234">
        <ele>662.49</ele>
        <time>2020-07-12T14:25:11Z</time>
      </trkpt>
      <trkpt lat="46.03368" lon="4.41247">
        <ele>662.49</ele>
        <time>2020-07-12T14:25:21Z</time>
      </trkpt>
      <trkpt lat="46.03359" lon="4.41262">
        <ele>662.97</ele>
        <time>2020-07-12T14:25:33Z</time>
      </trkpt>
      <trkpt lat="46.03357" lon="4.41268">
        <ele>662.97</ele>
        <time>2020-07-12T14:25:38Z</time>
      </trkpt>
      <trkpt lat="46.03355" lon="4.41274">
        <ele>663.45</ele>
        <time>2020-07-12T14:25:42Z</time>
      </trkpt>
      <trkpt lat="46.03349" lon="4.41293">
        <ele>663.45</ele>
        <time>2020-07-12T14:25:57Z</time>
      </trkpt>
      <trkpt lat="46.03344" lon="4.41302">
        <ele>663.45</ele>
        <time>2020-07-12T14:26:11Z</time>
      </trkpt>
      <trkpt lat="46.03345" lon="4.41303">
        <ele>663.45</ele>
        <time>2020-07-12T14:26:32Z</time>
      </trkpt>
      <trkpt lat="46.03346" lon="4.41305">
        <ele>663.93</ele>
        <time>2020-07-12T14:26:52Z</time>
      </trkpt>
      <trkpt lat="46.03345" lon="4.41304">
        <ele>664.89</ele>
        <time>2020-07-12T14:27:11Z</time>
      </trkpt>
      <trkpt lat="46.03344" lon="4.41305">
        <ele>664.41</ele>
        <time>2020-07-12T14:27:33Z</time>
      </trkpt>
      <trkpt lat="46.03346" lon="4.41306">
        <ele>664.41</ele>
        <time>2020-07-12T14:27:52Z</time>
      </trkpt>
      <trkpt lat="46.03346" lon="4.41307">
        <ele>663.93</ele>
        <time>2020-07-12T14:28:21Z</time>
      </trkpt>
      <trkpt lat="46.03347" lon="4.4131">
        <ele>663.93</ele>
        <time>2020-07-12T14:28:53Z</time>
      </trkpt>
      <trkpt lat="46.03338" lon="4.4132">
        <ele>665.37</ele>
        <time>2020-07-12T14:29:08Z</time>
      </trkpt>
      <trkpt lat="46.03331" lon="4.4134">
        <ele>666.33</ele>
        <time>2020-07-12T14:29:25Z</time>
      </trkpt>
      <trkpt lat="46.03327" lon="4.41355">
        <ele>667.77</ele>
        <time>2020-07-12T14:29:40Z</time>
      </trkpt>
      <trkpt lat="46.03326" lon="4.41362">
        <ele>669.22</ele>
        <time>2020-07-12T14:29:46Z</time>
      </trkpt>
      <trkpt lat="46.03317" lon="4.41378">
        <ele>670.18</ele>
        <time>2020-07-12T14:30:02Z</time>
      </trkpt>
      <trkpt lat="46.03316" lon="4.41394">
        <ele>671.62</ele>
        <time>2020-07-12T14:30:16Z</time>
      </trkpt>
      <trkpt lat="46.03309" lon="4.41406">
        <ele>673.06</ele>
        <time>2020-07-12T14:30:28Z</time>
      </trkpt>
      <trkpt lat="46.03301" lon="4.41417">
        <ele>674.98</ele>
        <time>2020-07-12T14:30:40Z</time>
      </trkpt>
      <trkpt lat="46.03294" lon="4.41431">
        <ele>676.42</ele>
        <time>2020-07-12T14:30:52Z</time>
      </trkpt>
      <trkpt lat="46.03286" lon="4.41446">
        <ele>677.39</ele>
        <time>2020-07-12T14:31:05Z</time>
      </trkpt>
      <trkpt lat="46.0328" lon="4.41459">
        <ele>678.35</ele>
        <time>2020-07-12T14:31:18Z</time>
      </trkpt>
      <trkpt lat="46.03274" lon="4.41474">
        <ele>680.27</ele>
        <time>2020-07-12T14:31:32Z</time>
      </trkpt>
      <trkpt lat="46.03267" lon="4.41489">
        <ele>681.23</ele>
        <time>2020-07-12T14:31:44Z</time>
      </trkpt>
      <trkpt lat="46.03259" lon="4.41502">
        <ele>682.19</ele>
        <time>2020-07-12T14:31:55Z</time>
      </trkpt>
      <trkpt lat="46.0325" lon="4.41518">
        <ele>682.67</ele>
        <time>2020-07-12T14:32:09Z</time>
      </trkpt>
      <trkpt lat="46.0324" lon="4.41532">
        <ele>683.63</ele>
        <time>2020-07-12T14:32:22Z</time>
      </trkpt>
      <trkpt lat="46.03233" lon="4.41546">
        <ele>684.12</ele>
        <time>2020-07-12T14:32:35Z</time>
      </trkpt>
      <trkpt lat="46.03232" lon="4.41548">
        <ele>684.12</ele>
        <time>2020-07-12T14:32:36Z</time>
      </trkpt>
      <trkpt lat="46.03223" lon="4.41563">
        <ele>685.08</ele>
        <time>2020-07-12T14:32:49Z</time>
      </trkpt>
      <trkpt lat="46.03215" lon="4.4158">
        <ele>685.56</ele>
        <time>2020-07-12T14:33:03Z</time>
      </trkpt>
      <trkpt lat="46.03205" lon="4.41597">
        <ele>686.04</ele>
        <time>2020-07-12T14:33:17Z</time>
      </trkpt>
      <trkpt lat="46.03196" lon="4.41613">
        <ele>687.48</ele>
        <time>2020-07-12T14:33:30Z</time>
      </trkpt>
      <trkpt lat="46.03188" lon="4.41627">
        <ele>689.4</ele>
        <time>2020-07-12T14:33:42Z</time>
      </trkpt>
      <trkpt lat="46.03182" lon="4.4164">
        <ele>690.36</ele>
        <time>2020-07-12T14:33:54Z</time>
      </trkpt>
      <trkpt lat="46.03178" lon="4.41656">
        <ele>691.81</ele>
        <time>2020-07-12T14:34:06Z</time>
      </trkpt>
      <trkpt lat="46.03177" lon="4.4167">
        <ele>693.73</ele>
        <time>2020-07-12T14:34:20Z</time>
      </trkpt>
      <trkpt lat="46.03169" lon="4.41686">
        <ele>694.69</ele>
        <time>2020-07-12T14:34:35Z</time>
      </trkpt>
      <trkpt lat="46.03162" lon="4.41695">
        <ele>695.65</ele>
        <time>2020-07-12T14:34:44Z</time>
      </trkpt>
      <trkpt lat="46.0314" lon="4.41704">
        <ele>696.61</ele>
        <time>2020-07-12T14:35:02Z</time>
      </trkpt>
      <trkpt lat="46.03124" lon="4.41712">
        <ele>697.09</ele>
        <time>2020-07-12T14:35:17Z</time>
      </trkpt>
      <trkpt lat="46.03111" lon="4.41722">
        <ele>697.57</ele>
        <time>2020-07-12T14:35:32Z</time>
      </trkpt>
      <trkpt lat="46.03106" lon="4.41728">
        <ele>697.57</ele>
        <time>2020-07-12T14:35:38Z</time>
      </trkpt>
      <trkpt lat="46.03089" lon="4.41744">
        <ele>697.57</ele>
        <time>2020-07-12T14:35:53Z</time>
      </trkpt>
      <trkpt lat="46.03085" lon="4.41753">
        <ele>697.57</ele>
        <time>2020-07-12T14:36:01Z</time>
      </trkpt>
      <trkpt lat="46.03084" lon="4.4176">
        <ele>697.57</ele>
        <time>2020-07-12T14:36:05Z</time>
      </trkpt>
      <trkpt lat="46.03081" lon="4.41773">
        <ele>698.05</ele>
        <time>2020-07-12T14:36:16Z</time>
      </trkpt>
      <trkpt lat="46.03077" lon="4.41795">
        <ele>698.05</ele>
        <time>2020-07-12T14:36:31Z</time>
      </trkpt>
      <trkpt lat="46.03073" lon="4.41814">
        <ele>699.02</ele>
        <time>2020-07-12T14:36:44Z</time>
      </trkpt>
      <trkpt lat="46.03067" lon="4.41831">
        <ele>699.5</ele>
        <time>2020-07-12T14:36:56Z</time>
      </trkpt>
      <trkpt lat="46.03063" lon="4.4185">
        <ele>700.46</ele>
        <time>2020-07-12T14:37:09Z</time>
      </trkpt>
      <trkpt lat="46.0306" lon="4.4186">
        <ele>700.46</ele>
        <time>2020-07-12T14:37:22Z</time>
      </trkpt>
      <trkpt lat="46.03057" lon="4.41866">
        <ele>701.9</ele>
        <time>2020-07-12T14:37:33Z</time>
      </trkpt>
      <trkpt lat="46.03056" lon="4.41867">
        <ele>701.9</ele>
        <time>2020-07-12T14:37:48Z</time>
      </trkpt>
      <trkpt lat="46.03055" lon="4.41874">
        <ele>701.9</ele>
        <time>2020-07-12T14:38:05Z</time>
      </trkpt>
      <trkpt lat="46.03052" lon="4.41879">
        <ele>702.38</ele>
        <time>2020-07-12T14:38:20Z</time>
      </trkpt>
      <trkpt lat="46.03047" lon="4.41896">
        <ele>703.34</ele>
        <time>2020-07-12T14:38:32Z</time>
      </trkpt>
      <trkpt lat="46.03041" lon="4.41909">
        <ele>704.78</ele>
        <time>2020-07-12T14:38:44Z</time>
      </trkpt>
      <trkpt lat="46.03041" lon="4.4191">
        <ele>704.78</ele>
        <time>2020-07-12T14:38:45Z</time>
      </trkpt>
      <trkpt lat="46.03039" lon="4.41914">
        <ele>705.75</ele>
        <time>2020-07-12T14:38:49Z</time>
      </trkpt>
      <trkpt lat="46.03035" lon="4.41922">
        <ele>707.19</ele>
        <time>2020-07-12T14:38:57Z</time>
      </trkpt>
      <trkpt lat="46.03029" lon="4.41934">
        <ele>709.11</ele>
        <time>2020-07-12T14:39:11Z</time>
      </trkpt>
      <trkpt lat="46.03024" lon="4.41941">
        <ele>709.11</ele>
        <time>2020-07-12T14:39:21Z</time>
      </trkpt>
      <trkpt lat="46.03018" lon="4.41944">
        <ele>710.55</ele>
        <time>2020-07-12T14:39:29Z</time>
      </trkpt>
      <trkpt lat="46.03013" lon="4.41946">
        <ele>710.55</ele>
        <time>2020-07-12T14:39:34Z</time>
      </trkpt>
      <trkpt lat="46.03011" lon="4.41948">
        <ele>710.55</ele>
        <time>2020-07-12T14:39:37Z</time>
      </trkpt>
      <trkpt lat="46.03007" lon="4.4195">
        <ele>711.51</ele>
        <time>2020-07-12T14:39:41Z</time>
      </trkpt>
      <trkpt lat="46.02995" lon="4.4196">
        <ele>712.47</ele>
        <time>2020-07-12T14:39:55Z</time>
      </trkpt>
      <trkpt lat="46.02991" lon="4.41963">
        <ele>712.47</ele>
        <time>2020-07-12T14:40:00Z</time>
      </trkpt>
      <trkpt lat="46.02989" lon="4.41965">
        <ele>712.47</ele>
        <time>2020-07-12T14:40:02Z</time>
      </trkpt>
      <trkpt lat="46.02976" lon="4.41979">
        <ele>712.95</ele>
        <time>2020-07-12T14:40:18Z</time>
      </trkpt>
      <trkpt lat="46.02966" lon="4.4199">
        <ele>712.95</ele>
        <time>2020-07-12T14:40:31Z</time>
      </trkpt>
      <trkpt lat="46.02964" lon="4.41992">
        <ele>712.95</ele>
        <time>2020-07-12T14:40:33Z</time>
      </trkpt>
      <trkpt lat="46.02953" lon="4.42007">
        <ele>712.95</ele>
        <time>2020-07-12T14:40:46Z</time>
      </trkpt>
      <trkpt lat="46.02944" lon="4.42024">
        <ele>712.95</ele>
        <time>2020-07-12T14:41:00Z</time>
      </trkpt>
      <trkpt lat="46.02928" lon="4.42041">
        <ele>712.95</ele>
        <time>2020-07-12T14:41:18Z</time>
      </trkpt>
      <trkpt lat="46.02927" lon="4.42042">
        <ele>712.95</ele>
        <time>2020-07-12T14:41:19Z</time>
      </trkpt>
      <trkpt lat="46.02922" lon="4.42045">
        <ele>712.95</ele>
        <time>2020-07-12T14:41:25Z</time>
      </trkpt>
      <trkpt lat="46.02904" lon="4.42063">
        <ele>712.95</ele>
        <time>2020-07-12T14:41:44Z</time>
      </trkpt>
      <trkpt lat="46.0289" lon="4.4208">
        <ele>712.95</ele>
        <time>2020-07-12T14:42:01Z</time>
      </trkpt>
      <trkpt lat="46.02871" lon="4.42088">
        <ele>712.95</ele>
        <time>2020-07-12T14:42:17Z</time>
      </trkpt>
      <trkpt lat="46.02853" lon="4.421">
        <ele>712.95</ele>
        <time>2020-07-12T14:42:34Z</time>
      </trkpt>
      <trkpt lat="46.0284" lon="4.42111">
        <ele>713.44</ele>
        <time>2020-07-12T14:42:47Z</time>
      </trkpt>
      <trkpt lat="46.02824" lon="4.4212">
        <ele>714.4</ele>
        <time>2020-07-12T14:43:01Z</time>
      </trkpt>
      <trkpt lat="46.0281" lon="4.42131">
        <ele>714.4</ele>
        <time>2020-07-12T14:43:16Z</time>
      </trkpt>
      <trkpt lat="46.02808" lon="4.42133">
        <ele>714.4</ele>
        <time>2020-07-12T14:43:18Z</time>
      </trkpt>
      <trkpt lat="46.02807" lon="4.42135">
        <ele>715.84</ele>
        <time>2020-07-12T14:43:20Z</time>
      </trkpt>
      <trkpt lat="46.02795" lon="4.42148">
        <ele>716.32</ele>
        <time>2020-07-12T14:43:33Z</time>
      </trkpt>
      <trkpt lat="46.02785" lon="4.42164">
        <ele>717.76</ele>
        <time>2020-07-12T14:43:47Z</time>
      </trkpt>
      <trkpt lat="46.02775" lon="4.42182">
        <ele>718.24</ele>
        <time>2020-07-12T14:44:02Z</time>
      </trkpt>
      <trkpt lat="46.02774" lon="4.42185">
        <ele>718.72</ele>
        <time>2020-07-12T14:44:05Z</time>
      </trkpt>
      <trkpt lat="46.02763" lon="4.42203">
        <ele>719.2</ele>
        <time>2020-07-12T14:44:20Z</time>
      </trkpt>
      <trkpt lat="46.02754" lon="4.42222">
        <ele>719.68</ele>
        <time>2020-07-12T14:44:34Z</time>
      </trkpt>
      <trkpt lat="46.0275" lon="4.42229">
        <ele>719.68</ele>
        <time>2020-07-12T14:44:40Z</time>
      </trkpt>
      <trkpt lat="46.02746" lon="4.42235">
        <ele>718.24</ele>
        <time>2020-07-12T14:44:45Z</time>
      </trkpt>
      <trkpt lat="46.02735" lon="4.42252">
        <ele>720.16</ele>
        <time>2020-07-12T14:44:59Z</time>
      </trkpt>
      <trkpt lat="46.02727" lon="4.42267">
        <ele>720.16</ele>
        <time>2020-07-12T14:45:11Z</time>
      </trkpt>
      <trkpt lat="46.0272" lon="4.42283">
        <ele>720.65</ele>
        <time>2020-07-12T14:45:24Z</time>
      </trkpt>
      <trkpt lat="46.02719" lon="4.42285">
        <ele>720.65</ele>
        <time>2020-07-12T14:45:26Z</time>
      </trkpt>
      <trkpt lat="46.0271" lon="4.42293">
        <ele>721.13</ele>
        <time>2020-07-12T14:45:39Z</time>
      </trkpt>
      <trkpt lat="46.0269" lon="4.42282">
        <ele>721.13</ele>
        <time>2020-07-12T14:45:57Z</time>
      </trkpt>
      <trkpt lat="46.0268" lon="4.42276">
        <ele>721.13</ele>
        <time>2020-07-12T14:46:15Z</time>
      </trkpt>
      <trkpt lat="46.02679" lon="4.42271">
        <ele>720.16</ele>
        <time>2020-07-12T14:46:47Z</time>
      </trkpt>
      <trkpt lat="46.0268" lon="4.42265">
        <ele>720.16</ele>
        <time>2020-07-12T14:47:19Z</time>
      </trkpt>
      <trkpt lat="46.02676" lon="4.42268">
        <ele>720.16</ele>
        <time>2020-07-12T14:47:49Z</time>
      </trkpt>
      <trkpt lat="46.02663" lon="4.42261">
        <ele>720.16</ele>
        <time>2020-07-12T14:48:05Z</time>
      </trkpt>
      <trkpt lat="46.02652" lon="4.42249">
        <ele>720.16</ele>
        <time>2020-07-12T14:48:17Z</time>
      </trkpt>
      <trkpt lat="46.02631" lon="4.4223">
        <ele>720.16</ele>
        <time>2020-07-12T14:48:33Z</time>
      </trkpt>
      <trkpt lat="46.02621" lon="4.42212">
        <ele>720.16</ele>
        <time>2020-07-12T14:48:47Z</time>
      </trkpt>
      <trkpt lat="46.02612" lon="4.42195">
        <ele>721.13</ele>
        <time>2020-07-12T14:49:01Z</time>
      </trkpt>
      <trkpt lat="46.02599" lon="4.42179">
        <ele>721.13</ele>
        <time>2020-07-12T14:49:15Z</time>
      </trkpt>
      <trkpt lat="46.02585" lon="4.42165">
        <ele>721.13</ele>
        <time>2020-07-12T14:49:29Z</time>
      </trkpt>
      <trkpt lat="46.02575" lon="4.42148">
        <ele>721.13</ele>
        <time>2020-07-12T14:49:45Z</time>
      </trkpt>
      <trkpt lat="46.02562" lon="4.42133">
        <ele>721.13</ele>
        <time>2020-07-12T14:49:58Z</time>
      </trkpt>
      <trkpt lat="46.02552" lon="4.42122">
        <ele>720.16</ele>
        <time>2020-07-12T14:50:12Z</time>
      </trkpt>
      <trkpt lat="46.02549" lon="4.42119">
        <ele>720.16</ele>
        <time>2020-07-12T14:50:14Z</time>
      </trkpt>
      <trkpt lat="46.02536" lon="4.4211">
        <ele>720.16</ele>
        <time>2020-07-12T14:50:25Z</time>
      </trkpt>
      <trkpt lat="46.02519" lon="4.42098">
        <ele>720.16</ele>
        <time>2020-07-12T14:50:42Z</time>
      </trkpt>
      <trkpt lat="46.02502" lon="4.42086">
        <ele>720.16</ele>
        <time>2020-07-12T14:50:59Z</time>
      </trkpt>
      <trkpt lat="46.02494" lon="4.42073">
        <ele>721.61</ele>
        <time>2020-07-12T14:51:18Z</time>
      </trkpt>
      <trkpt lat="46.02494" lon="4.42073">
        <ele>721.61</ele>
        <time>2020-07-12T14:51:38Z</time>
      </trkpt>
      <trkpt lat="46.02492" lon="4.4207">
        <ele>722.57</ele>
        <time>2020-07-12T14:51:56Z</time>
      </trkpt>
      <trkpt lat="46.02492" lon="4.4207">
        <ele>722.57</ele>
        <time>2020-07-12T14:52:17Z</time>
      </trkpt>
      <trkpt lat="46.02493" lon="4.42071">
        <ele>722.57</ele>
        <time>2020-07-12T14:52:46Z</time>
      </trkpt>
      <trkpt lat="46.02488" lon="4.42064">
        <ele>722.57</ele>
        <time>2020-07-12T14:53:12Z</time>
      </trkpt>
      <trkpt lat="46.02491" lon="4.42063">
        <ele>722.57</ele>
        <time>2020-07-12T14:53:36Z</time>
      </trkpt>
      <trkpt lat="46.02492" lon="4.42068">
        <ele>722.57</ele>
        <time>2020-07-12T14:54:01Z</time>
      </trkpt>
      <trkpt lat="46.02489" lon="4.42069">
        <ele>722.57</ele>
        <time>2020-07-12T14:54:17Z</time>
      </trkpt>
      <trkpt lat="46.02477" lon="4.42062">
        <ele>723.05</ele>
        <time>2020-07-12T14:54:31Z</time>
      </trkpt>
      <trkpt lat="46.02471" lon="4.42061">
        <ele>723.53</ele>
        <time>2020-07-12T14:54:36Z</time>
      </trkpt>
      <trkpt lat="46.02453" lon="4.42049">
        <ele>724.49</ele>
        <time>2020-07-12T14:54:55Z</time>
      </trkpt>
      <trkpt lat="46.02441" lon="4.42032">
        <ele>724.97</ele>
        <time>2020-07-12T14:55:12Z</time>
      </trkpt>
      <trkpt lat="46.0243" lon="4.4201">
        <ele>724.97</ele>
        <time>2020-07-12T14:55:36Z</time>
      </trkpt>
      <trkpt lat="46.02413" lon="4.4199">
        <ele>724.97</ele>
        <time>2020-07-12T14:55:52Z</time>
      </trkpt>
      <trkpt lat="46.02398" lon="4.41971">
        <ele>725.93</ele>
        <time>2020-07-12T14:56:10Z</time>
      </trkpt>
      <trkpt lat="46.02387" lon="4.41959">
        <ele>726.89</ele>
        <time>2020-07-12T14:56:24Z</time>
      </trkpt>
      <trkpt lat="46.02376" lon="4.41942">
        <ele>726.89</ele>
        <time>2020-07-12T14:56:39Z</time>
      </trkpt>
      <trkpt lat="46.02365" lon="4.41934">
        <ele>727.86</ele>
        <time>2020-07-12T14:56:54Z</time>
      </trkpt>
      <trkpt lat="46.02351" lon="4.41918">
        <ele>728.34</ele>
        <time>2020-07-12T14:57:10Z</time>
      </trkpt>
      <trkpt lat="46.02334" lon="4.41904">
        <ele>728.82</ele>
        <time>2020-07-12T14:57:27Z</time>
      </trkpt>
      <trkpt lat="46.02319" lon="4.41893">
        <ele>729.78</ele>
        <time>2020-07-12T14:57:40Z</time>
      </trkpt>
      <trkpt lat="46.02299" lon="4.41885">
        <ele>730.26</ele>
        <time>2020-07-12T14:57:56Z</time>
      </trkpt>
      <trkpt lat="46.02288" lon="4.4188">
        <ele>730.74</ele>
        <time>2020-07-12T14:58:09Z</time>
      </trkpt>
      <trkpt lat="46.02275" lon="4.4187">
        <ele>730.74</ele>
        <time>2020-07-12T14:58:24Z</time>
      </trkpt>
      <trkpt lat="46.02269" lon="4.41862">
        <ele>730.74</ele>
        <time>2020-07-12T14:58:33Z</time>
      </trkpt>
      <trkpt lat="46.02266" lon="4.4186">
        <ele>729.3</ele>
        <time>2020-07-12T14:58:36Z</time>
      </trkpt>
      <trkpt lat="46.02266" lon="4.41859">
        <ele>729.3</ele>
        <time>2020-07-12T14:58:37Z</time>
      </trkpt>
      <trkpt lat="46.02256" lon="4.41846">
        <ele>727.86</ele>
        <time>2020-07-12T14:58:49Z</time>
      </trkpt>
      <trkpt lat="46.02245" lon="4.41828">
        <ele>726.41</ele>
        <time>2020-07-12T14:59:05Z</time>
      </trkpt>
      <trkpt lat="46.02229" lon="4.41819">
        <ele>726.41</ele>
        <time>2020-07-12T14:59:20Z</time>
      </trkpt>
      <trkpt lat="46.02215" lon="4.41811">
        <ele>725.93</ele>
        <time>2020-07-12T14:59:34Z</time>
      </trkpt>
      <trkpt lat="46.02207" lon="4.41806">
        <ele>725.45</ele>
        <time>2020-07-12T14:59:48Z</time>
      </trkpt>
      <trkpt lat="46.02199" lon="4.41803">
        <ele>724.49</ele>
        <time>2020-07-12T15:00:04Z</time>
      </trkpt>
      <trkpt lat="46.02196" lon="4.418">
        <ele>724.49</ele>
        <time>2020-07-12T15:00:18Z</time>
      </trkpt>
      <trkpt lat="46.02183" lon="4.41801">
        <ele>724.49</ele>
        <time>2020-07-12T15:00:35Z</time>
      </trkpt>
      <trkpt lat="46.02168" lon="4.418">
        <ele>724.49</ele>
        <time>2020-07-12T15:00:50Z</time>
      </trkpt>
      <trkpt lat="46.02166" lon="4.418">
        <ele>725.93</ele>
        <time>2020-07-12T15:00:52Z</time>
      </trkpt>
      <trkpt lat="46.02161" lon="4.418">
        <ele>725.93</ele>
        <time>2020-07-12T15:00:57Z</time>
      </trkpt>
      <trkpt lat="46.02147" lon="4.41799">
        <ele>726.41</ele>
        <time>2020-07-12T15:01:12Z</time>
      </trkpt>
      <trkpt lat="46.0213" lon="4.418">
        <ele>727.37</ele>
        <time>2020-07-12T15:01:28Z</time>
      </trkpt>
      <trkpt lat="46.0212" lon="4.41802">
        <ele>728.34</ele>
        <time>2020-07-12T15:01:40Z</time>
      </trkpt>
      <trkpt lat="46.02111" lon="4.41806">
        <ele>728.82</ele>
        <time>2020-07-12T15:01:51Z</time>
      </trkpt>
      <trkpt lat="46.02102" lon="4.41811">
        <ele>729.78</ele>
        <time>2020-07-12T15:02:04Z</time>
      </trkpt>
      <trkpt lat="46.02091" lon="4.41815">
        <ele>730.74</ele>
        <time>2020-07-12T15:02:17Z</time>
      </trkpt>
      <trkpt lat="46.02079" lon="4.41819">
        <ele>731.7</ele>
        <time>2020-07-12T15:02:30Z</time>
      </trkpt>
      <trkpt lat="46.02065" lon="4.41824">
        <ele>733.14</ele>
        <time>2020-07-12T15:02:43Z</time>
      </trkpt>
      <trkpt lat="46.02056" lon="4.41831">
        <ele>734.1</ele>
        <time>2020-07-12T15:02:55Z</time>
      </trkpt>
      <trkpt lat="46.02045" lon="4.41832">
        <ele>734.1</ele>
        <time>2020-07-12T15:03:10Z</time>
      </trkpt>
      <trkpt lat="46.02045" lon="4.41832">
        <ele>734.1</ele>
        <time>2020-07-12T15:03:11Z</time>
      </trkpt>
      <trkpt lat="46.02047" lon="4.41812">
        <ele>732.66</ele>
        <time>2020-07-12T15:03:25Z</time>
      </trkpt>
      <trkpt lat="46.02048" lon="4.41801">
        <ele>731.7</ele>
        <time>2020-07-12T15:03:33Z</time>
      </trkpt>
      <trkpt lat="46.02048" lon="4.41774">
        <ele>730.74</ele>
        <time>2020-07-12T15:03:49Z</time>
      </trkpt>
      <trkpt lat="46.02046" lon="4.41757">
        <ele>730.26</ele>
        <time>2020-07-12T15:04:00Z</time>
      </trkpt>
      <trkpt lat="46.02041" lon="4.41733">
        <ele>729.3</ele>
        <time>2020-07-12T15:04:16Z</time>
      </trkpt>
      <trkpt lat="46.02038" lon="4.41713">
        <ele>728.34</ele>
        <time>2020-07-12T15:04:30Z</time>
      </trkpt>
      <trkpt lat="46.02038" lon="4.41689">
        <ele>728.34</ele>
        <time>2020-07-12T15:04:44Z</time>
      </trkpt>
      <trkpt lat="46.02037" lon="4.41665">
        <ele>728.34</ele>
        <time>2020-07-12T15:04:57Z</time>
      </trkpt>
      <trkpt lat="46.02035" lon="4.4164">
        <ele>729.78</ele>
        <time>2020-07-12T15:05:13Z</time>
      </trkpt>
      <trkpt lat="46.02031" lon="4.41614">
        <ele>730.74</ele>
        <time>2020-07-12T15:05:29Z</time>
      </trkpt>
      <trkpt lat="46.02032" lon="4.41596">
        <ele>732.18</ele>
        <time>2020-07-12T15:05:40Z</time>
      </trkpt>
      <trkpt lat="46.02033" lon="4.41578">
        <ele>734.1</ele>
        <time>2020-07-12T15:05:56Z</time>
      </trkpt>
      <trkpt lat="46.02034" lon="4.41555">
        <ele>735.07</ele>
        <time>2020-07-12T15:06:12Z</time>
      </trkpt>
      <trkpt lat="46.02032" lon="4.41538">
        <ele>736.03</ele>
        <time>2020-07-12T15:06:25Z</time>
      </trkpt>
      <trkpt lat="46.02024" lon="4.41525">
        <ele>736.99</ele>
        <time>2020-07-12T15:06:39Z</time>
      </trkpt>
      <trkpt lat="46.02017" lon="4.41517">
        <ele>737.47</ele>
        <time>2020-07-12T15:06:49Z</time>
      </trkpt>
      <trkpt lat="46.02009" lon="4.41495">
        <ele>737.47</ele>
        <time>2020-07-12T15:07:03Z</time>
      </trkpt>
      <trkpt lat="46.02004" lon="4.41484">
        <ele>736.03</ele>
        <time>2020-07-12T15:07:10Z</time>
      </trkpt>
      <trkpt lat="46.02001" lon="4.41474">
        <ele>735.55</ele>
        <time>2020-07-12T15:07:17Z</time>
      </trkpt>
      <trkpt lat="46.01992" lon="4.41454">
        <ele>734.1</ele>
        <time>2020-07-12T15:07:32Z</time>
      </trkpt>
      <trkpt lat="46.01984" lon="4.41431">
        <ele>732.66</ele>
        <time>2020-07-12T15:07:48Z</time>
      </trkpt>
      <trkpt lat="46.01981" lon="4.41423">
        <ele>732.66</ele>
        <time>2020-07-12T15:07:53Z</time>
      </trkpt>
      <trkpt lat="46.01976" lon="4.41401">
        <ele>731.7</ele>
        <time>2020-07-12T15:08:07Z</time>
      </trkpt>
      <trkpt lat="46.01967" lon="4.41384">
        <ele>730.74</ele>
        <time>2020-07-12T15:08:22Z</time>
      </trkpt>
      <trkpt lat="46.01956" lon="4.41364">
        <ele>728.82</ele>
        <time>2020-07-12T15:08:38Z</time>
      </trkpt>
      <trkpt lat="46.01952" lon="4.41344">
        <ele>727.37</ele>
        <time>2020-07-12T15:08:53Z</time>
      </trkpt>
      <trkpt lat="46.01941" lon="4.41328">
        <ele>725.93</ele>
        <time>2020-07-12T15:09:06Z</time>
      </trkpt>
      <trkpt lat="46.01938" lon="4.41322">
        <ele>725.45</ele>
        <time>2020-07-12T15:09:12Z</time>
      </trkpt>
      <trkpt lat="46.01934" lon="4.41302">
        <ele>723.05</ele>
        <time>2020-07-12T15:09:27Z</time>
      </trkpt>
      <trkpt lat="46.01927" lon="4.41292">
        <ele>721.13</ele>
        <time>2020-07-12T15:09:41Z</time>
      </trkpt>
      <trkpt lat="46.01917" lon="4.41286">
        <ele>719.68</ele>
        <time>2020-07-12T15:09:55Z</time>
      </trkpt>
      <trkpt lat="46.01902" lon="4.41278">
        <ele>717.28</ele>
        <time>2020-07-12T15:10:13Z</time>
      </trkpt>
      <trkpt lat="46.01889" lon="4.4127">
        <ele>715.84</ele>
        <time>2020-07-12T15:10:27Z</time>
      </trkpt>
      <trkpt lat="46.01875" lon="4.41264">
        <ele>713.44</ele>
        <time>2020-07-12T15:10:43Z</time>
      </trkpt>
      <trkpt lat="46.01866" lon="4.41252">
        <ele>711.51</ele>
        <time>2020-07-12T15:10:56Z</time>
      </trkpt>
      <trkpt lat="46.01855" lon="4.41239">
        <ele>709.59</ele>
        <time>2020-07-12T15:11:09Z</time>
      </trkpt>
      <trkpt lat="46.01843" lon="4.4122">
        <ele>707.67</ele>
        <time>2020-07-12T15:11:25Z</time>
      </trkpt>
      <trkpt lat="46.0183" lon="4.41196">
        <ele>705.75</ele>
        <time>2020-07-12T15:11:42Z</time>
      </trkpt>
      <trkpt lat="46.01822" lon="4.41171">
        <ele>704.78</ele>
        <time>2020-07-12T15:11:54Z</time>
      </trkpt>
      <trkpt lat="46.01819" lon="4.41147">
        <ele>703.34</ele>
        <time>2020-07-12T15:12:08Z</time>
      </trkpt>
      <trkpt lat="46.01815" lon="4.41138">
        <ele>702.38</ele>
        <time>2020-07-12T15:12:17Z</time>
      </trkpt>
      <trkpt lat="46.01814" lon="4.41135">
        <ele>702.38</ele>
        <time>2020-07-12T15:12:19Z</time>
      </trkpt>
      <trkpt lat="46.01803" lon="4.41114">
        <ele>700.94</ele>
        <time>2020-07-12T15:12:35Z</time>
      </trkpt>
      <trkpt lat="46.01797" lon="4.41103">
        <ele>700.46</ele>
        <time>2020-07-12T15:12:43Z</time>
      </trkpt>
      <trkpt lat="46.01792" lon="4.41099">
        <ele>700.46</ele>
        <time>2020-07-12T15:12:47Z</time>
      </trkpt>
      <trkpt lat="46.01785" lon="4.41091">
        <ele>699.98</ele>
        <time>2020-07-12T15:12:53Z</time>
      </trkpt>
      <trkpt lat="46.01778" lon="4.41088">
        <ele>699.5</ele>
        <time>2020-07-12T15:13:00Z</time>
      </trkpt>
      <trkpt lat="46.01772" lon="4.41078">
        <ele>698.53</ele>
        <time>2020-07-12T15:13:14Z</time>
      </trkpt>
      <trkpt lat="46.01766" lon="4.41064">
        <ele>697.09</ele>
        <time>2020-07-12T15:13:26Z</time>
      </trkpt>
      <trkpt lat="46.0176" lon="4.41051">
        <ele>696.13</ele>
        <time>2020-07-12T15:13:37Z</time>
      </trkpt>
      <trkpt lat="46.0176" lon="4.41049">
        <ele>696.13</ele>
        <time>2020-07-12T15:13:38Z</time>
      </trkpt>
      <trkpt lat="46.01754" lon="4.41023">
        <ele>695.65</ele>
        <time>2020-07-12T15:13:53Z</time>
      </trkpt>
      <trkpt lat="46.01749" lon="4.4101">
        <ele>695.17</ele>
        <time>2020-07-12T15:14:02Z</time>
      </trkpt>
      <trkpt lat="46.01739" lon="4.40989">
        <ele>694.69</ele>
        <time>2020-07-12T15:14:18Z</time>
      </trkpt>
      <trkpt lat="46.01731" lon="4.40965">
        <ele>694.69</ele>
        <time>2020-07-12T15:14:32Z</time>
      </trkpt>
      <trkpt lat="46.01726" lon="4.40957">
        <ele>696.13</ele>
        <time>2020-07-12T15:14:38Z</time>
      </trkpt>
      <trkpt lat="46.01719" lon="4.40931">
        <ele>697.09</ele>
        <time>2020-07-12T15:14:54Z</time>
      </trkpt>
      <trkpt lat="46.01715" lon="4.40918">
        <ele>697.57</ele>
        <time>2020-07-12T15:15:04Z</time>
      </trkpt>
      <trkpt lat="46.01706" lon="4.409">
        <ele>698.05</ele>
        <time>2020-07-12T15:15:17Z</time>
      </trkpt>
      <trkpt lat="46.01699" lon="4.40894">
        <ele>698.05</ele>
        <time>2020-07-12T15:15:23Z</time>
      </trkpt>
      <trkpt lat="46.01694" lon="4.4088">
        <ele>699.02</ele>
        <time>2020-07-12T15:15:32Z</time>
      </trkpt>
      <trkpt lat="46.01692" lon="4.40873">
        <ele>699.5</ele>
        <time>2020-07-12T15:15:36Z</time>
      </trkpt>
      <trkpt lat="46.01685" lon="4.40853">
        <ele>699.5</ele>
        <time>2020-07-12T15:15:50Z</time>
      </trkpt>
      <trkpt lat="46.01684" lon="4.40846">
        <ele>699.98</ele>
        <time>2020-07-12T15:15:54Z</time>
      </trkpt>
      <trkpt lat="46.01678" lon="4.40819">
        <ele>700.46</ele>
        <time>2020-07-12T15:16:09Z</time>
      </trkpt>
      <trkpt lat="46.01672" lon="4.40794">
        <ele>700.94</ele>
        <time>2020-07-12T15:16:23Z</time>
      </trkpt>
      <trkpt lat="46.01668" lon="4.4078">
        <ele>700.46</ele>
        <time>2020-07-12T15:16:32Z</time>
      </trkpt>
      <trkpt lat="46.01655" lon="4.40751">
        <ele>700.94</ele>
        <time>2020-07-12T15:16:50Z</time>
      </trkpt>
      <trkpt lat="46.01648" lon="4.40741">
        <ele>699.5</ele>
        <time>2020-07-12T15:16:58Z</time>
      </trkpt>
      <trkpt lat="46.01636" lon="4.40724">
        <ele>698.53</ele>
        <time>2020-07-12T15:17:12Z</time>
      </trkpt>
      <trkpt lat="46.01627" lon="4.407">
        <ele>698.05</ele>
        <time>2020-07-12T15:17:26Z</time>
      </trkpt>
      <trkpt lat="46.01614" lon="4.40684">
        <ele>697.09</ele>
        <time>2020-07-12T15:17:43Z</time>
      </trkpt>
      <trkpt lat="46.01599" lon="4.4067">
        <ele>697.09</ele>
        <time>2020-07-12T15:17:59Z</time>
      </trkpt>
      <trkpt lat="46.01579" lon="4.4066">
        <ele>696.13</ele>
        <time>2020-07-12T15:18:15Z</time>
      </trkpt>
      <trkpt lat="46.01567" lon="4.4064">
        <ele>694.69</ele>
        <time>2020-07-12T15:18:31Z</time>
      </trkpt>
      <trkpt lat="46.01559" lon="4.40625">
        <ele>693.25</ele>
        <time>2020-07-12T15:18:43Z</time>
      </trkpt>
      <trkpt lat="46.01551" lon="4.40615">
        <ele>692.77</ele>
        <time>2020-07-12T15:18:53Z</time>
      </trkpt>
      <trkpt lat="46.01547" lon="4.40612">
        <ele>692.77</ele>
        <time>2020-07-12T15:18:57Z</time>
      </trkpt>
      <trkpt lat="46.01532" lon="4.40583">
        <ele>690.84</ele>
        <time>2020-07-12T15:19:15Z</time>
      </trkpt>
      <trkpt lat="46.01519" lon="4.40563">
        <ele>689.4</ele>
        <time>2020-07-12T15:19:31Z</time>
      </trkpt>
      <trkpt lat="46.01511" lon="4.40553">
        <ele>688.44</ele>
        <time>2020-07-12T15:19:41Z</time>
      </trkpt>
      <trkpt lat="46.01503" lon="4.40541">
        <ele>687</ele>
        <time>2020-07-12T15:19:53Z</time>
      </trkpt>
      <trkpt lat="46.01501" lon="4.40539">
        <ele>686.52</ele>
        <time>2020-07-12T15:19:55Z</time>
      </trkpt>
      <trkpt lat="46.01489" lon="4.4052">
        <ele>685.08</ele>
        <time>2020-07-12T15:20:13Z</time>
      </trkpt>
      <trkpt lat="46.01482" lon="4.40509">
        <ele>685.08</ele>
        <time>2020-07-12T15:20:21Z</time>
      </trkpt>
      <trkpt lat="46.0147" lon="4.40489">
        <ele>684.6</ele>
        <time>2020-07-12T15:20:36Z</time>
      </trkpt>
      <trkpt lat="46.01459" lon="4.40472">
        <ele>683.63</ele>
        <time>2020-07-12T15:20:52Z</time>
      </trkpt>
      <trkpt lat="46.01444" lon="4.40447">
        <ele>682.19</ele>
        <time>2020-07-12T15:21:09Z</time>
      </trkpt>
      <trkpt lat="46.01436" lon="4.40426">
        <ele>681.23</ele>
        <time>2020-07-12T15:21:22Z</time>
      </trkpt>
      <trkpt lat="46.01429" lon="4.40412">
        <ele>679.79</ele>
        <time>2020-07-12T15:21:35Z</time>
      </trkpt>
      <trkpt lat="46.01419" lon="4.40398">
        <ele>677.39</ele>
        <time>2020-07-12T15:21:47Z</time>
      </trkpt>
      <trkpt lat="46.01411" lon="4.40377">
        <ele>676.42</ele>
        <time>2020-07-12T15:22:00Z</time>
      </trkpt>
      <trkpt lat="46.01404" lon="4.40358">
        <ele>675.46</ele>
        <time>2020-07-12T15:22:13Z</time>
      </trkpt>
      <trkpt lat="46.01392" lon="4.40329">
        <ele>675.46</ele>
        <time>2020-07-12T15:22:30Z</time>
      </trkpt>
      <trkpt lat="46.01382" lon="4.40302">
        <ele>674.98</ele>
        <time>2020-07-12T15:22:45Z</time>
      </trkpt>
      <trkpt lat="46.01374" lon="4.40281">
        <ele>674.5</ele>
        <time>2020-07-12T15:22:59Z</time>
      </trkpt>
      <trkpt lat="46.01364" lon="4.4026">
        <ele>674.02</ele>
        <time>2020-07-12T15:23:13Z</time>
      </trkpt>
      <trkpt lat="46.0136" lon="4.4025">
        <ele>673.06</ele>
        <time>2020-07-12T15:23:20Z</time>
      </trkpt>
      <trkpt lat="46.01358" lon="4.40244">
        <ele>673.06</ele>
        <time>2020-07-12T15:23:24Z</time>
      </trkpt>
      <trkpt lat="46.01356" lon="4.40235">
        <ele>673.06</ele>
        <time>2020-07-12T15:23:30Z</time>
      </trkpt>
      <trkpt lat="46.01354" lon="4.40221">
        <ele>672.1</ele>
        <time>2020-07-12T15:23:39Z</time>
      </trkpt>
      <trkpt lat="46.01351" lon="4.40191">
        <ele>670.66</ele>
        <time>2020-07-12T15:23:55Z</time>
      </trkpt>
      <trkpt lat="46.01348" lon="4.40181">
        <ele>669.7</ele>
        <time>2020-07-12T15:24:02Z</time>
      </trkpt>
      <trkpt lat="46.01347" lon="4.40174">
        <ele>669.7</ele>
        <time>2020-07-12T15:24:06Z</time>
      </trkpt>
      <trkpt lat="46.01339" lon="4.40154">
        <ele>667.29</ele>
        <time>2020-07-12T15:24:20Z</time>
      </trkpt>
      <trkpt lat="46.01332" lon="4.40138">
        <ele>665.85</ele>
        <time>2020-07-12T15:24:33Z</time>
      </trkpt>
      <trkpt lat="46.01331" lon="4.40136">
        <ele>665.85</ele>
        <time>2020-07-12T15:24:34Z</time>
      </trkpt>
      <trkpt lat="46.01328" lon="4.40119">
        <ele>664.41</ele>
        <time>2020-07-12T15:24:46Z</time>
      </trkpt>
      <trkpt lat="46.01327" lon="4.40103">
        <ele>662.97</ele>
        <time>2020-07-12T15:24:56Z</time>
      </trkpt>
      <trkpt lat="46.01329" lon="4.40084">
        <ele>662.01</ele>
        <time>2020-07-12T15:25:09Z</time>
      </trkpt>
      <trkpt lat="46.01332" lon="4.40063">
        <ele>659.12</ele>
        <time>2020-07-12T15:25:24Z</time>
      </trkpt>
      <trkpt lat="46.01333" lon="4.40041">
        <ele>658.16</ele>
        <time>2020-07-12T15:25:38Z</time>
      </trkpt>
      <trkpt lat="46.01329" lon="4.40021">
        <ele>656.24</ele>
        <time>2020-07-12T15:25:52Z</time>
      </trkpt>
      <trkpt lat="46.01322" lon="4.40002">
        <ele>654.8</ele>
        <time>2020-07-12T15:26:06Z</time>
      </trkpt>
      <trkpt lat="46.01314" lon="4.39986">
        <ele>653.83</ele>
        <time>2020-07-12T15:26:20Z</time>
      </trkpt>
      <trkpt lat="46.01309" lon="4.3998">
        <ele>653.35</ele>
        <time>2020-07-12T15:26:30Z</time>
      </trkpt>
      <trkpt lat="46.01304" lon="4.39976">
        <ele>652.87</ele>
        <time>2020-07-12T15:26:36Z</time>
      </trkpt>
      <trkpt lat="46.01289" lon="4.39964">
        <ele>652.39</ele>
        <time>2020-07-12T15:26:51Z</time>
      </trkpt>
      <trkpt lat="46.01276" lon="4.39955">
        <ele>651.43</ele>
        <time>2020-07-12T15:27:05Z</time>
      </trkpt>
      <trkpt lat="46.01258" lon="4.39932">
        <ele>650.47</ele>
        <time>2020-07-12T15:27:23Z</time>
      </trkpt>
      <trkpt lat="46.01243" lon="4.39914">
        <ele>649.51</ele>
        <time>2020-07-12T15:27:40Z</time>
      </trkpt>
      <trkpt lat="46.01239" lon="4.39912">
        <ele>648.55</ele>
        <time>2020-07-12T15:27:44Z</time>
      </trkpt>
      <trkpt lat="46.01234" lon="4.39908">
        <ele>648.55</ele>
        <time>2020-07-12T15:27:48Z</time>
      </trkpt>
      <trkpt lat="46.01219" lon="4.39895">
        <ele>646.14</ele>
        <time>2020-07-12T15:28:04Z</time>
      </trkpt>
      <trkpt lat="46.01217" lon="4.39891">
        <ele>645.66</ele>
        <time>2020-07-12T15:28:08Z</time>
      </trkpt>
      <trkpt lat="46.0121" lon="4.39881">
        <ele>643.74</ele>
        <time>2020-07-12T15:28:18Z</time>
      </trkpt>
      <trkpt lat="46.01194" lon="4.39863">
        <ele>640.38</ele>
        <time>2020-07-12T15:28:36Z</time>
      </trkpt>
      <trkpt lat="46.01178" lon="4.3985">
        <ele>637.97</ele>
        <time>2020-07-12T15:28:52Z</time>
      </trkpt>
      <trkpt lat="46.01169" lon="4.39846">
        <ele>637.01</ele>
        <time>2020-07-12T15:29:02Z</time>
      </trkpt>
      <trkpt lat="46.01163" lon="4.39843">
        <ele>636.05</ele>
        <time>2020-07-12T15:29:07Z</time>
      </trkpt>
      <trkpt lat="46.01154" lon="4.39824">
        <ele>635.09</ele>
        <time>2020-07-12T15:29:21Z</time>
      </trkpt>
      <trkpt lat="46.01146" lon="4.39803">
        <ele>634.13</ele>
        <time>2020-07-12T15:29:36Z</time>
      </trkpt>
      <trkpt lat="46.01136" lon="4.39794">
        <ele>632.2</ele>
        <time>2020-07-12T15:29:47Z</time>
      </trkpt>
      <trkpt lat="46.01118" lon="4.39791">
        <ele>630.28</ele>
        <time>2020-07-12T15:30:04Z</time>
      </trkpt>
      <trkpt lat="46.01096" lon="4.39786">
        <ele>629.32</ele>
        <time>2020-07-12T15:30:21Z</time>
      </trkpt>
      <trkpt lat="46.01079" lon="4.3978">
        <ele>628.84</ele>
        <time>2020-07-12T15:30:37Z</time>
      </trkpt>
      <trkpt lat="46.01061" lon="4.39772">
        <ele>627.4</ele>
        <time>2020-07-12T15:30:53Z</time>
      </trkpt>
      <trkpt lat="46.01045" lon="4.39765">
        <ele>625.96</ele>
        <time>2020-07-12T15:31:08Z</time>
      </trkpt>
      <trkpt lat="46.0103" lon="4.39757">
        <ele>624.99</ele>
        <time>2020-07-12T15:31:23Z</time>
      </trkpt>
      <trkpt lat="46.01015" lon="4.39743">
        <ele>623.55</ele>
        <time>2020-07-12T15:31:39Z</time>
      </trkpt>
      <trkpt lat="46.01007" lon="4.39733">
        <ele>623.55</ele>
        <time>2020-07-12T15:31:48Z</time>
      </trkpt>
      <trkpt lat="46.00999" lon="4.39721">
        <ele>623.07</ele>
        <time>2020-07-12T15:32:03Z</time>
      </trkpt>
      <trkpt lat="46.01" lon="4.39714">
        <ele>623.07</ele>
        <time>2020-07-12T15:32:24Z</time>
      </trkpt>
      <trkpt lat="46.01001" lon="4.3972">
        <ele>623.07</ele>
        <time>2020-07-12T15:32:39Z</time>
      </trkpt>
      <trkpt lat="46.01" lon="4.3972">
        <ele>623.07</ele>
        <time>2020-07-12T15:32:59Z</time>
      </trkpt>
      <trkpt lat="46.01001" lon="4.39719">
        <ele>622.59</ele>
        <time>2020-07-12T15:33:18Z</time>
      </trkpt>
      <trkpt lat="46.00998" lon="4.39719">
        <ele>622.59</ele>
        <time>2020-07-12T15:33:39Z</time>
      </trkpt>
      <trkpt lat="46.00997" lon="4.39719">
        <ele>622.59</ele>
        <time>2020-07-12T15:34:01Z</time>
      </trkpt>
      <trkpt lat="46.00996" lon="4.39721">
        <ele>622.11</ele>
        <time>2020-07-12T15:34:31Z</time>
      </trkpt>
      <trkpt lat="46.00997" lon="4.39718">
        <ele>622.11</ele>
        <time>2020-07-12T15:34:57Z</time>
      </trkpt>
      <trkpt lat="46.00997" lon="4.39717">
        <ele>622.11</ele>
        <time>2020-07-12T15:35:27Z</time>
      </trkpt>
      <trkpt lat="46.00996" lon="4.39714">
        <ele>622.59</ele>
        <time>2020-07-12T15:35:59Z</time>
      </trkpt>
      <trkpt lat="46.00997" lon="4.39716">
        <ele>622.11</ele>
        <time>2020-07-12T15:36:22Z</time>
      </trkpt>
      <trkpt lat="46.00998" lon="4.39719">
        <ele>622.11</ele>
        <time>2020-07-12T15:36:46Z</time>
      </trkpt>
      <trkpt lat="46.00997" lon="4.39717">
        <ele>622.11</ele>
        <time>2020-07-12T15:37:10Z</time>
      </trkpt>
      <trkpt lat="46.00996" lon="4.39717">
        <ele>622.11</ele>
        <time>2020-07-12T15:37:39Z</time>
      </trkpt>
      <trkpt lat="46.00996" lon="4.39718">
        <ele>621.63</ele>
        <time>2020-07-12T15:38:07Z</time>
      </trkpt>
      <trkpt lat="46.01" lon="4.39716">
        <ele>621.63</ele>
        <time>2020-07-12T15:38:25Z</time>
      </trkpt>
      <trkpt lat="46.00998" lon="4.39719">
        <ele>621.63</ele>
        <time>2020-07-12T15:38:41Z</time>
      </trkpt>
      <trkpt lat="46.00995" lon="4.39711">
        <ele>621.63</ele>
        <time>2020-07-12T15:38:50Z</time>
      </trkpt>
      <trkpt lat="46.00988" lon="4.39705">
        <ele>621.63</ele>
        <time>2020-07-12T15:38:58Z</time>
      </trkpt>
      <trkpt lat="46.00973" lon="4.39687">
        <ele>620.19</ele>
        <time>2020-07-12T15:39:15Z</time>
      </trkpt>
      <trkpt lat="46.00965" lon="4.39676">
        <ele>619.23</ele>
        <time>2020-07-12T15:39:27Z</time>
      </trkpt>
      <trkpt lat="46.00956" lon="4.39666">
        <ele>618.75</ele>
        <time>2020-07-12T15:39:38Z</time>
      </trkpt>
      <trkpt lat="46.00945" lon="4.39648">
        <ele>618.26</ele>
        <time>2020-07-12T15:39:53Z</time>
      </trkpt>
      <trkpt lat="46.00934" lon="4.39631">
        <ele>617.78</ele>
        <time>2020-07-12T15:40:07Z</time>
      </trkpt>
      <trkpt lat="46.00925" lon="4.39613">
        <ele>616.82</ele>
        <time>2020-07-12T15:40:21Z</time>
      </trkpt>
      <trkpt lat="46.00915" lon="4.3959">
        <ele>615.86</ele>
        <time>2020-07-12T15:40:37Z</time>
      </trkpt>
      <trkpt lat="46.00908" lon="4.39569">
        <ele>615.38</ele>
        <time>2020-07-12T15:40:51Z</time>
      </trkpt>
      <trkpt lat="46.00902" lon="4.39548">
        <ele>614.9</ele>
        <time>2020-07-12T15:41:05Z</time>
      </trkpt>
      <trkpt lat="46.00897" lon="4.39526">
        <ele>613.94</ele>
        <time>2020-07-12T15:41:20Z</time>
      </trkpt>
      <trkpt lat="46.00893" lon="4.39503">
        <ele>613.46</ele>
        <time>2020-07-12T15:41:34Z</time>
      </trkpt>
      <trkpt lat="46.00889" lon="4.39477">
        <ele>613.46</ele>
        <time>2020-07-12T15:41:50Z</time>
      </trkpt>
      <trkpt lat="46.00883" lon="4.39445">
        <ele>614.42</ele>
        <time>2020-07-12T15:42:07Z</time>
      </trkpt>
      <trkpt lat="46.00882" lon="4.39445">
        <ele>614.42</ele>
        <time>2020-07-12T15:42:08Z</time>
      </trkpt>
      <trkpt lat="46.00881" lon="4.39437">
        <ele>613.94</ele>
        <time>2020-07-12T15:42:14Z</time>
      </trkpt>
      <trkpt lat="46.00877" lon="4.39425">
        <ele>612.98</ele>
        <time>2020-07-12T15:42:21Z</time>
      </trkpt>
      <trkpt lat="46.00874" lon="4.39417">
        <ele>612.98</ele>
        <time>2020-07-12T15:42:25Z</time>
      </trkpt>
      <trkpt lat="46.00864" lon="4.39392">
        <ele>612.5</ele>
        <time>2020-07-12T15:42:43Z</time>
      </trkpt>
      <trkpt lat="46.00857" lon="4.39372">
        <ele>611.54</ele>
        <time>2020-07-12T15:42:56Z</time>
      </trkpt>
      <trkpt lat="46.00849" lon="4.3935">
        <ele>610.09</ele>
        <time>2020-07-12T15:43:12Z</time>
      </trkpt>
      <trkpt lat="46.00841" lon="4.39328">
        <ele>607.69</ele>
        <time>2020-07-12T15:43:28Z</time>
      </trkpt>
      <trkpt lat="46.00834" lon="4.39307">
        <ele>606.73</ele>
        <time>2020-07-12T15:43:43Z</time>
      </trkpt>
      <trkpt lat="46.00826" lon="4.39283">
        <ele>605.29</ele>
        <time>2020-07-12T15:44:00Z</time>
      </trkpt>
      <trkpt lat="46.00825" lon="4.3928">
        <ele>605.29</ele>
        <time>2020-07-12T15:44:02Z</time>
      </trkpt>
      <trkpt lat="46.00819" lon="4.39269">
        <ele>604.33</ele>
        <time>2020-07-12T15:44:12Z</time>
      </trkpt>
      <trkpt lat="46.00813" lon="4.39248">
        <ele>603.85</ele>
        <time>2020-07-12T15:44:27Z</time>
      </trkpt>
      <trkpt lat="46.00809" lon="4.39235">
        <ele>603.36</ele>
        <time>2020-07-12T15:44:35Z</time>
      </trkpt>
      <trkpt lat="46.00805" lon="4.39227">
        <ele>602.4</ele>
        <time>2020-07-12T15:44:42Z</time>
      </trkpt>
      <trkpt lat="46.00799" lon="4.39207">
        <ele>600.48</ele>
        <time>2020-07-12T15:44:57Z</time>
      </trkpt>
      <trkpt lat="46.00794" lon="4.39178">
        <ele>598.08</ele>
        <time>2020-07-12T15:45:13Z</time>
      </trkpt>
      <trkpt lat="46.00785" lon="4.39162">
        <ele>596.64</ele>
        <time>2020-07-12T15:45:28Z</time>
      </trkpt>
      <trkpt lat="46.00779" lon="4.39143">
        <ele>594.71</ele>
        <time>2020-07-12T15:45:42Z</time>
      </trkpt>
      <trkpt lat="46.00771" lon="4.39123">
        <ele>593.27</ele>
        <time>2020-07-12T15:45:57Z</time>
      </trkpt>
      <trkpt lat="46.00764" lon="4.39107">
        <ele>590.87</ele>
        <time>2020-07-12T15:46:10Z</time>
      </trkpt>
      <trkpt lat="46.00753" lon="4.39082">
        <ele>588.95</ele>
        <time>2020-07-12T15:46:28Z</time>
      </trkpt>
      <trkpt lat="46.00748" lon="4.39069">
        <ele>588.46</ele>
        <time>2020-07-12T15:46:37Z</time>
      </trkpt>
      <trkpt lat="46.00739" lon="4.39046">
        <ele>587.5</ele>
        <time>2020-07-12T15:46:53Z</time>
      </trkpt>
      <trkpt lat="46.00737" lon="4.39042">
        <ele>586.54</ele>
        <time>2020-07-12T15:46:57Z</time>
      </trkpt>
      <trkpt lat="46.00725" lon="4.39021">
        <ele>584.14</ele>
        <time>2020-07-12T15:47:14Z</time>
      </trkpt>
      <trkpt lat="46.00717" lon="4.39005">
        <ele>582.7</ele>
        <time>2020-07-12T15:47:27Z</time>
      </trkpt>
      <trkpt lat="46.00713" lon="4.38999">
        <ele>582.22</ele>
        <time>2020-07-12T15:47:32Z</time>
      </trkpt>
      <trkpt lat="46.00702" lon="4.38978">
        <ele>580.29</ele>
        <time>2020-07-12T15:47:49Z</time>
      </trkpt>
      <trkpt lat="46.00694" lon="4.38964">
        <ele>579.33</ele>
        <time>2020-07-12T15:48:01Z</time>
      </trkpt>
      <trkpt lat="46.00684" lon="4.38946">
        <ele>577.41</ele>
        <time>2020-07-12T15:48:15Z</time>
      </trkpt>
      <trkpt lat="46.00674" lon="4.38927">
        <ele>576.45</ele>
        <time>2020-07-12T15:48:30Z</time>
      </trkpt>
      <trkpt lat="46.00667" lon="4.38914">
        <ele>575.01</ele>
        <time>2020-07-12T15:48:41Z</time>
      </trkpt>
      <trkpt lat="46.00659" lon="4.38898">
        <ele>573.56</ele>
        <time>2020-07-12T15:48:54Z</time>
      </trkpt>
      <trkpt lat="46.00652" lon="4.38877">
        <ele>572.12</ele>
        <time>2020-07-12T15:49:08Z</time>
      </trkpt>
      <trkpt lat="46.00641" lon="4.38857">
        <ele>571.16</ele>
        <time>2020-07-12T15:49:25Z</time>
      </trkpt>
      <trkpt lat="46.00631" lon="4.3885">
        <ele>570.68</ele>
        <time>2020-07-12T15:49:39Z</time>
      </trkpt>
      <trkpt lat="46.00616" lon="4.38842">
        <ele>569.72</ele>
        <time>2020-07-12T15:49:54Z</time>
      </trkpt>
      <trkpt lat="46.006" lon="4.38835">
        <ele>568.28</ele>
        <time>2020-07-12T15:50:11Z</time>
      </trkpt>
      <trkpt lat="46.00586" lon="4.38833">
        <ele>567.8</ele>
        <time>2020-07-12T15:50:24Z</time>
      </trkpt>
      <trkpt lat="46.00567" lon="4.38832">
        <ele>566.83</ele>
        <time>2020-07-12T15:50:41Z</time>
      </trkpt>
      <trkpt lat="46.0055" lon="4.38832">
        <ele>565.39</ele>
        <time>2020-07-12T15:50:56Z</time>
      </trkpt>
      <trkpt lat="46.00533" lon="4.38832">
        <ele>564.43</ele>
        <time>2020-07-12T15:51:11Z</time>
      </trkpt>
      <trkpt lat="46.00519" lon="4.38831">
        <ele>562.99</ele>
        <time>2020-07-12T15:51:25Z</time>
      </trkpt>
      <trkpt lat="46.00505" lon="4.38821">
        <ele>561.55</ele>
        <time>2020-07-12T15:51:39Z</time>
      </trkpt>
      <trkpt lat="46.00503" lon="4.38819">
        <ele>561.55</ele>
        <time>2020-07-12T15:51:43Z</time>
      </trkpt>
      <trkpt lat="46.00505" lon="4.38803">
        <ele>562.51</ele>
        <time>2020-07-12T15:51:55Z</time>
      </trkpt>
      <trkpt lat="46.00507" lon="4.38788">
        <ele>563.47</ele>
        <time>2020-07-12T15:52:06Z</time>
      </trkpt>
      <trkpt lat="46.00509" lon="4.38782">
        <ele>563.47</ele>
        <time>2020-07-12T15:52:11Z</time>
      </trkpt>
      <trkpt lat="46.00513" lon="4.3876">
        <ele>564.43</ele>
        <time>2020-07-12T15:52:26Z</time>
      </trkpt>
      <trkpt lat="46.00516" lon="4.38754">
        <ele>564.43</ele>
        <time>2020-07-12T15:52:31Z</time>
      </trkpt>
      <trkpt lat="46.00519" lon="4.38749">
        <ele>564.91</ele>
        <time>2020-07-12T15:52:36Z</time>
      </trkpt>
      <trkpt lat="46.00527" lon="4.38734">
        <ele>565.39</ele>
        <time>2020-07-12T15:52:50Z</time>
      </trkpt>
      <trkpt lat="46.00537" lon="4.38722">
        <ele>562.99</ele>
        <time>2020-07-12T15:53:05Z</time>
      </trkpt>
      <trkpt lat="46.00547" lon="4.38707">
        <ele>561.55</ele>
        <time>2020-07-12T15:53:21Z</time>
      </trkpt>
      <trkpt lat="46.0056" lon="4.38691">
        <ele>559.14</ele>
        <time>2020-07-12T15:53:38Z</time>
      </trkpt>
      <trkpt lat="46.00568" lon="4.38676">
        <ele>557.22</ele>
        <time>2020-07-12T15:53:53Z</time>
      </trkpt>
      <trkpt lat="46.00578" lon="4.3866">
        <ele>554.82</ele>
        <time>2020-07-12T15:54:08Z</time>
      </trkpt>
      <trkpt lat="46.00587" lon="4.38653">
        <ele>554.34</ele>
        <time>2020-07-12T15:54:18Z</time>
      </trkpt>
      <trkpt lat="46.0059" lon="4.38649">
        <ele>552.9</ele>
        <time>2020-07-12T15:54:23Z</time>
      </trkpt>
      <trkpt lat="46.00594" lon="4.38643">
        <ele>552.41</ele>
        <time>2020-07-12T15:54:28Z</time>
      </trkpt>
      <trkpt lat="46.00599" lon="4.38637">
        <ele>551.93</ele>
        <time>2020-07-12T15:54:35Z</time>
      </trkpt>
      <trkpt lat="46.00609" lon="4.38623">
        <ele>550.49</ele>
        <time>2020-07-12T15:54:50Z</time>
      </trkpt>
      <trkpt lat="46.00617" lon="4.38612">
        <ele>549.05</ele>
        <time>2020-07-12T15:55:03Z</time>
      </trkpt>
      <trkpt lat="46.00628" lon="4.38599">
        <ele>547.61</ele>
        <time>2020-07-12T15:55:17Z</time>
      </trkpt>
      <trkpt lat="46.00643" lon="4.38587">
        <ele>545.2</ele>
        <time>2020-07-12T15:55:34Z</time>
      </trkpt>
      <trkpt lat="46.00657" lon="4.38574">
        <ele>542.8</ele>
        <time>2020-07-12T15:55:50Z</time>
      </trkpt>
      <trkpt lat="46.00666" lon="4.38563">
        <ele>541.84</ele>
        <time>2020-07-12T15:56:03Z</time>
      </trkpt>
      <trkpt lat="46.00671" lon="4.38544">
        <ele>539.92</ele>
        <time>2020-07-12T15:56:18Z</time>
      </trkpt>
      <trkpt lat="46.00672" lon="4.38535">
        <ele>539.44</ele>
        <time>2020-07-12T15:56:24Z</time>
      </trkpt>
      <trkpt lat="46.00667" lon="4.38512">
        <ele>538.48</ele>
        <time>2020-07-12T15:56:40Z</time>
      </trkpt>
      <trkpt lat="46.00664" lon="4.38499">
        <ele>537.99</ele>
        <time>2020-07-12T15:56:50Z</time>
      </trkpt>
      <trkpt lat="46.00665" lon="4.38494">
        <ele>537.99</ele>
        <time>2020-07-12T15:56:54Z</time>
      </trkpt>
      <trkpt lat="46.00664" lon="4.38491">
        <ele>537.51</ele>
        <time>2020-07-12T15:56:56Z</time>
      </trkpt>
      <trkpt lat="46.00664" lon="4.38486">
        <ele>537.51</ele>
        <time>2020-07-12T15:56:59Z</time>
      </trkpt>
      <trkpt lat="46.00666" lon="4.38461">
        <ele>536.55</ele>
        <time>2020-07-12T15:57:15Z</time>
      </trkpt>
      <trkpt lat="46.00669" lon="4.38441">
        <ele>535.11</ele>
        <time>2020-07-12T15:57:28Z</time>
      </trkpt>
      <trkpt lat="46.00672" lon="4.38421">
        <ele>533.67</ele>
        <time>2020-07-12T15:57:42Z</time>
      </trkpt>
      <trkpt lat="46.00674" lon="4.38399">
        <ele>533.19</ele>
        <time>2020-07-12T15:57:57Z</time>
      </trkpt>
      <trkpt lat="46.00675" lon="4.38382">
        <ele>531.75</ele>
        <time>2020-07-12T15:58:09Z</time>
      </trkpt>
      <trkpt lat="46.00675" lon="4.38362">
        <ele>530.79</ele>
        <time>2020-07-12T15:58:23Z</time>
      </trkpt>
      <trkpt lat="46.00675" lon="4.38342">
        <ele>530.3</ele>
        <time>2020-07-12T15:58:36Z</time>
      </trkpt>
      <trkpt lat="46.00674" lon="4.38322">
        <ele>529.34</ele>
        <time>2020-07-12T15:58:50Z</time>
      </trkpt>
      <trkpt lat="46.00677" lon="4.38311">
        <ele>529.34</ele>
        <time>2020-07-12T15:59:02Z</time>
      </trkpt>
      <trkpt lat="46.00675" lon="4.38309">
        <ele>529.34</ele>
        <time>2020-07-12T15:59:21Z</time>
      </trkpt>
      <trkpt lat="46.00675" lon="4.38306">
        <ele>529.34</ele>
        <time>2020-07-12T15:59:49Z</time>
      </trkpt>
      <trkpt lat="46.00674" lon="4.38304">
        <ele>529.34</ele>
        <time>2020-07-12T16:00:05Z</time>
      </trkpt>
      <trkpt lat="46.00677" lon="4.38305">
        <ele>528.86</ele>
        <time>2020-07-12T16:00:35Z</time>
      </trkpt>
      <trkpt lat="46.00678" lon="4.38308">
        <ele>528.38</ele>
        <time>2020-07-12T16:00:57Z</time>
      </trkpt>
      <trkpt lat="46.00682" lon="4.3831">
        <ele>528.38</ele>
        <time>2020-07-12T16:01:12Z</time>
      </trkpt>
      <trkpt lat="46.00686" lon="4.38309">
        <ele>528.38</ele>
        <time>2020-07-12T16:01:22Z</time>
      </trkpt>
      <trkpt lat="46.0069" lon="4.38308">
        <ele>528.38</ele>
        <time>2020-07-12T16:01:26Z</time>
      </trkpt>
      <trkpt lat="46.00702" lon="4.38302">
        <ele>526.94</ele>
        <time>2020-07-12T16:01:40Z</time>
      </trkpt>
      <trkpt lat="46.00717" lon="4.38295">
        <ele>525.02</ele>
        <time>2020-07-12T16:01:56Z</time>
      </trkpt>
      <trkpt lat="46.00723" lon="4.38294">
        <ele>524.06</ele>
        <time>2020-07-12T16:02:03Z</time>
      </trkpt>
      <trkpt lat="46.00729" lon="4.38292">
        <ele>522.13</ele>
        <time>2020-07-12T16:02:09Z</time>
      </trkpt>
      <trkpt lat="46.00741" lon="4.38288">
        <ele>520.21</ele>
        <time>2020-07-12T16:02:24Z</time>
      </trkpt>
      <trkpt lat="46.00749" lon="4.38283">
        <ele>518.77</ele>
        <time>2020-07-12T16:02:35Z</time>
      </trkpt>
      <trkpt lat="46.00761" lon="4.38273">
        <ele>515.88</ele>
        <time>2020-07-12T16:02:50Z</time>
      </trkpt>
      <trkpt lat="46.00769" lon="4.38265">
        <ele>513.96</ele>
        <time>2020-07-12T16:03:02Z</time>
      </trkpt>
      <trkpt lat="46.0077" lon="4.38264">
        <ele>513</ele>
        <time>2020-07-12T16:03:04Z</time>
      </trkpt>
      <trkpt lat="46.00775" lon="4.38257">
        <ele>511.08</ele>
        <time>2020-07-12T16:03:13Z</time>
      </trkpt>
      <trkpt lat="46.00778" lon="4.38254">
        <ele>510.6</ele>
        <time>2020-07-12T16:03:17Z</time>
      </trkpt>
      <trkpt lat="46.0079" lon="4.38246">
        <ele>507.71</ele>
        <time>2020-07-12T16:03:31Z</time>
      </trkpt>
      <trkpt lat="46.00798" lon="4.38237">
        <ele>505.31</ele>
        <time>2020-07-12T16:03:44Z</time>
      </trkpt>
      <trkpt lat="46.00805" lon="4.38232">
        <ele>503.39</ele>
        <time>2020-07-12T16:03:53Z</time>
      </trkpt>
      <trkpt lat="46.00817" lon="4.38226">
        <ele>500.98</ele>
        <time>2020-07-12T16:04:08Z</time>
      </trkpt>
      <trkpt lat="46.00826" lon="4.38221">
        <ele>497.62</ele>
        <time>2020-07-12T16:04:20Z</time>
      </trkpt>
      <trkpt lat="46.00838" lon="4.38212">
        <ele>494.74</ele>
        <time>2020-07-12T16:04:35Z</time>
      </trkpt>
      <trkpt lat="46.00852" lon="4.38201">
        <ele>491.85</ele>
        <time>2020-07-12T16:04:51Z</time>
      </trkpt>
      <trkpt lat="46.00857" lon="4.38197">
        <ele>490.89</ele>
        <time>2020-07-12T16:04:57Z</time>
      </trkpt>
      <trkpt lat="46.0087" lon="4.38186">
        <ele>488.01</ele>
        <time>2020-07-12T16:05:12Z</time>
      </trkpt>
      <trkpt lat="46.00875" lon="4.38185">
        <ele>487.05</ele>
        <time>2020-07-12T16:05:18Z</time>
      </trkpt>
      <trkpt lat="46.0088" lon="4.38184">
        <ele>487.05</ele>
        <time>2020-07-12T16:05:22Z</time>
      </trkpt>
      <trkpt lat="46.00892" lon="4.38177">
        <ele>485.6</ele>
        <time>2020-07-12T16:05:33Z</time>
      </trkpt>
      <trkpt lat="46.00902" lon="4.38172">
        <ele>483.68</ele>
        <time>2020-07-12T16:05:44Z</time>
      </trkpt>
      <trkpt lat="46.00908" lon="4.38167">
        <ele>483.2</ele>
        <time>2020-07-12T16:05:50Z</time>
      </trkpt>
      <trkpt lat="46.0092" lon="4.38163">
        <ele>481.76</ele>
        <time>2020-07-12T16:06:03Z</time>
      </trkpt>
      <trkpt lat="46.00922" lon="4.3816">
        <ele>481.28</ele>
        <time>2020-07-12T16:06:07Z</time>
      </trkpt>
      <trkpt lat="46.00925" lon="4.38156">
        <ele>480.8</ele>
        <time>2020-07-12T16:06:11Z</time>
      </trkpt>
      <trkpt lat="46.00934" lon="4.38145">
        <ele>479.35</ele>
        <time>2020-07-12T16:06:24Z</time>
      </trkpt>
      <trkpt lat="46.00946" lon="4.38132">
        <ele>477.43</ele>
        <time>2020-07-12T16:06:39Z</time>
      </trkpt>
      <trkpt lat="46.00949" lon="4.38127">
        <ele>476.95</ele>
        <time>2020-07-12T16:06:44Z</time>
      </trkpt>
      <trkpt lat="46.00951" lon="4.38121">
        <ele>476.47</ele>
        <time>2020-07-12T16:06:51Z</time>
      </trkpt>
      <trkpt lat="46.00953" lon="4.38118">
        <ele>475.99</ele>
        <time>2020-07-12T16:06:54Z</time>
      </trkpt>
      <trkpt lat="46.00959" lon="4.38111">
        <ele>475.03</ele>
        <time>2020-07-12T16:07:03Z</time>
      </trkpt>
      <trkpt lat="46.00962" lon="4.38108">
        <ele>474.55</ele>
        <time>2020-07-12T16:07:08Z</time>
      </trkpt>
      <trkpt lat="46.00966" lon="4.38105">
        <ele>474.07</ele>
        <time>2020-07-12T16:07:12Z</time>
      </trkpt>
      <trkpt lat="46.00971" lon="4.38099">
        <ele>473.11</ele>
        <time>2020-07-12T16:07:20Z</time>
      </trkpt>
      <trkpt lat="46.00975" lon="4.38097">
        <ele>472.63</ele>
        <time>2020-07-12T16:07:25Z</time>
      </trkpt>
      <trkpt lat="46.00992" lon="4.38093">
        <ele>470.7</ele>
        <time>2020-07-12T16:07:43Z</time>
      </trkpt>
      <trkpt lat="46.00995" lon="4.38094">
        <ele>470.22</ele>
        <time>2020-07-12T16:07:46Z</time>
      </trkpt>
      <trkpt lat="46.01011" lon="4.38092">
        <ele>467.82</ele>
        <time>2020-07-12T16:08:02Z</time>
      </trkpt>
      <trkpt lat="46.01025" lon="4.381">
        <ele>466.38</ele>
        <time>2020-07-12T16:08:13Z</time>
      </trkpt>
      <trkpt lat="46.01035" lon="4.38109">
        <ele>465.42</ele>
        <time>2020-07-12T16:08:27Z</time>
      </trkpt>
      <trkpt lat="46.01039" lon="4.38097">
        <ele>463.97</ele>
        <time>2020-07-12T16:08:38Z</time>
      </trkpt>
      <trkpt lat="46.01044" lon="4.38087">
        <ele>463.01</ele>
        <time>2020-07-12T16:08:52Z</time>
      </trkpt>
      <trkpt lat="46.01042" lon="4.38085">
        <ele>463.01</ele>
        <time>2020-07-12T16:09:04Z</time>
      </trkpt>
      <trkpt lat="46.01037" lon="4.38081">
        <ele>463.01</ele>
        <time>2020-07-12T16:09:09Z</time>
      </trkpt>
      <trkpt lat="46.01028" lon="4.38073">
        <ele>462.53</ele>
        <time>2020-07-12T16:09:24Z</time>
      </trkpt>
      <trkpt lat="46.01019" lon="4.38066">
        <ele>462.05</ele>
        <time>2020-07-12T16:09:40Z</time>
      </trkpt>
      <trkpt lat="46.01019" lon="4.38059">
        <ele>462.05</ele>
        <time>2020-07-12T16:09:58Z</time>
      </trkpt>
      <trkpt lat="46.01013" lon="4.38057">
        <ele>462.05</ele>
        <time>2020-07-12T16:10:15Z</time>
      </trkpt>
      <trkpt lat="46.01001" lon="4.38048">
        <ele>461.57</ele>
        <time>2020-07-12T16:10:32Z</time>
      </trkpt>
      <trkpt lat="46.00985" lon="4.3803">
        <ele>461.09</ele>
        <time>2020-07-12T16:10:51Z</time>
      </trkpt>
      <trkpt lat="46.00969" lon="4.38021">
        <ele>461.09</ele>
        <time>2020-07-12T16:11:08Z</time>
      </trkpt>
      <trkpt lat="46.00957" lon="4.38007">
        <ele>460.61</ele>
        <time>2020-07-12T16:11:29Z</time>
      </trkpt>
      <trkpt lat="46.00941" lon="4.3799">
        <ele>460.61</ele>
        <time>2020-07-12T16:11:46Z</time>
      </trkpt>
      <trkpt lat="46.00928" lon="4.37972">
        <ele>460.13</ele>
        <time>2020-07-12T16:12:03Z</time>
      </trkpt>
      <trkpt lat="46.00918" lon="4.37956">
        <ele>459.17</ele>
        <time>2020-07-12T16:12:21Z</time>
      </trkpt>
      <trkpt lat="46.00916" lon="4.37937">
        <ele>459.17</ele>
        <time>2020-07-12T16:12:34Z</time>
      </trkpt>
      <trkpt lat="46.00922" lon="4.3793">
        <ele>458.69</ele>
        <time>2020-07-12T16:12:45Z</time>
      </trkpt>
      <trkpt lat="46.00917" lon="4.37913">
        <ele>456.28</ele>
        <time>2020-07-12T16:13:00Z</time>
      </trkpt>
      <trkpt lat="46.00917" lon="4.37898">
        <ele>455.32</ele>
        <time>2020-07-12T16:13:11Z</time>
      </trkpt>
      <trkpt lat="46.00925" lon="4.37886">
        <ele>454.36</ele>
        <time>2020-07-12T16:13:20Z</time>
      </trkpt>
      <trkpt lat="46.00942" lon="4.37876">
        <ele>454.36</ele>
        <time>2020-07-12T16:13:35Z</time>
      </trkpt>
      <trkpt lat="46.00955" lon="4.37872">
        <ele>453.88</ele>
        <time>2020-07-12T16:13:48Z</time>
      </trkpt>
      <trkpt lat="46.00959" lon="4.37866">
        <ele>455.32</ele>
        <time>2020-07-12T16:13:53Z</time>
      </trkpt>
      <trkpt lat="46.00961" lon="4.37863">
        <ele>455.32</ele>
        <time>2020-07-12T16:13:57Z</time>
      </trkpt>
      <trkpt lat="46.00964" lon="4.37853">
        <ele>453.88</ele>
        <time>2020-07-12T16:14:06Z</time>
      </trkpt>
      <trkpt lat="46.00982" lon="4.37864">
        <ele>453.88</ele>
        <time>2020-07-12T16:14:21Z</time>
      </trkpt>
      <trkpt lat="46.00985" lon="4.37866">
        <ele>453.88</ele>
        <time>2020-07-12T16:14:24Z</time>
      </trkpt>
      <trkpt lat="46.00992" lon="4.37868">
        <ele>453.88</ele>
        <time>2020-07-12T16:14:30Z</time>
      </trkpt>
      <trkpt lat="46.00997" lon="4.3787">
        <ele>453.88</ele>
        <time>2020-07-12T16:14:35Z</time>
      </trkpt>
      <trkpt lat="46.01007" lon="4.37868">
        <ele>453.88</ele>
        <time>2020-07-12T16:14:45Z</time>
      </trkpt>
      <trkpt lat="46.01026" lon="4.37863">
        <ele>453.4</ele>
        <time>2020-07-12T16:15:00Z</time>
      </trkpt>
      <trkpt lat="46.01044" lon="4.37857">
        <ele>452.92</ele>
        <time>2020-07-12T16:15:15Z</time>
      </trkpt>
      <trkpt lat="46.01059" lon="4.37838">
        <ele>452.92</ele>
        <time>2020-07-12T16:15:32Z</time>
      </trkpt>
      <trkpt lat="46.01077" lon="4.3783">
        <ele>452.92</ele>
        <time>2020-07-12T16:15:48Z</time>
      </trkpt>
      <trkpt lat="46.01089" lon="4.37832">
        <ele>452.92</ele>
        <time>2020-07-12T16:16:01Z</time>
      </trkpt>
      <trkpt lat="46.01095" lon="4.37831">
        <ele>452.92</ele>
        <time>2020-07-12T16:16:14Z</time>
      </trkpt>
      <trkpt lat="46.01097" lon="4.3783">
        <ele>452.92</ele>
        <time>2020-07-12T16:16:20Z</time>
      </trkpt>
      <trkpt lat="46.01111" lon="4.37824">
        <ele>452.92</ele>
        <time>2020-07-12T16:16:34Z</time>
      </trkpt>
      <trkpt lat="46.01128" lon="4.37822">
        <ele>452.92</ele>
        <time>2020-07-12T16:16:48Z</time>
      </trkpt>
      <trkpt lat="46.01136" lon="4.37815">
        <ele>453.88</ele>
        <time>2020-07-12T16:16:58Z</time>
      </trkpt>
      <trkpt lat="46.01143" lon="4.37799">
        <ele>453.88</ele>
        <time>2020-07-12T16:17:11Z</time>
      </trkpt>
      <trkpt lat="46.01144" lon="4.37793">
        <ele>453.88</ele>
        <time>2020-07-12T16:17:17Z</time>
      </trkpt>
      <trkpt lat="46.01146" lon="4.37785">
        <ele>453.88</ele>
        <time>2020-07-12T16:17:29Z</time>
      </trkpt>
      <trkpt lat="46.0115" lon="4.37788">
        <ele>453.88</ele>
        <time>2020-07-12T16:17:47Z</time>
      </trkpt>
      <trkpt lat="46.01151" lon="4.37786">
        <ele>453.88</ele>
        <time>2020-07-12T16:18:08Z</time>
      </trkpt>
      <trkpt lat="46.0115" lon="4.37783">
        <ele>453.88</ele>
        <time>2020-07-12T16:18:25Z</time>
      </trkpt>
      <trkpt lat="46.01152" lon="4.37785">
        <ele>453.88</ele>
        <time>2020-07-12T16:18:55Z</time>
      </trkpt>
      <trkpt lat="46.01152" lon="4.37782">
        <ele>453.4</ele>
        <time>2020-07-12T16:19:14Z</time>
      </trkpt>
      <trkpt lat="46.01151" lon="4.3778">
        <ele>453.88</ele>
        <time>2020-07-12T16:19:29Z</time>
      </trkpt>
      <trkpt lat="46.0115" lon="4.37779">
        <ele>453.88</ele>
        <time>2020-07-12T16:19:49Z</time>
      </trkpt>
      <trkpt lat="46.01151" lon="4.37776">
        <ele>453.88</ele>
        <time>2020-07-12T16:20:15Z</time>
      </trkpt>
      <trkpt lat="46.01148" lon="4.37779">
        <ele>453.4</ele>
        <time>2020-07-12T16:20:44Z</time>
      </trkpt>
      <trkpt lat="46.01149" lon="4.37774">
        <ele>453.4</ele>
        <time>2020-07-12T16:21:08Z</time>
      </trkpt>
      <trkpt lat="46.01145" lon="4.3777">
        <ele>453.4</ele>
        <time>2020-07-12T16:21:16Z</time>
      </trkpt>
      <trkpt lat="46.01135" lon="4.37761">
        <ele>453.4</ele>
        <time>2020-07-12T16:21:32Z</time>
      </trkpt>
      <trkpt lat="46.01129" lon="4.37757">
        <ele>451.96</ele>
        <time>2020-07-12T16:21:46Z</time>
      </trkpt>
      <trkpt lat="46.01128" lon="4.37756">
        <ele>451.96</ele>
        <time>2020-07-12T16:21:47Z</time>
      </trkpt>
      <trkpt lat="46.01122" lon="4.37746">
        <ele>451.48</ele>
        <time>2020-07-12T16:22:01Z</time>
      </trkpt>
      <trkpt lat="46.01113" lon="4.37739">
        <ele>451.48</ele>
        <time>2020-07-12T16:22:13Z</time>
      </trkpt>
      <trkpt lat="46.01101" lon="4.37728">
        <ele>451.48</ele>
        <time>2020-07-12T16:22:27Z</time>
      </trkpt>
      <trkpt lat="46.01096" lon="4.37706">
        <ele>452.44</ele>
        <time>2020-07-12T16:22:41Z</time>
      </trkpt>
      <trkpt lat="46.01095" lon="4.37695">
        <ele>453.88</ele>
        <time>2020-07-12T16:22:48Z</time>
      </trkpt>
      <trkpt lat="46.01095" lon="4.37682">
        <ele>454.36</ele>
        <time>2020-07-12T16:23:02Z</time>
      </trkpt>
      <trkpt lat="46.01096" lon="4.37673">
        <ele>454.36</ele>
        <time>2020-07-12T16:23:19Z</time>
      </trkpt>
      <trkpt lat="46.01098" lon="4.37673">
        <ele>454.36</ele>
        <time>2020-07-12T16:23:35Z</time>
      </trkpt>
      <trkpt lat="46.01096" lon="4.37675">
        <ele>453.88</ele>
        <time>2020-07-12T16:24:10Z</time>
      </trkpt>
      <trkpt lat="46.01098" lon="4.37676">
        <ele>453.88</ele>
        <time>2020-07-12T16:24:47Z</time>
      </trkpt>
      <trkpt lat="46.01093" lon="4.37673">
        <ele>453.88</ele>
        <time>2020-07-12T16:25:18Z</time>
      </trkpt>
      <trkpt lat="46.01099" lon="4.37676">
        <ele>453.4</ele>
        <time>2020-07-12T16:25:59Z</time>
      </trkpt>
      <trkpt lat="46.01096" lon="4.37671">
        <ele>453.4</ele>
        <time>2020-07-12T16:26:40Z</time>
      </trkpt>
      <trkpt lat="46.01098" lon="4.37672">
        <ele>453.4</ele>
        <time>2020-07-12T16:27:18Z</time>
      </trkpt>
      <trkpt lat="46.01096" lon="4.37674">
        <ele>453.88</ele>
        <time>2020-07-12T16:27:56Z</time>
      </trkpt>
      <trkpt lat="46.01098" lon="4.37675">
        <ele>452.92</ele>
        <time>2020-07-12T16:28:34Z</time>
      </trkpt>
      <trkpt lat="46.01099" lon="4.37675">
        <ele>453.4</ele>
        <time>2020-07-12T16:29:10Z</time>
      </trkpt>
      <trkpt lat="46.01099" lon="4.37675">
        <ele>453.4</ele>
        <time>2020-07-12T16:29:11Z</time>
      </trkpt>
      <trkpt lat="46.01098" lon="4.37676">
        <ele>453.4</ele>
        <time>2020-07-12T16:29:55Z</time>
      </trkpt>
      <trkpt lat="46.01096" lon="4.37674">
        <ele>453.4</ele>
        <time>2020-07-12T16:30:33Z</time>
      </trkpt>
      <trkpt lat="46.01096" lon="4.37678">
        <ele>452.92</ele>
        <time>2020-07-12T16:31:11Z</time>
      </trkpt>
      <trkpt lat="46.01097" lon="4.37672">
        <ele>452.92</ele>
        <time>2020-07-12T16:31:57Z</time>
      </trkpt>
      <trkpt lat="46.01096" lon="4.37674">
        <ele>452.92</ele>
        <time>2020-07-12T16:32:23Z</time>
      </trkpt>
      <trkpt lat="46.01099" lon="4.37672">
        <ele>452.44</ele>
        <time>2020-07-12T16:33:00Z</time>
      </trkpt>
      <trkpt lat="46.01097" lon="4.37671">
        <ele>452.44</ele>
        <time>2020-07-12T16:33:50Z</time>
      </trkpt>
      <trkpt lat="46.01093" lon="4.3767">
        <ele>452.44</ele>
        <time>2020-07-12T16:34:40Z</time>
      </trkpt>
      <trkpt lat="46.01094" lon="4.37675">
        <ele>451.96</ele>
        <time>2020-07-12T16:35:31Z</time>
      </trkpt>
      <trkpt lat="46.01098" lon="4.37674">
        <ele>451.96</ele>
        <time>2020-07-12T16:36:25Z</time>
      </trkpt>
      <trkpt lat="46.01096" lon="4.37676">
        <ele>451.96</ele>
        <time>2020-07-12T16:37:05Z</time>
      </trkpt>
      <trkpt lat="46.01095" lon="4.37672">
        <ele>453.4</ele>
        <time>2020-07-12T16:37:33Z</time>
      </trkpt>
      <trkpt lat="46.01097" lon="4.37674">
        <ele>452.92</ele>
        <time>2020-07-12T16:38:13Z</time>
      </trkpt>
      <trkpt lat="46.01097" lon="4.37673">
        <ele>451.96</ele>
        <time>2020-07-12T16:38:23Z</time>
      </trkpt>
      <trkpt lat="46.01098" lon="4.37673">
        <ele>452.92</ele>
        <time>2020-07-12T16:38:50Z</time>
      </trkpt>
      <trkpt lat="46.01096" lon="4.37674">
        <ele>452.92</ele>
        <time>2020-07-12T16:39:15Z</time>
      </trkpt>
      <trkpt lat="46.01095" lon="4.37674">
        <ele>452.44</ele>
        <time>2020-07-12T16:39:48Z</time>
      </trkpt>
      <trkpt lat="46.01097" lon="4.37673">
        <ele>452.44</ele>
        <time>2020-07-12T16:40:27Z</time>
      </trkpt>
      <trkpt lat="46.01096" lon="4.37674">
        <ele>452.44</ele>
        <time>2020-07-12T16:40:59Z</time>
      </trkpt>
      <trkpt lat="46.01096" lon="4.37669">
        <ele>452.44</ele>
        <time>2020-07-12T16:41:40Z</time>
      </trkpt>
      <trkpt lat="46.01098" lon="4.37671">
        <ele>451.96</ele>
        <time>2020-07-12T16:42:16Z</time>
      </trkpt>
      <trkpt lat="46.01098" lon="4.37672">
        <ele>452.44</ele>
        <time>2020-07-12T16:42:45Z</time>
      </trkpt>
      <trkpt lat="46.01102" lon="4.37673">
        <ele>452.44</ele>
        <time>2020-07-12T16:43:05Z</time>
      </trkpt>
      <trkpt lat="46.01103" lon="4.37675">
        <ele>452.44</ele>
        <time>2020-07-12T16:43:26Z</time>
      </trkpt>
      <trkpt lat="46.01101" lon="4.37674">
        <ele>452.44</ele>
        <time>2020-07-12T16:43:43Z</time>
      </trkpt>
      <trkpt lat="46.01094" lon="4.37678">
        <ele>452.44</ele>
        <time>2020-07-12T16:43:57Z</time>
      </trkpt>
      <trkpt lat="46.01089" lon="4.37679">
        <ele>451</ele>
        <time>2020-07-12T16:44:12Z</time>
      </trkpt>
      <trkpt lat="46.01082" lon="4.3768">
        <ele>451</ele>
        <time>2020-07-12T16:44:22Z</time>
      </trkpt>
      <trkpt lat="46.01081" lon="4.37678">
        <ele>451</ele>
        <time>2020-07-12T16:44:24Z</time>
      </trkpt>
      <trkpt lat="46.01076" lon="4.37675">
        <ele>451</ele>
        <time>2020-07-12T16:44:29Z</time>
      </trkpt>
      <trkpt lat="46.01074" lon="4.37673">
        <ele>451</ele>
        <time>2020-07-12T16:44:32Z</time>
      </trkpt>
      <trkpt lat="46.01065" lon="4.37666">
        <ele>451</ele>
        <time>2020-07-12T16:44:43Z</time>
      </trkpt>
      <trkpt lat="46.01058" lon="4.37655">
        <ele>451</ele>
        <time>2020-07-12T16:44:55Z</time>
      </trkpt>
      <trkpt lat="46.01051" lon="4.37648">
        <ele>451</ele>
        <time>2020-07-12T16:45:06Z</time>
      </trkpt>
      <trkpt lat="46.01044" lon="4.37636">
        <ele>451</ele>
        <time>2020-07-12T16:45:18Z</time>
      </trkpt>
      <trkpt lat="46.01033" lon="4.37623">
        <ele>451</ele>
        <time>2020-07-12T16:45:31Z</time>
      </trkpt>
      <trkpt lat="46.01028" lon="4.37611">
        <ele>451</ele>
        <time>2020-07-12T16:45:44Z</time>
      </trkpt>
      <trkpt lat="46.01022" lon="4.37601">
        <ele>451</ele>
        <time>2020-07-12T16:46:02Z</time>
      </trkpt>
      <trkpt lat="46.01017" lon="4.37586">
        <ele>451</ele>
        <time>2020-07-12T16:46:14Z</time>
      </trkpt>
      <trkpt lat="46.01014" lon="4.37579">
        <ele>451</ele>
        <time>2020-07-12T16:46:20Z</time>
      </trkpt>
      <trkpt lat="46.01006" lon="4.3756">
        <ele>451</ele>
        <time>2020-07-12T16:46:34Z</time>
      </trkpt>
      <trkpt lat="46.01001" lon="4.37551">
        <ele>451</ele>
        <time>2020-07-12T16:46:41Z</time>
      </trkpt>
      <trkpt lat="46.00995" lon="4.37535">
        <ele>451</ele>
        <time>2020-07-12T16:46:54Z</time>
      </trkpt>
      <trkpt lat="46.00987" lon="4.37522">
        <ele>451</ele>
        <time>2020-07-12T16:47:06Z</time>
      </trkpt>
      <trkpt lat="46.00978" lon="4.37504">
        <ele>451</ele>
        <time>2020-07-12T16:47:20Z</time>
      </trkpt>
      <trkpt lat="46.0097" lon="4.37487">
        <ele>451</ele>
        <time>2020-07-12T16:47:34Z</time>
      </trkpt>
      <trkpt lat="46.00959" lon="4.37472">
        <ele>451</ele>
        <time>2020-07-12T16:47:48Z</time>
      </trkpt>
      <trkpt lat="46.00947" lon="4.3745">
        <ele>451</ele>
        <time>2020-07-12T16:48:04Z</time>
      </trkpt>
      <trkpt lat="46.00945" lon="4.37446">
        <ele>451</ele>
        <time>2020-07-12T16:48:06Z</time>
      </trkpt>
      <trkpt lat="46.00932" lon="4.37432">
        <ele>451</ele>
        <time>2020-07-12T16:48:21Z</time>
      </trkpt>
      <trkpt lat="46.0092" lon="4.37417">
        <ele>451.48</ele>
        <time>2020-07-12T16:48:35Z</time>
      </trkpt>
      <trkpt lat="46.00906" lon="4.37398">
        <ele>451.48</ele>
        <time>2020-07-12T16:48:50Z</time>
      </trkpt>
      <trkpt lat="46.00898" lon="4.37377">
        <ele>451.48</ele>
        <time>2020-07-12T16:49:04Z</time>
      </trkpt>
      <trkpt lat="46.00893" lon="4.37354">
        <ele>451.48</ele>
        <time>2020-07-12T16:49:18Z</time>
      </trkpt>
      <trkpt lat="46.00892" lon="4.37329">
        <ele>451.48</ele>
        <time>2020-07-12T16:49:32Z</time>
      </trkpt>
      <trkpt lat="46.00891" lon="4.37303">
        <ele>451.48</ele>
        <time>2020-07-12T16:49:47Z</time>
      </trkpt>
      <trkpt lat="46.00887" lon="4.37278">
        <ele>451.48</ele>
        <time>2020-07-12T16:50:03Z</time>
      </trkpt>
      <trkpt lat="46.00879" lon="4.37255">
        <ele>451.48</ele>
        <time>2020-07-12T16:50:19Z</time>
      </trkpt>
      <trkpt lat="46.00869" lon="4.37238">
        <ele>451.48</ele>
        <time>2020-07-12T16:50:33Z</time>
      </trkpt>
      <trkpt lat="46.00863" lon="4.37226">
        <ele>451.48</ele>
        <time>2020-07-12T16:50:42Z</time>
      </trkpt>
      <trkpt lat="46.00843" lon="4.37211">
        <ele>451.48</ele>
        <time>2020-07-12T16:51:01Z</time>
      </trkpt>
      <trkpt lat="46.00826" lon="4.37196">
        <ele>451.48</ele>
        <time>2020-07-12T16:51:17Z</time>
      </trkpt>
      <trkpt lat="46.00813" lon="4.37176">
        <ele>452.44</ele>
        <time>2020-07-12T16:51:32Z</time>
      </trkpt>
      <trkpt lat="46.00803" lon="4.37155">
        <ele>452.44</ele>
        <time>2020-07-12T16:51:47Z</time>
      </trkpt>
      <trkpt lat="46.00794" lon="4.37135">
        <ele>452.44</ele>
        <time>2020-07-12T16:52:01Z</time>
      </trkpt>
      <trkpt lat="46.00797" lon="4.37103">
        <ele>452.44</ele>
        <time>2020-07-12T16:52:17Z</time>
      </trkpt>
      <trkpt lat="46.00809" lon="4.37077">
        <ele>452.92</ele>
        <time>2020-07-12T16:52:33Z</time>
      </trkpt>
      <trkpt lat="46.00819" lon="4.37058">
        <ele>451.48</ele>
        <time>2020-07-12T16:52:48Z</time>
      </trkpt>
      <trkpt lat="46.0083" lon="4.37041">
        <ele>451.48</ele>
        <time>2020-07-12T16:53:02Z</time>
      </trkpt>
      <trkpt lat="46.00834" lon="4.37014">
        <ele>451.48</ele>
        <time>2020-07-12T16:53:17Z</time>
      </trkpt>
      <trkpt lat="46.00832" lon="4.37008">
        <ele>451.48</ele>
        <time>2020-07-12T16:53:23Z</time>
      </trkpt>
      <trkpt lat="46.00822" lon="4.36979">
        <ele>451</ele>
        <time>2020-07-12T16:53:40Z</time>
      </trkpt>
      <trkpt lat="46.00819" lon="4.36976">
        <ele>451</ele>
        <time>2020-07-12T16:53:44Z</time>
      </trkpt>
      <trkpt lat="46.00808" lon="4.3697">
        <ele>451</ele>
        <time>2020-07-12T16:53:52Z</time>
      </trkpt>
      <trkpt lat="46.00797" lon="4.36961">
        <ele>451</ele>
        <time>2020-07-12T16:54:01Z</time>
      </trkpt>
      <trkpt lat="46.00784" lon="4.36942">
        <ele>451</ele>
        <time>2020-07-12T16:54:17Z</time>
      </trkpt>
      <trkpt lat="46.00774" lon="4.36922">
        <ele>451</ele>
        <time>2020-07-12T16:54:32Z</time>
      </trkpt>
      <trkpt lat="46.00762" lon="4.369">
        <ele>452.44</ele>
        <time>2020-07-12T16:54:47Z</time>
      </trkpt>
      <trkpt lat="46.00753" lon="4.36872">
        <ele>452.44</ele>
        <time>2020-07-12T16:55:05Z</time>
      </trkpt>
      <trkpt lat="46.00753" lon="4.36868">
        <ele>452.44</ele>
        <time>2020-07-12T16:55:07Z</time>
      </trkpt>
      <trkpt lat="46.00754" lon="4.36851">
        <ele>452.44</ele>
        <time>2020-07-12T16:55:15Z</time>
      </trkpt>
      <trkpt lat="46.00756" lon="4.36844">
        <ele>452.44</ele>
        <time>2020-07-12T16:55:19Z</time>
      </trkpt>
      <trkpt lat="46.00763" lon="4.36812">
        <ele>452.44</ele>
        <time>2020-07-12T16:55:36Z</time>
      </trkpt>
      <trkpt lat="46.00779" lon="4.36783">
        <ele>452.44</ele>
        <time>2020-07-12T16:55:55Z</time>
      </trkpt>
      <trkpt lat="46.00795" lon="4.36759">
        <ele>452.44</ele>
        <time>2020-07-12T16:56:12Z</time>
      </trkpt>
      <trkpt lat="46.00798" lon="4.36744">
        <ele>452.44</ele>
        <time>2020-07-12T16:56:24Z</time>
      </trkpt>
      <trkpt lat="46.00798" lon="4.36739">
        <ele>451</ele>
        <time>2020-07-12T16:56:27Z</time>
      </trkpt>
      <trkpt lat="46.00798" lon="4.36712">
        <ele>451</ele>
        <time>2020-07-12T16:56:42Z</time>
      </trkpt>
      <trkpt lat="46.00794" lon="4.36701">
        <ele>451.48</ele>
        <time>2020-07-12T16:56:52Z</time>
      </trkpt>
      <trkpt lat="46.00793" lon="4.36698">
        <ele>451.48</ele>
        <time>2020-07-12T16:56:54Z</time>
      </trkpt>
      <trkpt lat="46.00787" lon="4.36676">
        <ele>451.48</ele>
        <time>2020-07-12T16:57:07Z</time>
      </trkpt>
      <trkpt lat="46.00784" lon="4.36643">
        <ele>451.48</ele>
        <time>2020-07-12T16:57:25Z</time>
      </trkpt>
      <trkpt lat="46.00785" lon="4.36609">
        <ele>451.48</ele>
        <time>2020-07-12T16:57:42Z</time>
      </trkpt>
      <trkpt lat="46.00783" lon="4.36594">
        <ele>451.48</ele>
        <time>2020-07-12T16:57:50Z</time>
      </trkpt>
      <trkpt lat="46.00779" lon="4.36558">
        <ele>451.48</ele>
        <time>2020-07-12T16:58:08Z</time>
      </trkpt>
      <trkpt lat="46.00775" lon="4.36531">
        <ele>451.48</ele>
        <time>2020-07-12T16:58:23Z</time>
      </trkpt>
      <trkpt lat="46.00769" lon="4.36502">
        <ele>451.48</ele>
        <time>2020-07-12T16:58:39Z</time>
      </trkpt>
      <trkpt lat="46.00768" lon="4.36478">
        <ele>451.48</ele>
        <time>2020-07-12T16:58:52Z</time>
      </trkpt>
      <trkpt lat="46.00767" lon="4.36462">
        <ele>451.48</ele>
        <time>2020-07-12T16:59:00Z</time>
      </trkpt>
      <trkpt lat="46.00764" lon="4.36438">
        <ele>451.48</ele>
        <time>2020-07-12T16:59:15Z</time>
      </trkpt>
      <trkpt lat="46.0076" lon="4.36411">
        <ele>451.48</ele>
        <time>2020-07-12T16:59:28Z</time>
      </trkpt>
      <trkpt lat="46.00755" lon="4.36387">
        <ele>451.48</ele>
        <time>2020-07-12T16:59:43Z</time>
      </trkpt>
      <trkpt lat="46.00746" lon="4.36365">
        <ele>451.48</ele>
        <time>2020-07-12T16:59:59Z</time>
      </trkpt>
      <trkpt lat="46.00742" lon="4.36355">
        <ele>451.48</ele>
        <time>2020-07-12T17:00:06Z</time>
      </trkpt>
      <trkpt lat="46.00737" lon="4.36351">
        <ele>451.48</ele>
        <time>2020-07-12T17:00:11Z</time>
      </trkpt>
      <trkpt lat="46.00723" lon="4.36328">
        <ele>452.92</ele>
        <time>2020-07-12T17:00:28Z</time>
      </trkpt>
      <trkpt lat="46.0071" lon="4.36302">
        <ele>452.92</ele>
        <time>2020-07-12T17:00:44Z</time>
      </trkpt>
      <trkpt lat="46.00698" lon="4.36286">
        <ele>452.92</ele>
        <time>2020-07-12T17:00:59Z</time>
      </trkpt>
      <trkpt lat="46.0068" lon="4.36274">
        <ele>451.48</ele>
        <time>2020-07-12T17:01:12Z</time>
      </trkpt>
      <trkpt lat="46.0066" lon="4.36265">
        <ele>451.48</ele>
        <time>2020-07-12T17:01:28Z</time>
      </trkpt>
      <trkpt lat="46.00641" lon="4.36256">
        <ele>452.44</ele>
        <time>2020-07-12T17:01:44Z</time>
      </trkpt>
      <trkpt lat="46.00621" lon="4.36244">
        <ele>452.44</ele>
        <time>2020-07-12T17:01:59Z</time>
      </trkpt>
      <trkpt lat="46.00605" lon="4.36236">
        <ele>452.44</ele>
        <time>2020-07-12T17:02:16Z</time>
      </trkpt>
      <trkpt lat="46.00585" lon="4.36223">
        <ele>452.44</ele>
        <time>2020-07-12T17:02:31Z</time>
      </trkpt>
      <trkpt lat="46.00577" lon="4.3622">
        <ele>451.48</ele>
        <time>2020-07-12T17:02:38Z</time>
      </trkpt>
      <trkpt lat="46.00551" lon="4.36212">
        <ele>451.48</ele>
        <time>2020-07-12T17:02:55Z</time>
      </trkpt>
      <trkpt lat="46.0053" lon="4.36201">
        <ele>451.48</ele>
        <time>2020-07-12T17:03:15Z</time>
      </trkpt>
      <trkpt lat="46.00508" lon="4.36191">
        <ele>452.44</ele>
        <time>2020-07-12T17:03:30Z</time>
      </trkpt>
      <trkpt lat="46.00492" lon="4.36183">
        <ele>452.44</ele>
        <time>2020-07-12T17:03:47Z</time>
      </trkpt>
      <trkpt lat="46.0047" lon="4.3617">
        <ele>452.44</ele>
        <time>2020-07-12T17:04:04Z</time>
      </trkpt>
      <trkpt lat="46.00449" lon="4.36154">
        <ele>452.44</ele>
        <time>2020-07-12T17:04:21Z</time>
      </trkpt>
      <trkpt lat="46.00446" lon="4.36152">
        <ele>451</ele>
        <time>2020-07-12T17:04:23Z</time>
      </trkpt>
      <trkpt lat="46.00431" lon="4.36145">
        <ele>451.96</ele>
        <time>2020-07-12T17:04:37Z</time>
      </trkpt>
      <trkpt lat="46.00414" lon="4.36133">
        <ele>452.92</ele>
        <time>2020-07-12T17:04:51Z</time>
      </trkpt>
      <trkpt lat="46.00394" lon="4.36128">
        <ele>452.92</ele>
        <time>2020-07-12T17:05:08Z</time>
      </trkpt>
      <trkpt lat="46.00393" lon="4.3613">
        <ele>452.92</ele>
        <time>2020-07-12T17:05:10Z</time>
      </trkpt>
      <trkpt lat="46.0039" lon="4.36149">
        <ele>452.92</ele>
        <time>2020-07-12T17:05:20Z</time>
      </trkpt>
      <trkpt lat="46.00384" lon="4.36179">
        <ele>451.48</ele>
        <time>2020-07-12T17:05:40Z</time>
      </trkpt>
      <trkpt lat="46.00379" lon="4.36204">
        <ele>452.92</ele>
        <time>2020-07-12T17:05:52Z</time>
      </trkpt>
      <trkpt lat="46.00368" lon="4.36243">
        <ele>452.92</ele>
        <time>2020-07-12T17:06:12Z</time>
      </trkpt>
      <trkpt lat="46.00362" lon="4.36279">
        <ele>452.92</ele>
        <time>2020-07-12T17:06:30Z</time>
      </trkpt>
      <trkpt lat="46.00354" lon="4.36307">
        <ele>452.92</ele>
        <time>2020-07-12T17:06:46Z</time>
      </trkpt>
      <trkpt lat="46.0035" lon="4.36335">
        <ele>452.44</ele>
        <time>2020-07-12T17:07:05Z</time>
      </trkpt>
      <trkpt lat="46.00348" lon="4.36346">
        <ele>451.48</ele>
        <time>2020-07-12T17:07:11Z</time>
      </trkpt>
      <trkpt lat="46.0034" lon="4.36385">
        <ele>451.48</ele>
        <time>2020-07-12T17:07:31Z</time>
      </trkpt>
      <trkpt lat="46.00341" lon="4.36399">
        <ele>451.48</ele>
        <time>2020-07-12T17:07:42Z</time>
      </trkpt>
      <trkpt lat="46.00344" lon="4.36413">
        <ele>450.52</ele>
        <time>2020-07-12T17:07:49Z</time>
      </trkpt>
      <trkpt lat="46.00346" lon="4.36427">
        <ele>451.96</ele>
        <time>2020-07-12T17:07:56Z</time>
      </trkpt>
      <trkpt lat="46.00352" lon="4.36445">
        <ele>452.92</ele>
        <time>2020-07-12T17:08:09Z</time>
      </trkpt>
      <trkpt lat="46.00355" lon="4.36454">
        <ele>453.4</ele>
        <time>2020-07-12T17:08:14Z</time>
      </trkpt>
      <trkpt lat="46.00358" lon="4.36464">
        <ele>453.4</ele>
        <time>2020-07-12T17:08:19Z</time>
      </trkpt>
      <trkpt lat="46.00363" lon="4.36473">
        <ele>452.92</ele>
        <time>2020-07-12T17:08:24Z</time>
      </trkpt>
      <trkpt lat="46.00369" lon="4.36486">
        <ele>454.36</ele>
        <time>2020-07-12T17:08:36Z</time>
      </trkpt>
      <trkpt lat="46.0039" lon="4.36496">
        <ele>454.84</ele>
        <time>2020-07-12T17:08:54Z</time>
      </trkpt>
      <trkpt lat="46.00407" lon="4.36503">
        <ele>454.84</ele>
        <time>2020-07-12T17:09:07Z</time>
      </trkpt>
      <trkpt lat="46.00411" lon="4.3651">
        <ele>455.32</ele>
        <time>2020-07-12T17:09:12Z</time>
      </trkpt>
      <trkpt lat="46.00424" lon="4.36526">
        <ele>455.8</ele>
        <time>2020-07-12T17:09:27Z</time>
      </trkpt>
      <trkpt lat="46.00438" lon="4.36539">
        <ele>455.8</ele>
        <time>2020-07-12T17:09:43Z</time>
      </trkpt>
      <trkpt lat="46.00445" lon="4.36548">
        <ele>454.36</ele>
        <time>2020-07-12T17:09:53Z</time>
      </trkpt>
      <trkpt lat="46.00457" lon="4.36564">
        <ele>454.36</ele>
        <time>2020-07-12T17:10:08Z</time>
      </trkpt>
      <trkpt lat="46.00463" lon="4.36572">
        <ele>454.36</ele>
        <time>2020-07-12T17:10:14Z</time>
      </trkpt>
      <trkpt lat="46.00463" lon="4.36572">
        <ele>453.88</ele>
        <time>2020-07-12T17:10:26Z</time>
      </trkpt>
      <trkpt lat="46.00466" lon="4.36576">
        <ele>453.88</ele>
        <time>2020-07-12T17:10:34Z</time>
      </trkpt>
      <trkpt lat="46.00469" lon="4.36581">
        <ele>453.88</ele>
        <time>2020-07-12T17:10:38Z</time>
      </trkpt>
      <trkpt lat="46.00483" lon="4.36585">
        <ele>452.92</ele>
        <time>2020-07-12T17:10:49Z</time>
      </trkpt>
      <trkpt lat="46.00507" lon="4.36589">
        <ele>452.44</ele>
        <time>2020-07-12T17:11:07Z</time>
      </trkpt>
      <trkpt lat="46.00521" lon="4.36591">
        <ele>452.44</ele>
        <time>2020-07-12T17:11:21Z</time>
      </trkpt>
      <trkpt lat="46.00546" lon="4.36588">
        <ele>451.96</ele>
        <time>2020-07-12T17:11:40Z</time>
      </trkpt>
      <trkpt lat="46.00557" lon="4.36582">
        <ele>451.48</ele>
        <time>2020-07-12T17:11:51Z</time>
      </trkpt>
      <trkpt lat="46.00559" lon="4.3658">
        <ele>451.48</ele>
        <time>2020-07-12T17:12:00Z</time>
      </trkpt>
      <trkpt lat="46.00558" lon="4.36578">
        <ele>451.48</ele>
        <time>2020-07-12T17:12:24Z</time>
      </trkpt>
      <trkpt lat="46.0056" lon="4.36581">
        <ele>451.48</ele>
        <time>2020-07-12T17:12:46Z</time>
      </trkpt>
      <trkpt lat="46.00558" lon="4.36578">
        <ele>451.48</ele>
        <time>2020-07-12T17:13:11Z</time>
      </trkpt>
      <trkpt lat="46.00562" lon="4.36575">
        <ele>451.48</ele>
        <time>2020-07-12T17:13:23Z</time>
      </trkpt>
      <trkpt lat="46.00567" lon="4.36569">
        <ele>451.48</ele>
        <time>2020-07-12T17:13:43Z</time>
      </trkpt>
      <trkpt lat="46.00564" lon="4.36581">
        <ele>451.48</ele>
        <time>2020-07-12T17:14:01Z</time>
      </trkpt>
      <trkpt lat="46.00557" lon="4.36578">
        <ele>451</ele>
        <time>2020-07-12T17:14:16Z</time>
      </trkpt>
      <trkpt lat="46.00556" lon="4.36575">
        <ele>451</ele>
        <time>2020-07-12T17:14:40Z</time>
      </trkpt>
      <trkpt lat="46.00556" lon="4.36577">
        <ele>451</ele>
        <time>2020-07-12T17:14:59Z</time>
      </trkpt>
      <trkpt lat="46.00554" lon="4.36577">
        <ele>451</ele>
        <time>2020-07-12T17:15:28Z</time>
      </trkpt>
      <trkpt lat="46.00556" lon="4.36579">
        <ele>451.96</ele>
        <time>2020-07-12T17:15:55Z</time>
      </trkpt>
      <trkpt lat="46.00555" lon="4.3658">
        <ele>451.48</ele>
        <time>2020-07-12T17:16:35Z</time>
      </trkpt>
      <trkpt lat="46.00554" lon="4.3658">
        <ele>451.48</ele>
        <time>2020-07-12T17:17:15Z</time>
      </trkpt>
      <trkpt lat="46.00556" lon="4.36577">
        <ele>451.48</ele>
        <time>2020-07-12T17:17:55Z</time>
      </trkpt>
      <trkpt lat="46.00554" lon="4.36579">
        <ele>451.96</ele>
        <time>2020-07-12T17:18:38Z</time>
      </trkpt>
      <trkpt lat="46.00556" lon="4.36576">
        <ele>450.52</ele>
        <time>2020-07-12T17:19:08Z</time>
      </trkpt>
      <trkpt lat="46.00555" lon="4.36577">
        <ele>451</ele>
        <time>2020-07-12T17:19:41Z</time>
      </trkpt>
      <trkpt lat="46.00555" lon="4.36579">
        <ele>450.52</ele>
        <time>2020-07-12T17:20:24Z</time>
      </trkpt>
      <trkpt lat="46.00556" lon="4.36579">
        <ele>451.96</ele>
        <time>2020-07-12T17:20:27Z</time>
      </trkpt>
      <trkpt lat="46.00555" lon="4.36577">
        <ele>451.96</ele>
        <time>2020-07-12T17:21:15Z</time>
      </trkpt>
      <trkpt lat="46.00555" lon="4.3658">
        <ele>450.52</ele>
        <time>2020-07-12T17:21:43Z</time>
      </trkpt>
      <trkpt lat="46.00553" lon="4.36577">
        <ele>451</ele>
        <time>2020-07-12T17:22:27Z</time>
      </trkpt>
      <trkpt lat="46.00554" lon="4.36573">
        <ele>451</ele>
        <time>2020-07-12T17:23:06Z</time>
      </trkpt>
      <trkpt lat="46.00558" lon="4.36579">
        <ele>451.48</ele>
        <time>2020-07-12T17:23:30Z</time>
      </trkpt>
      <trkpt lat="46.00559" lon="4.36582">
        <ele>451.48</ele>
        <time>2020-07-12T17:23:59Z</time>
      </trkpt>
    </trkseg>
  </trk>
</gpx>